<?xml version="1.0" encoding="UTF-8" standalone="no" ?>
<gpx xmlns="http://www.topografix.com/GPX/1/1" xmlns:xsi="http://www.w3.org/2001/XMLSchema-instance" xsi:schemaLocation="http://www.topografix.com/GPX/1/1 http://www.topografix.com/GPX/1/1/gpx.xsd" version="1.1" creator="VisuGPX - https://www.visugpx.com">
  <metadata>
    <name>13827118-TDLF_2022 v2</name>
  </metadata>
  <trk>
    <name><![CDATA[13827118-TDLF_2022]]></name>
    <trkseg>
      <trkpt lat="45.46001" lon="4.38858">
        <ele>490</ele>
        <time>2022-05-01T04:08:49Z</time>
      </trkpt>
      <trkpt lat="45.46068" lon="4.38836">
        <ele>488</ele>
        <time>2022-05-01T04:09:01Z</time>
      </trkpt>
      <trkpt lat="45.46109" lon="4.38837">
        <ele>487</ele>
        <time>2022-05-01T04:09:09Z</time>
      </trkpt>
      <trkpt lat="45.46132" lon="4.38847">
        <ele>488</ele>
        <time>2022-05-01T04:09:13Z</time>
      </trkpt>
      <trkpt lat="45.46156" lon="4.38864">
        <ele>488</ele>
        <time>2022-05-01T04:09:18Z</time>
      </trkpt>
      <trkpt lat="45.46171" lon="4.3888">
        <ele>488</ele>
        <time>2022-05-01T04:09:21Z</time>
      </trkpt>
      <trkpt lat="45.46209" lon="4.38934">
        <ele>488</ele>
        <time>2022-05-01T04:09:30Z</time>
      </trkpt>
      <trkpt lat="45.46222" lon="4.38944">
        <ele>487</ele>
        <time>2022-05-01T04:09:33Z</time>
      </trkpt>
      <trkpt lat="45.46257" lon="4.38951">
        <ele>487</ele>
        <time>2022-05-01T04:09:39Z</time>
      </trkpt>
      <trkpt lat="45.46485" lon="4.3896">
        <ele>485</ele>
        <time>2022-05-01T04:10:20Z</time>
      </trkpt>
      <trkpt lat="45.46503" lon="4.38958">
        <ele>485</ele>
        <time>2022-05-01T04:10:23Z</time>
      </trkpt>
      <trkpt lat="45.46564" lon="4.38932">
        <ele>484</ele>
        <time>2022-05-01T04:10:34Z</time>
      </trkpt>
      <trkpt lat="45.46591" lon="4.38909">
        <ele>483</ele>
        <time>2022-05-01T04:10:40Z</time>
      </trkpt>
      <trkpt lat="45.46625" lon="4.38867">
        <ele>482</ele>
        <time>2022-05-01T04:10:48Z</time>
      </trkpt>
      <trkpt lat="45.46633" lon="4.38874">
        <ele>482</ele>
        <time>2022-05-01T04:10:50Z</time>
      </trkpt>
      <trkpt lat="45.46642" lon="4.38873">
        <ele>482</ele>
        <time>2022-05-01T04:10:51Z</time>
      </trkpt>
      <trkpt lat="45.46649" lon="4.38865">
        <ele>482</ele>
        <time>2022-05-01T04:10:53Z</time>
      </trkpt>
      <trkpt lat="45.4665" lon="4.38847">
        <ele>482</ele>
        <time>2022-05-01T04:10:55Z</time>
      </trkpt>
      <trkpt lat="45.46666" lon="4.38844">
        <ele>482</ele>
        <time>2022-05-01T04:10:58Z</time>
      </trkpt>
      <trkpt lat="45.47302" lon="4.38756">
        <ele>471</ele>
        <time>2022-05-01T04:12:52Z</time>
      </trkpt>
      <trkpt lat="45.47343" lon="4.3876">
        <ele>470</ele>
        <time>2022-05-01T04:12:59Z</time>
      </trkpt>
      <trkpt lat="45.47369" lon="4.38777">
        <ele>471</ele>
        <time>2022-05-01T04:13:04Z</time>
      </trkpt>
      <trkpt lat="45.47391" lon="4.38802">
        <ele>472</ele>
        <time>2022-05-01T04:13:09Z</time>
      </trkpt>
      <trkpt lat="45.47409" lon="4.3881">
        <ele>472</ele>
        <time>2022-05-01T04:13:13Z</time>
      </trkpt>
      <trkpt lat="45.47412" lon="4.38815">
        <ele>472</ele>
        <time>2022-05-01T04:13:13Z</time>
      </trkpt>
      <trkpt lat="45.47462" lon="4.38819">
        <ele>472</ele>
        <time>2022-05-01T04:13:22Z</time>
      </trkpt>
      <trkpt lat="45.47518" lon="4.38836">
        <ele>473</ele>
        <time>2022-05-01T04:13:32Z</time>
      </trkpt>
      <trkpt lat="45.47552" lon="4.38828">
        <ele>473</ele>
        <time>2022-05-01T04:13:39Z</time>
      </trkpt>
      <trkpt lat="45.476" lon="4.38809">
        <ele>471</ele>
        <time>2022-05-01T04:13:47Z</time>
      </trkpt>
      <trkpt lat="45.47624" lon="4.38808">
        <ele>472</ele>
        <time>2022-05-01T04:13:52Z</time>
      </trkpt>
      <trkpt lat="45.4768" lon="4.38813">
        <ele>475</ele>
        <time>2022-05-01T04:14:02Z</time>
      </trkpt>
      <trkpt lat="45.47706" lon="4.38812">
        <ele>478</ele>
        <time>2022-05-01T04:14:06Z</time>
      </trkpt>
      <trkpt lat="45.47757" lon="4.38789">
        <ele>479</ele>
        <time>2022-05-01T04:14:16Z</time>
      </trkpt>
      <trkpt lat="45.47849" lon="4.38759">
        <ele>476</ele>
        <time>2022-05-01T04:14:33Z</time>
      </trkpt>
      <trkpt lat="45.47925" lon="4.38718">
        <ele>475</ele>
        <time>2022-05-01T04:14:47Z</time>
      </trkpt>
      <trkpt lat="45.47972" lon="4.38688">
        <ele>471</ele>
        <time>2022-05-01T04:14:56Z</time>
      </trkpt>
      <trkpt lat="45.48002" lon="4.38686">
        <ele>472</ele>
        <time>2022-05-01T04:15:02Z</time>
      </trkpt>
      <trkpt lat="45.48103" lon="4.38715">
        <ele>465</ele>
        <time>2022-05-01T04:15:20Z</time>
      </trkpt>
      <trkpt lat="45.48133" lon="4.38721">
        <ele>464</ele>
        <time>2022-05-01T04:15:25Z</time>
      </trkpt>
      <trkpt lat="45.48148" lon="4.38714">
        <ele>463</ele>
        <time>2022-05-01T04:15:28Z</time>
      </trkpt>
      <trkpt lat="45.48154" lon="4.38708">
        <ele>462</ele>
        <time>2022-05-01T04:15:29Z</time>
      </trkpt>
      <trkpt lat="45.48169" lon="4.38773">
        <ele>462</ele>
        <time>2022-05-01T04:15:38Z</time>
      </trkpt>
      <trkpt lat="45.48187" lon="4.38835">
        <ele>460</ele>
        <time>2022-05-01T04:15:46Z</time>
      </trkpt>
      <trkpt lat="45.48213" lon="4.3889">
        <ele>466</ele>
        <time>2022-05-01T04:15:55Z</time>
      </trkpt>
      <trkpt lat="45.48223" lon="4.38897">
        <ele>468</ele>
        <time>2022-05-01T04:15:57Z</time>
      </trkpt>
      <trkpt lat="45.48237" lon="4.38865">
        <ele>466</ele>
        <time>2022-05-01T04:16:01Z</time>
      </trkpt>
      <trkpt lat="45.48269" lon="4.38775">
        <ele>465</ele>
        <time>2022-05-01T04:16:14Z</time>
      </trkpt>
      <trkpt lat="45.483" lon="4.38722">
        <ele>468</ele>
        <time>2022-05-01T04:16:23Z</time>
      </trkpt>
      <trkpt lat="45.48374" lon="4.38611">
        <ele>467</ele>
        <time>2022-05-01T04:16:42Z</time>
      </trkpt>
      <trkpt lat="45.48394" lon="4.38575">
        <ele>465</ele>
        <time>2022-05-01T04:16:47Z</time>
      </trkpt>
      <trkpt lat="45.48412" lon="4.38516">
        <ele>464</ele>
        <time>2022-05-01T04:16:55Z</time>
      </trkpt>
      <trkpt lat="45.48438" lon="4.38452">
        <ele>466</ele>
        <time>2022-05-01T04:17:05Z</time>
      </trkpt>
      <trkpt lat="45.48516" lon="4.3828">
        <ele>460</ele>
        <time>2022-05-01T04:17:30Z</time>
      </trkpt>
      <trkpt lat="45.48547" lon="4.3819">
        <ele>460</ele>
        <time>2022-05-01T04:17:43Z</time>
      </trkpt>
      <trkpt lat="45.48587" lon="4.38017">
        <ele>458</ele>
        <time>2022-05-01T04:18:05Z</time>
      </trkpt>
      <trkpt lat="45.48588" lon="4.37985">
        <ele>459</ele>
        <time>2022-05-01T04:18:09Z</time>
      </trkpt>
      <trkpt lat="45.48579" lon="4.37948">
        <ele>458</ele>
        <time>2022-05-01T04:18:14Z</time>
      </trkpt>
      <trkpt lat="45.48566" lon="4.37872">
        <ele>457</ele>
        <time>2022-05-01T04:18:24Z</time>
      </trkpt>
      <trkpt lat="45.48587" lon="4.37429">
        <ele>451</ele>
        <time>2022-05-01T04:19:19Z</time>
      </trkpt>
      <trkpt lat="45.48589" lon="4.37335">
        <ele>453</ele>
        <time>2022-05-01T04:19:31Z</time>
      </trkpt>
      <trkpt lat="45.48585" lon="4.37285">
        <ele>453</ele>
        <time>2022-05-01T04:19:37Z</time>
      </trkpt>
      <trkpt lat="45.48576" lon="4.37238">
        <ele>452</ele>
        <time>2022-05-01T04:19:44Z</time>
      </trkpt>
      <trkpt lat="45.48563" lon="4.37195">
        <ele>452</ele>
        <time>2022-05-01T04:19:49Z</time>
      </trkpt>
      <trkpt lat="45.48516" lon="4.37059">
        <ele>456</ele>
        <time>2022-05-01T04:20:08Z</time>
      </trkpt>
      <trkpt lat="45.48503" lon="4.36992">
        <ele>457</ele>
        <time>2022-05-01T04:20:17Z</time>
      </trkpt>
      <trkpt lat="45.48493" lon="4.36914">
        <ele>456</ele>
        <time>2022-05-01T04:20:27Z</time>
      </trkpt>
      <trkpt lat="45.48468" lon="4.36564">
        <ele>453</ele>
        <time>2022-05-01T04:21:11Z</time>
      </trkpt>
      <trkpt lat="45.48459" lon="4.36497">
        <ele>450</ele>
        <time>2022-05-01T04:21:19Z</time>
      </trkpt>
      <trkpt lat="45.48436" lon="4.3638">
        <ele>451</ele>
        <time>2022-05-01T04:21:34Z</time>
      </trkpt>
      <trkpt lat="45.48412" lon="4.36209">
        <ele>455</ele>
        <time>2022-05-01T04:21:56Z</time>
      </trkpt>
      <trkpt lat="45.4838" lon="4.36074">
        <ele>455</ele>
        <time>2022-05-01T04:22:14Z</time>
      </trkpt>
      <trkpt lat="45.48292" lon="4.35784">
        <ele>451</ele>
        <time>2022-05-01T04:22:53Z</time>
      </trkpt>
      <trkpt lat="45.48278" lon="4.35719">
        <ele>448</ele>
        <time>2022-05-01T04:23:02Z</time>
      </trkpt>
      <trkpt lat="45.48266" lon="4.35607">
        <ele>447</ele>
        <time>2022-05-01T04:23:16Z</time>
      </trkpt>
      <trkpt lat="45.48251" lon="4.35498">
        <ele>449</ele>
        <time>2022-05-01T04:23:30Z</time>
      </trkpt>
      <trkpt lat="45.4821" lon="4.3538">
        <ele>448</ele>
        <time>2022-05-01T04:23:46Z</time>
      </trkpt>
      <trkpt lat="45.48193" lon="4.35288">
        <ele>446</ele>
        <time>2022-05-01T04:23:58Z</time>
      </trkpt>
      <trkpt lat="45.48188" lon="4.35242">
        <ele>445</ele>
        <time>2022-05-01T04:24:04Z</time>
      </trkpt>
      <trkpt lat="45.48189" lon="4.35148">
        <ele>442</ele>
        <time>2022-05-01T04:24:16Z</time>
      </trkpt>
      <trkpt lat="45.48204" lon="4.35066">
        <ele>442</ele>
        <time>2022-05-01T04:24:26Z</time>
      </trkpt>
      <trkpt lat="45.4822" lon="4.3501">
        <ele>442</ele>
        <time>2022-05-01T04:24:34Z</time>
      </trkpt>
      <trkpt lat="45.48218" lon="4.34995">
        <ele>442</ele>
        <time>2022-05-01T04:24:36Z</time>
      </trkpt>
      <trkpt lat="45.48214" lon="4.34989">
        <ele>442</ele>
        <time>2022-05-01T04:24:37Z</time>
      </trkpt>
      <trkpt lat="45.48318" lon="4.34786">
        <ele>445</ele>
        <time>2022-05-01T04:25:08Z</time>
      </trkpt>
      <trkpt lat="45.48361" lon="4.34687">
        <ele>445</ele>
        <time>2022-05-01T04:25:23Z</time>
      </trkpt>
      <trkpt lat="45.48404" lon="4.34537">
        <ele>447</ele>
        <time>2022-05-01T04:25:43Z</time>
      </trkpt>
      <trkpt lat="45.48459" lon="4.34329">
        <ele>448</ele>
        <time>2022-05-01T04:26:11Z</time>
      </trkpt>
      <trkpt lat="45.48466" lon="4.34276">
        <ele>449</ele>
        <time>2022-05-01T04:26:17Z</time>
      </trkpt>
      <trkpt lat="45.4847" lon="4.34206">
        <ele>452</ele>
        <time>2022-05-01T04:26:26Z</time>
      </trkpt>
      <trkpt lat="45.48453" lon="4.33981">
        <ele>449</ele>
        <time>2022-05-01T04:26:54Z</time>
      </trkpt>
      <trkpt lat="45.48455" lon="4.33912">
        <ele>453</ele>
        <time>2022-05-01T04:27:03Z</time>
      </trkpt>
      <trkpt lat="45.48462" lon="4.33867">
        <ele>453</ele>
        <time>2022-05-01T04:27:09Z</time>
      </trkpt>
      <trkpt lat="45.48488" lon="4.33761">
        <ele>453</ele>
        <time>2022-05-01T04:27:23Z</time>
      </trkpt>
      <trkpt lat="45.48528" lon="4.33625">
        <ele>449</ele>
        <time>2022-05-01T04:27:41Z</time>
      </trkpt>
      <trkpt lat="45.48545" lon="4.33584">
        <ele>450</ele>
        <time>2022-05-01T04:27:47Z</time>
      </trkpt>
      <trkpt lat="45.48579" lon="4.33515">
        <ele>447</ele>
        <time>2022-05-01T04:27:57Z</time>
      </trkpt>
      <trkpt lat="45.48685" lon="4.33341">
        <ele>442</ele>
        <time>2022-05-01T04:28:26Z</time>
      </trkpt>
      <trkpt lat="45.48717" lon="4.33278">
        <ele>440</ele>
        <time>2022-05-01T04:28:36Z</time>
      </trkpt>
      <trkpt lat="45.4882" lon="4.33061">
        <ele>434</ele>
        <time>2022-05-01T04:29:09Z</time>
      </trkpt>
      <trkpt lat="45.48967" lon="4.3273">
        <ele>432</ele>
        <time>2022-05-01T04:29:58Z</time>
      </trkpt>
      <trkpt lat="45.49006" lon="4.32648">
        <ele>430</ele>
        <time>2022-05-01T04:30:10Z</time>
      </trkpt>
      <trkpt lat="45.49064" lon="4.3254">
        <ele>430</ele>
        <time>2022-05-01T04:30:27Z</time>
      </trkpt>
      <trkpt lat="45.49106" lon="4.32472">
        <ele>425</ele>
        <time>2022-05-01T04:30:38Z</time>
      </trkpt>
      <trkpt lat="45.49115" lon="4.32481">
        <ele>428</ele>
        <time>2022-05-01T04:30:40Z</time>
      </trkpt>
      <trkpt lat="45.49129" lon="4.32482">
        <ele>430</ele>
        <time>2022-05-01T04:30:43Z</time>
      </trkpt>
      <trkpt lat="45.49146" lon="4.32479">
        <ele>433</ele>
        <time>2022-05-01T04:30:46Z</time>
      </trkpt>
      <trkpt lat="45.4916" lon="4.3247">
        <ele>433</ele>
        <time>2022-05-01T04:30:48Z</time>
      </trkpt>
      <trkpt lat="45.49195" lon="4.32436">
        <ele>433</ele>
        <time>2022-05-01T04:30:56Z</time>
      </trkpt>
      <trkpt lat="45.49223" lon="4.32419">
        <ele>433</ele>
        <time>2022-05-01T04:31:01Z</time>
      </trkpt>
      <trkpt lat="45.49297" lon="4.32386">
        <ele>433</ele>
        <time>2022-05-01T04:31:15Z</time>
      </trkpt>
      <trkpt lat="45.49366" lon="4.32333">
        <ele>429</ele>
        <time>2022-05-01T04:31:29Z</time>
      </trkpt>
      <trkpt lat="45.49444" lon="4.32252">
        <ele>426</ele>
        <time>2022-05-01T04:31:46Z</time>
      </trkpt>
      <trkpt lat="45.49486" lon="4.32199">
        <ele>425</ele>
        <time>2022-05-01T04:31:56Z</time>
      </trkpt>
      <trkpt lat="45.49534" lon="4.32132">
        <ele>426</ele>
        <time>2022-05-01T04:32:08Z</time>
      </trkpt>
      <trkpt lat="45.49571" lon="4.3206">
        <ele>422</ele>
        <time>2022-05-01T04:32:19Z</time>
      </trkpt>
      <trkpt lat="45.49599" lon="4.32021">
        <ele>420</ele>
        <time>2022-05-01T04:32:26Z</time>
      </trkpt>
      <trkpt lat="45.49616" lon="4.32008">
        <ele>419</ele>
        <time>2022-05-01T04:32:30Z</time>
      </trkpt>
      <trkpt lat="45.49635" lon="4.32005">
        <ele>420</ele>
        <time>2022-05-01T04:32:33Z</time>
      </trkpt>
      <trkpt lat="45.49674" lon="4.3201">
        <ele>422</ele>
        <time>2022-05-01T04:32:40Z</time>
      </trkpt>
      <trkpt lat="45.49724" lon="4.32008">
        <ele>421</ele>
        <time>2022-05-01T04:32:49Z</time>
      </trkpt>
      <trkpt lat="45.49781" lon="4.31998">
        <ele>421</ele>
        <time>2022-05-01T04:32:59Z</time>
      </trkpt>
      <trkpt lat="45.49828" lon="4.31973">
        <ele>421</ele>
        <time>2022-05-01T04:33:08Z</time>
      </trkpt>
      <trkpt lat="45.49854" lon="4.31947">
        <ele>418</ele>
        <time>2022-05-01T04:33:14Z</time>
      </trkpt>
      <trkpt lat="45.49889" lon="4.31903">
        <ele>415</ele>
        <time>2022-05-01T04:33:22Z</time>
      </trkpt>
      <trkpt lat="45.49914" lon="4.31881">
        <ele>413</ele>
        <time>2022-05-01T04:33:27Z</time>
      </trkpt>
      <trkpt lat="45.49927" lon="4.31876">
        <ele>412</ele>
        <time>2022-05-01T04:33:30Z</time>
      </trkpt>
      <trkpt lat="45.4994" lon="4.31876">
        <ele>412</ele>
        <time>2022-05-01T04:33:32Z</time>
      </trkpt>
      <trkpt lat="45.49995" lon="4.3192">
        <ele>413</ele>
        <time>2022-05-01T04:33:43Z</time>
      </trkpt>
      <trkpt lat="45.50019" lon="4.31935">
        <ele>414</ele>
        <time>2022-05-01T04:33:48Z</time>
      </trkpt>
      <trkpt lat="45.50039" lon="4.31936">
        <ele>415</ele>
        <time>2022-05-01T04:33:51Z</time>
      </trkpt>
      <trkpt lat="45.50052" lon="4.31933">
        <ele>416</ele>
        <time>2022-05-01T04:33:54Z</time>
      </trkpt>
      <trkpt lat="45.50079" lon="4.31911">
        <ele>417</ele>
        <time>2022-05-01T04:33:59Z</time>
      </trkpt>
      <trkpt lat="45.50085" lon="4.31901">
        <ele>417</ele>
        <time>2022-05-01T04:34:01Z</time>
      </trkpt>
      <trkpt lat="45.50088" lon="4.31886">
        <ele>418</ele>
        <time>2022-05-01T04:34:03Z</time>
      </trkpt>
      <trkpt lat="45.50089" lon="4.318">
        <ele>420</ele>
        <time>2022-05-01T04:34:14Z</time>
      </trkpt>
      <trkpt lat="45.50103" lon="4.31727">
        <ele>424</ele>
        <time>2022-05-01T04:34:23Z</time>
      </trkpt>
      <trkpt lat="45.50121" lon="4.31671">
        <ele>426</ele>
        <time>2022-05-01T04:34:31Z</time>
      </trkpt>
      <trkpt lat="45.50138" lon="4.31652">
        <ele>427</ele>
        <time>2022-05-01T04:34:35Z</time>
      </trkpt>
      <trkpt lat="45.50212" lon="4.31866">
        <ele>440</ele>
        <time>2022-05-01T04:35:04Z</time>
      </trkpt>
      <trkpt lat="45.50219" lon="4.31881">
        <ele>441</ele>
        <time>2022-05-01T04:35:07Z</time>
      </trkpt>
      <trkpt lat="45.50227" lon="4.31891">
        <ele>441</ele>
        <time>2022-05-01T04:35:08Z</time>
      </trkpt>
      <trkpt lat="45.50248" lon="4.31906">
        <ele>444</ele>
        <time>2022-05-01T04:35:13Z</time>
      </trkpt>
      <trkpt lat="45.5037" lon="4.31974">
        <ele>451</ele>
        <time>2022-05-01T04:35:36Z</time>
      </trkpt>
      <trkpt lat="45.50394" lon="4.31982">
        <ele>451</ele>
        <time>2022-05-01T04:35:40Z</time>
      </trkpt>
      <trkpt lat="45.50471" lon="4.31983">
        <ele>457</ele>
        <time>2022-05-01T04:35:54Z</time>
      </trkpt>
      <trkpt lat="45.50524" lon="4.31978">
        <ele>462</ele>
        <time>2022-05-01T04:36:04Z</time>
      </trkpt>
      <trkpt lat="45.50539" lon="4.31978">
        <ele>463</ele>
        <time>2022-05-01T04:36:06Z</time>
      </trkpt>
      <trkpt lat="45.50549" lon="4.31981">
        <ele>463</ele>
        <time>2022-05-01T04:36:08Z</time>
      </trkpt>
      <trkpt lat="45.50659" lon="4.32057">
        <ele>466</ele>
        <time>2022-05-01T04:36:30Z</time>
      </trkpt>
      <trkpt lat="45.50751" lon="4.32103">
        <ele>472</ele>
        <time>2022-05-01T04:36:47Z</time>
      </trkpt>
      <trkpt lat="45.50773" lon="4.32119">
        <ele>473</ele>
        <time>2022-05-01T04:36:51Z</time>
      </trkpt>
      <trkpt lat="45.50782" lon="4.32128">
        <ele>474</ele>
        <time>2022-05-01T04:36:53Z</time>
      </trkpt>
      <trkpt lat="45.50783" lon="4.32149">
        <ele>474</ele>
        <time>2022-05-01T04:36:56Z</time>
      </trkpt>
      <trkpt lat="45.5079" lon="4.32159">
        <ele>475</ele>
        <time>2022-05-01T04:36:58Z</time>
      </trkpt>
      <trkpt lat="45.50801" lon="4.32159">
        <ele>475</ele>
        <time>2022-05-01T04:37:00Z</time>
      </trkpt>
      <trkpt lat="45.50808" lon="4.32152">
        <ele>476</ele>
        <time>2022-05-01T04:37:01Z</time>
      </trkpt>
      <trkpt lat="45.50811" lon="4.3214">
        <ele>476</ele>
        <time>2022-05-01T04:37:03Z</time>
      </trkpt>
      <trkpt lat="45.50849" lon="4.3213">
        <ele>478</ele>
        <time>2022-05-01T04:37:10Z</time>
      </trkpt>
      <trkpt lat="45.50902" lon="4.3211">
        <ele>480</ele>
        <time>2022-05-01T04:37:20Z</time>
      </trkpt>
      <trkpt lat="45.50948" lon="4.32069">
        <ele>481</ele>
        <time>2022-05-01T04:37:29Z</time>
      </trkpt>
      <trkpt lat="45.50985" lon="4.32013">
        <ele>485</ele>
        <time>2022-05-01T04:37:39Z</time>
      </trkpt>
      <trkpt lat="45.50994" lon="4.32005">
        <ele>486</ele>
        <time>2022-05-01T04:37:41Z</time>
      </trkpt>
      <trkpt lat="45.51056" lon="4.32013">
        <ele>482</ele>
        <time>2022-05-01T04:37:52Z</time>
      </trkpt>
      <trkpt lat="45.51091" lon="4.32009">
        <ele>480</ele>
        <time>2022-05-01T04:37:58Z</time>
      </trkpt>
      <trkpt lat="45.51126" lon="4.32001">
        <ele>477</ele>
        <time>2022-05-01T04:38:04Z</time>
      </trkpt>
      <trkpt lat="45.5117" lon="4.31984">
        <ele>474</ele>
        <time>2022-05-01T04:38:12Z</time>
      </trkpt>
      <trkpt lat="45.51197" lon="4.31963">
        <ele>472</ele>
        <time>2022-05-01T04:38:18Z</time>
      </trkpt>
      <trkpt lat="45.51243" lon="4.31946">
        <ele>469</ele>
        <time>2022-05-01T04:38:26Z</time>
      </trkpt>
      <trkpt lat="45.51265" lon="4.31946">
        <ele>466</ele>
        <time>2022-05-01T04:38:30Z</time>
      </trkpt>
      <trkpt lat="45.51287" lon="4.3195">
        <ele>464</ele>
        <time>2022-05-01T04:38:34Z</time>
      </trkpt>
      <trkpt lat="45.51301" lon="4.31947">
        <ele>463</ele>
        <time>2022-05-01T04:38:37Z</time>
      </trkpt>
      <trkpt lat="45.51325" lon="4.31926">
        <ele>461</ele>
        <time>2022-05-01T04:38:42Z</time>
      </trkpt>
      <trkpt lat="45.51338" lon="4.31906">
        <ele>460</ele>
        <time>2022-05-01T04:38:45Z</time>
      </trkpt>
      <trkpt lat="45.51361" lon="4.3186">
        <ele>457</ele>
        <time>2022-05-01T04:38:52Z</time>
      </trkpt>
      <trkpt lat="45.51378" lon="4.31846">
        <ele>456</ele>
        <time>2022-05-01T04:38:56Z</time>
      </trkpt>
      <trkpt lat="45.51503" lon="4.31821">
        <ele>448</ele>
        <time>2022-05-01T04:39:18Z</time>
      </trkpt>
      <trkpt lat="45.51535" lon="4.31842">
        <ele>446</ele>
        <time>2022-05-01T04:39:24Z</time>
      </trkpt>
      <trkpt lat="45.51564" lon="4.31856">
        <ele>445</ele>
        <time>2022-05-01T04:39:30Z</time>
      </trkpt>
      <trkpt lat="45.51592" lon="4.31859">
        <ele>445</ele>
        <time>2022-05-01T04:39:35Z</time>
      </trkpt>
      <trkpt lat="45.51627" lon="4.31853">
        <ele>444</ele>
        <time>2022-05-01T04:39:41Z</time>
      </trkpt>
      <trkpt lat="45.51665" lon="4.31833">
        <ele>443</ele>
        <time>2022-05-01T04:39:48Z</time>
      </trkpt>
      <trkpt lat="45.51708" lon="4.31806">
        <ele>441</ele>
        <time>2022-05-01T04:39:57Z</time>
      </trkpt>
      <trkpt lat="45.51741" lon="4.3179">
        <ele>440</ele>
        <time>2022-05-01T04:40:03Z</time>
      </trkpt>
      <trkpt lat="45.51775" lon="4.31784">
        <ele>439</ele>
        <time>2022-05-01T04:40:09Z</time>
      </trkpt>
      <trkpt lat="45.51812" lon="4.31793">
        <ele>439</ele>
        <time>2022-05-01T04:40:16Z</time>
      </trkpt>
      <trkpt lat="45.51903" lon="4.31832">
        <ele>437</ele>
        <time>2022-05-01T04:40:33Z</time>
      </trkpt>
      <trkpt lat="45.5193" lon="4.31837">
        <ele>437</ele>
        <time>2022-05-01T04:40:37Z</time>
      </trkpt>
      <trkpt lat="45.51957" lon="4.31834">
        <ele>436</ele>
        <time>2022-05-01T04:40:42Z</time>
      </trkpt>
      <trkpt lat="45.5216" lon="4.31765">
        <ele>427</ele>
        <time>2022-05-01T04:41:19Z</time>
      </trkpt>
      <trkpt lat="45.52203" lon="4.31766">
        <ele>426</ele>
        <time>2022-05-01T04:41:27Z</time>
      </trkpt>
      <trkpt lat="45.52245" lon="4.31776">
        <ele>426</ele>
        <time>2022-05-01T04:41:35Z</time>
      </trkpt>
      <trkpt lat="45.52308" lon="4.31833">
        <ele>428</ele>
        <time>2022-05-01T04:41:48Z</time>
      </trkpt>
      <trkpt lat="45.52385" lon="4.31886">
        <ele>427</ele>
        <time>2022-05-01T04:42:03Z</time>
      </trkpt>
      <trkpt lat="45.52489" lon="4.31945">
        <ele>426</ele>
        <time>2022-05-01T04:42:23Z</time>
      </trkpt>
      <trkpt lat="45.52582" lon="4.31975">
        <ele>426</ele>
        <time>2022-05-01T04:42:40Z</time>
      </trkpt>
      <trkpt lat="45.52658" lon="4.3199">
        <ele>428</ele>
        <time>2022-05-01T04:42:54Z</time>
      </trkpt>
      <trkpt lat="45.52749" lon="4.31998">
        <ele>426</ele>
        <time>2022-05-01T04:43:10Z</time>
      </trkpt>
      <trkpt lat="45.52858" lon="4.3199">
        <ele>422</ele>
        <time>2022-05-01T04:43:29Z</time>
      </trkpt>
      <trkpt lat="45.53155" lon="4.31979">
        <ele>418</ele>
        <time>2022-05-01T04:44:22Z</time>
      </trkpt>
      <trkpt lat="45.53185" lon="4.31967">
        <ele>417</ele>
        <time>2022-05-01T04:44:28Z</time>
      </trkpt>
      <trkpt lat="45.53248" lon="4.31971">
        <ele>416</ele>
        <time>2022-05-01T04:44:39Z</time>
      </trkpt>
      <trkpt lat="45.53284" lon="4.31985">
        <ele>416</ele>
        <time>2022-05-01T04:44:45Z</time>
      </trkpt>
      <trkpt lat="45.53319" lon="4.31995">
        <ele>416</ele>
        <time>2022-05-01T04:44:52Z</time>
      </trkpt>
      <trkpt lat="45.53367" lon="4.31982">
        <ele>415</ele>
        <time>2022-05-01T04:45:01Z</time>
      </trkpt>
      <trkpt lat="45.53401" lon="4.31965">
        <ele>413</ele>
        <time>2022-05-01T04:45:07Z</time>
      </trkpt>
      <trkpt lat="45.5344" lon="4.31923">
        <ele>411</ele>
        <time>2022-05-01T04:45:16Z</time>
      </trkpt>
      <trkpt lat="45.53487" lon="4.31885">
        <ele>410</ele>
        <time>2022-05-01T04:45:25Z</time>
      </trkpt>
      <trkpt lat="45.53513" lon="4.31871">
        <ele>409</ele>
        <time>2022-05-01T04:45:30Z</time>
      </trkpt>
      <trkpt lat="45.53526" lon="4.31875">
        <ele>410</ele>
        <time>2022-05-01T04:45:33Z</time>
      </trkpt>
      <trkpt lat="45.53562" lon="4.31919">
        <ele>412</ele>
        <time>2022-05-01T04:45:41Z</time>
      </trkpt>
      <trkpt lat="45.53708" lon="4.3206">
        <ele>416</ele>
        <time>2022-05-01T04:46:12Z</time>
      </trkpt>
      <trkpt lat="45.53781" lon="4.32108">
        <ele>416</ele>
        <time>2022-05-01T04:46:27Z</time>
      </trkpt>
      <trkpt lat="45.53801" lon="4.32129">
        <ele>416</ele>
        <time>2022-05-01T04:46:31Z</time>
      </trkpt>
      <trkpt lat="45.53819" lon="4.32138">
        <ele>415</ele>
        <time>2022-05-01T04:46:34Z</time>
      </trkpt>
      <trkpt lat="45.53851" lon="4.32132">
        <ele>415</ele>
        <time>2022-05-01T04:46:40Z</time>
      </trkpt>
      <trkpt lat="45.53889" lon="4.32118">
        <ele>415</ele>
        <time>2022-05-01T04:46:47Z</time>
      </trkpt>
      <trkpt lat="45.53895" lon="4.32125">
        <ele>416</ele>
        <time>2022-05-01T04:46:49Z</time>
      </trkpt>
      <trkpt lat="45.53903" lon="4.32127">
        <ele>416</ele>
        <time>2022-05-01T04:46:50Z</time>
      </trkpt>
      <trkpt lat="45.53913" lon="4.32119">
        <ele>415</ele>
        <time>2022-05-01T04:46:52Z</time>
      </trkpt>
      <trkpt lat="45.53937" lon="4.32142">
        <ele>416</ele>
        <time>2022-05-01T04:46:57Z</time>
      </trkpt>
      <trkpt lat="45.53955" lon="4.3217">
        <ele>416</ele>
        <time>2022-05-01T04:47:02Z</time>
      </trkpt>
      <trkpt lat="45.54057" lon="4.3222">
        <ele>417</ele>
        <time>2022-05-01T04:47:21Z</time>
      </trkpt>
      <trkpt lat="45.54193" lon="4.32303">
        <ele>423</ele>
        <time>2022-05-01T04:47:47Z</time>
      </trkpt>
      <trkpt lat="45.54214" lon="4.32303">
        <ele>423</ele>
        <time>2022-05-01T04:47:51Z</time>
      </trkpt>
      <trkpt lat="45.54453" lon="4.32177">
        <ele>416</ele>
        <time>2022-05-01T04:48:36Z</time>
      </trkpt>
      <trkpt lat="45.54572" lon="4.32181">
        <ele>415</ele>
        <time>2022-05-01T04:48:58Z</time>
      </trkpt>
      <trkpt lat="45.54701" lon="4.32167">
        <ele>413</ele>
        <time>2022-05-01T04:49:21Z</time>
      </trkpt>
      <trkpt lat="45.54737" lon="4.32174">
        <ele>413</ele>
        <time>2022-05-01T04:49:27Z</time>
      </trkpt>
      <trkpt lat="45.54782" lon="4.32177">
        <ele>414</ele>
        <time>2022-05-01T04:49:35Z</time>
      </trkpt>
      <trkpt lat="45.54835" lon="4.32188">
        <ele>415</ele>
        <time>2022-05-01T04:49:45Z</time>
      </trkpt>
      <trkpt lat="45.54873" lon="4.32207">
        <ele>417</ele>
        <time>2022-05-01T04:49:52Z</time>
      </trkpt>
      <trkpt lat="45.54913" lon="4.3224">
        <ele>420</ele>
        <time>2022-05-01T04:50:00Z</time>
      </trkpt>
      <trkpt lat="45.54931" lon="4.32249">
        <ele>421</ele>
        <time>2022-05-01T04:50:03Z</time>
      </trkpt>
      <trkpt lat="45.54974" lon="4.32254">
        <ele>421</ele>
        <time>2022-05-01T04:50:11Z</time>
      </trkpt>
      <trkpt lat="45.55123" lon="4.32248">
        <ele>419</ele>
        <time>2022-05-01T04:50:38Z</time>
      </trkpt>
      <trkpt lat="45.55333" lon="4.32273">
        <ele>418</ele>
        <time>2022-05-01T04:51:15Z</time>
      </trkpt>
      <trkpt lat="45.5535" lon="4.32271">
        <ele>418</ele>
        <time>2022-05-01T04:51:18Z</time>
      </trkpt>
      <trkpt lat="45.55369" lon="4.32263">
        <ele>418</ele>
        <time>2022-05-01T04:51:22Z</time>
      </trkpt>
      <trkpt lat="45.5547" lon="4.3219">
        <ele>416</ele>
        <time>2022-05-01T04:51:42Z</time>
      </trkpt>
      <trkpt lat="45.55613" lon="4.32053">
        <ele>413</ele>
        <time>2022-05-01T04:52:12Z</time>
      </trkpt>
      <trkpt lat="45.55628" lon="4.32042">
        <ele>413</ele>
        <time>2022-05-01T04:52:15Z</time>
      </trkpt>
      <trkpt lat="45.55761" lon="4.31988">
        <ele>413</ele>
        <time>2022-05-01T04:52:40Z</time>
      </trkpt>
      <trkpt lat="45.55814" lon="4.31981">
        <ele>412</ele>
        <time>2022-05-01T04:52:50Z</time>
      </trkpt>
      <trkpt lat="45.5598" lon="4.32031">
        <ele>404</ele>
        <time>2022-05-01T04:53:20Z</time>
      </trkpt>
      <trkpt lat="45.56004" lon="4.32028">
        <ele>402</ele>
        <time>2022-05-01T04:53:24Z</time>
      </trkpt>
      <trkpt lat="45.56025" lon="4.32017">
        <ele>403</ele>
        <time>2022-05-01T04:53:28Z</time>
      </trkpt>
      <trkpt lat="45.56085" lon="4.31963">
        <ele>402</ele>
        <time>2022-05-01T04:53:41Z</time>
      </trkpt>
      <trkpt lat="45.562" lon="4.31815">
        <ele>400</ele>
        <time>2022-05-01T04:54:08Z</time>
      </trkpt>
      <trkpt lat="45.56246" lon="4.31749">
        <ele>400</ele>
        <time>2022-05-01T04:54:20Z</time>
      </trkpt>
      <trkpt lat="45.56266" lon="4.31766">
        <ele>400</ele>
        <time>2022-05-01T04:54:24Z</time>
      </trkpt>
      <trkpt lat="45.56306" lon="4.31762">
        <ele>399</ele>
        <time>2022-05-01T04:54:31Z</time>
      </trkpt>
      <trkpt lat="45.5652" lon="4.3171">
        <ele>399</ele>
        <time>2022-05-01T04:55:10Z</time>
      </trkpt>
      <trkpt lat="45.56594" lon="4.31696">
        <ele>399</ele>
        <time>2022-05-01T04:55:23Z</time>
      </trkpt>
      <trkpt lat="45.56703" lon="4.31659">
        <ele>399</ele>
        <time>2022-05-01T04:55:43Z</time>
      </trkpt>
      <trkpt lat="45.56807" lon="4.31613">
        <ele>398</ele>
        <time>2022-05-01T04:56:02Z</time>
      </trkpt>
      <trkpt lat="45.56913" lon="4.31602">
        <ele>400</ele>
        <time>2022-05-01T04:56:21Z</time>
      </trkpt>
      <trkpt lat="45.57007" lon="4.31608">
        <ele>400</ele>
        <time>2022-05-01T04:56:38Z</time>
      </trkpt>
      <trkpt lat="45.571" lon="4.316">
        <ele>401</ele>
        <time>2022-05-01T04:56:55Z</time>
      </trkpt>
      <trkpt lat="45.57138" lon="4.31591">
        <ele>402</ele>
        <time>2022-05-01T04:57:01Z</time>
      </trkpt>
      <trkpt lat="45.57207" lon="4.3157">
        <ele>402</ele>
        <time>2022-05-01T04:57:14Z</time>
      </trkpt>
      <trkpt lat="45.57265" lon="4.31548">
        <ele>401</ele>
        <time>2022-05-01T04:57:25Z</time>
      </trkpt>
      <trkpt lat="45.57315" lon="4.3154">
        <ele>400</ele>
        <time>2022-05-01T04:57:34Z</time>
      </trkpt>
      <trkpt lat="45.57363" lon="4.31552">
        <ele>401</ele>
        <time>2022-05-01T04:57:42Z</time>
      </trkpt>
      <trkpt lat="45.57504" lon="4.31663">
        <ele>404</ele>
        <time>2022-05-01T04:58:11Z</time>
      </trkpt>
      <trkpt lat="45.57549" lon="4.3168">
        <ele>403</ele>
        <time>2022-05-01T04:58:19Z</time>
      </trkpt>
      <trkpt lat="45.576" lon="4.31673">
        <ele>402</ele>
        <time>2022-05-01T04:58:28Z</time>
      </trkpt>
      <trkpt lat="45.57687" lon="4.31656">
        <ele>403</ele>
        <time>2022-05-01T04:58:44Z</time>
      </trkpt>
      <trkpt lat="45.57738" lon="4.31643">
        <ele>402</ele>
        <time>2022-05-01T04:58:53Z</time>
      </trkpt>
      <trkpt lat="45.57753" lon="4.31645">
        <ele>402</ele>
        <time>2022-05-01T04:58:56Z</time>
      </trkpt>
      <trkpt lat="45.57802" lon="4.31665">
        <ele>401</ele>
        <time>2022-05-01T04:59:05Z</time>
      </trkpt>
      <trkpt lat="45.57879" lon="4.31722">
        <ele>402</ele>
        <time>2022-05-01T04:59:20Z</time>
      </trkpt>
      <trkpt lat="45.57935" lon="4.31769">
        <ele>402</ele>
        <time>2022-05-01T04:59:32Z</time>
      </trkpt>
      <trkpt lat="45.57978" lon="4.31808">
        <ele>402</ele>
        <time>2022-05-01T04:59:41Z</time>
      </trkpt>
      <trkpt lat="45.58009" lon="4.31841">
        <ele>402</ele>
        <time>2022-05-01T04:59:48Z</time>
      </trkpt>
      <trkpt lat="45.58019" lon="4.31819">
        <ele>401</ele>
        <time>2022-05-01T04:59:51Z</time>
      </trkpt>
      <trkpt lat="45.58045" lon="4.31785">
        <ele>399</ele>
        <time>2022-05-01T04:59:57Z</time>
      </trkpt>
      <trkpt lat="45.58066" lon="4.31762">
        <ele>398</ele>
        <time>2022-05-01T05:00:02Z</time>
      </trkpt>
      <trkpt lat="45.58095" lon="4.31715">
        <ele>396</ele>
        <time>2022-05-01T05:00:10Z</time>
      </trkpt>
      <trkpt lat="45.58168" lon="4.31607">
        <ele>393</ele>
        <time>2022-05-01T05:00:29Z</time>
      </trkpt>
      <trkpt lat="45.58223" lon="4.31504">
        <ele>388</ele>
        <time>2022-05-01T05:00:45Z</time>
      </trkpt>
      <trkpt lat="45.58251" lon="4.31425">
        <ele>386</ele>
        <time>2022-05-01T05:00:56Z</time>
      </trkpt>
      <trkpt lat="45.58266" lon="4.31413">
        <ele>386</ele>
        <time>2022-05-01T05:00:59Z</time>
      </trkpt>
      <trkpt lat="45.58272" lon="4.31414">
        <ele>385</ele>
        <time>2022-05-01T05:01:00Z</time>
      </trkpt>
      <trkpt lat="45.58277" lon="4.31409">
        <ele>385</ele>
        <time>2022-05-01T05:01:01Z</time>
      </trkpt>
      <trkpt lat="45.5828" lon="4.31396">
        <ele>385</ele>
        <time>2022-05-01T05:01:03Z</time>
      </trkpt>
      <trkpt lat="45.58305" lon="4.31395">
        <ele>385</ele>
        <time>2022-05-01T05:01:07Z</time>
      </trkpt>
      <trkpt lat="45.58317" lon="4.31397">
        <ele>384</ele>
        <time>2022-05-01T05:01:09Z</time>
      </trkpt>
      <trkpt lat="45.5856" lon="4.31461">
        <ele>381</ele>
        <time>2022-05-01T05:01:53Z</time>
      </trkpt>
      <trkpt lat="45.58565" lon="4.31458">
        <ele>381</ele>
        <time>2022-05-01T05:01:54Z</time>
      </trkpt>
      <trkpt lat="45.5856" lon="4.31426">
        <ele>380</ele>
        <time>2022-05-01T05:01:58Z</time>
      </trkpt>
      <trkpt lat="45.58559" lon="4.31332">
        <ele>379</ele>
        <time>2022-05-01T05:02:10Z</time>
      </trkpt>
      <trkpt lat="45.58545" lon="4.31272">
        <ele>378</ele>
        <time>2022-05-01T05:02:18Z</time>
      </trkpt>
      <trkpt lat="45.58544" lon="4.31209">
        <ele>378</ele>
        <time>2022-05-01T05:02:26Z</time>
      </trkpt>
      <trkpt lat="45.58555" lon="4.31181">
        <ele>377</ele>
        <time>2022-05-01T05:02:30Z</time>
      </trkpt>
      <trkpt lat="45.58567" lon="4.31169">
        <ele>377</ele>
        <time>2022-05-01T05:02:32Z</time>
      </trkpt>
      <trkpt lat="45.58588" lon="4.31157">
        <ele>377</ele>
        <time>2022-05-01T05:02:36Z</time>
      </trkpt>
      <trkpt lat="45.5862" lon="4.31134">
        <ele>377</ele>
        <time>2022-05-01T05:02:43Z</time>
      </trkpt>
      <trkpt lat="45.58631" lon="4.31146">
        <ele>377</ele>
        <time>2022-05-01T05:02:45Z</time>
      </trkpt>
      <trkpt lat="45.5864" lon="4.3115">
        <ele>377</ele>
        <time>2022-05-01T05:02:47Z</time>
      </trkpt>
      <trkpt lat="45.58735" lon="4.31335">
        <ele>376</ele>
        <time>2022-05-01T05:03:15Z</time>
      </trkpt>
      <trkpt lat="45.58746" lon="4.31355">
        <ele>375</ele>
        <time>2022-05-01T05:03:19Z</time>
      </trkpt>
      <trkpt lat="45.58756" lon="4.31365">
        <ele>375</ele>
        <time>2022-05-01T05:03:21Z</time>
      </trkpt>
      <trkpt lat="45.58922" lon="4.31416">
        <ele>375</ele>
        <time>2022-05-01T05:03:51Z</time>
      </trkpt>
      <trkpt lat="45.5894" lon="4.31434">
        <ele>378</ele>
        <time>2022-05-01T05:03:55Z</time>
      </trkpt>
      <trkpt lat="45.58945" lon="4.31447">
        <ele>379</ele>
        <time>2022-05-01T05:03:57Z</time>
      </trkpt>
      <trkpt lat="45.58951" lon="4.31451">
        <ele>380</ele>
        <time>2022-05-01T05:03:58Z</time>
      </trkpt>
      <trkpt lat="45.58959" lon="4.3145">
        <ele>380</ele>
        <time>2022-05-01T05:03:59Z</time>
      </trkpt>
      <trkpt lat="45.58964" lon="4.31444">
        <ele>380</ele>
        <time>2022-05-01T05:04:00Z</time>
      </trkpt>
      <trkpt lat="45.58977" lon="4.3144">
        <ele>381</ele>
        <time>2022-05-01T05:04:03Z</time>
      </trkpt>
      <trkpt lat="45.59001" lon="4.3144">
        <ele>383</ele>
        <time>2022-05-01T05:04:07Z</time>
      </trkpt>
      <trkpt lat="45.59051" lon="4.31451">
        <ele>388</ele>
        <time>2022-05-01T05:04:16Z</time>
      </trkpt>
      <trkpt lat="45.59134" lon="4.31449">
        <ele>393</ele>
        <time>2022-05-01T05:04:31Z</time>
      </trkpt>
      <trkpt lat="45.59318" lon="4.31435">
        <ele>400</ele>
        <time>2022-05-01T05:05:04Z</time>
      </trkpt>
      <trkpt lat="45.59418" lon="4.31422">
        <ele>406</ele>
        <time>2022-05-01T05:05:21Z</time>
      </trkpt>
      <trkpt lat="45.59574" lon="4.31409">
        <ele>408</ele>
        <time>2022-05-01T05:05:49Z</time>
      </trkpt>
      <trkpt lat="45.59582" lon="4.31409">
        <ele>408</ele>
        <time>2022-05-01T05:05:51Z</time>
      </trkpt>
      <trkpt lat="45.59593" lon="4.31416">
        <ele>409</ele>
        <time>2022-05-01T05:05:53Z</time>
      </trkpt>
      <trkpt lat="45.59599" lon="4.31425">
        <ele>410</ele>
        <time>2022-05-01T05:05:54Z</time>
      </trkpt>
      <trkpt lat="45.59606" lon="4.31446">
        <ele>412</ele>
        <time>2022-05-01T05:05:57Z</time>
      </trkpt>
      <trkpt lat="45.59604" lon="4.31467">
        <ele>414</ele>
        <time>2022-05-01T05:06:00Z</time>
      </trkpt>
      <trkpt lat="45.59593" lon="4.31481">
        <ele>415</ele>
        <time>2022-05-01T05:06:03Z</time>
      </trkpt>
      <trkpt lat="45.59557" lon="4.31508">
        <ele>418</ele>
        <time>2022-05-01T05:06:10Z</time>
      </trkpt>
      <trkpt lat="45.59474" lon="4.31548">
        <ele>422</ele>
        <time>2022-05-01T05:06:25Z</time>
      </trkpt>
      <trkpt lat="45.59469" lon="4.31559">
        <ele>424</ele>
        <time>2022-05-01T05:06:27Z</time>
      </trkpt>
      <trkpt lat="45.59471" lon="4.31565">
        <ele>425</ele>
        <time>2022-05-01T05:06:28Z</time>
      </trkpt>
      <trkpt lat="45.59483" lon="4.31569">
        <ele>426</ele>
        <time>2022-05-01T05:06:30Z</time>
      </trkpt>
      <trkpt lat="45.59936" lon="4.31384">
        <ele>417</ele>
        <time>2022-05-01T05:07:54Z</time>
      </trkpt>
      <trkpt lat="45.60004" lon="4.31371">
        <ele>418</ele>
        <time>2022-05-01T05:08:06Z</time>
      </trkpt>
      <trkpt lat="45.6008" lon="4.31372">
        <ele>419</ele>
        <time>2022-05-01T05:08:20Z</time>
      </trkpt>
      <trkpt lat="45.60166" lon="4.31382">
        <ele>421</ele>
        <time>2022-05-01T05:08:35Z</time>
      </trkpt>
      <trkpt lat="45.60253" lon="4.3138">
        <ele>418</ele>
        <time>2022-05-01T05:08:50Z</time>
      </trkpt>
      <trkpt lat="45.60285" lon="4.31385">
        <ele>418</ele>
        <time>2022-05-01T05:08:56Z</time>
      </trkpt>
      <trkpt lat="45.6029" lon="4.31391">
        <ele>418</ele>
        <time>2022-05-01T05:08:57Z</time>
      </trkpt>
      <trkpt lat="45.60289" lon="4.31398">
        <ele>419</ele>
        <time>2022-05-01T05:08:58Z</time>
      </trkpt>
      <trkpt lat="45.60292" lon="4.31409">
        <ele>419</ele>
        <time>2022-05-01T05:09:00Z</time>
      </trkpt>
      <trkpt lat="45.60297" lon="4.31413">
        <ele>419</ele>
        <time>2022-05-01T05:09:01Z</time>
      </trkpt>
      <trkpt lat="45.60302" lon="4.31412">
        <ele>419</ele>
        <time>2022-05-01T05:09:02Z</time>
      </trkpt>
      <trkpt lat="45.60308" lon="4.31407">
        <ele>418</ele>
        <time>2022-05-01T05:09:03Z</time>
      </trkpt>
      <trkpt lat="45.6031" lon="4.31399">
        <ele>418</ele>
        <time>2022-05-01T05:09:04Z</time>
      </trkpt>
      <trkpt lat="45.60308" lon="4.31391">
        <ele>417</ele>
        <time>2022-05-01T05:09:05Z</time>
      </trkpt>
      <trkpt lat="45.60314" lon="4.31384">
        <ele>417</ele>
        <time>2022-05-01T05:09:06Z</time>
      </trkpt>
      <trkpt lat="45.60324" lon="4.31378">
        <ele>416</ele>
        <time>2022-05-01T05:09:08Z</time>
      </trkpt>
      <trkpt lat="45.60498" lon="4.31325">
        <ele>411</ele>
        <time>2022-05-01T05:09:40Z</time>
      </trkpt>
      <trkpt lat="45.60808" lon="4.3126">
        <ele>408</ele>
        <time>2022-05-01T05:10:36Z</time>
      </trkpt>
      <trkpt lat="45.61075" lon="4.31147">
        <ele>402</ele>
        <time>2022-05-01T05:11:25Z</time>
      </trkpt>
      <trkpt lat="45.61127" lon="4.31128">
        <ele>402</ele>
        <time>2022-05-01T05:11:35Z</time>
      </trkpt>
      <trkpt lat="45.6129" lon="4.31053">
        <ele>400</ele>
        <time>2022-05-01T05:12:05Z</time>
      </trkpt>
      <trkpt lat="45.61471" lon="4.30981">
        <ele>401</ele>
        <time>2022-05-01T05:12:39Z</time>
      </trkpt>
      <trkpt lat="45.61522" lon="4.30953">
        <ele>400</ele>
        <time>2022-05-01T05:12:48Z</time>
      </trkpt>
      <trkpt lat="45.61762" lon="4.30794">
        <ele>396</ele>
        <time>2022-05-01T05:13:35Z</time>
      </trkpt>
      <trkpt lat="45.61839" lon="4.30752">
        <ele>396</ele>
        <time>2022-05-01T05:13:50Z</time>
      </trkpt>
      <trkpt lat="45.61886" lon="4.30744">
        <ele>396</ele>
        <time>2022-05-01T05:13:59Z</time>
      </trkpt>
      <trkpt lat="45.62299" lon="4.30754">
        <ele>402</ele>
        <time>2022-05-01T05:15:12Z</time>
      </trkpt>
      <trkpt lat="45.62326" lon="4.30746">
        <ele>402</ele>
        <time>2022-05-01T05:15:17Z</time>
      </trkpt>
      <trkpt lat="45.62358" lon="4.30732">
        <ele>402</ele>
        <time>2022-05-01T05:15:23Z</time>
      </trkpt>
      <trkpt lat="45.62445" lon="4.30682">
        <ele>400</ele>
        <time>2022-05-01T05:15:40Z</time>
      </trkpt>
      <trkpt lat="45.62522" lon="4.30642">
        <ele>399</ele>
        <time>2022-05-01T05:15:54Z</time>
      </trkpt>
      <trkpt lat="45.62731" lon="4.30494">
        <ele>400</ele>
        <time>2022-05-01T05:16:36Z</time>
      </trkpt>
      <trkpt lat="45.63038" lon="4.3026">
        <ele>397</ele>
        <time>2022-05-01T05:17:38Z</time>
      </trkpt>
      <trkpt lat="45.63095" lon="4.30222">
        <ele>396</ele>
        <time>2022-05-01T05:17:49Z</time>
      </trkpt>
      <trkpt lat="45.63147" lon="4.30204">
        <ele>395</ele>
        <time>2022-05-01T05:17:58Z</time>
      </trkpt>
      <trkpt lat="45.63281" lon="4.30178">
        <ele>394</ele>
        <time>2022-05-01T05:18:22Z</time>
      </trkpt>
      <trkpt lat="45.636" lon="4.30123">
        <ele>398</ele>
        <time>2022-05-01T05:19:19Z</time>
      </trkpt>
      <trkpt lat="45.63623" lon="4.30112">
        <ele>398</ele>
        <time>2022-05-01T05:19:24Z</time>
      </trkpt>
      <trkpt lat="45.63802" lon="4.29985">
        <ele>394</ele>
        <time>2022-05-01T05:19:59Z</time>
      </trkpt>
      <trkpt lat="45.63825" lon="4.29973">
        <ele>394</ele>
        <time>2022-05-01T05:20:04Z</time>
      </trkpt>
      <trkpt lat="45.6384" lon="4.29968">
        <ele>393</ele>
        <time>2022-05-01T05:20:06Z</time>
      </trkpt>
      <trkpt lat="45.639" lon="4.29964">
        <ele>392</ele>
        <time>2022-05-01T05:20:17Z</time>
      </trkpt>
      <trkpt lat="45.63927" lon="4.2996">
        <ele>392</ele>
        <time>2022-05-01T05:20:22Z</time>
      </trkpt>
      <trkpt lat="45.63949" lon="4.29953">
        <ele>392</ele>
        <time>2022-05-01T05:20:26Z</time>
      </trkpt>
      <trkpt lat="45.64138" lon="4.29858">
        <ele>391</ele>
        <time>2022-05-01T05:21:02Z</time>
      </trkpt>
      <trkpt lat="45.64172" lon="4.29848">
        <ele>391</ele>
        <time>2022-05-01T05:21:08Z</time>
      </trkpt>
      <trkpt lat="45.64287" lon="4.29845">
        <ele>391</ele>
        <time>2022-05-01T05:21:28Z</time>
      </trkpt>
      <trkpt lat="45.64332" lon="4.29841">
        <ele>389</ele>
        <time>2022-05-01T05:21:36Z</time>
      </trkpt>
      <trkpt lat="45.64374" lon="4.29831">
        <ele>389</ele>
        <time>2022-05-01T05:21:44Z</time>
      </trkpt>
      <trkpt lat="45.64453" lon="4.29817">
        <ele>389</ele>
        <time>2022-05-01T05:21:58Z</time>
      </trkpt>
      <trkpt lat="45.6447" lon="4.29805">
        <ele>389</ele>
        <time>2022-05-01T05:22:01Z</time>
      </trkpt>
      <trkpt lat="45.64529" lon="4.2974">
        <ele>390</ele>
        <time>2022-05-01T05:22:15Z</time>
      </trkpt>
      <trkpt lat="45.6459" lon="4.29683">
        <ele>393</ele>
        <time>2022-05-01T05:22:28Z</time>
      </trkpt>
      <trkpt lat="45.64599" lon="4.29667">
        <ele>393</ele>
        <time>2022-05-01T05:22:30Z</time>
      </trkpt>
      <trkpt lat="45.64632" lon="4.29586">
        <ele>392</ele>
        <time>2022-05-01T05:22:42Z</time>
      </trkpt>
      <trkpt lat="45.64661" lon="4.29555">
        <ele>392</ele>
        <time>2022-05-01T05:22:48Z</time>
      </trkpt>
      <trkpt lat="45.64664" lon="4.29555">
        <ele>392</ele>
        <time>2022-05-01T05:22:49Z</time>
      </trkpt>
      <trkpt lat="45.64664" lon="4.29541">
        <ele>391</ele>
        <time>2022-05-01T05:22:51Z</time>
      </trkpt>
      <trkpt lat="45.64668" lon="4.29535">
        <ele>391</ele>
        <time>2022-05-01T05:22:52Z</time>
      </trkpt>
      <trkpt lat="45.64732" lon="4.29498">
        <ele>390</ele>
        <time>2022-05-01T05:23:04Z</time>
      </trkpt>
      <trkpt lat="45.64777" lon="4.29466">
        <ele>389</ele>
        <time>2022-05-01T05:23:13Z</time>
      </trkpt>
      <trkpt lat="45.64812" lon="4.2945">
        <ele>389</ele>
        <time>2022-05-01T05:23:19Z</time>
      </trkpt>
      <trkpt lat="45.64847" lon="4.29437">
        <ele>388</ele>
        <time>2022-05-01T05:23:26Z</time>
      </trkpt>
      <trkpt lat="45.6487" lon="4.29432">
        <ele>387</ele>
        <time>2022-05-01T05:23:30Z</time>
      </trkpt>
      <trkpt lat="45.65175" lon="4.29419">
        <ele>385</ele>
        <time>2022-05-01T05:24:24Z</time>
      </trkpt>
      <trkpt lat="45.65201" lon="4.29413">
        <ele>385</ele>
        <time>2022-05-01T05:24:29Z</time>
      </trkpt>
      <trkpt lat="45.65367" lon="4.29345">
        <ele>383</ele>
        <time>2022-05-01T05:25:00Z</time>
      </trkpt>
      <trkpt lat="45.65419" lon="4.29331">
        <ele>383</ele>
        <time>2022-05-01T05:25:09Z</time>
      </trkpt>
      <trkpt lat="45.6545" lon="4.29325">
        <ele>382</ele>
        <time>2022-05-01T05:25:15Z</time>
      </trkpt>
      <trkpt lat="45.65588" lon="4.2932">
        <ele>381</ele>
        <time>2022-05-01T05:25:39Z</time>
      </trkpt>
      <trkpt lat="45.65709" lon="4.29288">
        <ele>380</ele>
        <time>2022-05-01T05:26:01Z</time>
      </trkpt>
      <trkpt lat="45.65758" lon="4.29269">
        <ele>379</ele>
        <time>2022-05-01T05:26:10Z</time>
      </trkpt>
      <trkpt lat="45.65772" lon="4.29261">
        <ele>379</ele>
        <time>2022-05-01T05:26:13Z</time>
      </trkpt>
      <trkpt lat="45.65895" lon="4.29149">
        <ele>376</ele>
        <time>2022-05-01T05:26:39Z</time>
      </trkpt>
      <trkpt lat="45.65934" lon="4.29136">
        <ele>375</ele>
        <time>2022-05-01T05:26:46Z</time>
      </trkpt>
      <trkpt lat="45.65967" lon="4.2913">
        <ele>375</ele>
        <time>2022-05-01T05:26:52Z</time>
      </trkpt>
      <trkpt lat="45.65997" lon="4.29133">
        <ele>375</ele>
        <time>2022-05-01T05:26:57Z</time>
      </trkpt>
      <trkpt lat="45.66416" lon="4.29235">
        <ele>376</ele>
        <time>2022-05-01T05:28:13Z</time>
      </trkpt>
      <trkpt lat="45.66653" lon="4.29278">
        <ele>375</ele>
        <time>2022-05-01T05:28:55Z</time>
      </trkpt>
      <trkpt lat="45.6682" lon="4.29313">
        <ele>373</ele>
        <time>2022-05-01T05:29:25Z</time>
      </trkpt>
      <trkpt lat="45.66857" lon="4.29333">
        <ele>373</ele>
        <time>2022-05-01T05:29:32Z</time>
      </trkpt>
      <trkpt lat="45.66904" lon="4.29366">
        <ele>374</ele>
        <time>2022-05-01T05:29:42Z</time>
      </trkpt>
      <trkpt lat="45.66935" lon="4.29377">
        <ele>374</ele>
        <time>2022-05-01T05:29:47Z</time>
      </trkpt>
      <trkpt lat="45.66957" lon="4.29381">
        <ele>374</ele>
        <time>2022-05-01T05:29:51Z</time>
      </trkpt>
      <trkpt lat="45.6704" lon="4.29368">
        <ele>373</ele>
        <time>2022-05-01T05:30:06Z</time>
      </trkpt>
      <trkpt lat="45.67068" lon="4.29368">
        <ele>372</ele>
        <time>2022-05-01T05:30:11Z</time>
      </trkpt>
      <trkpt lat="45.67133" lon="4.29379">
        <ele>372</ele>
        <time>2022-05-01T05:30:23Z</time>
      </trkpt>
      <trkpt lat="45.67321" lon="4.29441">
        <ele>373</ele>
        <time>2022-05-01T05:30:57Z</time>
      </trkpt>
      <trkpt lat="45.67333" lon="4.29443">
        <ele>372</ele>
        <time>2022-05-01T05:30:59Z</time>
      </trkpt>
      <trkpt lat="45.67435" lon="4.29442">
        <ele>375</ele>
        <time>2022-05-01T05:31:17Z</time>
      </trkpt>
      <trkpt lat="45.67454" lon="4.29445">
        <ele>376</ele>
        <time>2022-05-01T05:31:21Z</time>
      </trkpt>
      <trkpt lat="45.67499" lon="4.29441">
        <ele>378</ele>
        <time>2022-05-01T05:31:29Z</time>
      </trkpt>
      <trkpt lat="45.67568" lon="4.29441">
        <ele>382</ele>
        <time>2022-05-01T05:31:41Z</time>
      </trkpt>
      <trkpt lat="45.67597" lon="4.29448">
        <ele>384</ele>
        <time>2022-05-01T05:31:46Z</time>
      </trkpt>
      <trkpt lat="45.677" lon="4.29486">
        <ele>385</ele>
        <time>2022-05-01T05:32:05Z</time>
      </trkpt>
      <trkpt lat="45.67745" lon="4.29507">
        <ele>385</ele>
        <time>2022-05-01T05:32:14Z</time>
      </trkpt>
      <trkpt lat="45.67797" lon="4.29561">
        <ele>386</ele>
        <time>2022-05-01T05:32:25Z</time>
      </trkpt>
      <trkpt lat="45.67911" lon="4.29697">
        <ele>392</ele>
        <time>2022-05-01T05:32:51Z</time>
      </trkpt>
      <trkpt lat="45.67949" lon="4.29732">
        <ele>394</ele>
        <time>2022-05-01T05:32:59Z</time>
      </trkpt>
      <trkpt lat="45.68256" lon="4.29919">
        <ele>390</ele>
        <time>2022-05-01T05:33:59Z</time>
      </trkpt>
      <trkpt lat="45.6859" lon="4.30076">
        <ele>404</ele>
        <time>2022-05-01T05:35:01Z</time>
      </trkpt>
      <trkpt lat="45.68714" lon="4.30158">
        <ele>402</ele>
        <time>2022-05-01T05:35:26Z</time>
      </trkpt>
      <trkpt lat="45.68871" lon="4.30241">
        <ele>405</ele>
        <time>2022-05-01T05:35:55Z</time>
      </trkpt>
      <trkpt lat="45.68931" lon="4.30264">
        <ele>408</ele>
        <time>2022-05-01T05:36:07Z</time>
      </trkpt>
      <trkpt lat="45.6897" lon="4.30275">
        <ele>409</ele>
        <time>2022-05-01T05:36:14Z</time>
      </trkpt>
      <trkpt lat="45.69422" lon="4.30333">
        <ele>408</ele>
        <time>2022-05-01T05:37:34Z</time>
      </trkpt>
      <trkpt lat="45.69462" lon="4.3033">
        <ele>408</ele>
        <time>2022-05-01T05:37:41Z</time>
      </trkpt>
      <trkpt lat="45.69485" lon="4.30322">
        <ele>407</ele>
        <time>2022-05-01T05:37:46Z</time>
      </trkpt>
      <trkpt lat="45.69542" lon="4.30291">
        <ele>405</ele>
        <time>2022-05-01T05:37:57Z</time>
      </trkpt>
      <trkpt lat="45.69674" lon="4.30187">
        <ele>398</ele>
        <time>2022-05-01T05:38:23Z</time>
      </trkpt>
      <trkpt lat="45.69742" lon="4.3014">
        <ele>394</ele>
        <time>2022-05-01T05:38:37Z</time>
      </trkpt>
      <trkpt lat="45.69807" lon="4.30114">
        <ele>391</ele>
        <time>2022-05-01T05:38:49Z</time>
      </trkpt>
      <trkpt lat="45.69845" lon="4.30111">
        <ele>391</ele>
        <time>2022-05-01T05:38:56Z</time>
      </trkpt>
      <trkpt lat="45.70112" lon="4.30105">
        <ele>387</ele>
        <time>2022-05-01T05:39:43Z</time>
      </trkpt>
      <trkpt lat="45.7037" lon="4.3009">
        <ele>382</ele>
        <time>2022-05-01T05:40:29Z</time>
      </trkpt>
      <trkpt lat="45.70457" lon="4.30082">
        <ele>381</ele>
        <time>2022-05-01T05:40:45Z</time>
      </trkpt>
      <trkpt lat="45.7056" lon="4.3005">
        <ele>378</ele>
        <time>2022-05-01T05:41:03Z</time>
      </trkpt>
      <trkpt lat="45.70735" lon="4.29988">
        <ele>376</ele>
        <time>2022-05-01T05:41:35Z</time>
      </trkpt>
      <trkpt lat="45.70757" lon="4.29984">
        <ele>376</ele>
        <time>2022-05-01T05:41:39Z</time>
      </trkpt>
      <trkpt lat="45.70955" lon="4.29915">
        <ele>374</ele>
        <time>2022-05-01T05:42:16Z</time>
      </trkpt>
      <trkpt lat="45.70982" lon="4.29901">
        <ele>375</ele>
        <time>2022-05-01T05:42:21Z</time>
      </trkpt>
      <trkpt lat="45.71038" lon="4.2988">
        <ele>376</ele>
        <time>2022-05-01T05:42:31Z</time>
      </trkpt>
      <trkpt lat="45.71312" lon="4.29787">
        <ele>382</ele>
        <time>2022-05-01T05:43:21Z</time>
      </trkpt>
      <trkpt lat="45.71367" lon="4.29726">
        <ele>381</ele>
        <time>2022-05-01T05:43:33Z</time>
      </trkpt>
      <trkpt lat="45.71414" lon="4.29693">
        <ele>380</ele>
        <time>2022-05-01T05:43:43Z</time>
      </trkpt>
      <trkpt lat="45.72932" lon="4.2898">
        <ele>392</ele>
        <time>2022-05-01T05:48:27Z</time>
      </trkpt>
      <trkpt lat="45.73074" lon="4.28916">
        <ele>388</ele>
        <time>2022-05-01T05:48:54Z</time>
      </trkpt>
      <trkpt lat="45.73141" lon="4.28881">
        <ele>387</ele>
        <time>2022-05-01T05:49:06Z</time>
      </trkpt>
      <trkpt lat="45.73162" lon="4.28861">
        <ele>387</ele>
        <time>2022-05-01T05:49:11Z</time>
      </trkpt>
      <trkpt lat="45.73175" lon="4.28855">
        <ele>386</ele>
        <time>2022-05-01T05:49:13Z</time>
      </trkpt>
      <trkpt lat="45.73229" lon="4.2885">
        <ele>384</ele>
        <time>2022-05-01T05:49:23Z</time>
      </trkpt>
      <trkpt lat="45.73249" lon="4.28846">
        <ele>383</ele>
        <time>2022-05-01T05:49:26Z</time>
      </trkpt>
      <trkpt lat="45.7331" lon="4.28846">
        <ele>381</ele>
        <time>2022-05-01T05:49:37Z</time>
      </trkpt>
      <trkpt lat="45.73443" lon="4.28839">
        <ele>373</ele>
        <time>2022-05-01T05:50:01Z</time>
      </trkpt>
      <trkpt lat="45.73498" lon="4.28834">
        <ele>368</ele>
        <time>2022-05-01T05:50:11Z</time>
      </trkpt>
      <trkpt lat="45.7355" lon="4.28826">
        <ele>365</ele>
        <time>2022-05-01T05:50:20Z</time>
      </trkpt>
      <trkpt lat="45.73596" lon="4.28827">
        <ele>363</ele>
        <time>2022-05-01T05:50:28Z</time>
      </trkpt>
      <trkpt lat="45.73688" lon="4.28823">
        <ele>358</ele>
        <time>2022-05-01T05:50:45Z</time>
      </trkpt>
      <trkpt lat="45.73745" lon="4.28831">
        <ele>356</ele>
        <time>2022-05-01T05:50:55Z</time>
      </trkpt>
      <trkpt lat="45.73781" lon="4.28859">
        <ele>358</ele>
        <time>2022-05-01T05:51:02Z</time>
      </trkpt>
      <trkpt lat="45.73785" lon="4.2886">
        <ele>358</ele>
        <time>2022-05-01T05:51:03Z</time>
      </trkpt>
      <trkpt lat="45.73796" lon="4.28859">
        <ele>358</ele>
        <time>2022-05-01T05:51:05Z</time>
      </trkpt>
      <trkpt lat="45.73806" lon="4.28855">
        <ele>358</ele>
        <time>2022-05-01T05:51:07Z</time>
      </trkpt>
      <trkpt lat="45.73852" lon="4.28831">
        <ele>359</ele>
        <time>2022-05-01T05:51:15Z</time>
      </trkpt>
      <trkpt lat="45.73886" lon="4.2881">
        <ele>361</ele>
        <time>2022-05-01T05:51:22Z</time>
      </trkpt>
      <trkpt lat="45.73899" lon="4.28809">
        <ele>362</ele>
        <time>2022-05-01T05:51:24Z</time>
      </trkpt>
      <trkpt lat="45.73905" lon="4.28806">
        <ele>362</ele>
        <time>2022-05-01T05:51:25Z</time>
      </trkpt>
      <trkpt lat="45.73916" lon="4.2879">
        <ele>362</ele>
        <time>2022-05-01T05:51:28Z</time>
      </trkpt>
      <trkpt lat="45.73942" lon="4.28708">
        <ele>363</ele>
        <time>2022-05-01T05:51:39Z</time>
      </trkpt>
      <trkpt lat="45.73958" lon="4.28683">
        <ele>363</ele>
        <time>2022-05-01T05:51:43Z</time>
      </trkpt>
      <trkpt lat="45.73978" lon="4.28666">
        <ele>364</ele>
        <time>2022-05-01T05:51:48Z</time>
      </trkpt>
      <trkpt lat="45.74041" lon="4.28627">
        <ele>367</ele>
        <time>2022-05-01T05:52:00Z</time>
      </trkpt>
      <trkpt lat="45.74051" lon="4.28625">
        <ele>368</ele>
        <time>2022-05-01T05:52:02Z</time>
      </trkpt>
      <trkpt lat="45.74064" lon="4.28633">
        <ele>370</ele>
        <time>2022-05-01T05:52:04Z</time>
      </trkpt>
      <trkpt lat="45.74076" lon="4.28616">
        <ele>369</ele>
        <time>2022-05-01T05:52:07Z</time>
      </trkpt>
      <trkpt lat="45.74084" lon="4.28596">
        <ele>368</ele>
        <time>2022-05-01T05:52:10Z</time>
      </trkpt>
      <trkpt lat="45.74101" lon="4.28474">
        <ele>364</ele>
        <time>2022-05-01T05:52:25Z</time>
      </trkpt>
      <trkpt lat="45.74111" lon="4.2838">
        <ele>360</ele>
        <time>2022-05-01T05:52:37Z</time>
      </trkpt>
      <trkpt lat="45.74142" lon="4.28158">
        <ele>356</ele>
        <time>2022-05-01T05:53:05Z</time>
      </trkpt>
      <trkpt lat="45.74167" lon="4.28064">
        <ele>354</ele>
        <time>2022-05-01T05:53:18Z</time>
      </trkpt>
      <trkpt lat="45.74213" lon="4.27936">
        <ele>355</ele>
        <time>2022-05-01T05:53:36Z</time>
      </trkpt>
      <trkpt lat="45.7425" lon="4.27789">
        <ele>353</ele>
        <time>2022-05-01T05:53:55Z</time>
      </trkpt>
      <trkpt lat="45.74261" lon="4.27769">
        <ele>353</ele>
        <time>2022-05-01T05:53:58Z</time>
      </trkpt>
      <trkpt lat="45.74291" lon="4.27731">
        <ele>352</ele>
        <time>2022-05-01T05:54:05Z</time>
      </trkpt>
      <trkpt lat="45.743" lon="4.27725">
        <ele>352</ele>
        <time>2022-05-01T05:54:07Z</time>
      </trkpt>
      <trkpt lat="45.7442" lon="4.27616">
        <ele>352</ele>
        <time>2022-05-01T05:54:32Z</time>
      </trkpt>
      <trkpt lat="45.74467" lon="4.27579">
        <ele>353</ele>
        <time>2022-05-01T05:54:42Z</time>
      </trkpt>
      <trkpt lat="45.74572" lon="4.27504">
        <ele>348</ele>
        <time>2022-05-01T05:55:03Z</time>
      </trkpt>
      <trkpt lat="45.74932" lon="4.27268">
        <ele>357</ele>
        <time>2022-05-01T05:56:13Z</time>
      </trkpt>
      <trkpt lat="45.74994" lon="4.27214">
        <ele>358</ele>
        <time>2022-05-01T05:56:26Z</time>
      </trkpt>
      <trkpt lat="45.75029" lon="4.27177">
        <ele>359</ele>
        <time>2022-05-01T05:56:34Z</time>
      </trkpt>
      <trkpt lat="45.7509" lon="4.27123">
        <ele>362</ele>
        <time>2022-05-01T05:56:47Z</time>
      </trkpt>
      <trkpt lat="45.75135" lon="4.27098">
        <ele>363</ele>
        <time>2022-05-01T05:56:55Z</time>
      </trkpt>
      <trkpt lat="45.7528" lon="4.27059">
        <ele>366</ele>
        <time>2022-05-01T05:57:22Z</time>
      </trkpt>
      <trkpt lat="45.75537" lon="4.26971">
        <ele>371</ele>
        <time>2022-05-01T05:58:09Z</time>
      </trkpt>
      <trkpt lat="45.75607" lon="4.26952">
        <ele>374</ele>
        <time>2022-05-01T05:58:21Z</time>
      </trkpt>
      <trkpt lat="45.75707" lon="4.26939">
        <ele>377</ele>
        <time>2022-05-01T05:58:39Z</time>
      </trkpt>
      <trkpt lat="45.75974" lon="4.26823">
        <ele>383</ele>
        <time>2022-05-01T05:59:29Z</time>
      </trkpt>
      <trkpt lat="45.7601" lon="4.26821">
        <ele>384</ele>
        <time>2022-05-01T05:59:35Z</time>
      </trkpt>
      <trkpt lat="45.76122" lon="4.26829">
        <ele>391</ele>
        <time>2022-05-01T05:59:55Z</time>
      </trkpt>
      <trkpt lat="45.76189" lon="4.26814">
        <ele>395</ele>
        <time>2022-05-01T06:00:07Z</time>
      </trkpt>
      <trkpt lat="45.76293" lon="4.26754">
        <ele>398</ele>
        <time>2022-05-01T06:00:27Z</time>
      </trkpt>
      <trkpt lat="45.76312" lon="4.26738">
        <ele>398</ele>
        <time>2022-05-01T06:00:31Z</time>
      </trkpt>
      <trkpt lat="45.76381" lon="4.26662">
        <ele>400</ele>
        <time>2022-05-01T06:00:47Z</time>
      </trkpt>
      <trkpt lat="45.76418" lon="4.26627">
        <ele>400</ele>
        <time>2022-05-01T06:00:54Z</time>
      </trkpt>
      <trkpt lat="45.76512" lon="4.26518">
        <ele>396</ele>
        <time>2022-05-01T06:01:16Z</time>
      </trkpt>
      <trkpt lat="45.76596" lon="4.26415">
        <ele>393</ele>
        <time>2022-05-01T06:01:36Z</time>
      </trkpt>
      <trkpt lat="45.7668" lon="4.26327">
        <ele>391</ele>
        <time>2022-05-01T06:01:54Z</time>
      </trkpt>
      <trkpt lat="45.76841" lon="4.2618">
        <ele>392</ele>
        <time>2022-05-01T06:02:28Z</time>
      </trkpt>
      <trkpt lat="45.7692" lon="4.26121">
        <ele>389</ele>
        <time>2022-05-01T06:02:44Z</time>
      </trkpt>
      <trkpt lat="45.76975" lon="4.26084">
        <ele>389</ele>
        <time>2022-05-01T06:02:55Z</time>
      </trkpt>
      <trkpt lat="45.77017" lon="4.26066">
        <ele>389</ele>
        <time>2022-05-01T06:03:03Z</time>
      </trkpt>
      <trkpt lat="45.77061" lon="4.26053">
        <ele>390</ele>
        <time>2022-05-01T06:03:11Z</time>
      </trkpt>
      <trkpt lat="45.77108" lon="4.26035">
        <ele>390</ele>
        <time>2022-05-01T06:03:19Z</time>
      </trkpt>
      <trkpt lat="45.77148" lon="4.26016">
        <ele>390</ele>
        <time>2022-05-01T06:03:27Z</time>
      </trkpt>
      <trkpt lat="45.77346" lon="4.25869">
        <ele>390</ele>
        <time>2022-05-01T06:04:06Z</time>
      </trkpt>
      <trkpt lat="45.77794" lon="4.2546">
        <ele>384</ele>
        <time>2022-05-01T06:05:41Z</time>
      </trkpt>
      <trkpt lat="45.77814" lon="4.25453">
        <ele>384</ele>
        <time>2022-05-01T06:05:45Z</time>
      </trkpt>
      <trkpt lat="45.77816" lon="4.25456">
        <ele>384</ele>
        <time>2022-05-01T06:05:45Z</time>
      </trkpt>
      <trkpt lat="45.77827" lon="4.2546">
        <ele>385</ele>
        <time>2022-05-01T06:05:47Z</time>
      </trkpt>
      <trkpt lat="45.77833" lon="4.25458">
        <ele>385</ele>
        <time>2022-05-01T06:05:48Z</time>
      </trkpt>
      <trkpt lat="45.7784" lon="4.25451">
        <ele>385</ele>
        <time>2022-05-01T06:05:50Z</time>
      </trkpt>
      <trkpt lat="45.77844" lon="4.2544">
        <ele>384</ele>
        <time>2022-05-01T06:05:51Z</time>
      </trkpt>
      <trkpt lat="45.77845" lon="4.2543">
        <ele>383</ele>
        <time>2022-05-01T06:05:52Z</time>
      </trkpt>
      <trkpt lat="45.77843" lon="4.25423">
        <ele>382</ele>
        <time>2022-05-01T06:05:53Z</time>
      </trkpt>
      <trkpt lat="45.77853" lon="4.25399">
        <ele>382</ele>
        <time>2022-05-01T06:05:57Z</time>
      </trkpt>
      <trkpt lat="45.77878" lon="4.25366">
        <ele>382</ele>
        <time>2022-05-01T06:06:03Z</time>
      </trkpt>
      <trkpt lat="45.77888" lon="4.25341">
        <ele>382</ele>
        <time>2022-05-01T06:06:07Z</time>
      </trkpt>
      <trkpt lat="45.77908" lon="4.25335">
        <ele>383</ele>
        <time>2022-05-01T06:06:10Z</time>
      </trkpt>
      <trkpt lat="45.7794" lon="4.25301">
        <ele>383</ele>
        <time>2022-05-01T06:06:17Z</time>
      </trkpt>
      <trkpt lat="45.77977" lon="4.25269">
        <ele>385</ele>
        <time>2022-05-01T06:06:25Z</time>
      </trkpt>
      <trkpt lat="45.78046" lon="4.25232">
        <ele>388</ele>
        <time>2022-05-01T06:06:38Z</time>
      </trkpt>
      <trkpt lat="45.78064" lon="4.25226">
        <ele>389</ele>
        <time>2022-05-01T06:06:41Z</time>
      </trkpt>
      <trkpt lat="45.78087" lon="4.25233">
        <ele>391</ele>
        <time>2022-05-01T06:06:46Z</time>
      </trkpt>
      <trkpt lat="45.78101" lon="4.25249">
        <ele>392</ele>
        <time>2022-05-01T06:06:49Z</time>
      </trkpt>
      <trkpt lat="45.78111" lon="4.25268">
        <ele>393</ele>
        <time>2022-05-01T06:06:52Z</time>
      </trkpt>
      <trkpt lat="45.7817" lon="4.25476">
        <ele>401</ele>
        <time>2022-05-01T06:07:20Z</time>
      </trkpt>
      <trkpt lat="45.78176" lon="4.25505">
        <ele>403</ele>
        <time>2022-05-01T06:07:23Z</time>
      </trkpt>
      <trkpt lat="45.78178" lon="4.25561">
        <ele>406</ele>
        <time>2022-05-01T06:07:30Z</time>
      </trkpt>
      <trkpt lat="45.78166" lon="4.2561">
        <ele>409</ele>
        <time>2022-05-01T06:07:37Z</time>
      </trkpt>
      <trkpt lat="45.78133" lon="4.25708">
        <ele>413</ele>
        <time>2022-05-01T06:07:50Z</time>
      </trkpt>
      <trkpt lat="45.78125" lon="4.25748">
        <ele>414</ele>
        <time>2022-05-01T06:07:55Z</time>
      </trkpt>
      <trkpt lat="45.78125" lon="4.25782">
        <ele>415</ele>
        <time>2022-05-01T06:08:00Z</time>
      </trkpt>
      <trkpt lat="45.78128" lon="4.25809">
        <ele>416</ele>
        <time>2022-05-01T06:08:03Z</time>
      </trkpt>
      <trkpt lat="45.78139" lon="4.25839">
        <ele>417</ele>
        <time>2022-05-01T06:08:07Z</time>
      </trkpt>
      <trkpt lat="45.78436" lon="4.264">
        <ele>414</ele>
        <time>2022-05-01T06:09:35Z</time>
      </trkpt>
      <trkpt lat="45.78451" lon="4.26433">
        <ele>412</ele>
        <time>2022-05-01T06:09:39Z</time>
      </trkpt>
      <trkpt lat="45.78469" lon="4.26502">
        <ele>411</ele>
        <time>2022-05-01T06:09:49Z</time>
      </trkpt>
      <trkpt lat="45.78474" lon="4.26562">
        <ele>411</ele>
        <time>2022-05-01T06:09:56Z</time>
      </trkpt>
      <trkpt lat="45.7846" lon="4.26752">
        <ele>411</ele>
        <time>2022-05-01T06:10:20Z</time>
      </trkpt>
      <trkpt lat="45.78457" lon="4.27098">
        <ele>415</ele>
        <time>2022-05-01T06:11:03Z</time>
      </trkpt>
      <trkpt lat="45.78464" lon="4.27146">
        <ele>416</ele>
        <time>2022-05-01T06:11:09Z</time>
      </trkpt>
      <trkpt lat="45.78479" lon="4.2719">
        <ele>418</ele>
        <time>2022-05-01T06:11:15Z</time>
      </trkpt>
      <trkpt lat="45.785" lon="4.27228">
        <ele>418</ele>
        <time>2022-05-01T06:11:21Z</time>
      </trkpt>
      <trkpt lat="45.78528" lon="4.2726">
        <ele>421</ele>
        <time>2022-05-01T06:11:27Z</time>
      </trkpt>
      <trkpt lat="45.78595" lon="4.27313">
        <ele>426</ele>
        <time>2022-05-01T06:11:41Z</time>
      </trkpt>
      <trkpt lat="45.78621" lon="4.27337">
        <ele>428</ele>
        <time>2022-05-01T06:11:46Z</time>
      </trkpt>
      <trkpt lat="45.78632" lon="4.27357">
        <ele>428</ele>
        <time>2022-05-01T06:11:50Z</time>
      </trkpt>
      <trkpt lat="45.78641" lon="4.27381">
        <ele>428</ele>
        <time>2022-05-01T06:11:53Z</time>
      </trkpt>
      <trkpt lat="45.78656" lon="4.27471">
        <ele>426</ele>
        <time>2022-05-01T06:12:04Z</time>
      </trkpt>
      <trkpt lat="45.78662" lon="4.2749">
        <ele>427</ele>
        <time>2022-05-01T06:12:07Z</time>
      </trkpt>
      <trkpt lat="45.78678" lon="4.27509">
        <ele>428</ele>
        <time>2022-05-01T06:12:11Z</time>
      </trkpt>
      <trkpt lat="45.78695" lon="4.27518">
        <ele>429</ele>
        <time>2022-05-01T06:12:14Z</time>
      </trkpt>
      <trkpt lat="45.78761" lon="4.27507">
        <ele>439</ele>
        <time>2022-05-01T06:12:26Z</time>
      </trkpt>
      <trkpt lat="45.78844" lon="4.27486">
        <ele>447</ele>
        <time>2022-05-01T06:12:41Z</time>
      </trkpt>
      <trkpt lat="45.78896" lon="4.27463">
        <ele>451</ele>
        <time>2022-05-01T06:12:50Z</time>
      </trkpt>
      <trkpt lat="45.78935" lon="4.27437">
        <ele>456</ele>
        <time>2022-05-01T06:12:58Z</time>
      </trkpt>
      <trkpt lat="45.78994" lon="4.27388">
        <ele>459</ele>
        <time>2022-05-01T06:13:10Z</time>
      </trkpt>
      <trkpt lat="45.79039" lon="4.27375">
        <ele>459</ele>
        <time>2022-05-01T06:13:18Z</time>
      </trkpt>
      <trkpt lat="45.79109" lon="4.2735">
        <ele>457</ele>
        <time>2022-05-01T06:13:31Z</time>
      </trkpt>
      <trkpt lat="45.79127" lon="4.27334">
        <ele>457</ele>
        <time>2022-05-01T06:13:35Z</time>
      </trkpt>
      <trkpt lat="45.79159" lon="4.27266">
        <ele>464</ele>
        <time>2022-05-01T06:13:45Z</time>
      </trkpt>
      <trkpt lat="45.79178" lon="4.27249">
        <ele>466</ele>
        <time>2022-05-01T06:13:49Z</time>
      </trkpt>
      <trkpt lat="45.79194" lon="4.27243">
        <ele>468</ele>
        <time>2022-05-01T06:13:52Z</time>
      </trkpt>
      <trkpt lat="45.7923" lon="4.27248">
        <ele>468</ele>
        <time>2022-05-01T06:13:59Z</time>
      </trkpt>
      <trkpt lat="45.79263" lon="4.27263">
        <ele>466</ele>
        <time>2022-05-01T06:14:05Z</time>
      </trkpt>
      <trkpt lat="45.7928" lon="4.27267">
        <ele>466</ele>
        <time>2022-05-01T06:14:08Z</time>
      </trkpt>
      <trkpt lat="45.79294" lon="4.27265">
        <ele>467</ele>
        <time>2022-05-01T06:14:10Z</time>
      </trkpt>
      <trkpt lat="45.79329" lon="4.27247">
        <ele>469</ele>
        <time>2022-05-01T06:14:17Z</time>
      </trkpt>
      <trkpt lat="45.79358" lon="4.27226">
        <ele>472</ele>
        <time>2022-05-01T06:14:23Z</time>
      </trkpt>
      <trkpt lat="45.79392" lon="4.27207">
        <ele>475</ele>
        <time>2022-05-01T06:14:29Z</time>
      </trkpt>
      <trkpt lat="45.79415" lon="4.27205">
        <ele>476</ele>
        <time>2022-05-01T06:14:33Z</time>
      </trkpt>
      <trkpt lat="45.79445" lon="4.27214">
        <ele>476</ele>
        <time>2022-05-01T06:14:39Z</time>
      </trkpt>
      <trkpt lat="45.79495" lon="4.27221">
        <ele>478</ele>
        <time>2022-05-01T06:14:48Z</time>
      </trkpt>
      <trkpt lat="45.79535" lon="4.27225">
        <ele>480</ele>
        <time>2022-05-01T06:14:55Z</time>
      </trkpt>
      <trkpt lat="45.79572" lon="4.27225">
        <ele>482</ele>
        <time>2022-05-01T06:15:01Z</time>
      </trkpt>
      <trkpt lat="45.79586" lon="4.27236">
        <ele>482</ele>
        <time>2022-05-01T06:15:04Z</time>
      </trkpt>
      <trkpt lat="45.79595" lon="4.27252">
        <ele>482</ele>
        <time>2022-05-01T06:15:07Z</time>
      </trkpt>
      <trkpt lat="45.79667" lon="4.27449">
        <ele>481</ele>
        <time>2022-05-01T06:15:34Z</time>
      </trkpt>
      <trkpt lat="45.79689" lon="4.27512">
        <ele>482</ele>
        <time>2022-05-01T06:15:43Z</time>
      </trkpt>
      <trkpt lat="45.79728" lon="4.27658">
        <ele>489</ele>
        <time>2022-05-01T06:16:02Z</time>
      </trkpt>
      <trkpt lat="45.79735" lon="4.27672">
        <ele>489</ele>
        <time>2022-05-01T06:16:05Z</time>
      </trkpt>
      <trkpt lat="45.79732" lon="4.27681">
        <ele>490</ele>
        <time>2022-05-01T06:16:06Z</time>
      </trkpt>
      <trkpt lat="45.79735" lon="4.2769">
        <ele>491</ele>
        <time>2022-05-01T06:16:07Z</time>
      </trkpt>
      <trkpt lat="45.79741" lon="4.27694">
        <ele>491</ele>
        <time>2022-05-01T06:16:08Z</time>
      </trkpt>
      <trkpt lat="45.79745" lon="4.27692">
        <ele>491</ele>
        <time>2022-05-01T06:16:09Z</time>
      </trkpt>
      <trkpt lat="45.79809" lon="4.27738">
        <ele>494</ele>
        <time>2022-05-01T06:16:22Z</time>
      </trkpt>
      <trkpt lat="45.79745" lon="4.27692">
        <ele>491</ele>
        <time>2022-05-01T06:16:34Z</time>
      </trkpt>
      <trkpt lat="45.79748" lon="4.27678">
        <ele>490</ele>
        <time>2022-05-01T06:16:36Z</time>
      </trkpt>
      <trkpt lat="45.79799" lon="4.2766">
        <ele>492</ele>
        <time>2022-05-01T06:16:46Z</time>
      </trkpt>
      <trkpt lat="45.79871" lon="4.2765">
        <ele>494</ele>
        <time>2022-05-01T06:16:59Z</time>
      </trkpt>
      <trkpt lat="45.79903" lon="4.27643">
        <ele>495</ele>
        <time>2022-05-01T06:17:04Z</time>
      </trkpt>
      <trkpt lat="45.79946" lon="4.27621">
        <ele>494</ele>
        <time>2022-05-01T06:17:12Z</time>
      </trkpt>
      <trkpt lat="45.8005" lon="4.27557">
        <ele>492</ele>
        <time>2022-05-01T06:17:33Z</time>
      </trkpt>
      <trkpt lat="45.80072" lon="4.27553">
        <ele>492</ele>
        <time>2022-05-01T06:17:36Z</time>
      </trkpt>
      <trkpt lat="45.80073" lon="4.27558">
        <ele>492</ele>
        <time>2022-05-01T06:17:37Z</time>
      </trkpt>
      <trkpt lat="45.80078" lon="4.27563">
        <ele>492</ele>
        <time>2022-05-01T06:17:38Z</time>
      </trkpt>
      <trkpt lat="45.80081" lon="4.27563">
        <ele>492</ele>
        <time>2022-05-01T06:17:39Z</time>
      </trkpt>
      <trkpt lat="45.80085" lon="4.2756">
        <ele>492</ele>
        <time>2022-05-01T06:17:40Z</time>
      </trkpt>
      <trkpt lat="45.80087" lon="4.27553">
        <ele>493</ele>
        <time>2022-05-01T06:17:40Z</time>
      </trkpt>
      <trkpt lat="45.80085" lon="4.27546">
        <ele>493</ele>
        <time>2022-05-01T06:17:41Z</time>
      </trkpt>
      <trkpt lat="45.8011" lon="4.27526">
        <ele>494</ele>
        <time>2022-05-01T06:17:47Z</time>
      </trkpt>
      <trkpt lat="45.80185" lon="4.27481">
        <ele>496</ele>
        <time>2022-05-01T06:18:01Z</time>
      </trkpt>
      <trkpt lat="45.80283" lon="4.27418">
        <ele>494</ele>
        <time>2022-05-01T06:18:20Z</time>
      </trkpt>
      <trkpt lat="45.80307" lon="4.27382">
        <ele>493</ele>
        <time>2022-05-01T06:18:26Z</time>
      </trkpt>
      <trkpt lat="45.8032" lon="4.27354">
        <ele>493</ele>
        <time>2022-05-01T06:18:30Z</time>
      </trkpt>
      <trkpt lat="45.80341" lon="4.2732">
        <ele>493</ele>
        <time>2022-05-01T06:18:36Z</time>
      </trkpt>
      <trkpt lat="45.80357" lon="4.27304">
        <ele>494</ele>
        <time>2022-05-01T06:18:40Z</time>
      </trkpt>
      <trkpt lat="45.80408" lon="4.27265">
        <ele>494</ele>
        <time>2022-05-01T06:18:50Z</time>
      </trkpt>
      <trkpt lat="45.80453" lon="4.27197">
        <ele>494</ele>
        <time>2022-05-01T06:19:01Z</time>
      </trkpt>
      <trkpt lat="45.80552" lon="4.27035">
        <ele>493</ele>
        <time>2022-05-01T06:19:28Z</time>
      </trkpt>
      <trkpt lat="45.80588" lon="4.26993">
        <ele>491</ele>
        <time>2022-05-01T06:19:36Z</time>
      </trkpt>
      <trkpt lat="45.80624" lon="4.26961">
        <ele>489</ele>
        <time>2022-05-01T06:19:44Z</time>
      </trkpt>
      <trkpt lat="45.80678" lon="4.26926">
        <ele>487</ele>
        <time>2022-05-01T06:19:55Z</time>
      </trkpt>
      <trkpt lat="45.80693" lon="4.2691">
        <ele>487</ele>
        <time>2022-05-01T06:19:58Z</time>
      </trkpt>
      <trkpt lat="45.80707" lon="4.2689">
        <ele>486</ele>
        <time>2022-05-01T06:20:01Z</time>
      </trkpt>
      <trkpt lat="45.80731" lon="4.26832">
        <ele>484</ele>
        <time>2022-05-01T06:20:10Z</time>
      </trkpt>
      <trkpt lat="45.80772" lon="4.2677">
        <ele>481</ele>
        <time>2022-05-01T06:20:20Z</time>
      </trkpt>
      <trkpt lat="45.80779" lon="4.26752">
        <ele>481</ele>
        <time>2022-05-01T06:20:23Z</time>
      </trkpt>
      <trkpt lat="45.808" lon="4.26668">
        <ele>482</ele>
        <time>2022-05-01T06:20:34Z</time>
      </trkpt>
      <trkpt lat="45.80815" lon="4.26633">
        <ele>483</ele>
        <time>2022-05-01T06:20:39Z</time>
      </trkpt>
      <trkpt lat="45.80859" lon="4.26553">
        <ele>487</ele>
        <time>2022-05-01T06:20:52Z</time>
      </trkpt>
      <trkpt lat="45.80921" lon="4.2647">
        <ele>488</ele>
        <time>2022-05-01T06:21:07Z</time>
      </trkpt>
      <trkpt lat="45.81006" lon="4.26374">
        <ele>484</ele>
        <time>2022-05-01T06:21:26Z</time>
      </trkpt>
      <trkpt lat="45.81022" lon="4.26362">
        <ele>484</ele>
        <time>2022-05-01T06:21:29Z</time>
      </trkpt>
      <trkpt lat="45.8104" lon="4.26356">
        <ele>483</ele>
        <time>2022-05-01T06:21:33Z</time>
      </trkpt>
      <trkpt lat="45.81111" lon="4.26344">
        <ele>479</ele>
        <time>2022-05-01T06:21:45Z</time>
      </trkpt>
      <trkpt lat="45.81188" lon="4.26335">
        <ele>476</ele>
        <time>2022-05-01T06:21:59Z</time>
      </trkpt>
      <trkpt lat="45.81322" lon="4.2628">
        <ele>471</ele>
        <time>2022-05-01T06:22:24Z</time>
      </trkpt>
      <trkpt lat="45.81343" lon="4.26275">
        <ele>470</ele>
        <time>2022-05-01T06:22:28Z</time>
      </trkpt>
      <trkpt lat="45.81367" lon="4.26272">
        <ele>469</ele>
        <time>2022-05-01T06:22:32Z</time>
      </trkpt>
      <trkpt lat="45.8138" lon="4.26275">
        <ele>469</ele>
        <time>2022-05-01T06:22:34Z</time>
      </trkpt>
      <trkpt lat="45.81392" lon="4.26282">
        <ele>470</ele>
        <time>2022-05-01T06:22:36Z</time>
      </trkpt>
      <trkpt lat="45.81452" lon="4.26375">
        <ele>479</ele>
        <time>2022-05-01T06:22:52Z</time>
      </trkpt>
      <trkpt lat="45.8147" lon="4.26393">
        <ele>478</ele>
        <time>2022-05-01T06:22:56Z</time>
      </trkpt>
      <trkpt lat="45.81515" lon="4.26403">
        <ele>477</ele>
        <time>2022-05-01T06:23:04Z</time>
      </trkpt>
      <trkpt lat="45.81521" lon="4.26411">
        <ele>478</ele>
        <time>2022-05-01T06:23:06Z</time>
      </trkpt>
      <trkpt lat="45.81563" lon="4.26504">
        <ele>481</ele>
        <time>2022-05-01T06:23:19Z</time>
      </trkpt>
      <trkpt lat="45.81596" lon="4.26549">
        <ele>481</ele>
        <time>2022-05-01T06:23:28Z</time>
      </trkpt>
      <trkpt lat="45.81605" lon="4.26588">
        <ele>482</ele>
        <time>2022-05-01T06:23:33Z</time>
      </trkpt>
      <trkpt lat="45.81615" lon="4.26656">
        <ele>487</ele>
        <time>2022-05-01T06:23:41Z</time>
      </trkpt>
      <trkpt lat="45.81622" lon="4.26685">
        <ele>488</ele>
        <time>2022-05-01T06:23:45Z</time>
      </trkpt>
      <trkpt lat="45.81653" lon="4.26783">
        <ele>490</ele>
        <time>2022-05-01T06:23:58Z</time>
      </trkpt>
      <trkpt lat="45.81664" lon="4.26846">
        <ele>489</ele>
        <time>2022-05-01T06:24:06Z</time>
      </trkpt>
      <trkpt lat="45.81678" lon="4.26879">
        <ele>491</ele>
        <time>2022-05-01T06:24:11Z</time>
      </trkpt>
      <trkpt lat="45.81724" lon="4.26958">
        <ele>497</ele>
        <time>2022-05-01T06:24:24Z</time>
      </trkpt>
      <trkpt lat="45.81764" lon="4.26987">
        <ele>502</ele>
        <time>2022-05-01T06:24:32Z</time>
      </trkpt>
      <trkpt lat="45.81779" lon="4.26991">
        <ele>504</ele>
        <time>2022-05-01T06:24:35Z</time>
      </trkpt>
      <trkpt lat="45.8179" lon="4.26987">
        <ele>505</ele>
        <time>2022-05-01T06:24:37Z</time>
      </trkpt>
      <trkpt lat="45.81799" lon="4.26976">
        <ele>506</ele>
        <time>2022-05-01T06:24:39Z</time>
      </trkpt>
      <trkpt lat="45.81812" lon="4.26922">
        <ele>505</ele>
        <time>2022-05-01T06:24:46Z</time>
      </trkpt>
      <trkpt lat="45.81821" lon="4.26909">
        <ele>506</ele>
        <time>2022-05-01T06:24:48Z</time>
      </trkpt>
      <trkpt lat="45.81912" lon="4.26862">
        <ele>517</ele>
        <time>2022-05-01T06:25:05Z</time>
      </trkpt>
      <trkpt lat="45.81922" lon="4.26849">
        <ele>518</ele>
        <time>2022-05-01T06:25:08Z</time>
      </trkpt>
      <trkpt lat="45.81929" lon="4.26832">
        <ele>519</ele>
        <time>2022-05-01T06:25:10Z</time>
      </trkpt>
      <trkpt lat="45.81931" lon="4.26811">
        <ele>522</ele>
        <time>2022-05-01T06:25:13Z</time>
      </trkpt>
      <trkpt lat="45.81928" lon="4.26795">
        <ele>523</ele>
        <time>2022-05-01T06:25:15Z</time>
      </trkpt>
      <trkpt lat="45.8192" lon="4.26773">
        <ele>523</ele>
        <time>2022-05-01T06:25:18Z</time>
      </trkpt>
      <trkpt lat="45.81872" lon="4.26705">
        <ele>523</ele>
        <time>2022-05-01T06:25:30Z</time>
      </trkpt>
      <trkpt lat="45.81861" lon="4.26677">
        <ele>522</ele>
        <time>2022-05-01T06:25:34Z</time>
      </trkpt>
      <trkpt lat="45.81862" lon="4.26657">
        <ele>522</ele>
        <time>2022-05-01T06:25:36Z</time>
      </trkpt>
      <trkpt lat="45.81868" lon="4.26635">
        <ele>522</ele>
        <time>2022-05-01T06:25:39Z</time>
      </trkpt>
      <trkpt lat="45.81878" lon="4.26612">
        <ele>523</ele>
        <time>2022-05-01T06:25:43Z</time>
      </trkpt>
      <trkpt lat="45.81906" lon="4.26592">
        <ele>527</ele>
        <time>2022-05-01T06:25:48Z</time>
      </trkpt>
      <trkpt lat="45.81926" lon="4.26572">
        <ele>529</ele>
        <time>2022-05-01T06:25:53Z</time>
      </trkpt>
      <trkpt lat="45.8194" lon="4.26549">
        <ele>531</ele>
        <time>2022-05-01T06:25:56Z</time>
      </trkpt>
      <trkpt lat="45.81952" lon="4.26535">
        <ele>532</ele>
        <time>2022-05-01T06:25:59Z</time>
      </trkpt>
      <trkpt lat="45.81983" lon="4.26516">
        <ele>534</ele>
        <time>2022-05-01T06:26:05Z</time>
      </trkpt>
      <trkpt lat="45.82006" lon="4.26509">
        <ele>534</ele>
        <time>2022-05-01T06:26:09Z</time>
      </trkpt>
      <trkpt lat="45.82032" lon="4.2651">
        <ele>533</ele>
        <time>2022-05-01T06:26:14Z</time>
      </trkpt>
      <trkpt lat="45.82053" lon="4.26517">
        <ele>533</ele>
        <time>2022-05-01T06:26:18Z</time>
      </trkpt>
      <trkpt lat="45.82104" lon="4.26545">
        <ele>536</ele>
        <time>2022-05-01T06:26:28Z</time>
      </trkpt>
      <trkpt lat="45.82114" lon="4.26543">
        <ele>537</ele>
        <time>2022-05-01T06:26:29Z</time>
      </trkpt>
      <trkpt lat="45.82124" lon="4.26536">
        <ele>537</ele>
        <time>2022-05-01T06:26:31Z</time>
      </trkpt>
      <trkpt lat="45.82129" lon="4.26523">
        <ele>537</ele>
        <time>2022-05-01T06:26:33Z</time>
      </trkpt>
      <trkpt lat="45.8213" lon="4.2651">
        <ele>537</ele>
        <time>2022-05-01T06:26:35Z</time>
      </trkpt>
      <trkpt lat="45.82111" lon="4.26419">
        <ele>528</ele>
        <time>2022-05-01T06:26:47Z</time>
      </trkpt>
      <trkpt lat="45.8211" lon="4.26387">
        <ele>525</ele>
        <time>2022-05-01T06:26:51Z</time>
      </trkpt>
      <trkpt lat="45.82117" lon="4.26337">
        <ele>523</ele>
        <time>2022-05-01T06:26:57Z</time>
      </trkpt>
      <trkpt lat="45.82123" lon="4.26315">
        <ele>521</ele>
        <time>2022-05-01T06:27:00Z</time>
      </trkpt>
      <trkpt lat="45.82132" lon="4.26298">
        <ele>520</ele>
        <time>2022-05-01T06:27:02Z</time>
      </trkpt>
      <trkpt lat="45.82143" lon="4.26289">
        <ele>519</ele>
        <time>2022-05-01T06:27:05Z</time>
      </trkpt>
      <trkpt lat="45.82165" lon="4.26285">
        <ele>520</ele>
        <time>2022-05-01T06:27:09Z</time>
      </trkpt>
      <trkpt lat="45.82223" lon="4.26324">
        <ele>524</ele>
        <time>2022-05-01T06:27:20Z</time>
      </trkpt>
      <trkpt lat="45.82237" lon="4.26325">
        <ele>523</ele>
        <time>2022-05-01T06:27:23Z</time>
      </trkpt>
      <trkpt lat="45.82252" lon="4.26323">
        <ele>523</ele>
        <time>2022-05-01T06:27:25Z</time>
      </trkpt>
      <trkpt lat="45.82261" lon="4.26313">
        <ele>525</ele>
        <time>2022-05-01T06:27:27Z</time>
      </trkpt>
      <trkpt lat="45.82267" lon="4.263">
        <ele>527</ele>
        <time>2022-05-01T06:27:29Z</time>
      </trkpt>
      <trkpt lat="45.82269" lon="4.26286">
        <ele>527</ele>
        <time>2022-05-01T06:27:31Z</time>
      </trkpt>
      <trkpt lat="45.82267" lon="4.26271">
        <ele>527</ele>
        <time>2022-05-01T06:27:33Z</time>
      </trkpt>
      <trkpt lat="45.82259" lon="4.26248">
        <ele>525</ele>
        <time>2022-05-01T06:27:36Z</time>
      </trkpt>
      <trkpt lat="45.82211" lon="4.26144">
        <ele>523</ele>
        <time>2022-05-01T06:27:51Z</time>
      </trkpt>
      <trkpt lat="45.82209" lon="4.26127">
        <ele>523</ele>
        <time>2022-05-01T06:27:54Z</time>
      </trkpt>
      <trkpt lat="45.82211" lon="4.26112">
        <ele>523</ele>
        <time>2022-05-01T06:27:56Z</time>
      </trkpt>
      <trkpt lat="45.82217" lon="4.26096">
        <ele>524</ele>
        <time>2022-05-01T06:27:58Z</time>
      </trkpt>
      <trkpt lat="45.82226" lon="4.26084">
        <ele>526</ele>
        <time>2022-05-01T06:28:00Z</time>
      </trkpt>
      <trkpt lat="45.82304" lon="4.26009">
        <ele>534</ele>
        <time>2022-05-01T06:28:17Z</time>
      </trkpt>
      <trkpt lat="45.82313" lon="4.25997">
        <ele>535</ele>
        <time>2022-05-01T06:28:19Z</time>
      </trkpt>
      <trkpt lat="45.82317" lon="4.25985">
        <ele>536</ele>
        <time>2022-05-01T06:28:20Z</time>
      </trkpt>
      <trkpt lat="45.82315" lon="4.2596">
        <ele>537</ele>
        <time>2022-05-01T06:28:24Z</time>
      </trkpt>
      <trkpt lat="45.823" lon="4.25939">
        <ele>537</ele>
        <time>2022-05-01T06:28:27Z</time>
      </trkpt>
      <trkpt lat="45.82228" lon="4.25894">
        <ele>534</ele>
        <time>2022-05-01T06:28:41Z</time>
      </trkpt>
      <trkpt lat="45.821" lon="4.25765">
        <ele>532</ele>
        <time>2022-05-01T06:29:09Z</time>
      </trkpt>
      <trkpt lat="45.82084" lon="4.25743">
        <ele>531</ele>
        <time>2022-05-01T06:29:13Z</time>
      </trkpt>
      <trkpt lat="45.82076" lon="4.25713">
        <ele>529</ele>
        <time>2022-05-01T06:29:17Z</time>
      </trkpt>
      <trkpt lat="45.82076" lon="4.25686">
        <ele>529</ele>
        <time>2022-05-01T06:29:20Z</time>
      </trkpt>
      <trkpt lat="45.82089" lon="4.25614">
        <ele>528</ele>
        <time>2022-05-01T06:29:30Z</time>
      </trkpt>
      <trkpt lat="45.82101" lon="4.25581">
        <ele>526</ele>
        <time>2022-05-01T06:29:34Z</time>
      </trkpt>
      <trkpt lat="45.82114" lon="4.25561">
        <ele>524</ele>
        <time>2022-05-01T06:29:38Z</time>
      </trkpt>
      <trkpt lat="45.82127" lon="4.2555">
        <ele>523</ele>
        <time>2022-05-01T06:29:40Z</time>
      </trkpt>
      <trkpt lat="45.82144" lon="4.25542">
        <ele>522</ele>
        <time>2022-05-01T06:29:44Z</time>
      </trkpt>
      <trkpt lat="45.82162" lon="4.25542">
        <ele>521</ele>
        <time>2022-05-01T06:29:47Z</time>
      </trkpt>
      <trkpt lat="45.822" lon="4.2555">
        <ele>519</ele>
        <time>2022-05-01T06:29:54Z</time>
      </trkpt>
      <trkpt lat="45.82235" lon="4.25563">
        <ele>518</ele>
        <time>2022-05-01T06:30:00Z</time>
      </trkpt>
      <trkpt lat="45.82259" lon="4.2558">
        <ele>517</ele>
        <time>2022-05-01T06:30:05Z</time>
      </trkpt>
      <trkpt lat="45.82297" lon="4.25615">
        <ele>516</ele>
        <time>2022-05-01T06:30:13Z</time>
      </trkpt>
      <trkpt lat="45.82317" lon="4.25627">
        <ele>516</ele>
        <time>2022-05-01T06:30:17Z</time>
      </trkpt>
      <trkpt lat="45.8239" lon="4.25629">
        <ele>510</ele>
        <time>2022-05-01T06:30:30Z</time>
      </trkpt>
      <trkpt lat="45.82415" lon="4.25633">
        <ele>509</ele>
        <time>2022-05-01T06:30:34Z</time>
      </trkpt>
      <trkpt lat="45.82466" lon="4.2565">
        <ele>509</ele>
        <time>2022-05-01T06:30:43Z</time>
      </trkpt>
      <trkpt lat="45.82479" lon="4.25646">
        <ele>508</ele>
        <time>2022-05-01T06:30:46Z</time>
      </trkpt>
      <trkpt lat="45.8249" lon="4.25635">
        <ele>508</ele>
        <time>2022-05-01T06:30:48Z</time>
      </trkpt>
      <trkpt lat="45.82496" lon="4.25619">
        <ele>507</ele>
        <time>2022-05-01T06:30:50Z</time>
      </trkpt>
      <trkpt lat="45.82501" lon="4.25593">
        <ele>506</ele>
        <time>2022-05-01T06:30:54Z</time>
      </trkpt>
      <trkpt lat="45.8251" lon="4.25575">
        <ele>505</ele>
        <time>2022-05-01T06:30:57Z</time>
      </trkpt>
      <trkpt lat="45.82535" lon="4.25557">
        <ele>503</ele>
        <time>2022-05-01T06:31:02Z</time>
      </trkpt>
      <trkpt lat="45.82544" lon="4.25556">
        <ele>503</ele>
        <time>2022-05-01T06:31:03Z</time>
      </trkpt>
      <trkpt lat="45.82675" lon="4.2558">
        <ele>499</ele>
        <time>2022-05-01T06:31:27Z</time>
      </trkpt>
      <trkpt lat="45.82702" lon="4.25583">
        <ele>500</ele>
        <time>2022-05-01T06:31:31Z</time>
      </trkpt>
      <trkpt lat="45.82711" lon="4.2558">
        <ele>501</ele>
        <time>2022-05-01T06:31:33Z</time>
      </trkpt>
      <trkpt lat="45.82717" lon="4.25573">
        <ele>501</ele>
        <time>2022-05-01T06:31:34Z</time>
      </trkpt>
      <trkpt lat="45.82723" lon="4.25556">
        <ele>502</ele>
        <time>2022-05-01T06:31:37Z</time>
      </trkpt>
      <trkpt lat="45.82719" lon="4.25535">
        <ele>503</ele>
        <time>2022-05-01T06:31:40Z</time>
      </trkpt>
      <trkpt lat="45.82636" lon="4.25435">
        <ele>501</ele>
        <time>2022-05-01T06:31:59Z</time>
      </trkpt>
      <trkpt lat="45.82618" lon="4.2543">
        <ele>500</ele>
        <time>2022-05-01T06:32:02Z</time>
      </trkpt>
      <trkpt lat="45.82586" lon="4.25411">
        <ele>498</ele>
        <time>2022-05-01T06:32:08Z</time>
      </trkpt>
      <trkpt lat="45.82588" lon="4.25303">
        <ele>505</ele>
        <time>2022-05-01T06:32:22Z</time>
      </trkpt>
      <trkpt lat="45.82578" lon="4.25275">
        <ele>506</ele>
        <time>2022-05-01T06:32:26Z</time>
      </trkpt>
      <trkpt lat="45.82495" lon="4.25139">
        <ele>511</ele>
        <time>2022-05-01T06:32:48Z</time>
      </trkpt>
      <trkpt lat="45.8248" lon="4.25101">
        <ele>511</ele>
        <time>2022-05-01T06:32:53Z</time>
      </trkpt>
      <trkpt lat="45.82469" lon="4.25003">
        <ele>512</ele>
        <time>2022-05-01T06:33:06Z</time>
      </trkpt>
      <trkpt lat="45.82469" lon="4.24986">
        <ele>512</ele>
        <time>2022-05-01T06:33:08Z</time>
      </trkpt>
      <trkpt lat="45.82474" lon="4.24971">
        <ele>513</ele>
        <time>2022-05-01T06:33:10Z</time>
      </trkpt>
      <trkpt lat="45.82487" lon="4.24947">
        <ele>514</ele>
        <time>2022-05-01T06:33:14Z</time>
      </trkpt>
      <trkpt lat="45.8252" lon="4.24916">
        <ele>516</ele>
        <time>2022-05-01T06:33:21Z</time>
      </trkpt>
      <trkpt lat="45.82578" lon="4.24878">
        <ele>518</ele>
        <time>2022-05-01T06:33:32Z</time>
      </trkpt>
      <trkpt lat="45.8263" lon="4.2484">
        <ele>515</ele>
        <time>2022-05-01T06:33:42Z</time>
      </trkpt>
      <trkpt lat="45.82643" lon="4.24834">
        <ele>514</ele>
        <time>2022-05-01T06:33:45Z</time>
      </trkpt>
      <trkpt lat="45.82701" lon="4.24852">
        <ele>515</ele>
        <time>2022-05-01T06:33:55Z</time>
      </trkpt>
      <trkpt lat="45.82708" lon="4.24853">
        <ele>515</ele>
        <time>2022-05-01T06:33:57Z</time>
      </trkpt>
      <trkpt lat="45.82714" lon="4.24851">
        <ele>515</ele>
        <time>2022-05-01T06:33:58Z</time>
      </trkpt>
      <trkpt lat="45.82729" lon="4.24829">
        <ele>513</ele>
        <time>2022-05-01T06:34:01Z</time>
      </trkpt>
      <trkpt lat="45.82775" lon="4.24652">
        <ele>499</ele>
        <time>2022-05-01T06:34:25Z</time>
      </trkpt>
      <trkpt lat="45.82786" lon="4.24628">
        <ele>498</ele>
        <time>2022-05-01T06:34:28Z</time>
      </trkpt>
      <trkpt lat="45.82814" lon="4.24599">
        <ele>496</ele>
        <time>2022-05-01T06:34:35Z</time>
      </trkpt>
      <trkpt lat="45.82826" lon="4.24592">
        <ele>496</ele>
        <time>2022-05-01T06:34:37Z</time>
      </trkpt>
      <trkpt lat="45.82835" lon="4.24591">
        <ele>496</ele>
        <time>2022-05-01T06:34:39Z</time>
      </trkpt>
      <trkpt lat="45.82863" lon="4.24602">
        <ele>498</ele>
        <time>2022-05-01T06:34:44Z</time>
      </trkpt>
      <trkpt lat="45.82885" lon="4.24617">
        <ele>500</ele>
        <time>2022-05-01T06:34:48Z</time>
      </trkpt>
      <trkpt lat="45.82924" lon="4.24659">
        <ele>504</ele>
        <time>2022-05-01T06:34:57Z</time>
      </trkpt>
      <trkpt lat="45.82937" lon="4.24666">
        <ele>504</ele>
        <time>2022-05-01T06:34:59Z</time>
      </trkpt>
      <trkpt lat="45.82943" lon="4.24665">
        <ele>504</ele>
        <time>2022-05-01T06:35:00Z</time>
      </trkpt>
      <trkpt lat="45.82955" lon="4.24653">
        <ele>504</ele>
        <time>2022-05-01T06:35:03Z</time>
      </trkpt>
      <trkpt lat="45.82963" lon="4.24637">
        <ele>504</ele>
        <time>2022-05-01T06:35:05Z</time>
      </trkpt>
      <trkpt lat="45.82964" lon="4.24616">
        <ele>503</ele>
        <time>2022-05-01T06:35:08Z</time>
      </trkpt>
      <trkpt lat="45.82939" lon="4.24569">
        <ele>500</ele>
        <time>2022-05-01T06:35:15Z</time>
      </trkpt>
      <trkpt lat="45.82926" lon="4.24492">
        <ele>496</ele>
        <time>2022-05-01T06:35:25Z</time>
      </trkpt>
      <trkpt lat="45.82901" lon="4.24442">
        <ele>493</ele>
        <time>2022-05-01T06:35:33Z</time>
      </trkpt>
      <trkpt lat="45.82898" lon="4.24415">
        <ele>493</ele>
        <time>2022-05-01T06:35:36Z</time>
      </trkpt>
      <trkpt lat="45.82903" lon="4.24388">
        <ele>494</ele>
        <time>2022-05-01T06:35:40Z</time>
      </trkpt>
      <trkpt lat="45.82909" lon="4.2437">
        <ele>494</ele>
        <time>2022-05-01T06:35:42Z</time>
      </trkpt>
      <trkpt lat="45.82917" lon="4.24356">
        <ele>496</ele>
        <time>2022-05-01T06:35:44Z</time>
      </trkpt>
      <trkpt lat="45.82932" lon="4.24342">
        <ele>498</ele>
        <time>2022-05-01T06:35:47Z</time>
      </trkpt>
      <trkpt lat="45.8297" lon="4.24334">
        <ele>503</ele>
        <time>2022-05-01T06:35:54Z</time>
      </trkpt>
      <trkpt lat="45.82989" lon="4.24324">
        <ele>506</ele>
        <time>2022-05-01T06:35:58Z</time>
      </trkpt>
      <trkpt lat="45.83012" lon="4.24295">
        <ele>505</ele>
        <time>2022-05-01T06:36:03Z</time>
      </trkpt>
      <trkpt lat="45.83029" lon="4.2428">
        <ele>504</ele>
        <time>2022-05-01T06:36:07Z</time>
      </trkpt>
      <trkpt lat="45.83037" lon="4.24275">
        <ele>503</ele>
        <time>2022-05-01T06:36:08Z</time>
      </trkpt>
      <trkpt lat="45.83045" lon="4.24275">
        <ele>503</ele>
        <time>2022-05-01T06:36:10Z</time>
      </trkpt>
      <trkpt lat="45.8306" lon="4.24281">
        <ele>503</ele>
        <time>2022-05-01T06:36:13Z</time>
      </trkpt>
      <trkpt lat="45.83156" lon="4.24343">
        <ele>501</ele>
        <time>2022-05-01T06:36:31Z</time>
      </trkpt>
      <trkpt lat="45.83275" lon="4.24439">
        <ele>504</ele>
        <time>2022-05-01T06:36:56Z</time>
      </trkpt>
      <trkpt lat="45.83288" lon="4.24437">
        <ele>504</ele>
        <time>2022-05-01T06:36:58Z</time>
      </trkpt>
      <trkpt lat="45.83303" lon="4.24421">
        <ele>503</ele>
        <time>2022-05-01T06:37:01Z</time>
      </trkpt>
      <trkpt lat="45.83308" lon="4.24407">
        <ele>504</ele>
        <time>2022-05-01T06:37:03Z</time>
      </trkpt>
      <trkpt lat="45.83307" lon="4.2439">
        <ele>504</ele>
        <time>2022-05-01T06:37:05Z</time>
      </trkpt>
      <trkpt lat="45.83302" lon="4.24375">
        <ele>504</ele>
        <time>2022-05-01T06:37:07Z</time>
      </trkpt>
      <trkpt lat="45.83273" lon="4.2432">
        <ele>501</ele>
        <time>2022-05-01T06:37:16Z</time>
      </trkpt>
      <trkpt lat="45.83266" lon="4.24292">
        <ele>501</ele>
        <time>2022-05-01T06:37:20Z</time>
      </trkpt>
      <trkpt lat="45.83262" lon="4.24263">
        <ele>501</ele>
        <time>2022-05-01T06:37:23Z</time>
      </trkpt>
      <trkpt lat="45.83251" lon="4.24221">
        <ele>500</ele>
        <time>2022-05-01T06:37:29Z</time>
      </trkpt>
      <trkpt lat="45.83249" lon="4.24202">
        <ele>500</ele>
        <time>2022-05-01T06:37:31Z</time>
      </trkpt>
      <trkpt lat="45.83252" lon="4.24169">
        <ele>502</ele>
        <time>2022-05-01T06:37:35Z</time>
      </trkpt>
      <trkpt lat="45.83249" lon="4.24151">
        <ele>502</ele>
        <time>2022-05-01T06:37:38Z</time>
      </trkpt>
      <trkpt lat="45.83245" lon="4.24143">
        <ele>502</ele>
        <time>2022-05-01T06:37:39Z</time>
      </trkpt>
      <trkpt lat="45.8322" lon="4.24123">
        <ele>497</ele>
        <time>2022-05-01T06:37:44Z</time>
      </trkpt>
      <trkpt lat="45.83212" lon="4.24103">
        <ele>495</ele>
        <time>2022-05-01T06:37:47Z</time>
      </trkpt>
      <trkpt lat="45.83212" lon="4.24076">
        <ele>495</ele>
        <time>2022-05-01T06:37:50Z</time>
      </trkpt>
      <trkpt lat="45.83232" lon="4.24008">
        <ele>499</ele>
        <time>2022-05-01T06:37:59Z</time>
      </trkpt>
      <trkpt lat="45.83245" lon="4.2398">
        <ele>500</ele>
        <time>2022-05-01T06:38:04Z</time>
      </trkpt>
      <trkpt lat="45.83293" lon="4.23906">
        <ele>499</ele>
        <time>2022-05-01T06:38:16Z</time>
      </trkpt>
      <trkpt lat="45.83327" lon="4.23865">
        <ele>499</ele>
        <time>2022-05-01T06:38:24Z</time>
      </trkpt>
      <trkpt lat="45.83365" lon="4.23825">
        <ele>498</ele>
        <time>2022-05-01T06:38:32Z</time>
      </trkpt>
      <trkpt lat="45.83375" lon="4.23806">
        <ele>498</ele>
        <time>2022-05-01T06:38:35Z</time>
      </trkpt>
      <trkpt lat="45.83389" lon="4.2376">
        <ele>496</ele>
        <time>2022-05-01T06:38:42Z</time>
      </trkpt>
      <trkpt lat="45.83397" lon="4.23749">
        <ele>496</ele>
        <time>2022-05-01T06:38:43Z</time>
      </trkpt>
      <trkpt lat="45.83406" lon="4.23746">
        <ele>497</ele>
        <time>2022-05-01T06:38:45Z</time>
      </trkpt>
      <trkpt lat="45.8348" lon="4.2376">
        <ele>498</ele>
        <time>2022-05-01T06:38:58Z</time>
      </trkpt>
      <trkpt lat="45.83508" lon="4.23772">
        <ele>499</ele>
        <time>2022-05-01T06:39:04Z</time>
      </trkpt>
      <trkpt lat="45.83541" lon="4.23791">
        <ele>499</ele>
        <time>2022-05-01T06:39:10Z</time>
      </trkpt>
      <trkpt lat="45.83557" lon="4.23792">
        <ele>499</ele>
        <time>2022-05-01T06:39:13Z</time>
      </trkpt>
      <trkpt lat="45.83572" lon="4.23781">
        <ele>498</ele>
        <time>2022-05-01T06:39:16Z</time>
      </trkpt>
      <trkpt lat="45.83611" lon="4.2374">
        <ele>495</ele>
        <time>2022-05-01T06:39:24Z</time>
      </trkpt>
      <trkpt lat="45.83622" lon="4.23732">
        <ele>495</ele>
        <time>2022-05-01T06:39:27Z</time>
      </trkpt>
      <trkpt lat="45.83639" lon="4.23726">
        <ele>495</ele>
        <time>2022-05-01T06:39:30Z</time>
      </trkpt>
      <trkpt lat="45.8367" lon="4.23726">
        <ele>495</ele>
        <time>2022-05-01T06:39:35Z</time>
      </trkpt>
      <trkpt lat="45.83704" lon="4.23738">
        <ele>494</ele>
        <time>2022-05-01T06:39:41Z</time>
      </trkpt>
      <trkpt lat="45.83758" lon="4.23774">
        <ele>494</ele>
        <time>2022-05-01T06:39:52Z</time>
      </trkpt>
      <trkpt lat="45.83804" lon="4.23822">
        <ele>490</ele>
        <time>2022-05-01T06:40:02Z</time>
      </trkpt>
      <trkpt lat="45.83835" lon="4.2372">
        <ele>482</ele>
        <time>2022-05-01T06:40:16Z</time>
      </trkpt>
      <trkpt lat="45.83858" lon="4.23657">
        <ele>478</ele>
        <time>2022-05-01T06:40:25Z</time>
      </trkpt>
      <trkpt lat="45.83869" lon="4.23639">
        <ele>477</ele>
        <time>2022-05-01T06:40:28Z</time>
      </trkpt>
      <trkpt lat="45.83917" lon="4.23578">
        <ele>477</ele>
        <time>2022-05-01T06:40:39Z</time>
      </trkpt>
      <trkpt lat="45.83987" lon="4.235">
        <ele>467</ele>
        <time>2022-05-01T06:40:55Z</time>
      </trkpt>
      <trkpt lat="45.83994" lon="4.23515">
        <ele>467</ele>
        <time>2022-05-01T06:40:57Z</time>
      </trkpt>
      <trkpt lat="45.84" lon="4.23547">
        <ele>466</ele>
        <time>2022-05-01T06:41:01Z</time>
      </trkpt>
      <trkpt lat="45.84" lon="4.23574">
        <ele>466</ele>
        <time>2022-05-01T06:41:05Z</time>
      </trkpt>
      <trkpt lat="45.83994" lon="4.23608">
        <ele>464</ele>
        <time>2022-05-01T06:41:09Z</time>
      </trkpt>
      <trkpt lat="45.8399" lon="4.23616">
        <ele>464</ele>
        <time>2022-05-01T06:41:10Z</time>
      </trkpt>
      <trkpt lat="45.83959" lon="4.23646">
        <ele>466</ele>
        <time>2022-05-01T06:41:17Z</time>
      </trkpt>
      <trkpt lat="45.83934" lon="4.23675">
        <ele>468</ele>
        <time>2022-05-01T06:41:23Z</time>
      </trkpt>
      <trkpt lat="45.8392" lon="4.23698">
        <ele>468</ele>
        <time>2022-05-01T06:41:26Z</time>
      </trkpt>
      <trkpt lat="45.83908" lon="4.23731">
        <ele>467</ele>
        <time>2022-05-01T06:41:31Z</time>
      </trkpt>
      <trkpt lat="45.83908" lon="4.23743">
        <ele>466</ele>
        <time>2022-05-01T06:41:32Z</time>
      </trkpt>
      <trkpt lat="45.83912" lon="4.23748">
        <ele>464</ele>
        <time>2022-05-01T06:41:33Z</time>
      </trkpt>
      <trkpt lat="45.8392" lon="4.23749">
        <ele>463</ele>
        <time>2022-05-01T06:41:35Z</time>
      </trkpt>
      <trkpt lat="45.83954" lon="4.2371">
        <ele>463</ele>
        <time>2022-05-01T06:41:43Z</time>
      </trkpt>
      <trkpt lat="45.83966" lon="4.237">
        <ele>462</ele>
        <time>2022-05-01T06:41:45Z</time>
      </trkpt>
      <trkpt lat="45.8398" lon="4.23696">
        <ele>460</ele>
        <time>2022-05-01T06:41:48Z</time>
      </trkpt>
      <trkpt lat="45.84001" lon="4.23702">
        <ele>457</ele>
        <time>2022-05-01T06:41:51Z</time>
      </trkpt>
      <trkpt lat="45.8402" lon="4.23711">
        <ele>454</ele>
        <time>2022-05-01T06:41:55Z</time>
      </trkpt>
      <trkpt lat="45.84055" lon="4.23736">
        <ele>449</ele>
        <time>2022-05-01T06:42:02Z</time>
      </trkpt>
      <trkpt lat="45.84081" lon="4.23758">
        <ele>447</ele>
        <time>2022-05-01T06:42:07Z</time>
      </trkpt>
      <trkpt lat="45.84096" lon="4.23776">
        <ele>452</ele>
        <time>2022-05-01T06:42:11Z</time>
      </trkpt>
      <trkpt lat="45.84109" lon="4.23777">
        <ele>453</ele>
        <time>2022-05-01T06:42:13Z</time>
      </trkpt>
      <trkpt lat="45.84122" lon="4.2377">
        <ele>453</ele>
        <time>2022-05-01T06:42:16Z</time>
      </trkpt>
      <trkpt lat="45.84146" lon="4.23628">
        <ele>451</ele>
        <time>2022-05-01T06:42:34Z</time>
      </trkpt>
      <trkpt lat="45.84142" lon="4.2354">
        <ele>448</ele>
        <time>2022-05-01T06:42:45Z</time>
      </trkpt>
      <trkpt lat="45.8413" lon="4.23458">
        <ele>447</ele>
        <time>2022-05-01T06:42:55Z</time>
      </trkpt>
      <trkpt lat="45.8411" lon="4.23386">
        <ele>442</ele>
        <time>2022-05-01T06:43:05Z</time>
      </trkpt>
      <trkpt lat="45.84068" lon="4.23281">
        <ele>433</ele>
        <time>2022-05-01T06:43:20Z</time>
      </trkpt>
      <trkpt lat="45.84051" lon="4.23203">
        <ele>438</ele>
        <time>2022-05-01T06:43:30Z</time>
      </trkpt>
      <trkpt lat="45.84038" lon="4.22999">
        <ele>441</ele>
        <time>2022-05-01T06:43:55Z</time>
      </trkpt>
      <trkpt lat="45.84042" lon="4.22943">
        <ele>440</ele>
        <time>2022-05-01T06:44:02Z</time>
      </trkpt>
      <trkpt lat="45.8405" lon="4.22888">
        <ele>435</ele>
        <time>2022-05-01T06:44:09Z</time>
      </trkpt>
      <trkpt lat="45.84067" lon="4.22812">
        <ele>426</ele>
        <time>2022-05-01T06:44:19Z</time>
      </trkpt>
      <trkpt lat="45.84084" lon="4.22787">
        <ele>423</ele>
        <time>2022-05-01T06:44:23Z</time>
      </trkpt>
      <trkpt lat="45.8409" lon="4.22772">
        <ele>423</ele>
        <time>2022-05-01T06:44:25Z</time>
      </trkpt>
      <trkpt lat="45.84093" lon="4.22751">
        <ele>421</ele>
        <time>2022-05-01T06:44:28Z</time>
      </trkpt>
      <trkpt lat="45.84079" lon="4.22744">
        <ele>421</ele>
        <time>2022-05-01T06:44:31Z</time>
      </trkpt>
      <trkpt lat="45.84076" lon="4.22725">
        <ele>422</ele>
        <time>2022-05-01T06:44:33Z</time>
      </trkpt>
      <trkpt lat="45.84061" lon="4.22699">
        <ele>423</ele>
        <time>2022-05-01T06:44:37Z</time>
      </trkpt>
      <trkpt lat="45.84054" lon="4.22675">
        <ele>424</ele>
        <time>2022-05-01T06:44:41Z</time>
      </trkpt>
      <trkpt lat="45.84047" lon="4.22606">
        <ele>428</ele>
        <time>2022-05-01T06:44:49Z</time>
      </trkpt>
      <trkpt lat="45.84027" lon="4.22569">
        <ele>426</ele>
        <time>2022-05-01T06:44:55Z</time>
      </trkpt>
      <trkpt lat="45.84021" lon="4.22553">
        <ele>427</ele>
        <time>2022-05-01T06:44:57Z</time>
      </trkpt>
      <trkpt lat="45.8402" lon="4.22541">
        <ele>428</ele>
        <time>2022-05-01T06:44:59Z</time>
      </trkpt>
      <trkpt lat="45.84024" lon="4.22507">
        <ele>434</ele>
        <time>2022-05-01T06:45:03Z</time>
      </trkpt>
      <trkpt lat="45.8402" lon="4.22483">
        <ele>435</ele>
        <time>2022-05-01T06:45:06Z</time>
      </trkpt>
      <trkpt lat="45.84012" lon="4.22477">
        <ele>434</ele>
        <time>2022-05-01T06:45:08Z</time>
      </trkpt>
      <trkpt lat="45.83992" lon="4.22468">
        <ele>432</ele>
        <time>2022-05-01T06:45:11Z</time>
      </trkpt>
      <trkpt lat="45.83987" lon="4.22459">
        <ele>432</ele>
        <time>2022-05-01T06:45:13Z</time>
      </trkpt>
      <trkpt lat="45.83984" lon="4.22448">
        <ele>432</ele>
        <time>2022-05-01T06:45:14Z</time>
      </trkpt>
      <trkpt lat="45.83976" lon="4.22353">
        <ele>441</ele>
        <time>2022-05-01T06:45:26Z</time>
      </trkpt>
      <trkpt lat="45.83972" lon="4.22339">
        <ele>443</ele>
        <time>2022-05-01T06:45:28Z</time>
      </trkpt>
      <trkpt lat="45.83963" lon="4.22326">
        <ele>443</ele>
        <time>2022-05-01T06:45:30Z</time>
      </trkpt>
      <trkpt lat="45.83954" lon="4.22321">
        <ele>443</ele>
        <time>2022-05-01T06:45:32Z</time>
      </trkpt>
      <trkpt lat="45.83929" lon="4.22318">
        <ele>441</ele>
        <time>2022-05-01T06:45:36Z</time>
      </trkpt>
      <trkpt lat="45.83913" lon="4.22308">
        <ele>440</ele>
        <time>2022-05-01T06:45:40Z</time>
      </trkpt>
      <trkpt lat="45.83908" lon="4.22286">
        <ele>442</ele>
        <time>2022-05-01T06:45:42Z</time>
      </trkpt>
      <trkpt lat="45.83911" lon="4.22274">
        <ele>444</ele>
        <time>2022-05-01T06:45:44Z</time>
      </trkpt>
      <trkpt lat="45.83917" lon="4.22265">
        <ele>445</ele>
        <time>2022-05-01T06:45:46Z</time>
      </trkpt>
      <trkpt lat="45.83927" lon="4.22259">
        <ele>447</ele>
        <time>2022-05-01T06:45:47Z</time>
      </trkpt>
      <trkpt lat="45.83937" lon="4.22258">
        <ele>448</ele>
        <time>2022-05-01T06:45:49Z</time>
      </trkpt>
      <trkpt lat="45.83945" lon="4.2226">
        <ele>449</ele>
        <time>2022-05-01T06:45:51Z</time>
      </trkpt>
      <trkpt lat="45.83981" lon="4.2228">
        <ele>450</ele>
        <time>2022-05-01T06:45:58Z</time>
      </trkpt>
      <trkpt lat="45.84034" lon="4.2232">
        <ele>449</ele>
        <time>2022-05-01T06:46:08Z</time>
      </trkpt>
      <trkpt lat="45.8405" lon="4.22325">
        <ele>450</ele>
        <time>2022-05-01T06:46:11Z</time>
      </trkpt>
      <trkpt lat="45.8407" lon="4.22323">
        <ele>451</ele>
        <time>2022-05-01T06:46:15Z</time>
      </trkpt>
      <trkpt lat="45.84081" lon="4.22314">
        <ele>453</ele>
        <time>2022-05-01T06:46:17Z</time>
      </trkpt>
      <trkpt lat="45.84162" lon="4.22185">
        <ele>465</ele>
        <time>2022-05-01T06:46:39Z</time>
      </trkpt>
      <trkpt lat="45.84182" lon="4.22164">
        <ele>466</ele>
        <time>2022-05-01T06:46:43Z</time>
      </trkpt>
      <trkpt lat="45.84195" lon="4.22157">
        <ele>467</ele>
        <time>2022-05-01T06:46:45Z</time>
      </trkpt>
      <trkpt lat="45.84292" lon="4.22143">
        <ele>471</ele>
        <time>2022-05-01T06:47:03Z</time>
      </trkpt>
      <trkpt lat="45.84316" lon="4.22128">
        <ele>472</ele>
        <time>2022-05-01T06:47:07Z</time>
      </trkpt>
      <trkpt lat="45.84328" lon="4.22116">
        <ele>473</ele>
        <time>2022-05-01T06:47:10Z</time>
      </trkpt>
      <trkpt lat="45.84405" lon="4.21993">
        <ele>469</ele>
        <time>2022-05-01T06:47:30Z</time>
      </trkpt>
      <trkpt lat="45.84434" lon="4.21955">
        <ele>467</ele>
        <time>2022-05-01T06:47:37Z</time>
      </trkpt>
      <trkpt lat="45.8449" lon="4.21892">
        <ele>465</ele>
        <time>2022-05-01T06:47:50Z</time>
      </trkpt>
      <trkpt lat="45.84586" lon="4.21825">
        <ele>456</ele>
        <time>2022-05-01T06:48:09Z</time>
      </trkpt>
      <trkpt lat="45.8472" lon="4.21753">
        <ele>458</ele>
        <time>2022-05-01T06:48:35Z</time>
      </trkpt>
      <trkpt lat="45.84782" lon="4.21707">
        <ele>458</ele>
        <time>2022-05-01T06:48:47Z</time>
      </trkpt>
      <trkpt lat="45.84813" lon="4.21676">
        <ele>457</ele>
        <time>2022-05-01T06:48:54Z</time>
      </trkpt>
      <trkpt lat="45.84827" lon="4.21647">
        <ele>457</ele>
        <time>2022-05-01T06:48:58Z</time>
      </trkpt>
      <trkpt lat="45.84833" lon="4.21617">
        <ele>457</ele>
        <time>2022-05-01T06:49:02Z</time>
      </trkpt>
      <trkpt lat="45.84837" lon="4.21549">
        <ele>457</ele>
        <time>2022-05-01T06:49:10Z</time>
      </trkpt>
      <trkpt lat="45.84841" lon="4.21534">
        <ele>458</ele>
        <time>2022-05-01T06:49:12Z</time>
      </trkpt>
      <trkpt lat="45.84855" lon="4.21506">
        <ele>459</ele>
        <time>2022-05-01T06:49:17Z</time>
      </trkpt>
      <trkpt lat="45.84904" lon="4.21441">
        <ele>462</ele>
        <time>2022-05-01T06:49:29Z</time>
      </trkpt>
      <trkpt lat="45.84918" lon="4.21427">
        <ele>462</ele>
        <time>2022-05-01T06:49:32Z</time>
      </trkpt>
      <trkpt lat="45.8504" lon="4.21352">
        <ele>471</ele>
        <time>2022-05-01T06:49:55Z</time>
      </trkpt>
      <trkpt lat="45.85098" lon="4.21284">
        <ele>475</ele>
        <time>2022-05-01T06:50:09Z</time>
      </trkpt>
      <trkpt lat="45.85103" lon="4.21266">
        <ele>476</ele>
        <time>2022-05-01T06:50:11Z</time>
      </trkpt>
      <trkpt lat="45.85103" lon="4.21258">
        <ele>476</ele>
        <time>2022-05-01T06:50:12Z</time>
      </trkpt>
      <trkpt lat="45.85097" lon="4.21237">
        <ele>476</ele>
        <time>2022-05-01T06:50:15Z</time>
      </trkpt>
      <trkpt lat="45.85072" lon="4.21201">
        <ele>478</ele>
        <time>2022-05-01T06:50:21Z</time>
      </trkpt>
      <trkpt lat="45.85054" lon="4.21161">
        <ele>480</ele>
        <time>2022-05-01T06:50:27Z</time>
      </trkpt>
      <trkpt lat="45.85035" lon="4.2108">
        <ele>486</ele>
        <time>2022-05-01T06:50:38Z</time>
      </trkpt>
      <trkpt lat="45.85036" lon="4.21065">
        <ele>486</ele>
        <time>2022-05-01T06:50:39Z</time>
      </trkpt>
      <trkpt lat="45.85087" lon="4.20987">
        <ele>488</ele>
        <time>2022-05-01T06:50:53Z</time>
      </trkpt>
      <trkpt lat="45.85103" lon="4.20953">
        <ele>487</ele>
        <time>2022-05-01T06:50:58Z</time>
      </trkpt>
      <trkpt lat="45.85147" lon="4.20828">
        <ele>483</ele>
        <time>2022-05-01T06:51:15Z</time>
      </trkpt>
      <trkpt lat="45.85163" lon="4.20798">
        <ele>483</ele>
        <time>2022-05-01T06:51:20Z</time>
      </trkpt>
      <trkpt lat="45.85215" lon="4.2073">
        <ele>484</ele>
        <time>2022-05-01T06:51:32Z</time>
      </trkpt>
      <trkpt lat="45.85224" lon="4.20705">
        <ele>483</ele>
        <time>2022-05-01T06:51:36Z</time>
      </trkpt>
      <trkpt lat="45.8522" lon="4.20663">
        <ele>481</ele>
        <time>2022-05-01T06:51:41Z</time>
      </trkpt>
      <trkpt lat="45.85194" lon="4.2053">
        <ele>480</ele>
        <time>2022-05-01T06:51:58Z</time>
      </trkpt>
      <trkpt lat="45.85194" lon="4.20497">
        <ele>480</ele>
        <time>2022-05-01T06:52:02Z</time>
      </trkpt>
      <trkpt lat="45.85204" lon="4.20384">
        <ele>476</ele>
        <time>2022-05-01T06:52:16Z</time>
      </trkpt>
      <trkpt lat="45.85203" lon="4.20354">
        <ele>475</ele>
        <time>2022-05-01T06:52:20Z</time>
      </trkpt>
      <trkpt lat="45.85197" lon="4.20306">
        <ele>473</ele>
        <time>2022-05-01T06:52:26Z</time>
      </trkpt>
      <trkpt lat="45.85198" lon="4.2029">
        <ele>472</ele>
        <time>2022-05-01T06:52:28Z</time>
      </trkpt>
      <trkpt lat="45.85204" lon="4.20274">
        <ele>470</ele>
        <time>2022-05-01T06:52:30Z</time>
      </trkpt>
      <trkpt lat="45.85212" lon="4.20267">
        <ele>469</ele>
        <time>2022-05-01T06:52:32Z</time>
      </trkpt>
      <trkpt lat="45.85226" lon="4.20269">
        <ele>468</ele>
        <time>2022-05-01T06:52:35Z</time>
      </trkpt>
      <trkpt lat="45.85251" lon="4.20285">
        <ele>467</ele>
        <time>2022-05-01T06:52:39Z</time>
      </trkpt>
      <trkpt lat="45.85261" lon="4.20296">
        <ele>466</ele>
        <time>2022-05-01T06:52:42Z</time>
      </trkpt>
      <trkpt lat="45.8527" lon="4.20313">
        <ele>467</ele>
        <time>2022-05-01T06:52:44Z</time>
      </trkpt>
      <trkpt lat="45.85289" lon="4.20372">
        <ele>470</ele>
        <time>2022-05-01T06:52:52Z</time>
      </trkpt>
      <trkpt lat="45.853" lon="4.20385">
        <ele>470</ele>
        <time>2022-05-01T06:52:55Z</time>
      </trkpt>
      <trkpt lat="45.85312" lon="4.2039">
        <ele>469</ele>
        <time>2022-05-01T06:52:57Z</time>
      </trkpt>
      <trkpt lat="45.85325" lon="4.20391">
        <ele>468</ele>
        <time>2022-05-01T06:52:59Z</time>
      </trkpt>
      <trkpt lat="45.85339" lon="4.20387">
        <ele>466</ele>
        <time>2022-05-01T06:53:02Z</time>
      </trkpt>
      <trkpt lat="45.85386" lon="4.20366">
        <ele>463</ele>
        <time>2022-05-01T06:53:11Z</time>
      </trkpt>
      <trkpt lat="45.85423" lon="4.20342">
        <ele>460</ele>
        <time>2022-05-01T06:53:18Z</time>
      </trkpt>
      <trkpt lat="45.85463" lon="4.20306">
        <ele>455</ele>
        <time>2022-05-01T06:53:26Z</time>
      </trkpt>
      <trkpt lat="45.855" lon="4.20279">
        <ele>450</ele>
        <time>2022-05-01T06:53:34Z</time>
      </trkpt>
      <trkpt lat="45.85511" lon="4.20274">
        <ele>448</ele>
        <time>2022-05-01T06:53:36Z</time>
      </trkpt>
      <trkpt lat="45.85522" lon="4.20273">
        <ele>447</ele>
        <time>2022-05-01T06:53:38Z</time>
      </trkpt>
      <trkpt lat="45.85536" lon="4.2028">
        <ele>446</ele>
        <time>2022-05-01T06:53:40Z</time>
      </trkpt>
      <trkpt lat="45.85592" lon="4.20338">
        <ele>445</ele>
        <time>2022-05-01T06:53:53Z</time>
      </trkpt>
      <trkpt lat="45.85603" lon="4.20354">
        <ele>445</ele>
        <time>2022-05-01T06:53:55Z</time>
      </trkpt>
      <trkpt lat="45.85625" lon="4.20401">
        <ele>446</ele>
        <time>2022-05-01T06:54:02Z</time>
      </trkpt>
      <trkpt lat="45.85631" lon="4.20407">
        <ele>446</ele>
        <time>2022-05-01T06:54:04Z</time>
      </trkpt>
      <trkpt lat="45.85638" lon="4.2041">
        <ele>446</ele>
        <time>2022-05-01T06:54:05Z</time>
      </trkpt>
      <trkpt lat="45.85645" lon="4.20409">
        <ele>446</ele>
        <time>2022-05-01T06:54:06Z</time>
      </trkpt>
      <trkpt lat="45.85658" lon="4.20391">
        <ele>444</ele>
        <time>2022-05-01T06:54:10Z</time>
      </trkpt>
      <trkpt lat="45.85677" lon="4.20301">
        <ele>438</ele>
        <time>2022-05-01T06:54:21Z</time>
      </trkpt>
      <trkpt lat="45.85689" lon="4.20267">
        <ele>436</ele>
        <time>2022-05-01T06:54:26Z</time>
      </trkpt>
      <trkpt lat="45.85722" lon="4.20203">
        <ele>430</ele>
        <time>2022-05-01T06:54:36Z</time>
      </trkpt>
      <trkpt lat="45.85735" lon="4.20184">
        <ele>428</ele>
        <time>2022-05-01T06:54:39Z</time>
      </trkpt>
      <trkpt lat="45.85759" lon="4.2016">
        <ele>424</ele>
        <time>2022-05-01T06:54:44Z</time>
      </trkpt>
      <trkpt lat="45.8578" lon="4.20151">
        <ele>424</ele>
        <time>2022-05-01T06:54:48Z</time>
      </trkpt>
      <trkpt lat="45.85794" lon="4.20148">
        <ele>423</ele>
        <time>2022-05-01T06:54:51Z</time>
      </trkpt>
      <trkpt lat="45.85821" lon="4.20154">
        <ele>424</ele>
        <time>2022-05-01T06:54:56Z</time>
      </trkpt>
      <trkpt lat="45.85846" lon="4.20171">
        <ele>425</ele>
        <time>2022-05-01T06:55:00Z</time>
      </trkpt>
      <trkpt lat="45.85879" lon="4.20201">
        <ele>423</ele>
        <time>2022-05-01T06:55:07Z</time>
      </trkpt>
      <trkpt lat="45.85892" lon="4.20216">
        <ele>422</ele>
        <time>2022-05-01T06:55:10Z</time>
      </trkpt>
      <trkpt lat="45.85911" lon="4.20251">
        <ele>422</ele>
        <time>2022-05-01T06:55:16Z</time>
      </trkpt>
      <trkpt lat="45.85931" lon="4.20281">
        <ele>424</ele>
        <time>2022-05-01T06:55:21Z</time>
      </trkpt>
      <trkpt lat="45.85985" lon="4.20356">
        <ele>419</ele>
        <time>2022-05-01T06:55:34Z</time>
      </trkpt>
      <trkpt lat="45.86" lon="4.20371">
        <ele>417</ele>
        <time>2022-05-01T06:55:38Z</time>
      </trkpt>
      <trkpt lat="45.86019" lon="4.20382">
        <ele>418</ele>
        <time>2022-05-01T06:55:41Z</time>
      </trkpt>
      <trkpt lat="45.86034" lon="4.20384">
        <ele>418</ele>
        <time>2022-05-01T06:55:44Z</time>
      </trkpt>
      <trkpt lat="45.86046" lon="4.20381">
        <ele>418</ele>
        <time>2022-05-01T06:55:46Z</time>
      </trkpt>
      <trkpt lat="45.86057" lon="4.20372">
        <ele>418</ele>
        <time>2022-05-01T06:55:48Z</time>
      </trkpt>
      <trkpt lat="45.86063" lon="4.20359">
        <ele>418</ele>
        <time>2022-05-01T06:55:50Z</time>
      </trkpt>
      <trkpt lat="45.86067" lon="4.20341">
        <ele>419</ele>
        <time>2022-05-01T06:55:53Z</time>
      </trkpt>
      <trkpt lat="45.86067" lon="4.2027">
        <ele>420</ele>
        <time>2022-05-01T06:56:01Z</time>
      </trkpt>
      <trkpt lat="45.86062" lon="4.20241">
        <ele>420</ele>
        <time>2022-05-01T06:56:05Z</time>
      </trkpt>
      <trkpt lat="45.86057" lon="4.20226">
        <ele>421</ele>
        <time>2022-05-01T06:56:07Z</time>
      </trkpt>
      <trkpt lat="45.85991" lon="4.20135">
        <ele>418</ele>
        <time>2022-05-01T06:56:24Z</time>
      </trkpt>
      <trkpt lat="45.85987" lon="4.20122">
        <ele>418</ele>
        <time>2022-05-01T06:56:25Z</time>
      </trkpt>
      <trkpt lat="45.85987" lon="4.20022">
        <ele>419</ele>
        <time>2022-05-01T06:56:38Z</time>
      </trkpt>
      <trkpt lat="45.85993" lon="4.19985">
        <ele>419</ele>
        <time>2022-05-01T06:56:42Z</time>
      </trkpt>
      <trkpt lat="45.86003" lon="4.19965">
        <ele>419</ele>
        <time>2022-05-01T06:56:45Z</time>
      </trkpt>
      <trkpt lat="45.86012" lon="4.19953">
        <ele>420</ele>
        <time>2022-05-01T06:56:48Z</time>
      </trkpt>
      <trkpt lat="45.86054" lon="4.19925">
        <ele>427</ele>
        <time>2022-05-01T06:56:56Z</time>
      </trkpt>
      <trkpt lat="45.8606" lon="4.19916">
        <ele>428</ele>
        <time>2022-05-01T06:56:57Z</time>
      </trkpt>
      <trkpt lat="45.86065" lon="4.19907">
        <ele>428</ele>
        <time>2022-05-01T06:56:59Z</time>
      </trkpt>
      <trkpt lat="45.86079" lon="4.19844">
        <ele>423</ele>
        <time>2022-05-01T06:57:07Z</time>
      </trkpt>
      <trkpt lat="45.86086" lon="4.19827">
        <ele>422</ele>
        <time>2022-05-01T06:57:09Z</time>
      </trkpt>
      <trkpt lat="45.86115" lon="4.19792">
        <ele>424</ele>
        <time>2022-05-01T06:57:16Z</time>
      </trkpt>
      <trkpt lat="45.86154" lon="4.19774">
        <ele>429</ele>
        <time>2022-05-01T06:57:24Z</time>
      </trkpt>
      <trkpt lat="45.86193" lon="4.19768">
        <ele>433</ele>
        <time>2022-05-01T06:57:30Z</time>
      </trkpt>
      <trkpt lat="45.86293" lon="4.19765">
        <ele>441</ele>
        <time>2022-05-01T06:57:48Z</time>
      </trkpt>
      <trkpt lat="45.86302" lon="4.19764">
        <ele>442</ele>
        <time>2022-05-01T06:57:50Z</time>
      </trkpt>
      <trkpt lat="45.86307" lon="4.19761">
        <ele>442</ele>
        <time>2022-05-01T06:57:51Z</time>
      </trkpt>
      <trkpt lat="45.86317" lon="4.1973">
        <ele>441</ele>
        <time>2022-05-01T06:57:55Z</time>
      </trkpt>
      <trkpt lat="45.86319" lon="4.19687">
        <ele>440</ele>
        <time>2022-05-01T06:58:00Z</time>
      </trkpt>
      <trkpt lat="45.86332" lon="4.19634">
        <ele>440</ele>
        <time>2022-05-01T06:58:07Z</time>
      </trkpt>
      <trkpt lat="45.86343" lon="4.19609">
        <ele>441</ele>
        <time>2022-05-01T06:58:11Z</time>
      </trkpt>
      <trkpt lat="45.86401" lon="4.19526">
        <ele>445</ele>
        <time>2022-05-01T06:58:26Z</time>
      </trkpt>
      <trkpt lat="45.86404" lon="4.19518">
        <ele>445</ele>
        <time>2022-05-01T06:58:27Z</time>
      </trkpt>
      <trkpt lat="45.86406" lon="4.19497">
        <ele>444</ele>
        <time>2022-05-01T06:58:29Z</time>
      </trkpt>
      <trkpt lat="45.86396" lon="4.19444">
        <ele>445</ele>
        <time>2022-05-01T06:58:36Z</time>
      </trkpt>
      <trkpt lat="45.86402" lon="4.19413">
        <ele>446</ele>
        <time>2022-05-01T06:58:40Z</time>
      </trkpt>
      <trkpt lat="45.86412" lon="4.19402">
        <ele>447</ele>
        <time>2022-05-01T06:58:42Z</time>
      </trkpt>
      <trkpt lat="45.86515" lon="4.19374">
        <ele>454</ele>
        <time>2022-05-01T06:59:01Z</time>
      </trkpt>
      <trkpt lat="45.86533" lon="4.19376">
        <ele>454</ele>
        <time>2022-05-01T06:59:04Z</time>
      </trkpt>
      <trkpt lat="45.86655" lon="4.19324">
        <ele>458</ele>
        <time>2022-05-01T06:59:27Z</time>
      </trkpt>
      <trkpt lat="45.86732" lon="4.19282">
        <ele>464</ele>
        <time>2022-05-01T06:59:42Z</time>
      </trkpt>
      <trkpt lat="45.86767" lon="4.19256">
        <ele>468</ele>
        <time>2022-05-01T06:59:49Z</time>
      </trkpt>
      <trkpt lat="45.86843" lon="4.19217">
        <ele>475</ele>
        <time>2022-05-01T07:00:03Z</time>
      </trkpt>
      <trkpt lat="45.86851" lon="4.19207">
        <ele>476</ele>
        <time>2022-05-01T07:00:05Z</time>
      </trkpt>
      <trkpt lat="45.86866" lon="4.19199">
        <ele>477</ele>
        <time>2022-05-01T07:00:08Z</time>
      </trkpt>
      <trkpt lat="45.86885" lon="4.19194">
        <ele>478</ele>
        <time>2022-05-01T07:00:11Z</time>
      </trkpt>
      <trkpt lat="45.86881" lon="4.19139">
        <ele>478</ele>
        <time>2022-05-01T07:00:18Z</time>
      </trkpt>
      <trkpt lat="45.86885" lon="4.1912">
        <ele>477</ele>
        <time>2022-05-01T07:00:20Z</time>
      </trkpt>
      <trkpt lat="45.86889" lon="4.19112">
        <ele>477</ele>
        <time>2022-05-01T07:00:22Z</time>
      </trkpt>
      <trkpt lat="45.86901" lon="4.19105">
        <ele>477</ele>
        <time>2022-05-01T07:00:24Z</time>
      </trkpt>
      <trkpt lat="45.86999" lon="4.19102">
        <ele>479</ele>
        <time>2022-05-01T07:00:41Z</time>
      </trkpt>
      <trkpt lat="45.87066" lon="4.19089">
        <ele>479</ele>
        <time>2022-05-01T07:00:53Z</time>
      </trkpt>
      <trkpt lat="45.8708" lon="4.19082">
        <ele>479</ele>
        <time>2022-05-01T07:00:56Z</time>
      </trkpt>
      <trkpt lat="45.87094" lon="4.19071">
        <ele>478</ele>
        <time>2022-05-01T07:00:59Z</time>
      </trkpt>
      <trkpt lat="45.87108" lon="4.1904">
        <ele>475</ele>
        <time>2022-05-01T07:01:03Z</time>
      </trkpt>
      <trkpt lat="45.87114" lon="4.18997">
        <ele>472</ele>
        <time>2022-05-01T07:01:09Z</time>
      </trkpt>
      <trkpt lat="45.87116" lon="4.18952">
        <ele>470</ele>
        <time>2022-05-01T07:01:14Z</time>
      </trkpt>
      <trkpt lat="45.87114" lon="4.18934">
        <ele>469</ele>
        <time>2022-05-01T07:01:17Z</time>
      </trkpt>
      <trkpt lat="45.87106" lon="4.18906">
        <ele>468</ele>
        <time>2022-05-01T07:01:20Z</time>
      </trkpt>
      <trkpt lat="45.87092" lon="4.1888">
        <ele>467</ele>
        <time>2022-05-01T07:01:25Z</time>
      </trkpt>
      <trkpt lat="45.87072" lon="4.1886">
        <ele>466</ele>
        <time>2022-05-01T07:01:29Z</time>
      </trkpt>
      <trkpt lat="45.87042" lon="4.18848">
        <ele>465</ele>
        <time>2022-05-01T07:01:34Z</time>
      </trkpt>
      <trkpt lat="45.87002" lon="4.18854">
        <ele>464</ele>
        <time>2022-05-01T07:01:42Z</time>
      </trkpt>
      <trkpt lat="45.86962" lon="4.18873">
        <ele>464</ele>
        <time>2022-05-01T07:01:49Z</time>
      </trkpt>
      <trkpt lat="45.86936" lon="4.1888">
        <ele>464</ele>
        <time>2022-05-01T07:01:54Z</time>
      </trkpt>
      <trkpt lat="45.86911" lon="4.18868">
        <ele>463</ele>
        <time>2022-05-01T07:01:58Z</time>
      </trkpt>
      <trkpt lat="45.86836" lon="4.18814">
        <ele>457</ele>
        <time>2022-05-01T07:02:13Z</time>
      </trkpt>
      <trkpt lat="45.86818" lon="4.18809">
        <ele>456</ele>
        <time>2022-05-01T07:02:17Z</time>
      </trkpt>
      <trkpt lat="45.86783" lon="4.18806">
        <ele>454</ele>
        <time>2022-05-01T07:02:23Z</time>
      </trkpt>
      <trkpt lat="45.86725" lon="4.18818">
        <ele>451</ele>
        <time>2022-05-01T07:02:33Z</time>
      </trkpt>
      <trkpt lat="45.86712" lon="4.18823">
        <ele>450</ele>
        <time>2022-05-01T07:02:36Z</time>
      </trkpt>
      <trkpt lat="45.86701" lon="4.18832">
        <ele>450</ele>
        <time>2022-05-01T07:02:38Z</time>
      </trkpt>
      <trkpt lat="45.8668" lon="4.18864">
        <ele>449</ele>
        <time>2022-05-01T07:02:43Z</time>
      </trkpt>
      <trkpt lat="45.86655" lon="4.18946">
        <ele>450</ele>
        <time>2022-05-01T07:02:55Z</time>
      </trkpt>
      <trkpt lat="45.86642" lon="4.18968">
        <ele>450</ele>
        <time>2022-05-01T07:02:58Z</time>
      </trkpt>
      <trkpt lat="45.86631" lon="4.18973">
        <ele>451</ele>
        <time>2022-05-01T07:03:00Z</time>
      </trkpt>
      <trkpt lat="45.86619" lon="4.18969">
        <ele>451</ele>
        <time>2022-05-01T07:03:02Z</time>
      </trkpt>
      <trkpt lat="45.86608" lon="4.18958">
        <ele>451</ele>
        <time>2022-05-01T07:03:05Z</time>
      </trkpt>
      <trkpt lat="45.86605" lon="4.18945">
        <ele>451</ele>
        <time>2022-05-01T07:03:06Z</time>
      </trkpt>
      <trkpt lat="45.86616" lon="4.18881">
        <ele>451</ele>
        <time>2022-05-01T07:03:15Z</time>
      </trkpt>
      <trkpt lat="45.86615" lon="4.18814">
        <ele>451</ele>
        <time>2022-05-01T07:03:23Z</time>
      </trkpt>
      <trkpt lat="45.86621" lon="4.1874">
        <ele>446</ele>
        <time>2022-05-01T07:03:32Z</time>
      </trkpt>
      <trkpt lat="45.86618" lon="4.18718">
        <ele>445</ele>
        <time>2022-05-01T07:03:35Z</time>
      </trkpt>
      <trkpt lat="45.86601" lon="4.18655">
        <ele>444</ele>
        <time>2022-05-01T07:03:43Z</time>
      </trkpt>
      <trkpt lat="45.86601" lon="4.18585">
        <ele>442</ele>
        <time>2022-05-01T07:03:52Z</time>
      </trkpt>
      <trkpt lat="45.86585" lon="4.18451">
        <ele>437</ele>
        <time>2022-05-01T07:04:09Z</time>
      </trkpt>
      <trkpt lat="45.86577" lon="4.18422">
        <ele>436</ele>
        <time>2022-05-01T07:04:13Z</time>
      </trkpt>
      <trkpt lat="45.86567" lon="4.18407">
        <ele>435</ele>
        <time>2022-05-01T07:04:15Z</time>
      </trkpt>
      <trkpt lat="45.86555" lon="4.18394">
        <ele>434</ele>
        <time>2022-05-01T07:04:18Z</time>
      </trkpt>
      <trkpt lat="45.86519" lon="4.18364">
        <ele>433</ele>
        <time>2022-05-01T07:04:25Z</time>
      </trkpt>
      <trkpt lat="45.86499" lon="4.18334">
        <ele>432</ele>
        <time>2022-05-01T07:04:30Z</time>
      </trkpt>
      <trkpt lat="45.86495" lon="4.18322">
        <ele>432</ele>
        <time>2022-05-01T07:04:32Z</time>
      </trkpt>
      <trkpt lat="45.86492" lon="4.1826">
        <ele>432</ele>
        <time>2022-05-01T07:04:40Z</time>
      </trkpt>
      <trkpt lat="45.86487" lon="4.18223">
        <ele>430</ele>
        <time>2022-05-01T07:04:44Z</time>
      </trkpt>
      <trkpt lat="45.86474" lon="4.18191">
        <ele>429</ele>
        <time>2022-05-01T07:04:49Z</time>
      </trkpt>
      <trkpt lat="45.8642" lon="4.18126">
        <ele>428</ele>
        <time>2022-05-01T07:05:02Z</time>
      </trkpt>
      <trkpt lat="45.864" lon="4.18107">
        <ele>426</ele>
        <time>2022-05-01T07:05:06Z</time>
      </trkpt>
      <trkpt lat="45.8635" lon="4.18074">
        <ele>424</ele>
        <time>2022-05-01T07:05:16Z</time>
      </trkpt>
      <trkpt lat="45.86331" lon="4.18059">
        <ele>423</ele>
        <time>2022-05-01T07:05:20Z</time>
      </trkpt>
      <trkpt lat="45.86314" lon="4.18041">
        <ele>423</ele>
        <time>2022-05-01T07:05:23Z</time>
      </trkpt>
      <trkpt lat="45.86208" lon="4.17878">
        <ele>418</ele>
        <time>2022-05-01T07:05:51Z</time>
      </trkpt>
      <trkpt lat="45.86126" lon="4.17765">
        <ele>413</ele>
        <time>2022-05-01T07:06:11Z</time>
      </trkpt>
      <trkpt lat="45.86108" lon="4.17749">
        <ele>413</ele>
        <time>2022-05-01T07:06:15Z</time>
      </trkpt>
      <trkpt lat="45.86048" lon="4.17722">
        <ele>411</ele>
        <time>2022-05-01T07:06:26Z</time>
      </trkpt>
      <trkpt lat="45.86036" lon="4.17713">
        <ele>410</ele>
        <time>2022-05-01T07:06:29Z</time>
      </trkpt>
      <trkpt lat="45.86002" lon="4.1767">
        <ele>407</ele>
        <time>2022-05-01T07:06:37Z</time>
      </trkpt>
      <trkpt lat="45.85992" lon="4.17663">
        <ele>408</ele>
        <time>2022-05-01T07:06:39Z</time>
      </trkpt>
      <trkpt lat="45.85977" lon="4.17659">
        <ele>409</ele>
        <time>2022-05-01T07:06:41Z</time>
      </trkpt>
      <trkpt lat="45.85955" lon="4.17663">
        <ele>411</ele>
        <time>2022-05-01T07:06:45Z</time>
      </trkpt>
      <trkpt lat="45.85936" lon="4.17661">
        <ele>413</ele>
        <time>2022-05-01T07:06:49Z</time>
      </trkpt>
      <trkpt lat="45.85926" lon="4.17653">
        <ele>413</ele>
        <time>2022-05-01T07:06:51Z</time>
      </trkpt>
      <trkpt lat="45.85919" lon="4.17641">
        <ele>413</ele>
        <time>2022-05-01T07:06:53Z</time>
      </trkpt>
      <trkpt lat="45.85915" lon="4.17625">
        <ele>412</ele>
        <time>2022-05-01T07:06:55Z</time>
      </trkpt>
      <trkpt lat="45.85918" lon="4.17597">
        <ele>410</ele>
        <time>2022-05-01T07:06:58Z</time>
      </trkpt>
      <trkpt lat="45.85922" lon="4.17586">
        <ele>409</ele>
        <time>2022-05-01T07:07:00Z</time>
      </trkpt>
      <trkpt lat="45.85926" lon="4.17579">
        <ele>408</ele>
        <time>2022-05-01T07:07:01Z</time>
      </trkpt>
      <trkpt lat="45.85951" lon="4.17564">
        <ele>405</ele>
        <time>2022-05-01T07:07:06Z</time>
      </trkpt>
      <trkpt lat="45.85975" lon="4.17606">
        <ele>406</ele>
        <time>2022-05-01T07:07:12Z</time>
      </trkpt>
      <trkpt lat="45.85995" lon="4.17632">
        <ele>405</ele>
        <time>2022-05-01T07:07:17Z</time>
      </trkpt>
      <trkpt lat="45.86019" lon="4.17653">
        <ele>405</ele>
        <time>2022-05-01T07:07:22Z</time>
      </trkpt>
      <trkpt lat="45.8604" lon="4.17664">
        <ele>405</ele>
        <time>2022-05-01T07:07:26Z</time>
      </trkpt>
      <trkpt lat="45.86071" lon="4.17673">
        <ele>404</ele>
        <time>2022-05-01T07:07:32Z</time>
      </trkpt>
      <trkpt lat="45.86094" lon="4.17675">
        <ele>404</ele>
        <time>2022-05-01T07:07:36Z</time>
      </trkpt>
      <trkpt lat="45.86131" lon="4.17671">
        <ele>401</ele>
        <time>2022-05-01T07:07:43Z</time>
      </trkpt>
      <trkpt lat="45.86156" lon="4.1766">
        <ele>398</ele>
        <time>2022-05-01T07:07:47Z</time>
      </trkpt>
      <trkpt lat="45.86177" lon="4.17645">
        <ele>396</ele>
        <time>2022-05-01T07:07:51Z</time>
      </trkpt>
      <trkpt lat="45.86193" lon="4.17628">
        <ele>394</ele>
        <time>2022-05-01T07:07:55Z</time>
      </trkpt>
      <trkpt lat="45.86247" lon="4.17581">
        <ele>393</ele>
        <time>2022-05-01T07:08:06Z</time>
      </trkpt>
      <trkpt lat="45.8627" lon="4.17571">
        <ele>395</ele>
        <time>2022-05-01T07:08:10Z</time>
      </trkpt>
      <trkpt lat="45.86368" lon="4.17514">
        <ele>408</ele>
        <time>2022-05-01T07:08:29Z</time>
      </trkpt>
      <trkpt lat="45.86361" lon="4.17494">
        <ele>411</ele>
        <time>2022-05-01T07:08:32Z</time>
      </trkpt>
      <trkpt lat="45.8635" lon="4.17485">
        <ele>412</ele>
        <time>2022-05-01T07:08:34Z</time>
      </trkpt>
      <trkpt lat="45.86276" lon="4.1746">
        <ele>410</ele>
        <time>2022-05-01T07:08:48Z</time>
      </trkpt>
      <trkpt lat="45.8626" lon="4.17448">
        <ele>410</ele>
        <time>2022-05-01T07:08:51Z</time>
      </trkpt>
      <trkpt lat="45.86253" lon="4.17439">
        <ele>411</ele>
        <time>2022-05-01T07:08:53Z</time>
      </trkpt>
      <trkpt lat="45.86248" lon="4.17423">
        <ele>413</ele>
        <time>2022-05-01T07:08:55Z</time>
      </trkpt>
      <trkpt lat="45.86246" lon="4.17397">
        <ele>415</ele>
        <time>2022-05-01T07:08:58Z</time>
      </trkpt>
      <trkpt lat="45.86253" lon="4.17304">
        <ele>423</ele>
        <time>2022-05-01T07:09:10Z</time>
      </trkpt>
      <trkpt lat="45.86249" lon="4.17264">
        <ele>424</ele>
        <time>2022-05-01T07:09:15Z</time>
      </trkpt>
      <trkpt lat="45.86243" lon="4.17249">
        <ele>425</ele>
        <time>2022-05-01T07:09:17Z</time>
      </trkpt>
      <trkpt lat="45.86186" lon="4.17201">
        <ele>424</ele>
        <time>2022-05-01T07:09:29Z</time>
      </trkpt>
      <trkpt lat="45.86166" lon="4.1718">
        <ele>424</ele>
        <time>2022-05-01T07:09:33Z</time>
      </trkpt>
      <trkpt lat="45.86152" lon="4.17155">
        <ele>424</ele>
        <time>2022-05-01T07:09:37Z</time>
      </trkpt>
      <trkpt lat="45.86127" lon="4.17068">
        <ele>428</ele>
        <time>2022-05-01T07:09:49Z</time>
      </trkpt>
      <trkpt lat="45.86111" lon="4.16971">
        <ele>430</ele>
        <time>2022-05-01T07:10:01Z</time>
      </trkpt>
      <trkpt lat="45.86111" lon="4.16918">
        <ele>430</ele>
        <time>2022-05-01T07:10:08Z</time>
      </trkpt>
      <trkpt lat="45.8613" lon="4.16769">
        <ele>431</ele>
        <time>2022-05-01T07:10:26Z</time>
      </trkpt>
      <trkpt lat="45.86124" lon="4.16643">
        <ele>432</ele>
        <time>2022-05-01T07:10:42Z</time>
      </trkpt>
      <trkpt lat="45.86098" lon="4.16515">
        <ele>431</ele>
        <time>2022-05-01T07:10:58Z</time>
      </trkpt>
      <trkpt lat="45.86096" lon="4.16462">
        <ele>430</ele>
        <time>2022-05-01T07:11:05Z</time>
      </trkpt>
      <trkpt lat="45.86102" lon="4.16416">
        <ele>429</ele>
        <time>2022-05-01T07:11:11Z</time>
      </trkpt>
      <trkpt lat="45.86206" lon="4.16205">
        <ele>430</ele>
        <time>2022-05-01T07:11:43Z</time>
      </trkpt>
      <trkpt lat="45.86243" lon="4.16161">
        <ele>430</ele>
        <time>2022-05-01T07:11:51Z</time>
      </trkpt>
      <trkpt lat="45.8627" lon="4.16109">
        <ele>430</ele>
        <time>2022-05-01T07:11:59Z</time>
      </trkpt>
      <trkpt lat="45.86296" lon="4.1603">
        <ele>431</ele>
        <time>2022-05-01T07:12:10Z</time>
      </trkpt>
      <trkpt lat="45.86309" lon="4.15975">
        <ele>432</ele>
        <time>2022-05-01T07:12:17Z</time>
      </trkpt>
      <trkpt lat="45.8631" lon="4.15925">
        <ele>433</ele>
        <time>2022-05-01T07:12:24Z</time>
      </trkpt>
      <trkpt lat="45.86287" lon="4.15851">
        <ele>430</ele>
        <time>2022-05-01T07:12:34Z</time>
      </trkpt>
      <trkpt lat="45.86199" lon="4.15613">
        <ele>431</ele>
        <time>2022-05-01T07:13:07Z</time>
      </trkpt>
      <trkpt lat="45.86198" lon="4.15588">
        <ele>431</ele>
        <time>2022-05-01T07:13:10Z</time>
      </trkpt>
      <trkpt lat="45.86203" lon="4.15564">
        <ele>431</ele>
        <time>2022-05-01T07:13:13Z</time>
      </trkpt>
      <trkpt lat="45.86225" lon="4.15529">
        <ele>431</ele>
        <time>2022-05-01T07:13:19Z</time>
      </trkpt>
      <trkpt lat="45.86239" lon="4.1552">
        <ele>432</ele>
        <time>2022-05-01T07:13:22Z</time>
      </trkpt>
      <trkpt lat="45.86316" lon="4.15499">
        <ele>434</ele>
        <time>2022-05-01T07:13:36Z</time>
      </trkpt>
      <trkpt lat="45.86333" lon="4.15483">
        <ele>434</ele>
        <time>2022-05-01T07:13:39Z</time>
      </trkpt>
      <trkpt lat="45.86339" lon="4.15467">
        <ele>433</ele>
        <time>2022-05-01T07:13:42Z</time>
      </trkpt>
      <trkpt lat="45.8634" lon="4.15457">
        <ele>433</ele>
        <time>2022-05-01T07:13:43Z</time>
      </trkpt>
      <trkpt lat="45.86331" lon="4.1539">
        <ele>432</ele>
        <time>2022-05-01T07:13:51Z</time>
      </trkpt>
      <trkpt lat="45.86331" lon="4.15325">
        <ele>431</ele>
        <time>2022-05-01T07:13:59Z</time>
      </trkpt>
      <trkpt lat="45.86333" lon="4.15301">
        <ele>430</ele>
        <time>2022-05-01T07:14:02Z</time>
      </trkpt>
      <trkpt lat="45.8634" lon="4.15267">
        <ele>430</ele>
        <time>2022-05-01T07:14:07Z</time>
      </trkpt>
      <trkpt lat="45.8636" lon="4.15201">
        <ele>428</ele>
        <time>2022-05-01T07:14:16Z</time>
      </trkpt>
      <trkpt lat="45.86373" lon="4.15173">
        <ele>427</ele>
        <time>2022-05-01T07:14:20Z</time>
      </trkpt>
      <trkpt lat="45.86389" lon="4.15152">
        <ele>427</ele>
        <time>2022-05-01T07:14:24Z</time>
      </trkpt>
      <trkpt lat="45.86451" lon="4.15085">
        <ele>422</ele>
        <time>2022-05-01T07:14:38Z</time>
      </trkpt>
      <trkpt lat="45.86469" lon="4.15075">
        <ele>420</ele>
        <time>2022-05-01T07:14:41Z</time>
      </trkpt>
      <trkpt lat="45.86486" lon="4.15072">
        <ele>419</ele>
        <time>2022-05-01T07:14:44Z</time>
      </trkpt>
      <trkpt lat="45.86626" lon="4.15097">
        <ele>413</ele>
        <time>2022-05-01T07:15:09Z</time>
      </trkpt>
      <trkpt lat="45.86637" lon="4.15105">
        <ele>413</ele>
        <time>2022-05-01T07:15:11Z</time>
      </trkpt>
      <trkpt lat="45.86647" lon="4.15119">
        <ele>414</ele>
        <time>2022-05-01T07:15:14Z</time>
      </trkpt>
      <trkpt lat="45.86695" lon="4.15215">
        <ele>421</ele>
        <time>2022-05-01T07:15:28Z</time>
      </trkpt>
      <trkpt lat="45.86712" lon="4.15231">
        <ele>420</ele>
        <time>2022-05-01T07:15:32Z</time>
      </trkpt>
      <trkpt lat="45.86723" lon="4.15231">
        <ele>419</ele>
        <time>2022-05-01T07:15:34Z</time>
      </trkpt>
      <trkpt lat="45.86739" lon="4.15219">
        <ele>417</ele>
        <time>2022-05-01T07:15:37Z</time>
      </trkpt>
      <trkpt lat="45.86745" lon="4.15206">
        <ele>416</ele>
        <time>2022-05-01T07:15:39Z</time>
      </trkpt>
      <trkpt lat="45.86747" lon="4.15181">
        <ele>415</ele>
        <time>2022-05-01T07:15:42Z</time>
      </trkpt>
      <trkpt lat="45.86744" lon="4.15167">
        <ele>415</ele>
        <time>2022-05-01T07:15:44Z</time>
      </trkpt>
      <trkpt lat="45.86721" lon="4.15112">
        <ele>416</ele>
        <time>2022-05-01T07:15:52Z</time>
      </trkpt>
      <trkpt lat="45.86716" lon="4.15077">
        <ele>415</ele>
        <time>2022-05-01T07:15:57Z</time>
      </trkpt>
      <trkpt lat="45.86719" lon="4.15036">
        <ele>416</ele>
        <time>2022-05-01T07:16:02Z</time>
      </trkpt>
      <trkpt lat="45.86736" lon="4.14977">
        <ele>419</ele>
        <time>2022-05-01T07:16:10Z</time>
      </trkpt>
      <trkpt lat="45.8674" lon="4.14953">
        <ele>420</ele>
        <time>2022-05-01T07:16:13Z</time>
      </trkpt>
      <trkpt lat="45.86736" lon="4.14925">
        <ele>421</ele>
        <time>2022-05-01T07:16:16Z</time>
      </trkpt>
      <trkpt lat="45.86729" lon="4.14905">
        <ele>421</ele>
        <time>2022-05-01T07:16:19Z</time>
      </trkpt>
      <trkpt lat="45.8673" lon="4.14881">
        <ele>422</ele>
        <time>2022-05-01T07:16:22Z</time>
      </trkpt>
      <trkpt lat="45.86733" lon="4.14866">
        <ele>422</ele>
        <time>2022-05-01T07:16:24Z</time>
      </trkpt>
      <trkpt lat="45.86761" lon="4.14807">
        <ele>423</ele>
        <time>2022-05-01T07:16:33Z</time>
      </trkpt>
      <trkpt lat="45.86793" lon="4.14721">
        <ele>421</ele>
        <time>2022-05-01T07:16:45Z</time>
      </trkpt>
      <trkpt lat="45.86836" lon="4.14545">
        <ele>418</ele>
        <time>2022-05-01T07:17:08Z</time>
      </trkpt>
      <trkpt lat="45.86851" lon="4.14511">
        <ele>417</ele>
        <time>2022-05-01T07:17:13Z</time>
      </trkpt>
      <trkpt lat="45.86893" lon="4.14469">
        <ele>416</ele>
        <time>2022-05-01T07:17:22Z</time>
      </trkpt>
      <trkpt lat="45.86965" lon="4.14429">
        <ele>415</ele>
        <time>2022-05-01T07:17:36Z</time>
      </trkpt>
      <trkpt lat="45.87042" lon="4.14347">
        <ele>411</ele>
        <time>2022-05-01T07:17:53Z</time>
      </trkpt>
      <trkpt lat="45.87063" lon="4.14331">
        <ele>409</ele>
        <time>2022-05-01T07:17:57Z</time>
      </trkpt>
      <trkpt lat="45.87077" lon="4.14326">
        <ele>408</ele>
        <time>2022-05-01T07:18:00Z</time>
      </trkpt>
      <trkpt lat="45.87132" lon="4.14319">
        <ele>406</ele>
        <time>2022-05-01T07:18:09Z</time>
      </trkpt>
      <trkpt lat="45.87178" lon="4.14317">
        <ele>405</ele>
        <time>2022-05-01T07:18:18Z</time>
      </trkpt>
      <trkpt lat="45.87217" lon="4.1433">
        <ele>406</ele>
        <time>2022-05-01T07:18:25Z</time>
      </trkpt>
      <trkpt lat="45.87257" lon="4.14351">
        <ele>409</ele>
        <time>2022-05-01T07:18:32Z</time>
      </trkpt>
      <trkpt lat="45.87278" lon="4.14352">
        <ele>409</ele>
        <time>2022-05-01T07:18:36Z</time>
      </trkpt>
      <trkpt lat="45.87287" lon="4.14347">
        <ele>409</ele>
        <time>2022-05-01T07:18:38Z</time>
      </trkpt>
      <trkpt lat="45.87294" lon="4.14333">
        <ele>408</ele>
        <time>2022-05-01T07:18:40Z</time>
      </trkpt>
      <trkpt lat="45.87296" lon="4.14318">
        <ele>408</ele>
        <time>2022-05-01T07:18:42Z</time>
      </trkpt>
      <trkpt lat="45.87295" lon="4.143">
        <ele>408</ele>
        <time>2022-05-01T07:18:44Z</time>
      </trkpt>
      <trkpt lat="45.87286" lon="4.1428">
        <ele>407</ele>
        <time>2022-05-01T07:18:47Z</time>
      </trkpt>
      <trkpt lat="45.87229" lon="4.14203">
        <ele>404</ele>
        <time>2022-05-01T07:19:01Z</time>
      </trkpt>
      <trkpt lat="45.87211" lon="4.14146">
        <ele>404</ele>
        <time>2022-05-01T07:19:09Z</time>
      </trkpt>
      <trkpt lat="45.87201" lon="4.1409">
        <ele>404</ele>
        <time>2022-05-01T07:19:16Z</time>
      </trkpt>
      <trkpt lat="45.87198" lon="4.14047">
        <ele>405</ele>
        <time>2022-05-01T07:19:21Z</time>
      </trkpt>
      <trkpt lat="45.87199" lon="4.13824">
        <ele>410</ele>
        <time>2022-05-01T07:19:49Z</time>
      </trkpt>
      <trkpt lat="45.87259" lon="4.13754">
        <ele>414</ele>
        <time>2022-05-01T07:20:02Z</time>
      </trkpt>
      <trkpt lat="45.87266" lon="4.13743">
        <ele>414</ele>
        <time>2022-05-01T07:20:04Z</time>
      </trkpt>
      <trkpt lat="45.87276" lon="4.13739">
        <ele>414</ele>
        <time>2022-05-01T07:20:06Z</time>
      </trkpt>
      <trkpt lat="45.87294" lon="4.13743">
        <ele>414</ele>
        <time>2022-05-01T07:20:09Z</time>
      </trkpt>
      <trkpt lat="45.87306" lon="4.13742">
        <ele>414</ele>
        <time>2022-05-01T07:20:12Z</time>
      </trkpt>
      <trkpt lat="45.87348" lon="4.13723">
        <ele>413</ele>
        <time>2022-05-01T07:20:19Z</time>
      </trkpt>
      <trkpt lat="45.87364" lon="4.13712">
        <ele>412</ele>
        <time>2022-05-01T07:20:23Z</time>
      </trkpt>
      <trkpt lat="45.8736" lon="4.1366">
        <ele>411</ele>
        <time>2022-05-01T07:20:29Z</time>
      </trkpt>
      <trkpt lat="45.87355" lon="4.13628">
        <ele>410</ele>
        <time>2022-05-01T07:20:33Z</time>
      </trkpt>
      <trkpt lat="45.87347" lon="4.13609">
        <ele>410</ele>
        <time>2022-05-01T07:20:36Z</time>
      </trkpt>
      <trkpt lat="45.87361" lon="4.1361">
        <ele>409</ele>
        <time>2022-05-01T07:20:38Z</time>
      </trkpt>
      <trkpt lat="45.87448" lon="4.13571">
        <ele>404</ele>
        <time>2022-05-01T07:20:55Z</time>
      </trkpt>
      <trkpt lat="45.8746" lon="4.13572">
        <ele>403</ele>
        <time>2022-05-01T07:20:57Z</time>
      </trkpt>
      <trkpt lat="45.87469" lon="4.13576">
        <ele>403</ele>
        <time>2022-05-01T07:20:58Z</time>
      </trkpt>
      <trkpt lat="45.87511" lon="4.13648">
        <ele>403</ele>
        <time>2022-05-01T07:21:10Z</time>
      </trkpt>
      <trkpt lat="45.87522" lon="4.13662">
        <ele>403</ele>
        <time>2022-05-01T07:21:13Z</time>
      </trkpt>
      <trkpt lat="45.87537" lon="4.13674">
        <ele>402</ele>
        <time>2022-05-01T07:21:16Z</time>
      </trkpt>
      <trkpt lat="45.87551" lon="4.1368">
        <ele>401</ele>
        <time>2022-05-01T07:21:18Z</time>
      </trkpt>
      <trkpt lat="45.87566" lon="4.13681">
        <ele>400</ele>
        <time>2022-05-01T07:21:21Z</time>
      </trkpt>
      <trkpt lat="45.87584" lon="4.13677">
        <ele>398</ele>
        <time>2022-05-01T07:21:24Z</time>
      </trkpt>
      <trkpt lat="45.876" lon="4.13678">
        <ele>396</ele>
        <time>2022-05-01T07:21:27Z</time>
      </trkpt>
      <trkpt lat="45.87614" lon="4.13682">
        <ele>395</ele>
        <time>2022-05-01T07:21:30Z</time>
      </trkpt>
      <trkpt lat="45.87633" lon="4.13691">
        <ele>394</ele>
        <time>2022-05-01T07:21:33Z</time>
      </trkpt>
      <trkpt lat="45.87648" lon="4.13706">
        <ele>394</ele>
        <time>2022-05-01T07:21:36Z</time>
      </trkpt>
      <trkpt lat="45.87663" lon="4.13728">
        <ele>394</ele>
        <time>2022-05-01T07:21:40Z</time>
      </trkpt>
      <trkpt lat="45.87709" lon="4.13835">
        <ele>393</ele>
        <time>2022-05-01T07:21:56Z</time>
      </trkpt>
      <trkpt lat="45.87732" lon="4.13877">
        <ele>391</ele>
        <time>2022-05-01T07:22:02Z</time>
      </trkpt>
      <trkpt lat="45.87744" lon="4.13894">
        <ele>391</ele>
        <time>2022-05-01T07:22:05Z</time>
      </trkpt>
      <trkpt lat="45.87826" lon="4.13961">
        <ele>391</ele>
        <time>2022-05-01T07:22:22Z</time>
      </trkpt>
      <trkpt lat="45.87837" lon="4.13965">
        <ele>391</ele>
        <time>2022-05-01T07:22:24Z</time>
      </trkpt>
      <trkpt lat="45.87847" lon="4.13963">
        <ele>391</ele>
        <time>2022-05-01T07:22:26Z</time>
      </trkpt>
      <trkpt lat="45.87857" lon="4.13954">
        <ele>391</ele>
        <time>2022-05-01T07:22:28Z</time>
      </trkpt>
      <trkpt lat="45.87868" lon="4.13936">
        <ele>390</ele>
        <time>2022-05-01T07:22:31Z</time>
      </trkpt>
      <trkpt lat="45.8787" lon="4.13921">
        <ele>389</ele>
        <time>2022-05-01T07:22:33Z</time>
      </trkpt>
      <trkpt lat="45.8786" lon="4.13885">
        <ele>389</ele>
        <time>2022-05-01T07:22:38Z</time>
      </trkpt>
      <trkpt lat="45.87821" lon="4.13791">
        <ele>389</ele>
        <time>2022-05-01T07:22:51Z</time>
      </trkpt>
      <trkpt lat="45.87816" lon="4.13767">
        <ele>389</ele>
        <time>2022-05-01T07:22:54Z</time>
      </trkpt>
      <trkpt lat="45.87798" lon="4.13552">
        <ele>397</ele>
        <time>2022-05-01T07:23:21Z</time>
      </trkpt>
      <trkpt lat="45.87791" lon="4.13527">
        <ele>397</ele>
        <time>2022-05-01T07:23:25Z</time>
      </trkpt>
      <trkpt lat="45.87775" lon="4.13488">
        <ele>397</ele>
        <time>2022-05-01T07:23:30Z</time>
      </trkpt>
      <trkpt lat="45.87769" lon="4.13451">
        <ele>399</ele>
        <time>2022-05-01T07:23:35Z</time>
      </trkpt>
      <trkpt lat="45.8777" lon="4.13434">
        <ele>400</ele>
        <time>2022-05-01T07:23:37Z</time>
      </trkpt>
      <trkpt lat="45.87775" lon="4.13418">
        <ele>401</ele>
        <time>2022-05-01T07:23:39Z</time>
      </trkpt>
      <trkpt lat="45.87783" lon="4.13404">
        <ele>402</ele>
        <time>2022-05-01T07:23:41Z</time>
      </trkpt>
      <trkpt lat="45.87796" lon="4.13385">
        <ele>404</ele>
        <time>2022-05-01T07:23:45Z</time>
      </trkpt>
      <trkpt lat="45.87846" lon="4.13342">
        <ele>410</ele>
        <time>2022-05-01T07:23:55Z</time>
      </trkpt>
      <trkpt lat="45.87878" lon="4.13301">
        <ele>413</ele>
        <time>2022-05-01T07:24:03Z</time>
      </trkpt>
      <trkpt lat="45.87892" lon="4.13289">
        <ele>414</ele>
        <time>2022-05-01T07:24:06Z</time>
      </trkpt>
      <trkpt lat="45.87997" lon="4.13224">
        <ele>419</ele>
        <time>2022-05-01T07:24:26Z</time>
      </trkpt>
      <trkpt lat="45.88012" lon="4.13208">
        <ele>419</ele>
        <time>2022-05-01T07:24:29Z</time>
      </trkpt>
      <trkpt lat="45.88037" lon="4.13187">
        <ele>418</ele>
        <time>2022-05-01T07:24:34Z</time>
      </trkpt>
      <trkpt lat="45.88083" lon="4.13167">
        <ele>418</ele>
        <time>2022-05-01T07:24:43Z</time>
      </trkpt>
      <trkpt lat="45.88199" lon="4.13138">
        <ele>414</ele>
        <time>2022-05-01T07:25:04Z</time>
      </trkpt>
      <trkpt lat="45.88232" lon="4.13123">
        <ele>413</ele>
        <time>2022-05-01T07:25:10Z</time>
      </trkpt>
      <trkpt lat="45.88243" lon="4.13113">
        <ele>413</ele>
        <time>2022-05-01T07:25:12Z</time>
      </trkpt>
      <trkpt lat="45.88257" lon="4.13081">
        <ele>413</ele>
        <time>2022-05-01T07:25:17Z</time>
      </trkpt>
      <trkpt lat="45.8826" lon="4.1305">
        <ele>413</ele>
        <time>2022-05-01T07:25:21Z</time>
      </trkpt>
      <trkpt lat="45.88261" lon="4.12973">
        <ele>412</ele>
        <time>2022-05-01T07:25:31Z</time>
      </trkpt>
      <trkpt lat="45.88267" lon="4.12868">
        <ele>411</ele>
        <time>2022-05-01T07:25:44Z</time>
      </trkpt>
      <trkpt lat="45.88265" lon="4.12835">
        <ele>410</ele>
        <time>2022-05-01T07:25:48Z</time>
      </trkpt>
      <trkpt lat="45.88253" lon="4.12742">
        <ele>408</ele>
        <time>2022-05-01T07:25:59Z</time>
      </trkpt>
      <trkpt lat="45.88258" lon="4.12717">
        <ele>408</ele>
        <time>2022-05-01T07:26:03Z</time>
      </trkpt>
      <trkpt lat="45.88265" lon="4.12705">
        <ele>409</ele>
        <time>2022-05-01T07:26:05Z</time>
      </trkpt>
      <trkpt lat="45.88391" lon="4.12595">
        <ele>409</ele>
        <time>2022-05-01T07:26:31Z</time>
      </trkpt>
      <trkpt lat="45.8843" lon="4.12574">
        <ele>407</ele>
        <time>2022-05-01T07:26:38Z</time>
      </trkpt>
      <trkpt lat="45.88463" lon="4.12566">
        <ele>407</ele>
        <time>2022-05-01T07:26:44Z</time>
      </trkpt>
      <trkpt lat="45.88504" lon="4.12561">
        <ele>406</ele>
        <time>2022-05-01T07:26:51Z</time>
      </trkpt>
      <trkpt lat="45.88528" lon="4.12565">
        <ele>404</ele>
        <time>2022-05-01T07:26:56Z</time>
      </trkpt>
      <trkpt lat="45.88627" lon="4.12621">
        <ele>404</ele>
        <time>2022-05-01T07:27:15Z</time>
      </trkpt>
      <trkpt lat="45.88639" lon="4.12624">
        <ele>404</ele>
        <time>2022-05-01T07:27:17Z</time>
      </trkpt>
      <trkpt lat="45.88652" lon="4.12619">
        <ele>403</ele>
        <time>2022-05-01T07:27:19Z</time>
      </trkpt>
      <trkpt lat="45.88663" lon="4.12609">
        <ele>401</ele>
        <time>2022-05-01T07:27:22Z</time>
      </trkpt>
      <trkpt lat="45.8867" lon="4.12567">
        <ele>398</ele>
        <time>2022-05-01T07:27:27Z</time>
      </trkpt>
      <trkpt lat="45.88669" lon="4.12546">
        <ele>397</ele>
        <time>2022-05-01T07:27:30Z</time>
      </trkpt>
      <trkpt lat="45.8866" lon="4.12518">
        <ele>396</ele>
        <time>2022-05-01T07:27:33Z</time>
      </trkpt>
      <trkpt lat="45.88649" lon="4.12505">
        <ele>396</ele>
        <time>2022-05-01T07:27:36Z</time>
      </trkpt>
      <trkpt lat="45.88593" lon="4.12462">
        <ele>395</ele>
        <time>2022-05-01T07:27:47Z</time>
      </trkpt>
      <trkpt lat="45.8857" lon="4.12441">
        <ele>395</ele>
        <time>2022-05-01T07:27:52Z</time>
      </trkpt>
      <trkpt lat="45.88549" lon="4.12412">
        <ele>394</ele>
        <time>2022-05-01T07:27:57Z</time>
      </trkpt>
      <trkpt lat="45.88525" lon="4.12373">
        <ele>393</ele>
        <time>2022-05-01T07:28:04Z</time>
      </trkpt>
      <trkpt lat="45.88459" lon="4.1225">
        <ele>385</ele>
        <time>2022-05-01T07:28:23Z</time>
      </trkpt>
      <trkpt lat="45.88445" lon="4.12219">
        <ele>384</ele>
        <time>2022-05-01T07:28:27Z</time>
      </trkpt>
      <trkpt lat="45.88436" lon="4.1219">
        <ele>382</ele>
        <time>2022-05-01T07:28:31Z</time>
      </trkpt>
      <trkpt lat="45.88433" lon="4.1216">
        <ele>380</ele>
        <time>2022-05-01T07:28:35Z</time>
      </trkpt>
      <trkpt lat="45.88433" lon="4.12078">
        <ele>372</ele>
        <time>2022-05-01T07:28:45Z</time>
      </trkpt>
      <trkpt lat="45.88428" lon="4.12022">
        <ele>369</ele>
        <time>2022-05-01T07:28:52Z</time>
      </trkpt>
      <trkpt lat="45.88422" lon="4.12">
        <ele>368</ele>
        <time>2022-05-01T07:28:55Z</time>
      </trkpt>
      <trkpt lat="45.88403" lon="4.11952">
        <ele>366</ele>
        <time>2022-05-01T07:29:02Z</time>
      </trkpt>
      <trkpt lat="45.88395" lon="4.11922">
        <ele>364</ele>
        <time>2022-05-01T07:29:06Z</time>
      </trkpt>
      <trkpt lat="45.88378" lon="4.1167">
        <ele>362</ele>
        <time>2022-05-01T07:29:37Z</time>
      </trkpt>
      <trkpt lat="45.88383" lon="4.11624">
        <ele>362</ele>
        <time>2022-05-01T07:29:43Z</time>
      </trkpt>
      <trkpt lat="45.8839" lon="4.11594">
        <ele>363</ele>
        <time>2022-05-01T07:29:47Z</time>
      </trkpt>
      <trkpt lat="45.88401" lon="4.11565">
        <ele>364</ele>
        <time>2022-05-01T07:29:51Z</time>
      </trkpt>
      <trkpt lat="45.88417" lon="4.11537">
        <ele>364</ele>
        <time>2022-05-01T07:29:56Z</time>
      </trkpt>
      <trkpt lat="45.88436" lon="4.11514">
        <ele>364</ele>
        <time>2022-05-01T07:30:00Z</time>
      </trkpt>
      <trkpt lat="45.88467" lon="4.11491">
        <ele>365</ele>
        <time>2022-05-01T07:30:06Z</time>
      </trkpt>
      <trkpt lat="45.88497" lon="4.1148">
        <ele>368</ele>
        <time>2022-05-01T07:30:12Z</time>
      </trkpt>
      <trkpt lat="45.88536" lon="4.1147">
        <ele>369</ele>
        <time>2022-05-01T07:30:19Z</time>
      </trkpt>
      <trkpt lat="45.88617" lon="4.11458">
        <ele>373</ele>
        <time>2022-05-01T07:30:33Z</time>
      </trkpt>
      <trkpt lat="45.88699" lon="4.11453">
        <ele>377</ele>
        <time>2022-05-01T07:30:48Z</time>
      </trkpt>
      <trkpt lat="45.88869" lon="4.11463">
        <ele>384</ele>
        <time>2022-05-01T07:31:18Z</time>
      </trkpt>
      <trkpt lat="45.88893" lon="4.11459">
        <ele>384</ele>
        <time>2022-05-01T07:31:23Z</time>
      </trkpt>
      <trkpt lat="45.88914" lon="4.11449">
        <ele>383</ele>
        <time>2022-05-01T07:31:26Z</time>
      </trkpt>
      <trkpt lat="45.88933" lon="4.11432">
        <ele>384</ele>
        <time>2022-05-01T07:31:30Z</time>
      </trkpt>
      <trkpt lat="45.88945" lon="4.11414">
        <ele>384</ele>
        <time>2022-05-01T07:31:34Z</time>
      </trkpt>
      <trkpt lat="45.88956" lon="4.11391">
        <ele>384</ele>
        <time>2022-05-01T07:31:37Z</time>
      </trkpt>
      <trkpt lat="45.88964" lon="4.11363">
        <ele>384</ele>
        <time>2022-05-01T07:31:41Z</time>
      </trkpt>
      <trkpt lat="45.88984" lon="4.11262">
        <ele>381</ele>
        <time>2022-05-01T07:31:54Z</time>
      </trkpt>
      <trkpt lat="45.88997" lon="4.11216">
        <ele>380</ele>
        <time>2022-05-01T07:32:00Z</time>
      </trkpt>
      <trkpt lat="45.89011" lon="4.1118">
        <ele>378</ele>
        <time>2022-05-01T07:32:05Z</time>
      </trkpt>
      <trkpt lat="45.89027" lon="4.11153">
        <ele>376</ele>
        <time>2022-05-01T07:32:09Z</time>
      </trkpt>
      <trkpt lat="45.89049" lon="4.11126">
        <ele>374</ele>
        <time>2022-05-01T07:32:15Z</time>
      </trkpt>
      <trkpt lat="45.89073" lon="4.11105">
        <ele>373</ele>
        <time>2022-05-01T07:32:20Z</time>
      </trkpt>
      <trkpt lat="45.89248" lon="4.10982">
        <ele>353</ele>
        <time>2022-05-01T07:32:54Z</time>
      </trkpt>
      <trkpt lat="45.89283" lon="4.10964">
        <ele>348</ele>
        <time>2022-05-01T07:33:01Z</time>
      </trkpt>
      <trkpt lat="45.89362" lon="4.10939">
        <ele>344</ele>
        <time>2022-05-01T07:33:15Z</time>
      </trkpt>
      <trkpt lat="45.89413" lon="4.10928">
        <ele>350</ele>
        <time>2022-05-01T07:33:24Z</time>
      </trkpt>
      <trkpt lat="45.89576" lon="4.10916">
        <ele>344</ele>
        <time>2022-05-01T07:33:53Z</time>
      </trkpt>
      <trkpt lat="45.89602" lon="4.10909">
        <ele>343</ele>
        <time>2022-05-01T07:33:58Z</time>
      </trkpt>
      <trkpt lat="45.89622" lon="4.10897">
        <ele>342</ele>
        <time>2022-05-01T07:34:02Z</time>
      </trkpt>
      <trkpt lat="45.89637" lon="4.10882">
        <ele>341</ele>
        <time>2022-05-01T07:34:05Z</time>
      </trkpt>
      <trkpt lat="45.8965" lon="4.10864">
        <ele>341</ele>
        <time>2022-05-01T07:34:08Z</time>
      </trkpt>
      <trkpt lat="45.89663" lon="4.10829">
        <ele>340</ele>
        <time>2022-05-01T07:34:13Z</time>
      </trkpt>
      <trkpt lat="45.89667" lon="4.10793">
        <ele>343</ele>
        <time>2022-05-01T07:34:18Z</time>
      </trkpt>
      <trkpt lat="45.89666" lon="4.10749">
        <ele>347</ele>
        <time>2022-05-01T07:34:23Z</time>
      </trkpt>
      <trkpt lat="45.89636" lon="4.10548">
        <ele>341</ele>
        <time>2022-05-01T07:34:49Z</time>
      </trkpt>
      <trkpt lat="45.89633" lon="4.10508">
        <ele>338</ele>
        <time>2022-05-01T07:34:54Z</time>
      </trkpt>
      <trkpt lat="45.89635" lon="4.10466">
        <ele>335</ele>
        <time>2022-05-01T07:34:59Z</time>
      </trkpt>
      <trkpt lat="45.89645" lon="4.10415">
        <ele>334</ele>
        <time>2022-05-01T07:35:06Z</time>
      </trkpt>
      <trkpt lat="45.89658" lon="4.10369">
        <ele>331</ele>
        <time>2022-05-01T07:35:12Z</time>
      </trkpt>
      <trkpt lat="45.89693" lon="4.10273">
        <ele>330</ele>
        <time>2022-05-01T07:35:25Z</time>
      </trkpt>
      <trkpt lat="45.89706" lon="4.10228">
        <ele>331</ele>
        <time>2022-05-01T07:35:31Z</time>
      </trkpt>
      <trkpt lat="45.89708" lon="4.10179">
        <ele>332</ele>
        <time>2022-05-01T07:35:37Z</time>
      </trkpt>
      <trkpt lat="45.89704" lon="4.10149">
        <ele>333</ele>
        <time>2022-05-01T07:35:41Z</time>
      </trkpt>
      <trkpt lat="45.89685" lon="4.10062">
        <ele>333</ele>
        <time>2022-05-01T07:35:52Z</time>
      </trkpt>
      <trkpt lat="45.89688" lon="4.10027">
        <ele>334</ele>
        <time>2022-05-01T07:35:57Z</time>
      </trkpt>
      <trkpt lat="45.89699" lon="4.09983">
        <ele>336</ele>
        <time>2022-05-01T07:36:02Z</time>
      </trkpt>
      <trkpt lat="45.89729" lon="4.099">
        <ele>339</ele>
        <time>2022-05-01T07:36:14Z</time>
      </trkpt>
      <trkpt lat="45.89741" lon="4.09849">
        <ele>337</ele>
        <time>2022-05-01T07:36:21Z</time>
      </trkpt>
      <trkpt lat="45.89743" lon="4.09814">
        <ele>336</ele>
        <time>2022-05-01T07:36:25Z</time>
      </trkpt>
      <trkpt lat="45.89741" lon="4.09713">
        <ele>336</ele>
        <time>2022-05-01T07:36:38Z</time>
      </trkpt>
      <trkpt lat="45.89745" lon="4.09659">
        <ele>336</ele>
        <time>2022-05-01T07:36:44Z</time>
      </trkpt>
      <trkpt lat="45.89756" lon="4.09623">
        <ele>336</ele>
        <time>2022-05-01T07:36:49Z</time>
      </trkpt>
      <trkpt lat="45.89781" lon="4.09586">
        <ele>338</ele>
        <time>2022-05-01T07:36:56Z</time>
      </trkpt>
      <trkpt lat="45.89796" lon="4.09575">
        <ele>339</ele>
        <time>2022-05-01T07:36:59Z</time>
      </trkpt>
      <trkpt lat="45.89816" lon="4.09568">
        <ele>340</ele>
        <time>2022-05-01T07:37:02Z</time>
      </trkpt>
      <trkpt lat="45.89845" lon="4.09566">
        <ele>343</ele>
        <time>2022-05-01T07:37:07Z</time>
      </trkpt>
      <trkpt lat="45.89887" lon="4.09574">
        <ele>345</ele>
        <time>2022-05-01T07:37:15Z</time>
      </trkpt>
      <trkpt lat="45.8993" lon="4.09563">
        <ele>345</ele>
        <time>2022-05-01T07:37:23Z</time>
      </trkpt>
      <trkpt lat="45.90136" lon="4.09427">
        <ele>340</ele>
        <time>2022-05-01T07:38:03Z</time>
      </trkpt>
      <trkpt lat="45.90357" lon="4.09333">
        <ele>336</ele>
        <time>2022-05-01T07:38:44Z</time>
      </trkpt>
      <trkpt lat="45.90648" lon="4.09199">
        <ele>349</ele>
        <time>2022-05-01T07:39:38Z</time>
      </trkpt>
      <trkpt lat="45.90718" lon="4.09165">
        <ele>343</ele>
        <time>2022-05-01T07:39:52Z</time>
      </trkpt>
      <trkpt lat="45.9074" lon="4.09151">
        <ele>343</ele>
        <time>2022-05-01T07:39:56Z</time>
      </trkpt>
      <trkpt lat="45.9076" lon="4.0913">
        <ele>342</ele>
        <time>2022-05-01T07:40:00Z</time>
      </trkpt>
      <trkpt lat="45.90771" lon="4.09105">
        <ele>342</ele>
        <time>2022-05-01T07:40:04Z</time>
      </trkpt>
      <trkpt lat="45.90778" lon="4.09078">
        <ele>342</ele>
        <time>2022-05-01T07:40:07Z</time>
      </trkpt>
      <trkpt lat="45.90778" lon="4.09047">
        <ele>340</ele>
        <time>2022-05-01T07:40:11Z</time>
      </trkpt>
      <trkpt lat="45.90758" lon="4.08877">
        <ele>333</ele>
        <time>2022-05-01T07:40:33Z</time>
      </trkpt>
      <trkpt lat="45.9076" lon="4.08847">
        <ele>333</ele>
        <time>2022-05-01T07:40:36Z</time>
      </trkpt>
      <trkpt lat="45.90767" lon="4.08822">
        <ele>334</ele>
        <time>2022-05-01T07:40:40Z</time>
      </trkpt>
      <trkpt lat="45.90776" lon="4.08801">
        <ele>333</ele>
        <time>2022-05-01T07:40:43Z</time>
      </trkpt>
      <trkpt lat="45.90793" lon="4.08778">
        <ele>333</ele>
        <time>2022-05-01T07:40:47Z</time>
      </trkpt>
      <trkpt lat="45.90816" lon="4.08761">
        <ele>335</ele>
        <time>2022-05-01T07:40:52Z</time>
      </trkpt>
      <trkpt lat="45.90838" lon="4.08748">
        <ele>336</ele>
        <time>2022-05-01T07:40:56Z</time>
      </trkpt>
      <trkpt lat="45.9091" lon="4.08728">
        <ele>341</ele>
        <time>2022-05-01T07:41:09Z</time>
      </trkpt>
      <trkpt lat="45.90933" lon="4.08718">
        <ele>343</ele>
        <time>2022-05-01T07:41:13Z</time>
      </trkpt>
      <trkpt lat="45.90949" lon="4.08704">
        <ele>344</ele>
        <time>2022-05-01T07:41:16Z</time>
      </trkpt>
      <trkpt lat="45.90966" lon="4.08684">
        <ele>345</ele>
        <time>2022-05-01T07:41:20Z</time>
      </trkpt>
      <trkpt lat="45.90982" lon="4.08656">
        <ele>345</ele>
        <time>2022-05-01T07:41:25Z</time>
      </trkpt>
      <trkpt lat="45.91011" lon="4.08595">
        <ele>343</ele>
        <time>2022-05-01T07:41:34Z</time>
      </trkpt>
      <trkpt lat="45.91093" lon="4.08416">
        <ele>339</ele>
        <time>2022-05-01T07:42:00Z</time>
      </trkpt>
      <trkpt lat="45.91109" lon="4.08357">
        <ele>341</ele>
        <time>2022-05-01T07:42:08Z</time>
      </trkpt>
      <trkpt lat="45.9114" lon="4.0821">
        <ele>339</ele>
        <time>2022-05-01T07:42:27Z</time>
      </trkpt>
      <trkpt lat="45.91177" lon="4.08115">
        <ele>337</ele>
        <time>2022-05-01T07:42:41Z</time>
      </trkpt>
      <trkpt lat="45.91187" lon="4.0808">
        <ele>336</ele>
        <time>2022-05-01T07:42:46Z</time>
      </trkpt>
      <trkpt lat="45.91202" lon="4.07992">
        <ele>336</ele>
        <time>2022-05-01T07:42:57Z</time>
      </trkpt>
      <trkpt lat="45.91214" lon="4.07944">
        <ele>334</ele>
        <time>2022-05-01T07:43:03Z</time>
      </trkpt>
      <trkpt lat="45.91224" lon="4.07915">
        <ele>333</ele>
        <time>2022-05-01T07:43:07Z</time>
      </trkpt>
      <trkpt lat="45.91242" lon="4.07886">
        <ele>332</ele>
        <time>2022-05-01T07:43:12Z</time>
      </trkpt>
      <trkpt lat="45.91269" lon="4.07851">
        <ele>327</ele>
        <time>2022-05-01T07:43:18Z</time>
      </trkpt>
      <trkpt lat="45.9133" lon="4.07788">
        <ele>323</ele>
        <time>2022-05-01T07:43:32Z</time>
      </trkpt>
      <trkpt lat="45.91352" lon="4.07751">
        <ele>320</ele>
        <time>2022-05-01T07:43:38Z</time>
      </trkpt>
      <trkpt lat="45.91366" lon="4.07715">
        <ele>322</ele>
        <time>2022-05-01T07:43:43Z</time>
      </trkpt>
      <trkpt lat="45.91372" lon="4.0768">
        <ele>324</ele>
        <time>2022-05-01T07:43:47Z</time>
      </trkpt>
      <trkpt lat="45.91371" lon="4.0757">
        <ele>325</ele>
        <time>2022-05-01T07:44:01Z</time>
      </trkpt>
      <trkpt lat="45.91374" lon="4.07545">
        <ele>325</ele>
        <time>2022-05-01T07:44:04Z</time>
      </trkpt>
      <trkpt lat="45.91387" lon="4.0749">
        <ele>326</ele>
        <time>2022-05-01T07:44:11Z</time>
      </trkpt>
      <trkpt lat="45.91514" lon="4.07046">
        <ele>328</ele>
        <time>2022-05-01T07:45:11Z</time>
      </trkpt>
      <trkpt lat="45.91524" lon="4.07023">
        <ele>329</ele>
        <time>2022-05-01T07:45:14Z</time>
      </trkpt>
      <trkpt lat="45.9155" lon="4.06985">
        <ele>331</ele>
        <time>2022-05-01T07:45:21Z</time>
      </trkpt>
      <trkpt lat="45.91568" lon="4.06968">
        <ele>332</ele>
        <time>2022-05-01T07:45:24Z</time>
      </trkpt>
      <trkpt lat="45.91584" lon="4.06957">
        <ele>333</ele>
        <time>2022-05-01T07:45:28Z</time>
      </trkpt>
      <trkpt lat="45.91618" lon="4.06947">
        <ele>336</ele>
        <time>2022-05-01T07:45:34Z</time>
      </trkpt>
      <trkpt lat="45.91692" lon="4.06935">
        <ele>341</ele>
        <time>2022-05-01T07:45:47Z</time>
      </trkpt>
      <trkpt lat="45.91727" lon="4.06935">
        <ele>344</ele>
        <time>2022-05-01T07:45:53Z</time>
      </trkpt>
      <trkpt lat="45.91785" lon="4.06952">
        <ele>351</ele>
        <time>2022-05-01T07:46:04Z</time>
      </trkpt>
      <trkpt lat="45.91908" lon="4.06996">
        <ele>360</ele>
        <time>2022-05-01T07:46:26Z</time>
      </trkpt>
      <trkpt lat="45.91935" lon="4.07002">
        <ele>361</ele>
        <time>2022-05-01T07:46:31Z</time>
      </trkpt>
      <trkpt lat="45.91965" lon="4.07001">
        <ele>363</ele>
        <time>2022-05-01T07:46:37Z</time>
      </trkpt>
      <trkpt lat="45.91996" lon="4.06996">
        <ele>364</ele>
        <time>2022-05-01T07:46:42Z</time>
      </trkpt>
      <trkpt lat="45.92032" lon="4.06979">
        <ele>368</ele>
        <time>2022-05-01T07:46:49Z</time>
      </trkpt>
      <trkpt lat="45.9205" lon="4.06954">
        <ele>369</ele>
        <time>2022-05-01T07:46:53Z</time>
      </trkpt>
      <trkpt lat="45.92058" lon="4.06922">
        <ele>369</ele>
        <time>2022-05-01T07:46:57Z</time>
      </trkpt>
      <trkpt lat="45.92055" lon="4.06893">
        <ele>372</ele>
        <time>2022-05-01T07:47:01Z</time>
      </trkpt>
      <trkpt lat="45.9204" lon="4.06866">
        <ele>375</ele>
        <time>2022-05-01T07:47:05Z</time>
      </trkpt>
      <trkpt lat="45.92029" lon="4.06855">
        <ele>376</ele>
        <time>2022-05-01T07:47:08Z</time>
      </trkpt>
      <trkpt lat="45.9194" lon="4.0679">
        <ele>380</ele>
        <time>2022-05-01T07:47:26Z</time>
      </trkpt>
      <trkpt lat="45.91905" lon="4.06757">
        <ele>383</ele>
        <time>2022-05-01T07:47:33Z</time>
      </trkpt>
      <trkpt lat="45.91877" lon="4.06714">
        <ele>387</ele>
        <time>2022-05-01T07:47:40Z</time>
      </trkpt>
      <trkpt lat="45.91859" lon="4.06669">
        <ele>391</ele>
        <time>2022-05-01T07:47:47Z</time>
      </trkpt>
      <trkpt lat="45.91855" lon="4.06646">
        <ele>392</ele>
        <time>2022-05-01T07:47:50Z</time>
      </trkpt>
      <trkpt lat="45.91854" lon="4.06621">
        <ele>393</ele>
        <time>2022-05-01T07:47:53Z</time>
      </trkpt>
      <trkpt lat="45.91859" lon="4.06572">
        <ele>397</ele>
        <time>2022-05-01T07:47:59Z</time>
      </trkpt>
      <trkpt lat="45.91868" lon="4.06532">
        <ele>400</ele>
        <time>2022-05-01T07:48:04Z</time>
      </trkpt>
      <trkpt lat="45.91887" lon="4.06483">
        <ele>401</ele>
        <time>2022-05-01T07:48:11Z</time>
      </trkpt>
      <trkpt lat="45.91944" lon="4.0636">
        <ele>395</ele>
        <time>2022-05-01T07:48:29Z</time>
      </trkpt>
      <trkpt lat="45.91963" lon="4.06307">
        <ele>393</ele>
        <time>2022-05-01T07:48:37Z</time>
      </trkpt>
      <trkpt lat="45.91973" lon="4.06262">
        <ele>391</ele>
        <time>2022-05-01T07:48:43Z</time>
      </trkpt>
      <trkpt lat="45.91977" lon="4.06218">
        <ele>393</ele>
        <time>2022-05-01T07:48:48Z</time>
      </trkpt>
      <trkpt lat="45.91965" lon="4.06146">
        <ele>395</ele>
        <time>2022-05-01T07:48:57Z</time>
      </trkpt>
      <trkpt lat="45.91953" lon="4.0611">
        <ele>396</ele>
        <time>2022-05-01T07:49:02Z</time>
      </trkpt>
      <trkpt lat="45.91895" lon="4.05973">
        <ele>397</ele>
        <time>2022-05-01T07:49:22Z</time>
      </trkpt>
      <trkpt lat="45.9187" lon="4.05902">
        <ele>401</ele>
        <time>2022-05-01T07:49:32Z</time>
      </trkpt>
      <trkpt lat="45.91867" lon="4.05866">
        <ele>403</ele>
        <time>2022-05-01T07:49:36Z</time>
      </trkpt>
      <trkpt lat="45.9187" lon="4.05828">
        <ele>405</ele>
        <time>2022-05-01T07:49:41Z</time>
      </trkpt>
      <trkpt lat="45.91879" lon="4.05796">
        <ele>403</ele>
        <time>2022-05-01T07:49:45Z</time>
      </trkpt>
      <trkpt lat="45.9189" lon="4.05775">
        <ele>402</ele>
        <time>2022-05-01T07:49:49Z</time>
      </trkpt>
      <trkpt lat="45.91904" lon="4.05757">
        <ele>403</ele>
        <time>2022-05-01T07:49:52Z</time>
      </trkpt>
      <trkpt lat="45.91928" lon="4.05716">
        <ele>404</ele>
        <time>2022-05-01T07:49:59Z</time>
      </trkpt>
      <trkpt lat="45.91942" lon="4.05655">
        <ele>404</ele>
        <time>2022-05-01T07:50:07Z</time>
      </trkpt>
      <trkpt lat="45.91945" lon="4.05596">
        <ele>403</ele>
        <time>2022-05-01T07:50:14Z</time>
      </trkpt>
      <trkpt lat="45.91956" lon="4.05517">
        <ele>402</ele>
        <time>2022-05-01T07:50:24Z</time>
      </trkpt>
      <trkpt lat="45.91961" lon="4.05497">
        <ele>402</ele>
        <time>2022-05-01T07:50:26Z</time>
      </trkpt>
      <trkpt lat="45.91976" lon="4.05459">
        <ele>399</ele>
        <time>2022-05-01T07:50:32Z</time>
      </trkpt>
      <trkpt lat="45.9199" lon="4.05432">
        <ele>398</ele>
        <time>2022-05-01T07:50:36Z</time>
      </trkpt>
      <trkpt lat="45.92002" lon="4.05413">
        <ele>399</ele>
        <time>2022-05-01T07:50:39Z</time>
      </trkpt>
      <trkpt lat="45.92034" lon="4.05378">
        <ele>399</ele>
        <time>2022-05-01T07:50:46Z</time>
      </trkpt>
      <trkpt lat="45.92061" lon="4.05359">
        <ele>400</ele>
        <time>2022-05-01T07:50:52Z</time>
      </trkpt>
      <trkpt lat="45.92121" lon="4.05328">
        <ele>404</ele>
        <time>2022-05-01T07:51:03Z</time>
      </trkpt>
      <trkpt lat="45.92154" lon="4.05305">
        <ele>404</ele>
        <time>2022-05-01T07:51:10Z</time>
      </trkpt>
      <trkpt lat="45.92166" lon="4.05291">
        <ele>403</ele>
        <time>2022-05-01T07:51:12Z</time>
      </trkpt>
      <trkpt lat="45.92177" lon="4.05272">
        <ele>402</ele>
        <time>2022-05-01T07:51:15Z</time>
      </trkpt>
      <trkpt lat="45.92214" lon="4.05194">
        <ele>399</ele>
        <time>2022-05-01T07:51:27Z</time>
      </trkpt>
      <trkpt lat="45.9224" lon="4.0516">
        <ele>400</ele>
        <time>2022-05-01T07:51:33Z</time>
      </trkpt>
      <trkpt lat="45.9227" lon="4.05144">
        <ele>399</ele>
        <time>2022-05-01T07:51:39Z</time>
      </trkpt>
      <trkpt lat="45.92295" lon="4.0514">
        <ele>400</ele>
        <time>2022-05-01T07:51:43Z</time>
      </trkpt>
      <trkpt lat="45.92559" lon="4.05125">
        <ele>396</ele>
        <time>2022-05-01T07:52:30Z</time>
      </trkpt>
      <trkpt lat="45.92587" lon="4.0513">
        <ele>393</ele>
        <time>2022-05-01T07:52:36Z</time>
      </trkpt>
      <trkpt lat="45.92609" lon="4.05141">
        <ele>391</ele>
        <time>2022-05-01T07:52:40Z</time>
      </trkpt>
      <trkpt lat="45.9263" lon="4.05156">
        <ele>389</ele>
        <time>2022-05-01T07:52:44Z</time>
      </trkpt>
      <trkpt lat="45.92658" lon="4.05186">
        <ele>388</ele>
        <time>2022-05-01T07:52:50Z</time>
      </trkpt>
      <trkpt lat="45.92695" lon="4.05234">
        <ele>384</ele>
        <time>2022-05-01T07:52:59Z</time>
      </trkpt>
      <trkpt lat="45.92709" lon="4.05259">
        <ele>383</ele>
        <time>2022-05-01T07:53:03Z</time>
      </trkpt>
      <trkpt lat="45.92717" lon="4.05286">
        <ele>382</ele>
        <time>2022-05-01T07:53:07Z</time>
      </trkpt>
      <trkpt lat="45.9273" lon="4.05354">
        <ele>383</ele>
        <time>2022-05-01T07:53:15Z</time>
      </trkpt>
      <trkpt lat="45.92739" lon="4.05376">
        <ele>383</ele>
        <time>2022-05-01T07:53:18Z</time>
      </trkpt>
      <trkpt lat="45.92803" lon="4.05439">
        <ele>381</ele>
        <time>2022-05-01T07:53:32Z</time>
      </trkpt>
      <trkpt lat="45.92822" lon="4.05454">
        <ele>379</ele>
        <time>2022-05-01T07:53:36Z</time>
      </trkpt>
      <trkpt lat="45.92837" lon="4.0546">
        <ele>379</ele>
        <time>2022-05-01T07:53:39Z</time>
      </trkpt>
      <trkpt lat="45.9285" lon="4.05459">
        <ele>382</ele>
        <time>2022-05-01T07:53:41Z</time>
      </trkpt>
      <trkpt lat="45.92864" lon="4.05453">
        <ele>385</ele>
        <time>2022-05-01T07:53:44Z</time>
      </trkpt>
      <trkpt lat="45.92876" lon="4.05443">
        <ele>388</ele>
        <time>2022-05-01T07:53:46Z</time>
      </trkpt>
      <trkpt lat="45.92885" lon="4.05424">
        <ele>390</ele>
        <time>2022-05-01T07:53:49Z</time>
      </trkpt>
      <trkpt lat="45.92889" lon="4.05401">
        <ele>390</ele>
        <time>2022-05-01T07:53:52Z</time>
      </trkpt>
      <trkpt lat="45.92877" lon="4.05314">
        <ele>386</ele>
        <time>2022-05-01T07:54:03Z</time>
      </trkpt>
      <trkpt lat="45.92879" lon="4.05285">
        <ele>387</ele>
        <time>2022-05-01T07:54:07Z</time>
      </trkpt>
      <trkpt lat="45.92885" lon="4.05257">
        <ele>389</ele>
        <time>2022-05-01T07:54:10Z</time>
      </trkpt>
      <trkpt lat="45.92899" lon="4.05226">
        <ele>392</ele>
        <time>2022-05-01T07:54:15Z</time>
      </trkpt>
      <trkpt lat="45.9295" lon="4.05168">
        <ele>403</ele>
        <time>2022-05-01T07:54:26Z</time>
      </trkpt>
      <trkpt lat="45.92975" lon="4.05124">
        <ele>407</ele>
        <time>2022-05-01T07:54:33Z</time>
      </trkpt>
      <trkpt lat="45.93007" lon="4.05035">
        <ele>412</ele>
        <time>2022-05-01T07:54:46Z</time>
      </trkpt>
      <trkpt lat="45.93018" lon="4.05024">
        <ele>413</ele>
        <time>2022-05-01T07:54:48Z</time>
      </trkpt>
      <trkpt lat="45.93034" lon="4.05023">
        <ele>416</ele>
        <time>2022-05-01T07:54:51Z</time>
      </trkpt>
      <trkpt lat="45.93044" lon="4.05029">
        <ele>418</ele>
        <time>2022-05-01T07:54:53Z</time>
      </trkpt>
      <trkpt lat="45.93051" lon="4.05038">
        <ele>420</ele>
        <time>2022-05-01T07:54:55Z</time>
      </trkpt>
      <trkpt lat="45.93055" lon="4.05066">
        <ele>422</ele>
        <time>2022-05-01T07:54:58Z</time>
      </trkpt>
      <trkpt lat="45.93051" lon="4.05158">
        <ele>425</ele>
        <time>2022-05-01T07:55:10Z</time>
      </trkpt>
      <trkpt lat="45.93053" lon="4.052">
        <ele>425</ele>
        <time>2022-05-01T07:55:15Z</time>
      </trkpt>
      <trkpt lat="45.93094" lon="4.05394">
        <ele>435</ele>
        <time>2022-05-01T07:55:40Z</time>
      </trkpt>
      <trkpt lat="45.93099" lon="4.05528">
        <ele>436</ele>
        <time>2022-05-01T07:55:56Z</time>
      </trkpt>
      <trkpt lat="45.93112" lon="4.05568">
        <ele>435</ele>
        <time>2022-05-01T07:56:02Z</time>
      </trkpt>
      <trkpt lat="45.93134" lon="4.05594">
        <ele>436</ele>
        <time>2022-05-01T07:56:07Z</time>
      </trkpt>
      <trkpt lat="45.9315" lon="4.05602">
        <ele>437</ele>
        <time>2022-05-01T07:56:10Z</time>
      </trkpt>
      <trkpt lat="45.93173" lon="4.05603">
        <ele>440</ele>
        <time>2022-05-01T07:56:14Z</time>
      </trkpt>
      <trkpt lat="45.93378" lon="4.05594">
        <ele>452</ele>
        <time>2022-05-01T07:56:51Z</time>
      </trkpt>
      <trkpt lat="45.93392" lon="4.05597">
        <ele>452</ele>
        <time>2022-05-01T07:56:53Z</time>
      </trkpt>
      <trkpt lat="45.93416" lon="4.05616">
        <ele>452</ele>
        <time>2022-05-01T07:56:58Z</time>
      </trkpt>
      <trkpt lat="45.93423" lon="4.05625">
        <ele>451</ele>
        <time>2022-05-01T07:57:00Z</time>
      </trkpt>
      <trkpt lat="45.93469" lon="4.05734">
        <ele>449</ele>
        <time>2022-05-01T07:57:15Z</time>
      </trkpt>
      <trkpt lat="45.93479" lon="4.05748">
        <ele>449</ele>
        <time>2022-05-01T07:57:18Z</time>
      </trkpt>
      <trkpt lat="45.93493" lon="4.05759">
        <ele>450</ele>
        <time>2022-05-01T07:57:21Z</time>
      </trkpt>
      <trkpt lat="45.93508" lon="4.05766">
        <ele>451</ele>
        <time>2022-05-01T07:57:24Z</time>
      </trkpt>
      <trkpt lat="45.93526" lon="4.05771">
        <ele>452</ele>
        <time>2022-05-01T07:57:27Z</time>
      </trkpt>
      <trkpt lat="45.93685" lon="4.05796">
        <ele>461</ele>
        <time>2022-05-01T07:57:55Z</time>
      </trkpt>
      <trkpt lat="45.93701" lon="4.05796">
        <ele>462</ele>
        <time>2022-05-01T07:57:58Z</time>
      </trkpt>
      <trkpt lat="45.93716" lon="4.05792">
        <ele>463</ele>
        <time>2022-05-01T07:58:01Z</time>
      </trkpt>
      <trkpt lat="45.93742" lon="4.05779">
        <ele>464</ele>
        <time>2022-05-01T07:58:06Z</time>
      </trkpt>
      <trkpt lat="45.93955" lon="4.05655">
        <ele>472</ele>
        <time>2022-05-01T07:58:47Z</time>
      </trkpt>
      <trkpt lat="45.93979" lon="4.05644">
        <ele>473</ele>
        <time>2022-05-01T07:58:51Z</time>
      </trkpt>
      <trkpt lat="45.94054" lon="4.05617">
        <ele>476</ele>
        <time>2022-05-01T07:59:05Z</time>
      </trkpt>
      <trkpt lat="45.94058" lon="4.05629">
        <ele>477</ele>
        <time>2022-05-01T07:59:07Z</time>
      </trkpt>
      <trkpt lat="45.94122" lon="4.05717">
        <ele>481</ele>
        <time>2022-05-01T07:59:22Z</time>
      </trkpt>
      <trkpt lat="45.94142" lon="4.05748">
        <ele>482</ele>
        <time>2022-05-01T07:59:27Z</time>
      </trkpt>
      <trkpt lat="45.94165" lon="4.05793">
        <ele>481</ele>
        <time>2022-05-01T07:59:34Z</time>
      </trkpt>
      <trkpt lat="45.94176" lon="4.05821">
        <ele>480</ele>
        <time>2022-05-01T07:59:38Z</time>
      </trkpt>
      <trkpt lat="45.9422" lon="4.05995">
        <ele>476</ele>
        <time>2022-05-01T08:00:01Z</time>
      </trkpt>
      <trkpt lat="45.94229" lon="4.06017">
        <ele>477</ele>
        <time>2022-05-01T08:00:04Z</time>
      </trkpt>
      <trkpt lat="45.9424" lon="4.06035">
        <ele>478</ele>
        <time>2022-05-01T08:00:07Z</time>
      </trkpt>
      <trkpt lat="45.94251" lon="4.06044">
        <ele>479</ele>
        <time>2022-05-01T08:00:10Z</time>
      </trkpt>
      <trkpt lat="45.94263" lon="4.06049">
        <ele>479</ele>
        <time>2022-05-01T08:00:12Z</time>
      </trkpt>
      <trkpt lat="45.94419" lon="4.06075">
        <ele>487</ele>
        <time>2022-05-01T08:00:40Z</time>
      </trkpt>
      <trkpt lat="45.94447" lon="4.06061">
        <ele>486</ele>
        <time>2022-05-01T08:00:45Z</time>
      </trkpt>
      <trkpt lat="45.94473" lon="4.06058">
        <ele>486</ele>
        <time>2022-05-01T08:00:50Z</time>
      </trkpt>
      <trkpt lat="45.94583" lon="4.06025">
        <ele>480</ele>
        <time>2022-05-01T08:01:10Z</time>
      </trkpt>
      <trkpt lat="45.94603" lon="4.06023">
        <ele>479</ele>
        <time>2022-05-01T08:01:13Z</time>
      </trkpt>
      <trkpt lat="45.94637" lon="4.06035">
        <ele>476</ele>
        <time>2022-05-01T08:01:20Z</time>
      </trkpt>
      <trkpt lat="45.9469" lon="4.0606">
        <ele>472</ele>
        <time>2022-05-01T08:01:29Z</time>
      </trkpt>
      <trkpt lat="45.94725" lon="4.06064">
        <ele>471</ele>
        <time>2022-05-01T08:01:36Z</time>
      </trkpt>
      <trkpt lat="45.94791" lon="4.06036">
        <ele>469</ele>
        <time>2022-05-01T08:01:48Z</time>
      </trkpt>
      <trkpt lat="45.9483" lon="4.05999">
        <ele>469</ele>
        <time>2022-05-01T08:01:56Z</time>
      </trkpt>
      <trkpt lat="45.94867" lon="4.05934">
        <ele>468</ele>
        <time>2022-05-01T08:02:07Z</time>
      </trkpt>
      <trkpt lat="45.949" lon="4.05856">
        <ele>465</ele>
        <time>2022-05-01T08:02:18Z</time>
      </trkpt>
      <trkpt lat="45.94928" lon="4.058">
        <ele>462</ele>
        <time>2022-05-01T08:02:26Z</time>
      </trkpt>
      <trkpt lat="45.94972" lon="4.05763">
        <ele>458</ele>
        <time>2022-05-01T08:02:36Z</time>
      </trkpt>
      <trkpt lat="45.95012" lon="4.0577">
        <ele>456</ele>
        <time>2022-05-01T08:02:43Z</time>
      </trkpt>
      <trkpt lat="45.95085" lon="4.05853">
        <ele>455</ele>
        <time>2022-05-01T08:02:59Z</time>
      </trkpt>
      <trkpt lat="45.9519" lon="4.05939">
        <ele>447</ele>
        <time>2022-05-01T08:03:21Z</time>
      </trkpt>
      <trkpt lat="45.95205" lon="4.05962">
        <ele>446</ele>
        <time>2022-05-01T08:03:25Z</time>
      </trkpt>
      <trkpt lat="45.95207" lon="4.05982">
        <ele>445</ele>
        <time>2022-05-01T08:03:27Z</time>
      </trkpt>
      <trkpt lat="45.95202" lon="4.06008">
        <ele>445</ele>
        <time>2022-05-01T08:03:31Z</time>
      </trkpt>
      <trkpt lat="45.95171" lon="4.06105">
        <ele>441</ele>
        <time>2022-05-01T08:03:44Z</time>
      </trkpt>
      <trkpt lat="45.95158" lon="4.06132">
        <ele>440</ele>
        <time>2022-05-01T08:03:48Z</time>
      </trkpt>
      <trkpt lat="45.95092" lon="4.06182">
        <ele>444</ele>
        <time>2022-05-01T08:04:01Z</time>
      </trkpt>
      <trkpt lat="45.95073" lon="4.06229">
        <ele>443</ele>
        <time>2022-05-01T08:04:08Z</time>
      </trkpt>
      <trkpt lat="45.95089" lon="4.06267">
        <ele>443</ele>
        <time>2022-05-01T08:04:13Z</time>
      </trkpt>
      <trkpt lat="45.95121" lon="4.06272">
        <ele>442</ele>
        <time>2022-05-01T08:04:19Z</time>
      </trkpt>
      <trkpt lat="45.9564" lon="4.06191">
        <ele>432</ele>
        <time>2022-05-01T08:05:52Z</time>
      </trkpt>
      <trkpt lat="45.95658" lon="4.06198">
        <ele>432</ele>
        <time>2022-05-01T08:05:55Z</time>
      </trkpt>
      <trkpt lat="45.95668" lon="4.06208">
        <ele>432</ele>
        <time>2022-05-01T08:05:57Z</time>
      </trkpt>
      <trkpt lat="45.9568" lon="4.06237">
        <ele>431</ele>
        <time>2022-05-01T08:06:02Z</time>
      </trkpt>
      <trkpt lat="45.95677" lon="4.0635">
        <ele>431</ele>
        <time>2022-05-01T08:06:16Z</time>
      </trkpt>
      <trkpt lat="45.95673" lon="4.06384">
        <ele>430</ele>
        <time>2022-05-01T08:06:20Z</time>
      </trkpt>
      <trkpt lat="45.95664" lon="4.06418">
        <ele>430</ele>
        <time>2022-05-01T08:06:24Z</time>
      </trkpt>
      <trkpt lat="45.95648" lon="4.06446">
        <ele>432</ele>
        <time>2022-05-01T08:06:29Z</time>
      </trkpt>
      <trkpt lat="45.95632" lon="4.06466">
        <ele>433</ele>
        <time>2022-05-01T08:06:33Z</time>
      </trkpt>
      <trkpt lat="45.95626" lon="4.06481">
        <ele>433</ele>
        <time>2022-05-01T08:06:35Z</time>
      </trkpt>
      <trkpt lat="45.95626" lon="4.06502">
        <ele>433</ele>
        <time>2022-05-01T08:06:37Z</time>
      </trkpt>
      <trkpt lat="45.9564" lon="4.06513">
        <ele>432</ele>
        <time>2022-05-01T08:06:40Z</time>
      </trkpt>
      <trkpt lat="45.95683" lon="4.06526">
        <ele>432</ele>
        <time>2022-05-01T08:06:48Z</time>
      </trkpt>
      <trkpt lat="45.95697" lon="4.06525">
        <ele>433</ele>
        <time>2022-05-01T08:06:50Z</time>
      </trkpt>
      <trkpt lat="45.95726" lon="4.06472">
        <ele>431</ele>
        <time>2022-05-01T08:06:59Z</time>
      </trkpt>
      <trkpt lat="45.95755" lon="4.0645">
        <ele>430</ele>
        <time>2022-05-01T08:07:05Z</time>
      </trkpt>
      <trkpt lat="45.95767" lon="4.0643">
        <ele>429</ele>
        <time>2022-05-01T08:07:08Z</time>
      </trkpt>
      <trkpt lat="45.95788" lon="4.06361">
        <ele>425</ele>
        <time>2022-05-01T08:07:17Z</time>
      </trkpt>
      <trkpt lat="45.95805" lon="4.06348">
        <ele>424</ele>
        <time>2022-05-01T08:07:21Z</time>
      </trkpt>
      <trkpt lat="45.9615" lon="4.06385">
        <ele>430</ele>
        <time>2022-05-01T08:08:22Z</time>
      </trkpt>
      <trkpt lat="45.96212" lon="4.06388">
        <ele>431</ele>
        <time>2022-05-01T08:08:33Z</time>
      </trkpt>
      <trkpt lat="45.96231" lon="4.06394">
        <ele>431</ele>
        <time>2022-05-01T08:08:37Z</time>
      </trkpt>
      <trkpt lat="45.96241" lon="4.06401">
        <ele>432</ele>
        <time>2022-05-01T08:08:39Z</time>
      </trkpt>
      <trkpt lat="45.96262" lon="4.0643">
        <ele>432</ele>
        <time>2022-05-01T08:08:44Z</time>
      </trkpt>
      <trkpt lat="45.96462" lon="4.06848">
        <ele>422</ele>
        <time>2022-05-01T08:09:47Z</time>
      </trkpt>
      <trkpt lat="45.9648" lon="4.06935">
        <ele>422</ele>
        <time>2022-05-01T08:09:58Z</time>
      </trkpt>
      <trkpt lat="45.96481" lon="4.06953">
        <ele>423</ele>
        <time>2022-05-01T08:10:00Z</time>
      </trkpt>
      <trkpt lat="45.96452" lon="4.07126">
        <ele>423</ele>
        <time>2022-05-01T08:10:22Z</time>
      </trkpt>
      <trkpt lat="45.96435" lon="4.07211">
        <ele>424</ele>
        <time>2022-05-01T08:10:33Z</time>
      </trkpt>
      <trkpt lat="45.96449" lon="4.07312">
        <ele>422</ele>
        <time>2022-05-01T08:10:46Z</time>
      </trkpt>
      <trkpt lat="45.9646" lon="4.07359">
        <ele>421</ele>
        <time>2022-05-01T08:10:52Z</time>
      </trkpt>
      <trkpt lat="45.96484" lon="4.07414">
        <ele>420</ele>
        <time>2022-05-01T08:11:00Z</time>
      </trkpt>
      <trkpt lat="45.96498" lon="4.07431">
        <ele>420</ele>
        <time>2022-05-01T08:11:03Z</time>
      </trkpt>
      <trkpt lat="45.96516" lon="4.07445">
        <ele>419</ele>
        <time>2022-05-01T08:11:07Z</time>
      </trkpt>
      <trkpt lat="45.96751" lon="4.07482">
        <ele>411</ele>
        <time>2022-05-01T08:11:49Z</time>
      </trkpt>
      <trkpt lat="45.96778" lon="4.07495">
        <ele>410</ele>
        <time>2022-05-01T08:11:54Z</time>
      </trkpt>
      <trkpt lat="45.96788" lon="4.07511">
        <ele>410</ele>
        <time>2022-05-01T08:11:57Z</time>
      </trkpt>
      <trkpt lat="45.96796" lon="4.07547">
        <ele>410</ele>
        <time>2022-05-01T08:12:01Z</time>
      </trkpt>
      <trkpt lat="45.96805" lon="4.07574">
        <ele>411</ele>
        <time>2022-05-01T08:12:05Z</time>
      </trkpt>
      <trkpt lat="45.96822" lon="4.07584">
        <ele>410</ele>
        <time>2022-05-01T08:12:08Z</time>
      </trkpt>
      <trkpt lat="45.96838" lon="4.0758">
        <ele>410</ele>
        <time>2022-05-01T08:12:11Z</time>
      </trkpt>
      <trkpt lat="45.96938" lon="4.07456">
        <ele>412</ele>
        <time>2022-05-01T08:12:35Z</time>
      </trkpt>
      <trkpt lat="45.96981" lon="4.07428">
        <ele>415</ele>
        <time>2022-05-01T08:12:43Z</time>
      </trkpt>
      <trkpt lat="45.97145" lon="4.07396">
        <ele>423</ele>
        <time>2022-05-01T08:13:12Z</time>
      </trkpt>
      <trkpt lat="45.97278" lon="4.07302">
        <ele>428</ele>
        <time>2022-05-01T08:13:39Z</time>
      </trkpt>
      <trkpt lat="45.97374" lon="4.07299">
        <ele>431</ele>
        <time>2022-05-01T08:13:56Z</time>
      </trkpt>
      <trkpt lat="45.97398" lon="4.07303">
        <ele>431</ele>
        <time>2022-05-01T08:14:00Z</time>
      </trkpt>
      <trkpt lat="45.97447" lon="4.07321">
        <ele>429</ele>
        <time>2022-05-01T08:14:09Z</time>
      </trkpt>
      <trkpt lat="45.97468" lon="4.07326">
        <ele>428</ele>
        <time>2022-05-01T08:14:13Z</time>
      </trkpt>
      <trkpt lat="45.97491" lon="4.07329">
        <ele>427</ele>
        <time>2022-05-01T08:14:17Z</time>
      </trkpt>
      <trkpt lat="45.97522" lon="4.07329">
        <ele>425</ele>
        <time>2022-05-01T08:14:23Z</time>
      </trkpt>
      <trkpt lat="45.97536" lon="4.07326">
        <ele>424</ele>
        <time>2022-05-01T08:14:25Z</time>
      </trkpt>
      <trkpt lat="45.97554" lon="4.07309">
        <ele>423</ele>
        <time>2022-05-01T08:14:29Z</time>
      </trkpt>
      <trkpt lat="45.97596" lon="4.07251">
        <ele>421</ele>
        <time>2022-05-01T08:14:39Z</time>
      </trkpt>
      <trkpt lat="45.97616" lon="4.07233">
        <ele>420</ele>
        <time>2022-05-01T08:14:44Z</time>
      </trkpt>
      <trkpt lat="45.97631" lon="4.07225">
        <ele>420</ele>
        <time>2022-05-01T08:14:46Z</time>
      </trkpt>
      <trkpt lat="45.97649" lon="4.07222">
        <ele>420</ele>
        <time>2022-05-01T08:14:50Z</time>
      </trkpt>
      <trkpt lat="45.9773" lon="4.07237">
        <ele>419</ele>
        <time>2022-05-01T08:15:04Z</time>
      </trkpt>
      <trkpt lat="45.97819" lon="4.07234">
        <ele>416</ele>
        <time>2022-05-01T08:15:20Z</time>
      </trkpt>
      <trkpt lat="45.9784" lon="4.0723">
        <ele>416</ele>
        <time>2022-05-01T08:15:24Z</time>
      </trkpt>
      <trkpt lat="45.98067" lon="4.07132">
        <ele>408</ele>
        <time>2022-05-01T08:16:06Z</time>
      </trkpt>
      <trkpt lat="45.98094" lon="4.07117">
        <ele>407</ele>
        <time>2022-05-01T08:16:11Z</time>
      </trkpt>
      <trkpt lat="45.98122" lon="4.07082">
        <ele>405</ele>
        <time>2022-05-01T08:16:18Z</time>
      </trkpt>
      <trkpt lat="45.98133" lon="4.07059">
        <ele>403</ele>
        <time>2022-05-01T08:16:21Z</time>
      </trkpt>
      <trkpt lat="45.98205" lon="4.06812">
        <ele>394</ele>
        <time>2022-05-01T08:16:54Z</time>
      </trkpt>
      <trkpt lat="45.98217" lon="4.06782">
        <ele>393</ele>
        <time>2022-05-01T08:16:59Z</time>
      </trkpt>
      <trkpt lat="45.98231" lon="4.06761">
        <ele>392</ele>
        <time>2022-05-01T08:17:02Z</time>
      </trkpt>
      <trkpt lat="45.98248" lon="4.06744">
        <ele>391</ele>
        <time>2022-05-01T08:17:06Z</time>
      </trkpt>
      <trkpt lat="45.98266" lon="4.06733">
        <ele>390</ele>
        <time>2022-05-01T08:17:09Z</time>
      </trkpt>
      <trkpt lat="45.98283" lon="4.06726">
        <ele>389</ele>
        <time>2022-05-01T08:17:12Z</time>
      </trkpt>
      <trkpt lat="45.98561" lon="4.06683">
        <ele>374</ele>
        <time>2022-05-01T08:18:02Z</time>
      </trkpt>
      <trkpt lat="45.98708" lon="4.06688">
        <ele>367</ele>
        <time>2022-05-01T08:18:28Z</time>
      </trkpt>
      <trkpt lat="45.98707" lon="4.06632">
        <ele>367</ele>
        <time>2022-05-01T08:18:35Z</time>
      </trkpt>
      <trkpt lat="45.98843" lon="4.06079">
        <ele>370</ele>
        <time>2022-05-01T08:19:48Z</time>
      </trkpt>
      <trkpt lat="45.98905" lon="4.05795">
        <ele>373</ele>
        <time>2022-05-01T08:20:25Z</time>
      </trkpt>
      <trkpt lat="45.98921" lon="4.0571">
        <ele>376</ele>
        <time>2022-05-01T08:20:35Z</time>
      </trkpt>
      <trkpt lat="45.98925" lon="4.05663">
        <ele>378</ele>
        <time>2022-05-01T08:20:41Z</time>
      </trkpt>
      <trkpt lat="45.98925" lon="4.05618">
        <ele>379</ele>
        <time>2022-05-01T08:20:47Z</time>
      </trkpt>
      <trkpt lat="45.98929" lon="4.05584">
        <ele>379</ele>
        <time>2022-05-01T08:20:51Z</time>
      </trkpt>
      <trkpt lat="45.98936" lon="4.05569">
        <ele>378</ele>
        <time>2022-05-01T08:20:53Z</time>
      </trkpt>
      <trkpt lat="45.98937" lon="4.05553">
        <ele>378</ele>
        <time>2022-05-01T08:20:55Z</time>
      </trkpt>
      <trkpt lat="45.98933" lon="4.0554">
        <ele>377</ele>
        <time>2022-05-01T08:20:57Z</time>
      </trkpt>
      <trkpt lat="45.98926" lon="4.05532">
        <ele>376</ele>
        <time>2022-05-01T08:20:59Z</time>
      </trkpt>
      <trkpt lat="45.98918" lon="4.05528">
        <ele>376</ele>
        <time>2022-05-01T08:21:00Z</time>
      </trkpt>
      <trkpt lat="45.98903" lon="4.05497">
        <ele>374</ele>
        <time>2022-05-01T08:21:05Z</time>
      </trkpt>
      <trkpt lat="45.98895" lon="4.05457">
        <ele>372</ele>
        <time>2022-05-01T08:21:10Z</time>
      </trkpt>
      <trkpt lat="45.98894" lon="4.05407">
        <ele>370</ele>
        <time>2022-05-01T08:21:16Z</time>
      </trkpt>
      <trkpt lat="45.989" lon="4.05374">
        <ele>368</ele>
        <time>2022-05-01T08:21:20Z</time>
      </trkpt>
      <trkpt lat="45.98912" lon="4.0534">
        <ele>366</ele>
        <time>2022-05-01T08:21:25Z</time>
      </trkpt>
      <trkpt lat="45.98951" lon="4.05248">
        <ele>359</ele>
        <time>2022-05-01T08:21:38Z</time>
      </trkpt>
      <trkpt lat="45.98956" lon="4.05224">
        <ele>356</ele>
        <time>2022-05-01T08:21:42Z</time>
      </trkpt>
      <trkpt lat="45.98956" lon="4.05193">
        <ele>353</ele>
        <time>2022-05-01T08:21:45Z</time>
      </trkpt>
      <trkpt lat="45.98948" lon="4.05156">
        <ele>350</ele>
        <time>2022-05-01T08:21:50Z</time>
      </trkpt>
      <trkpt lat="45.98935" lon="4.05131">
        <ele>347</ele>
        <time>2022-05-01T08:21:54Z</time>
      </trkpt>
      <trkpt lat="45.9892" lon="4.05111">
        <ele>345</ele>
        <time>2022-05-01T08:21:58Z</time>
      </trkpt>
      <trkpt lat="45.98901" lon="4.05101">
        <ele>344</ele>
        <time>2022-05-01T08:22:01Z</time>
      </trkpt>
      <trkpt lat="45.98859" lon="4.05101">
        <ele>347</ele>
        <time>2022-05-01T08:22:09Z</time>
      </trkpt>
      <trkpt lat="45.98817" lon="4.05094">
        <ele>349</ele>
        <time>2022-05-01T08:22:16Z</time>
      </trkpt>
      <trkpt lat="45.98804" lon="4.05082">
        <ele>348</ele>
        <time>2022-05-01T08:22:19Z</time>
      </trkpt>
      <trkpt lat="45.98765" lon="4.05023">
        <ele>333</ele>
        <time>2022-05-01T08:22:29Z</time>
      </trkpt>
      <trkpt lat="45.98747" lon="4.05003">
        <ele>328</ele>
        <time>2022-05-01T08:22:33Z</time>
      </trkpt>
      <trkpt lat="45.98718" lon="4.0499">
        <ele>327</ele>
        <time>2022-05-01T08:22:39Z</time>
      </trkpt>
      <trkpt lat="45.98684" lon="4.04981">
        <ele>328</ele>
        <time>2022-05-01T08:22:45Z</time>
      </trkpt>
      <trkpt lat="45.98667" lon="4.04968">
        <ele>326</ele>
        <time>2022-05-01T08:22:48Z</time>
      </trkpt>
      <trkpt lat="45.98659" lon="4.04954">
        <ele>322</ele>
        <time>2022-05-01T08:22:50Z</time>
      </trkpt>
      <trkpt lat="45.98639" lon="4.04899">
        <ele>311</ele>
        <time>2022-05-01T08:22:58Z</time>
      </trkpt>
      <trkpt lat="45.98628" lon="4.04853">
        <ele>308</ele>
        <time>2022-05-01T08:23:04Z</time>
      </trkpt>
      <trkpt lat="45.98621" lon="4.04812">
        <ele>308</ele>
        <time>2022-05-01T08:23:09Z</time>
      </trkpt>
      <trkpt lat="45.9862" lon="4.04773">
        <ele>308</ele>
        <time>2022-05-01T08:23:14Z</time>
      </trkpt>
      <trkpt lat="45.98624" lon="4.04743">
        <ele>308</ele>
        <time>2022-05-01T08:23:18Z</time>
      </trkpt>
      <trkpt lat="45.98634" lon="4.047">
        <ele>307</ele>
        <time>2022-05-01T08:23:24Z</time>
      </trkpt>
      <trkpt lat="45.98705" lon="4.0455">
        <ele>317</ele>
        <time>2022-05-01T08:23:46Z</time>
      </trkpt>
      <trkpt lat="45.98773" lon="4.04397">
        <ele>327</ele>
        <time>2022-05-01T08:24:08Z</time>
      </trkpt>
      <trkpt lat="45.98789" lon="4.04385">
        <ele>328</ele>
        <time>2022-05-01T08:24:12Z</time>
      </trkpt>
      <trkpt lat="45.98803" lon="4.04379">
        <ele>329</ele>
        <time>2022-05-01T08:24:14Z</time>
      </trkpt>
      <trkpt lat="45.98825" lon="4.04378">
        <ele>329</ele>
        <time>2022-05-01T08:24:18Z</time>
      </trkpt>
      <trkpt lat="45.98847" lon="4.04385">
        <ele>328</ele>
        <time>2022-05-01T08:24:22Z</time>
      </trkpt>
      <trkpt lat="45.99003" lon="4.04469">
        <ele>315</ele>
        <time>2022-05-01T08:24:52Z</time>
      </trkpt>
      <trkpt lat="45.99047" lon="4.04488">
        <ele>312</ele>
        <time>2022-05-01T08:25:00Z</time>
      </trkpt>
      <trkpt lat="45.99068" lon="4.04492">
        <ele>311</ele>
        <time>2022-05-01T08:25:04Z</time>
      </trkpt>
      <trkpt lat="45.99115" lon="4.04491">
        <ele>309</ele>
        <time>2022-05-01T08:25:12Z</time>
      </trkpt>
      <trkpt lat="45.99144" lon="4.04482">
        <ele>307</ele>
        <time>2022-05-01T08:25:17Z</time>
      </trkpt>
      <trkpt lat="45.99306" lon="4.04396">
        <ele>304</ele>
        <time>2022-05-01T08:25:48Z</time>
      </trkpt>
      <trkpt lat="45.99559" lon="4.04254">
        <ele>301</ele>
        <time>2022-05-01T08:26:36Z</time>
      </trkpt>
      <trkpt lat="45.99663" lon="4.04201">
        <ele>299</ele>
        <time>2022-05-01T08:26:56Z</time>
      </trkpt>
      <trkpt lat="45.99673" lon="4.04201">
        <ele>299</ele>
        <time>2022-05-01T08:26:58Z</time>
      </trkpt>
      <trkpt lat="45.99682" lon="4.04206">
        <ele>298</ele>
        <time>2022-05-01T08:27:00Z</time>
      </trkpt>
      <trkpt lat="45.99687" lon="4.0422">
        <ele>296</ele>
        <time>2022-05-01T08:27:01Z</time>
      </trkpt>
      <trkpt lat="45.99684" lon="4.04234">
        <ele>295</ele>
        <time>2022-05-01T08:27:03Z</time>
      </trkpt>
      <trkpt lat="45.99654" lon="4.0428">
        <ele>292</ele>
        <time>2022-05-01T08:27:11Z</time>
      </trkpt>
      <trkpt lat="45.99601" lon="4.04329">
        <ele>291</ele>
        <time>2022-05-01T08:27:22Z</time>
      </trkpt>
      <trkpt lat="45.99589" lon="4.04343">
        <ele>291</ele>
        <time>2022-05-01T08:27:25Z</time>
      </trkpt>
      <trkpt lat="45.99575" lon="4.04371">
        <ele>288</ele>
        <time>2022-05-01T08:27:29Z</time>
      </trkpt>
      <trkpt lat="45.99552" lon="4.0443">
        <ele>284</ele>
        <time>2022-05-01T08:27:38Z</time>
      </trkpt>
      <trkpt lat="45.99552" lon="4.04452">
        <ele>282</ele>
        <time>2022-05-01T08:27:40Z</time>
      </trkpt>
      <trkpt lat="45.99558" lon="4.04469">
        <ele>281</ele>
        <time>2022-05-01T08:27:43Z</time>
      </trkpt>
      <trkpt lat="45.99589" lon="4.04508">
        <ele>278</ele>
        <time>2022-05-01T08:27:50Z</time>
      </trkpt>
      <trkpt lat="45.99597" lon="4.04512">
        <ele>278</ele>
        <time>2022-05-01T08:27:52Z</time>
      </trkpt>
      <trkpt lat="45.99608" lon="4.04506">
        <ele>277</ele>
        <time>2022-05-01T08:27:54Z</time>
      </trkpt>
      <trkpt lat="45.99683" lon="4.04401">
        <ele>279</ele>
        <time>2022-05-01T08:28:12Z</time>
      </trkpt>
      <trkpt lat="45.99729" lon="4.04355">
        <ele>279</ele>
        <time>2022-05-01T08:28:22Z</time>
      </trkpt>
      <trkpt lat="45.9977" lon="4.04321">
        <ele>281</ele>
        <time>2022-05-01T08:28:31Z</time>
      </trkpt>
      <trkpt lat="45.99809" lon="4.04298">
        <ele>281</ele>
        <time>2022-05-01T08:28:38Z</time>
      </trkpt>
      <trkpt lat="45.99874" lon="4.04266">
        <ele>280</ele>
        <time>2022-05-01T08:28:50Z</time>
      </trkpt>
      <trkpt lat="45.99913" lon="4.04244">
        <ele>281</ele>
        <time>2022-05-01T08:28:58Z</time>
      </trkpt>
      <trkpt lat="46.00094" lon="4.04172">
        <ele>282</ele>
        <time>2022-05-01T08:29:31Z</time>
      </trkpt>
      <trkpt lat="46.00125" lon="4.04165">
        <ele>285</ele>
        <time>2022-05-01T08:29:37Z</time>
      </trkpt>
      <trkpt lat="46.00167" lon="4.04166">
        <ele>287</ele>
        <time>2022-05-01T08:29:44Z</time>
      </trkpt>
      <trkpt lat="46.00281" lon="4.04202">
        <ele>293</ele>
        <time>2022-05-01T08:30:05Z</time>
      </trkpt>
      <trkpt lat="46.00319" lon="4.04224">
        <ele>292</ele>
        <time>2022-05-01T08:30:12Z</time>
      </trkpt>
      <trkpt lat="46.00402" lon="4.04297">
        <ele>287</ele>
        <time>2022-05-01T08:30:30Z</time>
      </trkpt>
      <trkpt lat="46.00429" lon="4.04329">
        <ele>284</ele>
        <time>2022-05-01T08:30:36Z</time>
      </trkpt>
      <trkpt lat="46.00459" lon="4.04354">
        <ele>284</ele>
        <time>2022-05-01T08:30:42Z</time>
      </trkpt>
      <trkpt lat="46.00482" lon="4.04368">
        <ele>284</ele>
        <time>2022-05-01T08:30:47Z</time>
      </trkpt>
      <trkpt lat="46.00528" lon="4.04388">
        <ele>285</ele>
        <time>2022-05-01T08:30:55Z</time>
      </trkpt>
      <trkpt lat="46.00581" lon="4.04418">
        <ele>282</ele>
        <time>2022-05-01T08:31:05Z</time>
      </trkpt>
      <trkpt lat="46.00614" lon="4.04442">
        <ele>284</ele>
        <time>2022-05-01T08:31:12Z</time>
      </trkpt>
      <trkpt lat="46.00705" lon="4.04498">
        <ele>287</ele>
        <time>2022-05-01T08:31:29Z</time>
      </trkpt>
      <trkpt lat="46.00774" lon="4.04551">
        <ele>288</ele>
        <time>2022-05-01T08:31:43Z</time>
      </trkpt>
      <trkpt lat="46.00813" lon="4.04594">
        <ele>287</ele>
        <time>2022-05-01T08:31:52Z</time>
      </trkpt>
      <trkpt lat="46.00902" lon="4.04709">
        <ele>283</ele>
        <time>2022-05-01T08:32:13Z</time>
      </trkpt>
      <trkpt lat="46.00946" lon="4.04741">
        <ele>281</ele>
        <time>2022-05-01T08:32:22Z</time>
      </trkpt>
      <trkpt lat="46.01128" lon="4.04862">
        <ele>281</ele>
        <time>2022-05-01T08:32:58Z</time>
      </trkpt>
      <trkpt lat="46.01168" lon="4.04895">
        <ele>282</ele>
        <time>2022-05-01T08:33:06Z</time>
      </trkpt>
      <trkpt lat="46.01227" lon="4.04954">
        <ele>281</ele>
        <time>2022-05-01T08:33:19Z</time>
      </trkpt>
      <trkpt lat="46.01396" lon="4.05143">
        <ele>278</ele>
        <time>2022-05-01T08:33:57Z</time>
      </trkpt>
      <trkpt lat="46.01445" lon="4.05194">
        <ele>276</ele>
        <time>2022-05-01T08:34:08Z</time>
      </trkpt>
      <trkpt lat="46.01603" lon="4.05373">
        <ele>275</ele>
        <time>2022-05-01T08:34:43Z</time>
      </trkpt>
      <trkpt lat="46.01706" lon="4.05509">
        <ele>278</ele>
        <time>2022-05-01T08:35:08Z</time>
      </trkpt>
      <trkpt lat="46.01742" lon="4.0556">
        <ele>279</ele>
        <time>2022-05-01T08:35:17Z</time>
      </trkpt>
      <trkpt lat="46.01834" lon="4.05715">
        <ele>281</ele>
        <time>2022-05-01T08:35:42Z</time>
      </trkpt>
      <trkpt lat="46.01883" lon="4.05815">
        <ele>280</ele>
        <time>2022-05-01T08:35:57Z</time>
      </trkpt>
      <trkpt lat="46.0193" lon="4.05927">
        <ele>281</ele>
        <time>2022-05-01T08:36:14Z</time>
      </trkpt>
      <trkpt lat="46.01961" lon="4.06007">
        <ele>278</ele>
        <time>2022-05-01T08:36:25Z</time>
      </trkpt>
      <trkpt lat="46.02001" lon="4.06134">
        <ele>277</ele>
        <time>2022-05-01T08:36:42Z</time>
      </trkpt>
      <trkpt lat="46.02017" lon="4.06176">
        <ele>277</ele>
        <time>2022-05-01T08:36:48Z</time>
      </trkpt>
      <trkpt lat="46.02086" lon="4.06334">
        <ele>277</ele>
        <time>2022-05-01T08:37:11Z</time>
      </trkpt>
      <trkpt lat="46.02149" lon="4.06449">
        <ele>276</ele>
        <time>2022-05-01T08:37:29Z</time>
      </trkpt>
      <trkpt lat="46.02186" lon="4.06552">
        <ele>276</ele>
        <time>2022-05-01T08:37:44Z</time>
      </trkpt>
      <trkpt lat="46.02245" lon="4.06612">
        <ele>278</ele>
        <time>2022-05-01T08:37:56Z</time>
      </trkpt>
      <trkpt lat="46.02309" lon="4.06683">
        <ele>279</ele>
        <time>2022-05-01T08:38:11Z</time>
      </trkpt>
      <trkpt lat="46.02426" lon="4.06803">
        <ele>279</ele>
        <time>2022-05-01T08:38:36Z</time>
      </trkpt>
      <trkpt lat="46.0246" lon="4.06841">
        <ele>279</ele>
        <time>2022-05-01T08:38:44Z</time>
      </trkpt>
      <trkpt lat="46.02479" lon="4.06853">
        <ele>280</ele>
        <time>2022-05-01T08:38:48Z</time>
      </trkpt>
      <trkpt lat="46.02492" lon="4.06854">
        <ele>280</ele>
        <time>2022-05-01T08:38:50Z</time>
      </trkpt>
      <trkpt lat="46.02807" lon="4.06798">
        <ele>282</ele>
        <time>2022-05-01T08:39:47Z</time>
      </trkpt>
      <trkpt lat="46.0285" lon="4.0679">
        <ele>282</ele>
        <time>2022-05-01T08:39:54Z</time>
      </trkpt>
      <trkpt lat="46.02896" lon="4.06776">
        <ele>282</ele>
        <time>2022-05-01T08:40:03Z</time>
      </trkpt>
      <trkpt lat="46.02988" lon="4.06729">
        <ele>280</ele>
        <time>2022-05-01T08:40:20Z</time>
      </trkpt>
      <trkpt lat="46.0301" lon="4.06664">
        <ele>281</ele>
        <time>2022-05-01T08:40:29Z</time>
      </trkpt>
      <trkpt lat="46.03044" lon="4.06684">
        <ele>279</ele>
        <time>2022-05-01T08:40:35Z</time>
      </trkpt>
      <trkpt lat="46.03116" lon="4.06734">
        <ele>278</ele>
        <time>2022-05-01T08:40:50Z</time>
      </trkpt>
      <trkpt lat="46.03588" lon="4.07044">
        <ele>283</ele>
        <time>2022-05-01T08:42:22Z</time>
      </trkpt>
      <trkpt lat="46.03694" lon="4.06613">
        <ele>286</ele>
        <time>2022-05-01T08:43:18Z</time>
      </trkpt>
      <trkpt lat="46.03696" lon="4.06547">
        <ele>285</ele>
        <time>2022-05-01T08:43:27Z</time>
      </trkpt>
      <trkpt lat="46.03702" lon="4.06513">
        <ele>284</ele>
        <time>2022-05-01T08:43:31Z</time>
      </trkpt>
      <trkpt lat="46.03675" lon="4.06501">
        <ele>284</ele>
        <time>2022-05-01T08:43:36Z</time>
      </trkpt>
      <trkpt lat="46.03651" lon="4.06481">
        <ele>284</ele>
        <time>2022-05-01T08:43:41Z</time>
      </trkpt>
      <trkpt lat="46.03651" lon="4.06427">
        <ele>283</ele>
        <time>2022-05-01T08:43:48Z</time>
      </trkpt>
      <trkpt lat="46.03672" lon="4.06414">
        <ele>284</ele>
        <time>2022-05-01T08:43:52Z</time>
      </trkpt>
      <trkpt lat="46.03712" lon="4.06396">
        <ele>284</ele>
        <time>2022-05-01T08:43:59Z</time>
      </trkpt>
      <trkpt lat="46.03889" lon="4.06197">
        <ele>283</ele>
        <time>2022-05-01T08:44:39Z</time>
      </trkpt>
      <trkpt lat="46.04088" lon="4.06082">
        <ele>283</ele>
        <time>2022-05-01T08:45:17Z</time>
      </trkpt>
      <trkpt lat="46.04171" lon="4.06042">
        <ele>283</ele>
        <time>2022-05-01T08:45:33Z</time>
      </trkpt>
      <trkpt lat="46.04336" lon="4.06044">
        <ele>282</ele>
        <time>2022-05-01T08:46:02Z</time>
      </trkpt>
      <trkpt lat="46.04456" lon="4.06012">
        <ele>282</ele>
        <time>2022-05-01T08:46:24Z</time>
      </trkpt>
      <trkpt lat="46.04538" lon="4.05963">
        <ele>282</ele>
        <time>2022-05-01T08:46:40Z</time>
      </trkpt>
      <trkpt lat="46.04831" lon="4.05815">
        <ele>283</ele>
        <time>2022-05-01T08:47:35Z</time>
      </trkpt>
      <trkpt lat="46.04914" lon="4.0575">
        <ele>282</ele>
        <time>2022-05-01T08:47:52Z</time>
      </trkpt>
      <trkpt lat="46.04923" lon="4.05621">
        <ele>284</ele>
        <time>2022-05-01T08:48:08Z</time>
      </trkpt>
      <trkpt lat="46.04911" lon="4.05213">
        <ele>283</ele>
        <time>2022-05-01T08:48:58Z</time>
      </trkpt>
      <trkpt lat="46.04923" lon="4.05173">
        <ele>284</ele>
        <time>2022-05-01T08:49:04Z</time>
      </trkpt>
      <trkpt lat="46.04908" lon="4.05149">
        <ele>284</ele>
        <time>2022-05-01T08:49:08Z</time>
      </trkpt>
      <trkpt lat="46.04913" lon="4.04953">
        <ele>286</ele>
        <time>2022-05-01T08:49:32Z</time>
      </trkpt>
      <trkpt lat="46.04928" lon="4.04775">
        <ele>291</ele>
        <time>2022-05-01T08:49:54Z</time>
      </trkpt>
      <trkpt lat="46.04925" lon="4.04541">
        <ele>298</ele>
        <time>2022-05-01T08:50:23Z</time>
      </trkpt>
      <trkpt lat="46.04861" lon="4.04538">
        <ele>299</ele>
        <time>2022-05-01T08:50:34Z</time>
      </trkpt>
      <trkpt lat="46.04799" lon="4.04541">
        <ele>300</ele>
        <time>2022-05-01T08:50:45Z</time>
      </trkpt>
      <trkpt lat="46.04578" lon="4.04452">
        <ele>303</ele>
        <time>2022-05-01T08:51:26Z</time>
      </trkpt>
      <trkpt lat="46.04567" lon="4.04369">
        <ele>306</ele>
        <time>2022-05-01T08:51:36Z</time>
      </trkpt>
      <trkpt lat="46.04554" lon="4.04167">
        <ele>307</ele>
        <time>2022-05-01T08:52:02Z</time>
      </trkpt>
      <trkpt lat="46.04565" lon="4.04068">
        <ele>307</ele>
        <time>2022-05-01T08:52:14Z</time>
      </trkpt>
      <trkpt lat="46.04565" lon="4.04035">
        <ele>306</ele>
        <time>2022-05-01T08:52:18Z</time>
      </trkpt>
      <trkpt lat="46.04548" lon="4.04034">
        <ele>306</ele>
        <time>2022-05-01T08:52:21Z</time>
      </trkpt>
      <trkpt lat="46.04523" lon="4.03985">
        <ele>307</ele>
        <time>2022-05-01T08:52:29Z</time>
      </trkpt>
      <trkpt lat="46.04477" lon="4.03939">
        <ele>308</ele>
        <time>2022-05-01T08:52:38Z</time>
      </trkpt>
      <trkpt lat="46.04397" lon="4.03696">
        <ele>313</ele>
        <time>2022-05-01T08:53:12Z</time>
      </trkpt>
      <trkpt lat="46.04395" lon="4.03641">
        <ele>314</ele>
        <time>2022-05-01T08:53:18Z</time>
      </trkpt>
      <trkpt lat="46.04368" lon="4.03503">
        <ele>313</ele>
        <time>2022-05-01T08:53:36Z</time>
      </trkpt>
      <trkpt lat="46.0437" lon="4.03417">
        <ele>313</ele>
        <time>2022-05-01T08:53:47Z</time>
      </trkpt>
      <trkpt lat="46.04368" lon="4.03373">
        <ele>314</ele>
        <time>2022-05-01T08:53:52Z</time>
      </trkpt>
      <trkpt lat="46.04329" lon="4.03299">
        <ele>316</ele>
        <time>2022-05-01T08:54:04Z</time>
      </trkpt>
      <trkpt lat="46.04311" lon="4.03226">
        <ele>316</ele>
        <time>2022-05-01T08:54:13Z</time>
      </trkpt>
      <trkpt lat="46.04312" lon="4.03153">
        <ele>315</ele>
        <time>2022-05-01T08:54:22Z</time>
      </trkpt>
      <trkpt lat="46.04302" lon="4.03138">
        <ele>316</ele>
        <time>2022-05-01T08:54:25Z</time>
      </trkpt>
      <trkpt lat="46.04298" lon="4.03137">
        <ele>316</ele>
        <time>2022-05-01T08:54:26Z</time>
      </trkpt>
      <trkpt lat="46.04291" lon="4.03143">
        <ele>316</ele>
        <time>2022-05-01T08:54:27Z</time>
      </trkpt>
      <trkpt lat="46.04267" lon="4.0315">
        <ele>317</ele>
        <time>2022-05-01T08:54:31Z</time>
      </trkpt>
      <trkpt lat="46.04187" lon="4.03166">
        <ele>317</ele>
        <time>2022-05-01T08:54:46Z</time>
      </trkpt>
      <trkpt lat="46.04027" lon="4.03175">
        <ele>320</ele>
        <time>2022-05-01T08:55:14Z</time>
      </trkpt>
      <trkpt lat="46.04015" lon="4.03164">
        <ele>320</ele>
        <time>2022-05-01T08:55:17Z</time>
      </trkpt>
      <trkpt lat="46.0402" lon="4.03085">
        <ele>318</ele>
        <time>2022-05-01T08:55:27Z</time>
      </trkpt>
      <trkpt lat="46.04007" lon="4.02833">
        <ele>318</ele>
        <time>2022-05-01T08:55:58Z</time>
      </trkpt>
      <trkpt lat="46.0389" lon="4.02987">
        <ele>307</ele>
        <time>2022-05-01T08:56:26Z</time>
      </trkpt>
      <trkpt lat="46.03805" lon="4.03059">
        <ele>296</ele>
        <time>2022-05-01T08:56:44Z</time>
      </trkpt>
      <trkpt lat="46.03787" lon="4.03078">
        <ele>294</ele>
        <time>2022-05-01T08:56:48Z</time>
      </trkpt>
      <trkpt lat="46.03727" lon="4.03112">
        <ele>291</ele>
        <time>2022-05-01T08:56:59Z</time>
      </trkpt>
      <trkpt lat="46.03702" lon="4.03134">
        <ele>291</ele>
        <time>2022-05-01T08:57:04Z</time>
      </trkpt>
      <trkpt lat="46.03692" lon="4.03204">
        <ele>292</ele>
        <time>2022-05-01T08:57:13Z</time>
      </trkpt>
      <trkpt lat="46.03678" lon="4.03258">
        <ele>292</ele>
        <time>2022-05-01T08:57:20Z</time>
      </trkpt>
      <trkpt lat="46.03681" lon="4.0331">
        <ele>290</ele>
        <time>2022-05-01T08:57:27Z</time>
      </trkpt>
      <trkpt lat="46.03704" lon="4.03359">
        <ele>289</ele>
        <time>2022-05-01T08:57:34Z</time>
      </trkpt>
      <trkpt lat="46.03741" lon="4.03405">
        <ele>288</ele>
        <time>2022-05-01T08:57:43Z</time>
      </trkpt>
      <trkpt lat="46.03777" lon="4.03404">
        <ele>291</ele>
        <time>2022-05-01T08:57:49Z</time>
      </trkpt>
      <trkpt lat="46.03812" lon="4.03383">
        <ele>294</ele>
        <time>2022-05-01T08:57:56Z</time>
      </trkpt>
      <trkpt lat="46.03804" lon="4.03115">
        <ele>295</ele>
        <time>2022-05-01T08:58:29Z</time>
      </trkpt>
      <trkpt lat="46.03798" lon="4.0308">
        <ele>295</ele>
        <time>2022-05-01T08:58:33Z</time>
      </trkpt>
      <trkpt lat="46.03833" lon="4.03039">
        <ele>299</ele>
        <time>2022-05-01T08:58:41Z</time>
      </trkpt>
      <trkpt lat="46.03885" lon="4.02989">
        <ele>306</ele>
        <time>2022-05-01T08:58:53Z</time>
      </trkpt>
      <trkpt lat="46.0397" lon="4.0287">
        <ele>315</ele>
        <time>2022-05-01T08:59:14Z</time>
      </trkpt>
      <trkpt lat="46.04009" lon="4.02825">
        <ele>318</ele>
        <time>2022-05-01T08:59:22Z</time>
      </trkpt>
      <trkpt lat="46.03971" lon="4.02224">
        <ele>321</ele>
        <time>2022-05-01T09:00:37Z</time>
      </trkpt>
      <trkpt lat="46.03958" lon="4.0164">
        <ele>321</ele>
        <time>2022-05-01T09:01:49Z</time>
      </trkpt>
      <trkpt lat="46.03945" lon="4.01501">
        <ele>319</ele>
        <time>2022-05-01T09:02:07Z</time>
      </trkpt>
      <trkpt lat="46.0395" lon="4.01163">
        <ele>314</ele>
        <time>2022-05-01T09:02:48Z</time>
      </trkpt>
      <trkpt lat="46.03947" lon="4.00895">
        <ele>313</ele>
        <time>2022-05-01T09:03:21Z</time>
      </trkpt>
      <trkpt lat="46.03955" lon="4.00832">
        <ele>314</ele>
        <time>2022-05-01T09:03:29Z</time>
      </trkpt>
      <trkpt lat="46.03974" lon="4.00758">
        <ele>314</ele>
        <time>2022-05-01T09:03:39Z</time>
      </trkpt>
      <trkpt lat="46.03984" lon="4.00752">
        <ele>314</ele>
        <time>2022-05-01T09:03:41Z</time>
      </trkpt>
      <trkpt lat="46.03988" lon="4.00739">
        <ele>315</ele>
        <time>2022-05-01T09:03:43Z</time>
      </trkpt>
      <trkpt lat="46.03985" lon="4.00725">
        <ele>315</ele>
        <time>2022-05-01T09:03:45Z</time>
      </trkpt>
      <trkpt lat="46.03974" lon="4.00718">
        <ele>314</ele>
        <time>2022-05-01T09:03:47Z</time>
      </trkpt>
      <trkpt lat="46.03967" lon="4.00702">
        <ele>314</ele>
        <time>2022-05-01T09:03:49Z</time>
      </trkpt>
      <trkpt lat="46.03961" lon="4.00674">
        <ele>314</ele>
        <time>2022-05-01T09:03:53Z</time>
      </trkpt>
      <trkpt lat="46.0394" lon="4.00531">
        <ele>312</ele>
        <time>2022-05-01T09:04:11Z</time>
      </trkpt>
      <trkpt lat="46.03905" lon="4.00387">
        <ele>312</ele>
        <time>2022-05-01T09:04:30Z</time>
      </trkpt>
      <trkpt lat="46.03866" lon="4.00243">
        <ele>311</ele>
        <time>2022-05-01T09:04:49Z</time>
      </trkpt>
      <trkpt lat="46.03846" lon="4.00154">
        <ele>309</ele>
        <time>2022-05-01T09:05:00Z</time>
      </trkpt>
      <trkpt lat="46.03842" lon="4.00119">
        <ele>309</ele>
        <time>2022-05-01T09:05:05Z</time>
      </trkpt>
      <trkpt lat="46.03844" lon="4.00073">
        <ele>309</ele>
        <time>2022-05-01T09:05:10Z</time>
      </trkpt>
      <trkpt lat="46.03863" lon="3.99948">
        <ele>313</ele>
        <time>2022-05-01T09:05:26Z</time>
      </trkpt>
      <trkpt lat="46.03866" lon="3.99901">
        <ele>316</ele>
        <time>2022-05-01T09:05:32Z</time>
      </trkpt>
      <trkpt lat="46.03874" lon="3.99662">
        <ele>318</ele>
        <time>2022-05-01T09:06:01Z</time>
      </trkpt>
      <trkpt lat="46.03868" lon="3.99606">
        <ele>319</ele>
        <time>2022-05-01T09:06:08Z</time>
      </trkpt>
      <trkpt lat="46.03869" lon="3.99584">
        <ele>319</ele>
        <time>2022-05-01T09:06:11Z</time>
      </trkpt>
      <trkpt lat="46.03904" lon="3.99412">
        <ele>322</ele>
        <time>2022-05-01T09:06:33Z</time>
      </trkpt>
      <trkpt lat="46.0391" lon="3.99336">
        <ele>322</ele>
        <time>2022-05-01T09:06:43Z</time>
      </trkpt>
      <trkpt lat="46.03841" lon="3.98984">
        <ele>323</ele>
        <time>2022-05-01T09:07:28Z</time>
      </trkpt>
      <trkpt lat="46.03837" lon="3.98902">
        <ele>325</ele>
        <time>2022-05-01T09:07:38Z</time>
      </trkpt>
      <trkpt lat="46.03851" lon="3.98321">
        <ele>330</ele>
        <time>2022-05-01T09:08:50Z</time>
      </trkpt>
      <trkpt lat="46.03865" lon="3.98185">
        <ele>330</ele>
        <time>2022-05-01T09:09:07Z</time>
      </trkpt>
      <trkpt lat="46.03878" lon="3.98145">
        <ele>330</ele>
        <time>2022-05-01T09:09:12Z</time>
      </trkpt>
      <trkpt lat="46.03875" lon="3.98135">
        <ele>330</ele>
        <time>2022-05-01T09:09:14Z</time>
      </trkpt>
      <trkpt lat="46.03874" lon="3.98022">
        <ele>331</ele>
        <time>2022-05-01T09:09:28Z</time>
      </trkpt>
      <trkpt lat="46.03868" lon="3.97882">
        <ele>332</ele>
        <time>2022-05-01T09:09:45Z</time>
      </trkpt>
      <trkpt lat="46.03869" lon="3.97794">
        <ele>332</ele>
        <time>2022-05-01T09:09:56Z</time>
      </trkpt>
      <trkpt lat="46.03873" lon="3.97721">
        <ele>332</ele>
        <time>2022-05-01T09:10:05Z</time>
      </trkpt>
      <trkpt lat="46.03898" lon="3.97589">
        <ele>332</ele>
        <time>2022-05-01T09:10:22Z</time>
      </trkpt>
      <trkpt lat="46.03993" lon="3.97158">
        <ele>337</ele>
        <time>2022-05-01T09:11:18Z</time>
      </trkpt>
      <trkpt lat="46.03998" lon="3.97121">
        <ele>337</ele>
        <time>2022-05-01T09:11:22Z</time>
      </trkpt>
      <trkpt lat="46.03997" lon="3.97092">
        <ele>336</ele>
        <time>2022-05-01T09:11:26Z</time>
      </trkpt>
      <trkpt lat="46.03992" lon="3.97053">
        <ele>334</ele>
        <time>2022-05-01T09:11:31Z</time>
      </trkpt>
      <trkpt lat="46.03975" lon="3.96988">
        <ele>331</ele>
        <time>2022-05-01T09:11:39Z</time>
      </trkpt>
      <trkpt lat="46.03891" lon="3.9657">
        <ele>328</ele>
        <time>2022-05-01T09:12:33Z</time>
      </trkpt>
      <trkpt lat="46.03325" lon="3.93823">
        <ele>373</ele>
        <time>2022-05-01T09:18:27Z</time>
      </trkpt>
      <trkpt lat="46.03315" lon="3.93771">
        <ele>375</ele>
        <time>2022-05-01T09:18:34Z</time>
      </trkpt>
      <trkpt lat="46.0331" lon="3.93725">
        <ele>377</ele>
        <time>2022-05-01T09:18:39Z</time>
      </trkpt>
      <trkpt lat="46.03311" lon="3.93703">
        <ele>379</ele>
        <time>2022-05-01T09:18:42Z</time>
      </trkpt>
      <trkpt lat="46.03316" lon="3.93681">
        <ele>380</ele>
        <time>2022-05-01T09:18:45Z</time>
      </trkpt>
      <trkpt lat="46.03311" lon="3.93665">
        <ele>381</ele>
        <time>2022-05-01T09:18:47Z</time>
      </trkpt>
      <trkpt lat="46.03301" lon="3.93658">
        <ele>381</ele>
        <time>2022-05-01T09:18:49Z</time>
      </trkpt>
      <trkpt lat="46.03287" lon="3.93628">
        <ele>382</ele>
        <time>2022-05-01T09:18:54Z</time>
      </trkpt>
      <trkpt lat="46.03194" lon="3.93182">
        <ele>401</ele>
        <time>2022-05-01T09:19:51Z</time>
      </trkpt>
      <trkpt lat="46.03177" lon="3.93036">
        <ele>407</ele>
        <time>2022-05-01T09:20:09Z</time>
      </trkpt>
      <trkpt lat="46.03168" lon="3.9302">
        <ele>408</ele>
        <time>2022-05-01T09:20:12Z</time>
      </trkpt>
      <trkpt lat="46.03155" lon="3.93013">
        <ele>409</ele>
        <time>2022-05-01T09:20:14Z</time>
      </trkpt>
      <trkpt lat="46.03142" lon="3.93008">
        <ele>409</ele>
        <time>2022-05-01T09:20:17Z</time>
      </trkpt>
      <trkpt lat="46.03119" lon="3.93008">
        <ele>409</ele>
        <time>2022-05-01T09:20:21Z</time>
      </trkpt>
      <trkpt lat="46.03094" lon="3.92998">
        <ele>409</ele>
        <time>2022-05-01T09:20:26Z</time>
      </trkpt>
      <trkpt lat="46.03068" lon="3.92962">
        <ele>412</ele>
        <time>2022-05-01T09:20:32Z</time>
      </trkpt>
      <trkpt lat="46.02947" lon="3.92765">
        <ele>425</ele>
        <time>2022-05-01T09:21:04Z</time>
      </trkpt>
      <trkpt lat="46.02928" lon="3.92725">
        <ele>426</ele>
        <time>2022-05-01T09:21:10Z</time>
      </trkpt>
      <trkpt lat="46.02907" lon="3.92668">
        <ele>429</ele>
        <time>2022-05-01T09:21:18Z</time>
      </trkpt>
      <trkpt lat="46.029" lon="3.92596">
        <ele>432</ele>
        <time>2022-05-01T09:21:27Z</time>
      </trkpt>
      <trkpt lat="46.02895" lon="3.92581">
        <ele>434</ele>
        <time>2022-05-01T09:21:29Z</time>
      </trkpt>
      <trkpt lat="46.02888" lon="3.92571">
        <ele>435</ele>
        <time>2022-05-01T09:21:31Z</time>
      </trkpt>
      <trkpt lat="46.02878" lon="3.92563">
        <ele>436</ele>
        <time>2022-05-01T09:21:33Z</time>
      </trkpt>
      <trkpt lat="46.02858" lon="3.9256">
        <ele>438</ele>
        <time>2022-05-01T09:21:37Z</time>
      </trkpt>
      <trkpt lat="46.02843" lon="3.92577">
        <ele>440</ele>
        <time>2022-05-01T09:21:40Z</time>
      </trkpt>
      <trkpt lat="46.02839" lon="3.9259">
        <ele>440</ele>
        <time>2022-05-01T09:21:42Z</time>
      </trkpt>
      <trkpt lat="46.02826" lon="3.92671">
        <ele>436</ele>
        <time>2022-05-01T09:21:52Z</time>
      </trkpt>
      <trkpt lat="46.0281" lon="3.92712">
        <ele>438</ele>
        <time>2022-05-01T09:21:58Z</time>
      </trkpt>
      <trkpt lat="46.02789" lon="3.92734">
        <ele>439</ele>
        <time>2022-05-01T09:22:03Z</time>
      </trkpt>
      <trkpt lat="46.02761" lon="3.92751">
        <ele>441</ele>
        <time>2022-05-01T09:22:08Z</time>
      </trkpt>
      <trkpt lat="46.02738" lon="3.9276">
        <ele>442</ele>
        <time>2022-05-01T09:22:12Z</time>
      </trkpt>
      <trkpt lat="46.02727" lon="3.92759">
        <ele>442</ele>
        <time>2022-05-01T09:22:14Z</time>
      </trkpt>
      <trkpt lat="46.02714" lon="3.92754">
        <ele>443</ele>
        <time>2022-05-01T09:22:17Z</time>
      </trkpt>
      <trkpt lat="46.0267" lon="3.92702">
        <ele>449</ele>
        <time>2022-05-01T09:22:27Z</time>
      </trkpt>
      <trkpt lat="46.02648" lon="3.92689">
        <ele>448</ele>
        <time>2022-05-01T09:22:31Z</time>
      </trkpt>
      <trkpt lat="46.02631" lon="3.92673">
        <ele>448</ele>
        <time>2022-05-01T09:22:35Z</time>
      </trkpt>
      <trkpt lat="46.0262" lon="3.92659">
        <ele>448</ele>
        <time>2022-05-01T09:22:37Z</time>
      </trkpt>
      <trkpt lat="46.02612" lon="3.92643">
        <ele>449</ele>
        <time>2022-05-01T09:22:40Z</time>
      </trkpt>
      <trkpt lat="46.02597" lon="3.92592">
        <ele>452</ele>
        <time>2022-05-01T09:22:47Z</time>
      </trkpt>
      <trkpt lat="46.02593" lon="3.9256">
        <ele>453</ele>
        <time>2022-05-01T09:22:51Z</time>
      </trkpt>
      <trkpt lat="46.02593" lon="3.92514">
        <ele>455</ele>
        <time>2022-05-01T09:22:56Z</time>
      </trkpt>
      <trkpt lat="46.02609" lon="3.92333">
        <ele>465</ele>
        <time>2022-05-01T09:23:19Z</time>
      </trkpt>
      <trkpt lat="46.02607" lon="3.92296">
        <ele>466</ele>
        <time>2022-05-01T09:23:23Z</time>
      </trkpt>
      <trkpt lat="46.02601" lon="3.92254">
        <ele>467</ele>
        <time>2022-05-01T09:23:29Z</time>
      </trkpt>
      <trkpt lat="46.02567" lon="3.9216">
        <ele>474</ele>
        <time>2022-05-01T09:23:42Z</time>
      </trkpt>
      <trkpt lat="46.02605" lon="3.92109">
        <ele>486</ele>
        <time>2022-05-01T09:23:51Z</time>
      </trkpt>
      <trkpt lat="46.0257" lon="3.92055">
        <ele>492</ele>
        <time>2022-05-01T09:24:00Z</time>
      </trkpt>
      <trkpt lat="46.02553" lon="3.9202">
        <ele>496</ele>
        <time>2022-05-01T09:24:05Z</time>
      </trkpt>
      <trkpt lat="46.02529" lon="3.91985">
        <ele>499</ele>
        <time>2022-05-01T09:24:11Z</time>
      </trkpt>
      <trkpt lat="46.02525" lon="3.91974">
        <ele>501</ele>
        <time>2022-05-01T09:24:13Z</time>
      </trkpt>
      <trkpt lat="46.02518" lon="3.91931">
        <ele>509</ele>
        <time>2022-05-01T09:24:18Z</time>
      </trkpt>
      <trkpt lat="46.02502" lon="3.91906">
        <ele>512</ele>
        <time>2022-05-01T09:24:23Z</time>
      </trkpt>
      <trkpt lat="46.02494" lon="3.919">
        <ele>514</ele>
        <time>2022-05-01T09:24:24Z</time>
      </trkpt>
      <trkpt lat="46.02476" lon="3.91896">
        <ele>515</ele>
        <time>2022-05-01T09:24:28Z</time>
      </trkpt>
      <trkpt lat="46.02466" lon="3.91897">
        <ele>515</ele>
        <time>2022-05-01T09:24:29Z</time>
      </trkpt>
      <trkpt lat="46.02421" lon="3.9193">
        <ele>508</ele>
        <time>2022-05-01T09:24:38Z</time>
      </trkpt>
      <trkpt lat="46.02396" lon="3.91936">
        <ele>508</ele>
        <time>2022-05-01T09:24:43Z</time>
      </trkpt>
      <trkpt lat="46.02352" lon="3.91958">
        <ele>508</ele>
        <time>2022-05-01T09:24:51Z</time>
      </trkpt>
      <trkpt lat="46.02359" lon="3.91997">
        <ele>502</ele>
        <time>2022-05-01T09:24:56Z</time>
      </trkpt>
      <trkpt lat="46.02365" lon="3.92005">
        <ele>500</ele>
        <time>2022-05-01T09:24:58Z</time>
      </trkpt>
      <trkpt lat="46.02376" lon="3.92003">
        <ele>498</ele>
        <time>2022-05-01T09:24:59Z</time>
      </trkpt>
      <trkpt lat="46.02382" lon="3.91987">
        <ele>499</ele>
        <time>2022-05-01T09:25:02Z</time>
      </trkpt>
      <trkpt lat="46.0239" lon="3.91979">
        <ele>500</ele>
        <time>2022-05-01T09:25:03Z</time>
      </trkpt>
      <trkpt lat="46.02396" lon="3.91981">
        <ele>498</ele>
        <time>2022-05-01T09:25:05Z</time>
      </trkpt>
      <trkpt lat="46.02408" lon="3.91991">
        <ele>494</ele>
        <time>2022-05-01T09:25:07Z</time>
      </trkpt>
      <trkpt lat="46.02423" lon="3.92008">
        <ele>490</ele>
        <time>2022-05-01T09:25:10Z</time>
      </trkpt>
      <trkpt lat="46.0244" lon="3.92064">
        <ele>484</ele>
        <time>2022-05-01T09:25:18Z</time>
      </trkpt>
      <trkpt lat="46.02401" lon="3.92149">
        <ele>486</ele>
        <time>2022-05-01T09:25:31Z</time>
      </trkpt>
      <trkpt lat="46.02381" lon="3.92174">
        <ele>489</ele>
        <time>2022-05-01T09:25:35Z</time>
      </trkpt>
      <trkpt lat="46.02332" lon="3.92216">
        <ele>493</ele>
        <time>2022-05-01T09:25:45Z</time>
      </trkpt>
      <trkpt lat="46.02313" lon="3.92243">
        <ele>496</ele>
        <time>2022-05-01T09:25:50Z</time>
      </trkpt>
      <trkpt lat="46.023" lon="3.92267">
        <ele>497</ele>
        <time>2022-05-01T09:25:54Z</time>
      </trkpt>
      <trkpt lat="46.02284" lon="3.92317">
        <ele>496</ele>
        <time>2022-05-01T09:26:01Z</time>
      </trkpt>
      <trkpt lat="46.02274" lon="3.92334">
        <ele>497</ele>
        <time>2022-05-01T09:26:03Z</time>
      </trkpt>
      <trkpt lat="46.02246" lon="3.92361">
        <ele>498</ele>
        <time>2022-05-01T09:26:09Z</time>
      </trkpt>
      <trkpt lat="46.0221" lon="3.92372">
        <ele>497</ele>
        <time>2022-05-01T09:26:16Z</time>
      </trkpt>
      <trkpt lat="46.02185" lon="3.92373">
        <ele>498</ele>
        <time>2022-05-01T09:26:20Z</time>
      </trkpt>
      <trkpt lat="46.02168" lon="3.92366">
        <ele>500</ele>
        <time>2022-05-01T09:26:24Z</time>
      </trkpt>
      <trkpt lat="46.0216" lon="3.92355">
        <ele>503</ele>
        <time>2022-05-01T09:26:26Z</time>
      </trkpt>
      <trkpt lat="46.02154" lon="3.92323">
        <ele>508</ele>
        <time>2022-05-01T09:26:30Z</time>
      </trkpt>
      <trkpt lat="46.02154" lon="3.92297">
        <ele>513</ele>
        <time>2022-05-01T09:26:33Z</time>
      </trkpt>
      <trkpt lat="46.02141" lon="3.92266">
        <ele>517</ele>
        <time>2022-05-01T09:26:37Z</time>
      </trkpt>
      <trkpt lat="46.02081" lon="3.92191">
        <ele>527</ele>
        <time>2022-05-01T09:26:52Z</time>
      </trkpt>
      <trkpt lat="46.02045" lon="3.9216">
        <ele>529</ele>
        <time>2022-05-01T09:26:59Z</time>
      </trkpt>
      <trkpt lat="46.02016" lon="3.92118">
        <ele>530</ele>
        <time>2022-05-01T09:27:06Z</time>
      </trkpt>
      <trkpt lat="46.01993" lon="3.92076">
        <ele>532</ele>
        <time>2022-05-01T09:27:13Z</time>
      </trkpt>
      <trkpt lat="46.01975" lon="3.92023">
        <ele>540</ele>
        <time>2022-05-01T09:27:20Z</time>
      </trkpt>
      <trkpt lat="46.0196" lon="3.92011">
        <ele>542</ele>
        <time>2022-05-01T09:27:23Z</time>
      </trkpt>
      <trkpt lat="46.01944" lon="3.92012">
        <ele>541</ele>
        <time>2022-05-01T09:27:26Z</time>
      </trkpt>
      <trkpt lat="46.01934" lon="3.92032">
        <ele>541</ele>
        <time>2022-05-01T09:27:29Z</time>
      </trkpt>
      <trkpt lat="46.01933" lon="3.92067">
        <ele>539</ele>
        <time>2022-05-01T09:27:33Z</time>
      </trkpt>
      <trkpt lat="46.01937" lon="3.92116">
        <ele>539</ele>
        <time>2022-05-01T09:27:40Z</time>
      </trkpt>
      <trkpt lat="46.01946" lon="3.92178">
        <ele>539</ele>
        <time>2022-05-01T09:27:47Z</time>
      </trkpt>
      <trkpt lat="46.01958" lon="3.92229">
        <ele>540</ele>
        <time>2022-05-01T09:27:54Z</time>
      </trkpt>
      <trkpt lat="46.02011" lon="3.92317">
        <ele>539</ele>
        <time>2022-05-01T09:28:08Z</time>
      </trkpt>
      <trkpt lat="46.0202" lon="3.92342">
        <ele>538</ele>
        <time>2022-05-01T09:28:12Z</time>
      </trkpt>
      <trkpt lat="46.02022" lon="3.92407">
        <ele>541</ele>
        <time>2022-05-01T09:28:20Z</time>
      </trkpt>
      <trkpt lat="46.02007" lon="3.92491">
        <ele>544</ele>
        <time>2022-05-01T09:28:31Z</time>
      </trkpt>
      <trkpt lat="46.02" lon="3.92506">
        <ele>545</ele>
        <time>2022-05-01T09:28:33Z</time>
      </trkpt>
      <trkpt lat="46.01989" lon="3.92517">
        <ele>545</ele>
        <time>2022-05-01T09:28:35Z</time>
      </trkpt>
      <trkpt lat="46.01964" lon="3.92525">
        <ele>547</ele>
        <time>2022-05-01T09:28:40Z</time>
      </trkpt>
      <trkpt lat="46.01943" lon="3.92516">
        <ele>551</ele>
        <time>2022-05-01T09:28:44Z</time>
      </trkpt>
      <trkpt lat="46.0191" lon="3.92496">
        <ele>557</ele>
        <time>2022-05-01T09:28:50Z</time>
      </trkpt>
      <trkpt lat="46.01896" lon="3.92483">
        <ele>556</ele>
        <time>2022-05-01T09:28:53Z</time>
      </trkpt>
      <trkpt lat="46.01869" lon="3.92445">
        <ele>557</ele>
        <time>2022-05-01T09:29:00Z</time>
      </trkpt>
      <trkpt lat="46.01854" lon="3.92413">
        <ele>557</ele>
        <time>2022-05-01T09:29:05Z</time>
      </trkpt>
      <trkpt lat="46.01837" lon="3.92388">
        <ele>557</ele>
        <time>2022-05-01T09:29:09Z</time>
      </trkpt>
      <trkpt lat="46.01818" lon="3.92369">
        <ele>559</ele>
        <time>2022-05-01T09:29:13Z</time>
      </trkpt>
      <trkpt lat="46.018" lon="3.92362">
        <ele>560</ele>
        <time>2022-05-01T09:29:16Z</time>
      </trkpt>
      <trkpt lat="46.01763" lon="3.92363">
        <ele>560</ele>
        <time>2022-05-01T09:29:23Z</time>
      </trkpt>
      <trkpt lat="46.01752" lon="3.92359">
        <ele>561</ele>
        <time>2022-05-01T09:29:25Z</time>
      </trkpt>
      <trkpt lat="46.01742" lon="3.92351">
        <ele>560</ele>
        <time>2022-05-01T09:29:27Z</time>
      </trkpt>
      <trkpt lat="46.01734" lon="3.92339">
        <ele>561</ele>
        <time>2022-05-01T09:29:29Z</time>
      </trkpt>
      <trkpt lat="46.01685" lon="3.92182">
        <ele>568</ele>
        <time>2022-05-01T09:29:50Z</time>
      </trkpt>
      <trkpt lat="46.01668" lon="3.9211">
        <ele>571</ele>
        <time>2022-05-01T09:30:00Z</time>
      </trkpt>
      <trkpt lat="46.01659" lon="3.92047">
        <ele>576</ele>
        <time>2022-05-01T09:30:08Z</time>
      </trkpt>
      <trkpt lat="46.01652" lon="3.92031">
        <ele>578</ele>
        <time>2022-05-01T09:30:10Z</time>
      </trkpt>
      <trkpt lat="46.01644" lon="3.92023">
        <ele>579</ele>
        <time>2022-05-01T09:30:12Z</time>
      </trkpt>
      <trkpt lat="46.01632" lon="3.92019">
        <ele>580</ele>
        <time>2022-05-01T09:30:14Z</time>
      </trkpt>
      <trkpt lat="46.01621" lon="3.9202">
        <ele>580</ele>
        <time>2022-05-01T09:30:16Z</time>
      </trkpt>
      <trkpt lat="46.0158" lon="3.92052">
        <ele>575</ele>
        <time>2022-05-01T09:30:24Z</time>
      </trkpt>
      <trkpt lat="46.01568" lon="3.92054">
        <ele>574</ele>
        <time>2022-05-01T09:30:26Z</time>
      </trkpt>
      <trkpt lat="46.01558" lon="3.92051">
        <ele>574</ele>
        <time>2022-05-01T09:30:28Z</time>
      </trkpt>
      <trkpt lat="46.01549" lon="3.9204">
        <ele>575</ele>
        <time>2022-05-01T09:30:30Z</time>
      </trkpt>
      <trkpt lat="46.01523" lon="3.91998">
        <ele>579</ele>
        <time>2022-05-01T09:30:37Z</time>
      </trkpt>
      <trkpt lat="46.01515" lon="3.91976">
        <ele>580</ele>
        <time>2022-05-01T09:30:40Z</time>
      </trkpt>
      <trkpt lat="46.01512" lon="3.91957">
        <ele>581</ele>
        <time>2022-05-01T09:30:43Z</time>
      </trkpt>
      <trkpt lat="46.01498" lon="3.91698">
        <ele>596</ele>
        <time>2022-05-01T09:31:15Z</time>
      </trkpt>
      <trkpt lat="46.01494" lon="3.9168">
        <ele>597</ele>
        <time>2022-05-01T09:31:17Z</time>
      </trkpt>
      <trkpt lat="46.01488" lon="3.91664">
        <ele>597</ele>
        <time>2022-05-01T09:31:19Z</time>
      </trkpt>
      <trkpt lat="46.01438" lon="3.91585">
        <ele>600</ele>
        <time>2022-05-01T09:31:33Z</time>
      </trkpt>
      <trkpt lat="46.01419" lon="3.91551">
        <ele>602</ele>
        <time>2022-05-01T09:31:38Z</time>
      </trkpt>
      <trkpt lat="46.01403" lon="3.91531">
        <ele>605</ele>
        <time>2022-05-01T09:31:42Z</time>
      </trkpt>
      <trkpt lat="46.01392" lon="3.91525">
        <ele>606</ele>
        <time>2022-05-01T09:31:44Z</time>
      </trkpt>
      <trkpt lat="46.01319" lon="3.91513">
        <ele>609</ele>
        <time>2022-05-01T09:31:57Z</time>
      </trkpt>
      <trkpt lat="46.01306" lon="3.91517">
        <ele>610</ele>
        <time>2022-05-01T09:31:59Z</time>
      </trkpt>
      <trkpt lat="46.01159" lon="3.91794">
        <ele>623</ele>
        <time>2022-05-01T09:32:42Z</time>
      </trkpt>
      <trkpt lat="46.01145" lon="3.91824">
        <ele>625</ele>
        <time>2022-05-01T09:32:47Z</time>
      </trkpt>
      <trkpt lat="46.01134" lon="3.91856">
        <ele>627</ele>
        <time>2022-05-01T09:32:51Z</time>
      </trkpt>
      <trkpt lat="46.01113" lon="3.91968">
        <ele>627</ele>
        <time>2022-05-01T09:33:06Z</time>
      </trkpt>
      <trkpt lat="46.01101" lon="3.91999">
        <ele>628</ele>
        <time>2022-05-01T09:33:10Z</time>
      </trkpt>
      <trkpt lat="46.01085" lon="3.9202">
        <ele>630</ele>
        <time>2022-05-01T09:33:14Z</time>
      </trkpt>
      <trkpt lat="46.01034" lon="3.92061">
        <ele>632</ele>
        <time>2022-05-01T09:33:24Z</time>
      </trkpt>
      <trkpt lat="46.01004" lon="3.92075">
        <ele>635</ele>
        <time>2022-05-01T09:33:30Z</time>
      </trkpt>
      <trkpt lat="46.00993" lon="3.92076">
        <ele>635</ele>
        <time>2022-05-01T09:33:32Z</time>
      </trkpt>
      <trkpt lat="46.00971" lon="3.9207">
        <ele>635</ele>
        <time>2022-05-01T09:33:36Z</time>
      </trkpt>
      <trkpt lat="46.00958" lon="3.92061">
        <ele>636</ele>
        <time>2022-05-01T09:33:38Z</time>
      </trkpt>
      <trkpt lat="46.00949" lon="3.92051">
        <ele>637</ele>
        <time>2022-05-01T09:33:40Z</time>
      </trkpt>
      <trkpt lat="46.00938" lon="3.92033">
        <ele>639</ele>
        <time>2022-05-01T09:33:43Z</time>
      </trkpt>
      <trkpt lat="46.00907" lon="3.91952">
        <ele>645</ele>
        <time>2022-05-01T09:33:55Z</time>
      </trkpt>
      <trkpt lat="46.00894" lon="3.91927">
        <ele>648</ele>
        <time>2022-05-01T09:33:59Z</time>
      </trkpt>
      <trkpt lat="46.00874" lon="3.91909">
        <ele>649</ele>
        <time>2022-05-01T09:34:03Z</time>
      </trkpt>
      <trkpt lat="46.00861" lon="3.91905">
        <ele>649</ele>
        <time>2022-05-01T09:34:05Z</time>
      </trkpt>
      <trkpt lat="46.00816" lon="3.91899">
        <ele>647</ele>
        <time>2022-05-01T09:34:13Z</time>
      </trkpt>
      <trkpt lat="46.00805" lon="3.91894">
        <ele>646</ele>
        <time>2022-05-01T09:34:15Z</time>
      </trkpt>
      <trkpt lat="46.00796" lon="3.91886">
        <ele>646</ele>
        <time>2022-05-01T09:34:17Z</time>
      </trkpt>
      <trkpt lat="46.00788" lon="3.91874">
        <ele>646</ele>
        <time>2022-05-01T09:34:19Z</time>
      </trkpt>
      <trkpt lat="46.00782" lon="3.9186">
        <ele>647</ele>
        <time>2022-05-01T09:34:21Z</time>
      </trkpt>
      <trkpt lat="46.00779" lon="3.91844">
        <ele>648</ele>
        <time>2022-05-01T09:34:23Z</time>
      </trkpt>
      <trkpt lat="46.00778" lon="3.91818">
        <ele>650</ele>
        <time>2022-05-01T09:34:26Z</time>
      </trkpt>
      <trkpt lat="46.00787" lon="3.91763">
        <ele>653</ele>
        <time>2022-05-01T09:34:33Z</time>
      </trkpt>
      <trkpt lat="46.00822" lon="3.9166">
        <ele>660</ele>
        <time>2022-05-01T09:34:48Z</time>
      </trkpt>
      <trkpt lat="46.00856" lon="3.91593">
        <ele>664</ele>
        <time>2022-05-01T09:34:58Z</time>
      </trkpt>
      <trkpt lat="46.00863" lon="3.91569">
        <ele>665</ele>
        <time>2022-05-01T09:35:01Z</time>
      </trkpt>
      <trkpt lat="46.00862" lon="3.91529">
        <ele>668</ele>
        <time>2022-05-01T09:35:06Z</time>
      </trkpt>
      <trkpt lat="46.00858" lon="3.91511">
        <ele>668</ele>
        <time>2022-05-01T09:35:08Z</time>
      </trkpt>
      <trkpt lat="46.00819" lon="3.91416">
        <ele>680</ele>
        <time>2022-05-01T09:35:22Z</time>
      </trkpt>
      <trkpt lat="46.00799" lon="3.9139">
        <ele>682</ele>
        <time>2022-05-01T09:35:27Z</time>
      </trkpt>
      <trkpt lat="46.00782" lon="3.91378">
        <ele>682</ele>
        <time>2022-05-01T09:35:30Z</time>
      </trkpt>
      <trkpt lat="46.00765" lon="3.91375">
        <ele>682</ele>
        <time>2022-05-01T09:35:33Z</time>
      </trkpt>
      <trkpt lat="46.00731" lon="3.91372">
        <ele>681</ele>
        <time>2022-05-01T09:35:39Z</time>
      </trkpt>
      <trkpt lat="46.00695" lon="3.91373">
        <ele>680</ele>
        <time>2022-05-01T09:35:46Z</time>
      </trkpt>
      <trkpt lat="46.00676" lon="3.91369">
        <ele>681</ele>
        <time>2022-05-01T09:35:49Z</time>
      </trkpt>
      <trkpt lat="46.00665" lon="3.91363">
        <ele>681</ele>
        <time>2022-05-01T09:35:51Z</time>
      </trkpt>
      <trkpt lat="46.00651" lon="3.9135">
        <ele>681</ele>
        <time>2022-05-01T09:35:54Z</time>
      </trkpt>
      <trkpt lat="46.00642" lon="3.91328">
        <ele>681</ele>
        <time>2022-05-01T09:35:57Z</time>
      </trkpt>
      <trkpt lat="46.00638" lon="3.9129">
        <ele>682</ele>
        <time>2022-05-01T09:36:02Z</time>
      </trkpt>
      <trkpt lat="46.00654" lon="3.9118">
        <ele>689</ele>
        <time>2022-05-01T09:36:16Z</time>
      </trkpt>
      <trkpt lat="46.00656" lon="3.91148">
        <ele>691</ele>
        <time>2022-05-01T09:36:20Z</time>
      </trkpt>
      <trkpt lat="46.0065" lon="3.91073">
        <ele>693</ele>
        <time>2022-05-01T09:36:29Z</time>
      </trkpt>
      <trkpt lat="46.00636" lon="3.90994">
        <ele>695</ele>
        <time>2022-05-01T09:36:39Z</time>
      </trkpt>
      <trkpt lat="46.00634" lon="3.90964">
        <ele>694</ele>
        <time>2022-05-01T09:36:43Z</time>
      </trkpt>
      <trkpt lat="46.00636" lon="3.9093">
        <ele>696</ele>
        <time>2022-05-01T09:36:47Z</time>
      </trkpt>
      <trkpt lat="46.00641" lon="3.90904">
        <ele>697</ele>
        <time>2022-05-01T09:36:51Z</time>
      </trkpt>
      <trkpt lat="46.00664" lon="3.9085">
        <ele>702</ele>
        <time>2022-05-01T09:36:58Z</time>
      </trkpt>
      <trkpt lat="46.0069" lon="3.90806">
        <ele>708</ele>
        <time>2022-05-01T09:37:06Z</time>
      </trkpt>
      <trkpt lat="46.00696" lon="3.90782">
        <ele>710</ele>
        <time>2022-05-01T09:37:09Z</time>
      </trkpt>
      <trkpt lat="46.00699" lon="3.90762">
        <ele>711</ele>
        <time>2022-05-01T09:37:11Z</time>
      </trkpt>
      <trkpt lat="46.00688" lon="3.90669">
        <ele>710</ele>
        <time>2022-05-01T09:37:23Z</time>
      </trkpt>
      <trkpt lat="46.00689" lon="3.90618">
        <ele>712</ele>
        <time>2022-05-01T09:37:29Z</time>
      </trkpt>
      <trkpt lat="46.00692" lon="3.90579">
        <ele>714</ele>
        <time>2022-05-01T09:37:34Z</time>
      </trkpt>
      <trkpt lat="46.00701" lon="3.90537">
        <ele>714</ele>
        <time>2022-05-01T09:37:39Z</time>
      </trkpt>
      <trkpt lat="46.00714" lon="3.905">
        <ele>715</ele>
        <time>2022-05-01T09:37:45Z</time>
      </trkpt>
      <trkpt lat="46.00785" lon="3.90382">
        <ele>723</ele>
        <time>2022-05-01T09:38:04Z</time>
      </trkpt>
      <trkpt lat="46.00925" lon="3.90211">
        <ele>737</ele>
        <time>2022-05-01T09:38:37Z</time>
      </trkpt>
      <trkpt lat="46.00955" lon="3.90122">
        <ele>736</ele>
        <time>2022-05-01T09:38:49Z</time>
      </trkpt>
      <trkpt lat="46.00981" lon="3.90059">
        <ele>738</ele>
        <time>2022-05-01T09:38:58Z</time>
      </trkpt>
      <trkpt lat="46.01004" lon="3.90019">
        <ele>739</ele>
        <time>2022-05-01T09:39:04Z</time>
      </trkpt>
      <trkpt lat="46.01019" lon="3.90005">
        <ele>740</ele>
        <time>2022-05-01T09:39:07Z</time>
      </trkpt>
      <trkpt lat="46.01062" lon="3.89978">
        <ele>747</ele>
        <time>2022-05-01T09:39:16Z</time>
      </trkpt>
      <trkpt lat="46.01072" lon="3.89968">
        <ele>748</ele>
        <time>2022-05-01T09:39:18Z</time>
      </trkpt>
      <trkpt lat="46.0108" lon="3.89946">
        <ele>750</ele>
        <time>2022-05-01T09:39:21Z</time>
      </trkpt>
      <trkpt lat="46.0108" lon="3.8993">
        <ele>750</ele>
        <time>2022-05-01T09:39:23Z</time>
      </trkpt>
      <trkpt lat="46.01076" lon="3.8992">
        <ele>749</ele>
        <time>2022-05-01T09:39:24Z</time>
      </trkpt>
      <trkpt lat="46.01068" lon="3.8991">
        <ele>749</ele>
        <time>2022-05-01T09:39:26Z</time>
      </trkpt>
      <trkpt lat="46.01057" lon="3.89904">
        <ele>748</ele>
        <time>2022-05-01T09:39:28Z</time>
      </trkpt>
      <trkpt lat="46.0103" lon="3.89902">
        <ele>745</ele>
        <time>2022-05-01T09:39:33Z</time>
      </trkpt>
      <trkpt lat="46.01021" lon="3.89896">
        <ele>744</ele>
        <time>2022-05-01T09:39:35Z</time>
      </trkpt>
      <trkpt lat="46.01014" lon="3.89884">
        <ele>744</ele>
        <time>2022-05-01T09:39:37Z</time>
      </trkpt>
      <trkpt lat="46.0101" lon="3.89866">
        <ele>745</ele>
        <time>2022-05-01T09:39:39Z</time>
      </trkpt>
      <trkpt lat="46.0101" lon="3.89808">
        <ele>749</ele>
        <time>2022-05-01T09:39:46Z</time>
      </trkpt>
      <trkpt lat="46.01032" lon="3.8971">
        <ele>761</ele>
        <time>2022-05-01T09:39:59Z</time>
      </trkpt>
      <trkpt lat="46.01032" lon="3.89675">
        <ele>764</ele>
        <time>2022-05-01T09:40:03Z</time>
      </trkpt>
      <trkpt lat="46.01023" lon="3.89652">
        <ele>765</ele>
        <time>2022-05-01T09:40:07Z</time>
      </trkpt>
      <trkpt lat="46.01011" lon="3.89636">
        <ele>765</ele>
        <time>2022-05-01T09:40:10Z</time>
      </trkpt>
      <trkpt lat="46.00971" lon="3.89611">
        <ele>762</ele>
        <time>2022-05-01T09:40:17Z</time>
      </trkpt>
      <trkpt lat="46.00952" lon="3.8959">
        <ele>762</ele>
        <time>2022-05-01T09:40:22Z</time>
      </trkpt>
      <trkpt lat="46.00941" lon="3.89573">
        <ele>763</ele>
        <time>2022-05-01T09:40:25Z</time>
      </trkpt>
      <trkpt lat="46.00922" lon="3.89519">
        <ele>766</ele>
        <time>2022-05-01T09:40:32Z</time>
      </trkpt>
      <trkpt lat="46.00915" lon="3.89478">
        <ele>767</ele>
        <time>2022-05-01T09:40:37Z</time>
      </trkpt>
      <trkpt lat="46.0092" lon="3.89438">
        <ele>768</ele>
        <time>2022-05-01T09:40:42Z</time>
      </trkpt>
      <trkpt lat="46.00929" lon="3.89411">
        <ele>769</ele>
        <time>2022-05-01T09:40:46Z</time>
      </trkpt>
      <trkpt lat="46.00942" lon="3.89383">
        <ele>771</ele>
        <time>2022-05-01T09:40:50Z</time>
      </trkpt>
      <trkpt lat="46.01005" lon="3.89283">
        <ele>780</ele>
        <time>2022-05-01T09:41:07Z</time>
      </trkpt>
      <trkpt lat="46.01026" lon="3.89225">
        <ele>782</ele>
        <time>2022-05-01T09:41:15Z</time>
      </trkpt>
      <trkpt lat="46.0104" lon="3.89163">
        <ele>783</ele>
        <time>2022-05-01T09:41:23Z</time>
      </trkpt>
      <trkpt lat="46.0105" lon="3.89072">
        <ele>786</ele>
        <time>2022-05-01T09:41:34Z</time>
      </trkpt>
      <trkpt lat="46.01054" lon="3.88949">
        <ele>795</ele>
        <time>2022-05-01T09:41:50Z</time>
      </trkpt>
      <trkpt lat="46.01053" lon="3.88882">
        <ele>799</ele>
        <time>2022-05-01T09:41:58Z</time>
      </trkpt>
      <trkpt lat="46.01048" lon="3.88829">
        <ele>802</ele>
        <time>2022-05-01T09:42:04Z</time>
      </trkpt>
      <trkpt lat="46.0104" lon="3.88793">
        <ele>804</ele>
        <time>2022-05-01T09:42:09Z</time>
      </trkpt>
      <trkpt lat="46.01033" lon="3.88776">
        <ele>804</ele>
        <time>2022-05-01T09:42:12Z</time>
      </trkpt>
      <trkpt lat="46.01026" lon="3.8877">
        <ele>804</ele>
        <time>2022-05-01T09:42:13Z</time>
      </trkpt>
      <trkpt lat="46.0101" lon="3.88764">
        <ele>804</ele>
        <time>2022-05-01T09:42:16Z</time>
      </trkpt>
      <trkpt lat="46.00996" lon="3.88765">
        <ele>803</ele>
        <time>2022-05-01T09:42:18Z</time>
      </trkpt>
      <trkpt lat="46.00985" lon="3.88772">
        <ele>804</ele>
        <time>2022-05-01T09:42:21Z</time>
      </trkpt>
      <trkpt lat="46.00974" lon="3.8879">
        <ele>803</ele>
        <time>2022-05-01T09:42:24Z</time>
      </trkpt>
      <trkpt lat="46.00942" lon="3.8888">
        <ele>797</ele>
        <time>2022-05-01T09:42:36Z</time>
      </trkpt>
      <trkpt lat="46.00929" lon="3.88893">
        <ele>797</ele>
        <time>2022-05-01T09:42:39Z</time>
      </trkpt>
      <trkpt lat="46.00909" lon="3.88899">
        <ele>797</ele>
        <time>2022-05-01T09:42:42Z</time>
      </trkpt>
      <trkpt lat="46.0084" lon="3.88878">
        <ele>799</ele>
        <time>2022-05-01T09:42:55Z</time>
      </trkpt>
      <trkpt lat="46.00819" lon="3.88874">
        <ele>800</ele>
        <time>2022-05-01T09:42:59Z</time>
      </trkpt>
      <trkpt lat="46.00797" lon="3.88876">
        <ele>800</ele>
        <time>2022-05-01T09:43:03Z</time>
      </trkpt>
      <trkpt lat="46.00758" lon="3.88888">
        <ele>797</ele>
        <time>2022-05-01T09:43:10Z</time>
      </trkpt>
      <trkpt lat="46.00683" lon="3.88883">
        <ele>801</ele>
        <time>2022-05-01T09:43:23Z</time>
      </trkpt>
      <trkpt lat="46.00661" lon="3.88892">
        <ele>801</ele>
        <time>2022-05-01T09:43:27Z</time>
      </trkpt>
      <trkpt lat="46.00651" lon="3.88902">
        <ele>801</ele>
        <time>2022-05-01T09:43:29Z</time>
      </trkpt>
      <trkpt lat="46.00574" lon="3.88995">
        <ele>801</ele>
        <time>2022-05-01T09:43:47Z</time>
      </trkpt>
      <trkpt lat="46.00563" lon="3.89003">
        <ele>800</ele>
        <time>2022-05-01T09:43:49Z</time>
      </trkpt>
      <trkpt lat="46.00551" lon="3.89008">
        <ele>800</ele>
        <time>2022-05-01T09:43:52Z</time>
      </trkpt>
      <trkpt lat="46.00538" lon="3.8901">
        <ele>799</ele>
        <time>2022-05-01T09:43:54Z</time>
      </trkpt>
      <trkpt lat="46.00517" lon="3.89006">
        <ele>799</ele>
        <time>2022-05-01T09:43:58Z</time>
      </trkpt>
      <trkpt lat="46.00505" lon="3.89001">
        <ele>800</ele>
        <time>2022-05-01T09:44:00Z</time>
      </trkpt>
      <trkpt lat="46.00485" lon="3.88986">
        <ele>799</ele>
        <time>2022-05-01T09:44:04Z</time>
      </trkpt>
      <trkpt lat="46.00477" lon="3.88974">
        <ele>799</ele>
        <time>2022-05-01T09:44:06Z</time>
      </trkpt>
      <trkpt lat="46.00471" lon="3.88959">
        <ele>799</ele>
        <time>2022-05-01T09:44:08Z</time>
      </trkpt>
      <trkpt lat="46.00421" lon="3.8875">
        <ele>802</ele>
        <time>2022-05-01T09:44:36Z</time>
      </trkpt>
      <trkpt lat="46.00406" lon="3.88715">
        <ele>801</ele>
        <time>2022-05-01T09:44:41Z</time>
      </trkpt>
      <trkpt lat="46.00378" lon="3.88679">
        <ele>801</ele>
        <time>2022-05-01T09:44:47Z</time>
      </trkpt>
      <trkpt lat="46.00306" lon="3.88633">
        <ele>798</ele>
        <time>2022-05-01T09:45:01Z</time>
      </trkpt>
      <trkpt lat="46.00274" lon="3.88617">
        <ele>799</ele>
        <time>2022-05-01T09:45:07Z</time>
      </trkpt>
      <trkpt lat="46.00252" lon="3.88609">
        <ele>800</ele>
        <time>2022-05-01T09:45:11Z</time>
      </trkpt>
      <trkpt lat="46.00239" lon="3.88607">
        <ele>801</ele>
        <time>2022-05-01T09:45:14Z</time>
      </trkpt>
      <trkpt lat="46.00216" lon="3.88609">
        <ele>802</ele>
        <time>2022-05-01T09:45:18Z</time>
      </trkpt>
      <trkpt lat="46.00193" lon="3.88623">
        <ele>802</ele>
        <time>2022-05-01T09:45:22Z</time>
      </trkpt>
      <trkpt lat="46.00146" lon="3.8866">
        <ele>802</ele>
        <time>2022-05-01T09:45:32Z</time>
      </trkpt>
      <trkpt lat="46.00124" lon="3.8867">
        <ele>802</ele>
        <time>2022-05-01T09:45:36Z</time>
      </trkpt>
      <trkpt lat="46.001" lon="3.88667">
        <ele>805</ele>
        <time>2022-05-01T09:45:40Z</time>
      </trkpt>
      <trkpt lat="46.00053" lon="3.88637">
        <ele>810</ele>
        <time>2022-05-01T09:45:49Z</time>
      </trkpt>
      <trkpt lat="45.9998" lon="3.8857">
        <ele>824</ele>
        <time>2022-05-01T09:46:05Z</time>
      </trkpt>
      <trkpt lat="45.99919" lon="3.88501">
        <ele>831</ele>
        <time>2022-05-01T09:46:19Z</time>
      </trkpt>
      <trkpt lat="45.99843" lon="3.88397">
        <ele>826</ele>
        <time>2022-05-01T09:46:37Z</time>
      </trkpt>
      <trkpt lat="45.99808" lon="3.88363">
        <ele>827</ele>
        <time>2022-05-01T09:46:45Z</time>
      </trkpt>
      <trkpt lat="45.9973" lon="3.88302">
        <ele>830</ele>
        <time>2022-05-01T09:47:01Z</time>
      </trkpt>
      <trkpt lat="45.99709" lon="3.88291">
        <ele>830</ele>
        <time>2022-05-01T09:47:04Z</time>
      </trkpt>
      <trkpt lat="45.99677" lon="3.88288">
        <ele>832</ele>
        <time>2022-05-01T09:47:10Z</time>
      </trkpt>
      <trkpt lat="45.99621" lon="3.88294">
        <ele>836</ele>
        <time>2022-05-01T09:47:20Z</time>
      </trkpt>
      <trkpt lat="45.99576" lon="3.88283">
        <ele>835</ele>
        <time>2022-05-01T09:47:28Z</time>
      </trkpt>
      <trkpt lat="45.99556" lon="3.88281">
        <ele>835</ele>
        <time>2022-05-01T09:47:32Z</time>
      </trkpt>
      <trkpt lat="45.99454" lon="3.88311">
        <ele>845</ele>
        <time>2022-05-01T09:47:50Z</time>
      </trkpt>
      <trkpt lat="45.9941" lon="3.88314">
        <ele>846</ele>
        <time>2022-05-01T09:47:58Z</time>
      </trkpt>
      <trkpt lat="45.99341" lon="3.88323">
        <ele>847</ele>
        <time>2022-05-01T09:48:11Z</time>
      </trkpt>
      <trkpt lat="45.99319" lon="3.88319">
        <ele>848</ele>
        <time>2022-05-01T09:48:15Z</time>
      </trkpt>
      <trkpt lat="45.99288" lon="3.88302">
        <ele>847</ele>
        <time>2022-05-01T09:48:20Z</time>
      </trkpt>
      <trkpt lat="45.99231" lon="3.88252">
        <ele>842</ele>
        <time>2022-05-01T09:48:32Z</time>
      </trkpt>
      <trkpt lat="45.9921" lon="3.88238">
        <ele>842</ele>
        <time>2022-05-01T09:48:36Z</time>
      </trkpt>
      <trkpt lat="45.99191" lon="3.8823">
        <ele>844</ele>
        <time>2022-05-01T09:48:40Z</time>
      </trkpt>
      <trkpt lat="45.99154" lon="3.88222">
        <ele>848</ele>
        <time>2022-05-01T09:48:47Z</time>
      </trkpt>
      <trkpt lat="45.99134" lon="3.88213">
        <ele>849</ele>
        <time>2022-05-01T09:48:50Z</time>
      </trkpt>
      <trkpt lat="45.99083" lon="3.8818">
        <ele>850</ele>
        <time>2022-05-01T09:49:00Z</time>
      </trkpt>
      <trkpt lat="45.99053" lon="3.88156">
        <ele>849</ele>
        <time>2022-05-01T09:49:06Z</time>
      </trkpt>
      <trkpt lat="45.99034" lon="3.88136">
        <ele>850</ele>
        <time>2022-05-01T09:49:11Z</time>
      </trkpt>
      <trkpt lat="45.99013" lon="3.881">
        <ele>852</ele>
        <time>2022-05-01T09:49:16Z</time>
      </trkpt>
      <trkpt lat="45.9901" lon="3.88087">
        <ele>852</ele>
        <time>2022-05-01T09:49:18Z</time>
      </trkpt>
      <trkpt lat="45.99001" lon="3.88078">
        <ele>853</ele>
        <time>2022-05-01T09:49:20Z</time>
      </trkpt>
      <trkpt lat="45.98931" lon="3.87954">
        <ele>858</ele>
        <time>2022-05-01T09:49:40Z</time>
      </trkpt>
      <trkpt lat="45.98899" lon="3.8795">
        <ele>858</ele>
        <time>2022-05-01T09:49:45Z</time>
      </trkpt>
      <trkpt lat="45.98826" lon="3.87957">
        <ele>854</ele>
        <time>2022-05-01T09:49:58Z</time>
      </trkpt>
      <trkpt lat="45.9881" lon="3.87952">
        <ele>854</ele>
        <time>2022-05-01T09:50:01Z</time>
      </trkpt>
      <trkpt lat="45.98799" lon="3.87945">
        <ele>854</ele>
        <time>2022-05-01T09:50:04Z</time>
      </trkpt>
      <trkpt lat="45.98775" lon="3.8792">
        <ele>856</ele>
        <time>2022-05-01T09:50:09Z</time>
      </trkpt>
      <trkpt lat="45.98698" lon="3.87804">
        <ele>860</ele>
        <time>2022-05-01T09:50:29Z</time>
      </trkpt>
      <trkpt lat="45.9869" lon="3.87782">
        <ele>860</ele>
        <time>2022-05-01T09:50:32Z</time>
      </trkpt>
      <trkpt lat="45.98657" lon="3.87586">
        <ele>864</ele>
        <time>2022-05-01T09:50:57Z</time>
      </trkpt>
      <trkpt lat="45.98657" lon="3.8757">
        <ele>864</ele>
        <time>2022-05-01T09:50:59Z</time>
      </trkpt>
      <trkpt lat="45.98664" lon="3.87529">
        <ele>865</ele>
        <time>2022-05-01T09:51:04Z</time>
      </trkpt>
      <trkpt lat="45.98689" lon="3.87467">
        <ele>868</ele>
        <time>2022-05-01T09:51:13Z</time>
      </trkpt>
      <trkpt lat="45.98771" lon="3.87287">
        <ele>876</ele>
        <time>2022-05-01T09:51:39Z</time>
      </trkpt>
      <trkpt lat="45.9877" lon="3.87251">
        <ele>877</ele>
        <time>2022-05-01T09:51:44Z</time>
      </trkpt>
      <trkpt lat="45.98756" lon="3.8722">
        <ele>880</ele>
        <time>2022-05-01T09:51:48Z</time>
      </trkpt>
      <trkpt lat="45.98728" lon="3.87202">
        <ele>880</ele>
        <time>2022-05-01T09:51:54Z</time>
      </trkpt>
      <trkpt lat="45.98689" lon="3.87189">
        <ele>879</ele>
        <time>2022-05-01T09:52:01Z</time>
      </trkpt>
      <trkpt lat="45.98669" lon="3.87172">
        <ele>881</ele>
        <time>2022-05-01T09:52:05Z</time>
      </trkpt>
      <trkpt lat="45.98614" lon="3.87052">
        <ele>898</ele>
        <time>2022-05-01T09:52:23Z</time>
      </trkpt>
      <trkpt lat="45.98605" lon="3.87041">
        <ele>898</ele>
        <time>2022-05-01T09:52:25Z</time>
      </trkpt>
      <trkpt lat="45.98585" lon="3.87041">
        <ele>895</ele>
        <time>2022-05-01T09:52:28Z</time>
      </trkpt>
      <trkpt lat="45.98573" lon="3.8705">
        <ele>895</ele>
        <time>2022-05-01T09:52:31Z</time>
      </trkpt>
      <trkpt lat="45.98541" lon="3.8709">
        <ele>891</ele>
        <time>2022-05-01T09:52:38Z</time>
      </trkpt>
      <trkpt lat="45.98513" lon="3.87105">
        <ele>891</ele>
        <time>2022-05-01T09:52:44Z</time>
      </trkpt>
      <trkpt lat="45.98482" lon="3.87108">
        <ele>895</ele>
        <time>2022-05-01T09:52:49Z</time>
      </trkpt>
      <trkpt lat="45.98446" lon="3.87116">
        <ele>899</ele>
        <time>2022-05-01T09:52:56Z</time>
      </trkpt>
      <trkpt lat="45.9835" lon="3.87212">
        <ele>896</ele>
        <time>2022-05-01T09:53:17Z</time>
      </trkpt>
      <trkpt lat="45.98322" lon="3.87203">
        <ele>900</ele>
        <time>2022-05-01T09:53:22Z</time>
      </trkpt>
      <trkpt lat="45.98293" lon="3.87175">
        <ele>906</ele>
        <time>2022-05-01T09:53:28Z</time>
      </trkpt>
      <trkpt lat="45.98259" lon="3.87152">
        <ele>910</ele>
        <time>2022-05-01T09:53:35Z</time>
      </trkpt>
      <trkpt lat="45.9821" lon="3.87181">
        <ele>909</ele>
        <time>2022-05-01T09:53:44Z</time>
      </trkpt>
      <trkpt lat="45.98163" lon="3.87233">
        <ele>907</ele>
        <time>2022-05-01T09:53:55Z</time>
      </trkpt>
      <trkpt lat="45.98125" lon="3.87249">
        <ele>909</ele>
        <time>2022-05-01T09:54:02Z</time>
      </trkpt>
      <trkpt lat="45.9808" lon="3.87281">
        <ele>907</ele>
        <time>2022-05-01T09:54:11Z</time>
      </trkpt>
      <trkpt lat="45.98022" lon="3.87279">
        <ele>907</ele>
        <time>2022-05-01T09:54:21Z</time>
      </trkpt>
      <trkpt lat="45.97965" lon="3.87281">
        <ele>910</ele>
        <time>2022-05-01T09:54:31Z</time>
      </trkpt>
      <trkpt lat="45.97894" lon="3.87291">
        <ele>917</ele>
        <time>2022-05-01T09:54:44Z</time>
      </trkpt>
      <trkpt lat="45.97876" lon="3.87328">
        <ele>915</ele>
        <time>2022-05-01T09:54:49Z</time>
      </trkpt>
      <trkpt lat="45.97865" lon="3.87381">
        <ele>913</ele>
        <time>2022-05-01T09:54:56Z</time>
      </trkpt>
      <trkpt lat="45.9784" lon="3.87436">
        <ele>912</ele>
        <time>2022-05-01T09:55:04Z</time>
      </trkpt>
      <trkpt lat="45.97813" lon="3.87462">
        <ele>911</ele>
        <time>2022-05-01T09:55:10Z</time>
      </trkpt>
      <trkpt lat="45.97786" lon="3.87462">
        <ele>915</ele>
        <time>2022-05-01T09:55:15Z</time>
      </trkpt>
      <trkpt lat="45.97743" lon="3.87447">
        <ele>925</ele>
        <time>2022-05-01T09:55:23Z</time>
      </trkpt>
      <trkpt lat="45.9771" lon="3.87465">
        <ele>927</ele>
        <time>2022-05-01T09:55:29Z</time>
      </trkpt>
      <trkpt lat="45.97651" lon="3.87566">
        <ele>922</ele>
        <time>2022-05-01T09:55:45Z</time>
      </trkpt>
      <trkpt lat="45.97607" lon="3.87667">
        <ele>917</ele>
        <time>2022-05-01T09:56:00Z</time>
      </trkpt>
      <trkpt lat="45.97586" lon="3.87776">
        <ele>914</ele>
        <time>2022-05-01T09:56:14Z</time>
      </trkpt>
      <trkpt lat="45.97553" lon="3.87854">
        <ele>915</ele>
        <time>2022-05-01T09:56:25Z</time>
      </trkpt>
      <trkpt lat="45.97484" lon="3.87978">
        <ele>921</ele>
        <time>2022-05-01T09:56:45Z</time>
      </trkpt>
      <trkpt lat="45.97466" lon="3.88003">
        <ele>921</ele>
        <time>2022-05-01T09:56:49Z</time>
      </trkpt>
      <trkpt lat="45.9744" lon="3.88031">
        <ele>921</ele>
        <time>2022-05-01T09:56:55Z</time>
      </trkpt>
      <trkpt lat="45.97381" lon="3.88103">
        <ele>922</ele>
        <time>2022-05-01T09:57:09Z</time>
      </trkpt>
      <trkpt lat="45.97367" lon="3.88128">
        <ele>922</ele>
        <time>2022-05-01T09:57:13Z</time>
      </trkpt>
      <trkpt lat="45.97331" lon="3.88283">
        <ele>919</ele>
        <time>2022-05-01T09:57:33Z</time>
      </trkpt>
      <trkpt lat="45.97275" lon="3.88334">
        <ele>923</ele>
        <time>2022-05-01T09:57:45Z</time>
      </trkpt>
      <trkpt lat="45.97243" lon="3.88335">
        <ele>929</ele>
        <time>2022-05-01T09:57:51Z</time>
      </trkpt>
      <trkpt lat="45.97182" lon="3.88395">
        <ele>919</ele>
        <time>2022-05-01T09:58:04Z</time>
      </trkpt>
      <trkpt lat="45.97134" lon="3.8843">
        <ele>914</ele>
        <time>2022-05-01T09:58:13Z</time>
      </trkpt>
      <trkpt lat="45.97102" lon="3.88439">
        <ele>912</ele>
        <time>2022-05-01T09:58:19Z</time>
      </trkpt>
      <trkpt lat="45.97073" lon="3.88428">
        <ele>912</ele>
        <time>2022-05-01T09:58:24Z</time>
      </trkpt>
      <trkpt lat="45.97002" lon="3.88391">
        <ele>910</ele>
        <time>2022-05-01T09:58:38Z</time>
      </trkpt>
      <trkpt lat="45.96965" lon="3.88352">
        <ele>910</ele>
        <time>2022-05-01T09:58:46Z</time>
      </trkpt>
      <trkpt lat="45.96952" lon="3.88333">
        <ele>911</ele>
        <time>2022-05-01T09:58:49Z</time>
      </trkpt>
      <trkpt lat="45.96907" lon="3.8821">
        <ele>920</ele>
        <time>2022-05-01T09:59:07Z</time>
      </trkpt>
      <trkpt lat="45.96876" lon="3.88176">
        <ele>921</ele>
        <time>2022-05-01T09:59:13Z</time>
      </trkpt>
      <trkpt lat="45.9685" lon="3.8816">
        <ele>921</ele>
        <time>2022-05-01T09:59:19Z</time>
      </trkpt>
      <trkpt lat="45.96744" lon="3.88165">
        <ele>914</ele>
        <time>2022-05-01T09:59:37Z</time>
      </trkpt>
      <trkpt lat="45.96699" lon="3.8814">
        <ele>913</ele>
        <time>2022-05-01T09:59:46Z</time>
      </trkpt>
      <trkpt lat="45.9667" lon="3.88113">
        <ele>914</ele>
        <time>2022-05-01T09:59:52Z</time>
      </trkpt>
      <trkpt lat="45.96647" lon="3.88069">
        <ele>918</ele>
        <time>2022-05-01T09:59:59Z</time>
      </trkpt>
      <trkpt lat="45.96586" lon="3.8801">
        <ele>919</ele>
        <time>2022-05-01T10:00:12Z</time>
      </trkpt>
      <trkpt lat="45.9655" lon="3.87929">
        <ele>922</ele>
        <time>2022-05-01T10:00:24Z</time>
      </trkpt>
      <trkpt lat="45.96529" lon="3.87895">
        <ele>924</ele>
        <time>2022-05-01T10:00:30Z</time>
      </trkpt>
      <trkpt lat="45.96517" lon="3.87888">
        <ele>923</ele>
        <time>2022-05-01T10:00:32Z</time>
      </trkpt>
      <trkpt lat="45.9648" lon="3.8788">
        <ele>919</ele>
        <time>2022-05-01T10:00:38Z</time>
      </trkpt>
      <trkpt lat="45.96452" lon="3.87878">
        <ele>915</ele>
        <time>2022-05-01T10:00:43Z</time>
      </trkpt>
      <trkpt lat="45.96351" lon="3.87828">
        <ele>911</ele>
        <time>2022-05-01T10:01:02Z</time>
      </trkpt>
      <trkpt lat="45.96306" lon="3.87768">
        <ele>916</ele>
        <time>2022-05-01T10:01:13Z</time>
      </trkpt>
      <trkpt lat="45.96239" lon="3.87733">
        <ele>913</ele>
        <time>2022-05-01T10:01:26Z</time>
      </trkpt>
      <trkpt lat="45.96204" lon="3.87739">
        <ele>911</ele>
        <time>2022-05-01T10:01:32Z</time>
      </trkpt>
      <trkpt lat="45.96133" lon="3.87781">
        <ele>907</ele>
        <time>2022-05-01T10:01:46Z</time>
      </trkpt>
      <trkpt lat="45.96038" lon="3.87842">
        <ele>908</ele>
        <time>2022-05-01T10:02:05Z</time>
      </trkpt>
      <trkpt lat="45.9602" lon="3.87858">
        <ele>908</ele>
        <time>2022-05-01T10:02:08Z</time>
      </trkpt>
      <trkpt lat="45.9597" lon="3.87927">
        <ele>905</ele>
        <time>2022-05-01T10:02:21Z</time>
      </trkpt>
      <trkpt lat="45.95871" lon="3.88009">
        <ele>914</ele>
        <time>2022-05-01T10:02:41Z</time>
      </trkpt>
      <trkpt lat="45.95795" lon="3.88102">
        <ele>910</ele>
        <time>2022-05-01T10:02:59Z</time>
      </trkpt>
      <trkpt lat="45.95716" lon="3.88226">
        <ele>902</ele>
        <time>2022-05-01T10:03:19Z</time>
      </trkpt>
      <trkpt lat="45.95665" lon="3.8825">
        <ele>903</ele>
        <time>2022-05-01T10:03:29Z</time>
      </trkpt>
      <trkpt lat="45.95626" lon="3.88258">
        <ele>899</ele>
        <time>2022-05-01T10:03:36Z</time>
      </trkpt>
      <trkpt lat="45.95592" lon="3.88239">
        <ele>898</ele>
        <time>2022-05-01T10:03:43Z</time>
      </trkpt>
      <trkpt lat="45.95558" lon="3.8818">
        <ele>901</ele>
        <time>2022-05-01T10:03:52Z</time>
      </trkpt>
      <trkpt lat="45.95537" lon="3.88112">
        <ele>904</ele>
        <time>2022-05-01T10:04:01Z</time>
      </trkpt>
      <trkpt lat="45.95502" lon="3.88046">
        <ele>904</ele>
        <time>2022-05-01T10:04:11Z</time>
      </trkpt>
      <trkpt lat="45.95457" lon="3.87979">
        <ele>902</ele>
        <time>2022-05-01T10:04:23Z</time>
      </trkpt>
      <trkpt lat="45.95411" lon="3.8792">
        <ele>900</ele>
        <time>2022-05-01T10:04:34Z</time>
      </trkpt>
      <trkpt lat="45.95375" lon="3.87883">
        <ele>901</ele>
        <time>2022-05-01T10:04:42Z</time>
      </trkpt>
      <trkpt lat="45.95354" lon="3.87866">
        <ele>899</ele>
        <time>2022-05-01T10:04:46Z</time>
      </trkpt>
      <trkpt lat="45.95339" lon="3.8787">
        <ele>895</ele>
        <time>2022-05-01T10:04:49Z</time>
      </trkpt>
      <trkpt lat="45.95188" lon="3.87649">
        <ele>900</ele>
        <time>2022-05-01T10:05:27Z</time>
      </trkpt>
      <trkpt lat="45.95149" lon="3.87598">
        <ele>901</ele>
        <time>2022-05-01T10:05:37Z</time>
      </trkpt>
      <trkpt lat="45.95125" lon="3.87581">
        <ele>900</ele>
        <time>2022-05-01T10:05:41Z</time>
      </trkpt>
      <trkpt lat="45.95096" lon="3.87581">
        <ele>897</ele>
        <time>2022-05-01T10:05:46Z</time>
      </trkpt>
      <trkpt lat="45.9507" lon="3.87598">
        <ele>896</ele>
        <time>2022-05-01T10:05:52Z</time>
      </trkpt>
      <trkpt lat="45.95053" lon="3.87621">
        <ele>896</ele>
        <time>2022-05-01T10:05:56Z</time>
      </trkpt>
      <trkpt lat="45.95043" lon="3.87653">
        <ele>896</ele>
        <time>2022-05-01T10:06:00Z</time>
      </trkpt>
      <trkpt lat="45.95023" lon="3.87794">
        <ele>893</ele>
        <time>2022-05-01T10:06:18Z</time>
      </trkpt>
      <trkpt lat="45.9501" lon="3.87824">
        <ele>894</ele>
        <time>2022-05-01T10:06:22Z</time>
      </trkpt>
      <trkpt lat="45.94987" lon="3.87854">
        <ele>895</ele>
        <time>2022-05-01T10:06:28Z</time>
      </trkpt>
      <trkpt lat="45.94959" lon="3.87871">
        <ele>896</ele>
        <time>2022-05-01T10:06:33Z</time>
      </trkpt>
      <trkpt lat="45.94925" lon="3.87871">
        <ele>899</ele>
        <time>2022-05-01T10:06:39Z</time>
      </trkpt>
      <trkpt lat="45.94899" lon="3.8786">
        <ele>900</ele>
        <time>2022-05-01T10:06:44Z</time>
      </trkpt>
      <trkpt lat="45.94763" lon="3.87749">
        <ele>913</ele>
        <time>2022-05-01T10:07:12Z</time>
      </trkpt>
      <trkpt lat="45.94653" lon="3.87684">
        <ele>915</ele>
        <time>2022-05-01T10:07:33Z</time>
      </trkpt>
      <trkpt lat="45.94632" lon="3.87658">
        <ele>914</ele>
        <time>2022-05-01T10:07:38Z</time>
      </trkpt>
      <trkpt lat="45.94556" lon="3.8752">
        <ele>917</ele>
        <time>2022-05-01T10:08:00Z</time>
      </trkpt>
      <trkpt lat="45.94517" lon="3.87483">
        <ele>916</ele>
        <time>2022-05-01T10:08:08Z</time>
      </trkpt>
      <trkpt lat="45.94415" lon="3.87407">
        <ele>917</ele>
        <time>2022-05-01T10:08:28Z</time>
      </trkpt>
      <trkpt lat="45.94368" lon="3.87367">
        <ele>913</ele>
        <time>2022-05-01T10:08:38Z</time>
      </trkpt>
      <trkpt lat="45.94341" lon="3.87326">
        <ele>909</ele>
        <time>2022-05-01T10:08:45Z</time>
      </trkpt>
      <trkpt lat="45.94319" lon="3.87282">
        <ele>906</ele>
        <time>2022-05-01T10:08:52Z</time>
      </trkpt>
      <trkpt lat="45.94296" lon="3.87205">
        <ele>901</ele>
        <time>2022-05-01T10:09:02Z</time>
      </trkpt>
      <trkpt lat="45.9427" lon="3.87025">
        <ele>885</ele>
        <time>2022-05-01T10:09:25Z</time>
      </trkpt>
      <trkpt lat="45.94249" lon="3.86977">
        <ele>880</ele>
        <time>2022-05-01T10:09:32Z</time>
      </trkpt>
      <trkpt lat="45.9423" lon="3.86944">
        <ele>878</ele>
        <time>2022-05-01T10:09:37Z</time>
      </trkpt>
      <trkpt lat="45.9419" lon="3.86897">
        <ele>877</ele>
        <time>2022-05-01T10:09:47Z</time>
      </trkpt>
      <trkpt lat="45.94155" lon="3.86876">
        <ele>876</ele>
        <time>2022-05-01T10:09:53Z</time>
      </trkpt>
      <trkpt lat="45.93723" lon="3.8674">
        <ele>855</ele>
        <time>2022-05-01T10:11:12Z</time>
      </trkpt>
      <trkpt lat="45.93624" lon="3.86706">
        <ele>848</ele>
        <time>2022-05-01T10:11:30Z</time>
      </trkpt>
      <trkpt lat="45.93572" lon="3.86678">
        <ele>843</ele>
        <time>2022-05-01T10:11:40Z</time>
      </trkpt>
      <trkpt lat="45.93521" lon="3.86629">
        <ele>838</ele>
        <time>2022-05-01T10:11:51Z</time>
      </trkpt>
      <trkpt lat="45.93473" lon="3.86566">
        <ele>834</ele>
        <time>2022-05-01T10:12:02Z</time>
      </trkpt>
      <trkpt lat="45.93299" lon="3.8627">
        <ele>816</ele>
        <time>2022-05-01T10:12:50Z</time>
      </trkpt>
      <trkpt lat="45.93265" lon="3.86222">
        <ele>812</ele>
        <time>2022-05-01T10:12:59Z</time>
      </trkpt>
      <trkpt lat="45.93235" lon="3.86205">
        <ele>810</ele>
        <time>2022-05-01T10:13:05Z</time>
      </trkpt>
      <trkpt lat="45.93163" lon="3.86205">
        <ele>809</ele>
        <time>2022-05-01T10:13:17Z</time>
      </trkpt>
      <trkpt lat="45.93144" lon="3.86202">
        <ele>809</ele>
        <time>2022-05-01T10:13:21Z</time>
      </trkpt>
      <trkpt lat="45.93111" lon="3.86173">
        <ele>806</ele>
        <time>2022-05-01T10:13:28Z</time>
      </trkpt>
      <trkpt lat="45.93091" lon="3.86129">
        <ele>804</ele>
        <time>2022-05-01T10:13:34Z</time>
      </trkpt>
      <trkpt lat="45.93086" lon="3.86081">
        <ele>802</ele>
        <time>2022-05-01T10:13:40Z</time>
      </trkpt>
      <trkpt lat="45.93125" lon="3.8589">
        <ele>793</ele>
        <time>2022-05-01T10:14:05Z</time>
      </trkpt>
      <trkpt lat="45.93127" lon="3.85842">
        <ele>791</ele>
        <time>2022-05-01T10:14:11Z</time>
      </trkpt>
      <trkpt lat="45.93118" lon="3.8581">
        <ele>788</ele>
        <time>2022-05-01T10:14:15Z</time>
      </trkpt>
      <trkpt lat="45.93106" lon="3.85788">
        <ele>787</ele>
        <time>2022-05-01T10:14:19Z</time>
      </trkpt>
      <trkpt lat="45.93033" lon="3.85702">
        <ele>790</ele>
        <time>2022-05-01T10:14:35Z</time>
      </trkpt>
      <trkpt lat="45.93011" lon="3.85669">
        <ele>790</ele>
        <time>2022-05-01T10:14:41Z</time>
      </trkpt>
      <trkpt lat="45.92998" lon="3.85635">
        <ele>790</ele>
        <time>2022-05-01T10:14:46Z</time>
      </trkpt>
      <trkpt lat="45.92988" lon="3.85597">
        <ele>789</ele>
        <time>2022-05-01T10:14:51Z</time>
      </trkpt>
      <trkpt lat="45.92989" lon="3.85567">
        <ele>786</ele>
        <time>2022-05-01T10:14:55Z</time>
      </trkpt>
      <trkpt lat="45.92994" lon="3.85527">
        <ele>782</ele>
        <time>2022-05-01T10:15:00Z</time>
      </trkpt>
      <trkpt lat="45.93012" lon="3.85457">
        <ele>771</ele>
        <time>2022-05-01T10:15:09Z</time>
      </trkpt>
      <trkpt lat="45.93013" lon="3.85436">
        <ele>769</ele>
        <time>2022-05-01T10:15:11Z</time>
      </trkpt>
      <trkpt lat="45.93008" lon="3.85412">
        <ele>768</ele>
        <time>2022-05-01T10:15:14Z</time>
      </trkpt>
      <trkpt lat="45.93" lon="3.85398">
        <ele>767</ele>
        <time>2022-05-01T10:15:17Z</time>
      </trkpt>
      <trkpt lat="45.9299" lon="3.85385">
        <ele>766</ele>
        <time>2022-05-01T10:15:19Z</time>
      </trkpt>
      <trkpt lat="45.92938" lon="3.85352">
        <ele>764</ele>
        <time>2022-05-01T10:15:29Z</time>
      </trkpt>
      <trkpt lat="45.9292" lon="3.85346">
        <ele>765</ele>
        <time>2022-05-01T10:15:33Z</time>
      </trkpt>
      <trkpt lat="45.92883" lon="3.8534">
        <ele>769</ele>
        <time>2022-05-01T10:15:39Z</time>
      </trkpt>
      <trkpt lat="45.92866" lon="3.85331">
        <ele>771</ele>
        <time>2022-05-01T10:15:42Z</time>
      </trkpt>
      <trkpt lat="45.92853" lon="3.85319">
        <ele>770</ele>
        <time>2022-05-01T10:15:45Z</time>
      </trkpt>
      <trkpt lat="45.92843" lon="3.85305">
        <ele>768</ele>
        <time>2022-05-01T10:15:48Z</time>
      </trkpt>
      <trkpt lat="45.92803" lon="3.85219">
        <ele>758</ele>
        <time>2022-05-01T10:16:00Z</time>
      </trkpt>
      <trkpt lat="45.92743" lon="3.85135">
        <ele>756</ele>
        <time>2022-05-01T10:16:15Z</time>
      </trkpt>
      <trkpt lat="45.92703" lon="3.85058">
        <ele>750</ele>
        <time>2022-05-01T10:16:27Z</time>
      </trkpt>
      <trkpt lat="45.92629" lon="3.84934">
        <ele>744</ele>
        <time>2022-05-01T10:16:47Z</time>
      </trkpt>
      <trkpt lat="45.9258" lon="3.84872">
        <ele>738</ele>
        <time>2022-05-01T10:16:59Z</time>
      </trkpt>
      <trkpt lat="45.92537" lon="3.84825">
        <ele>732</ele>
        <time>2022-05-01T10:17:09Z</time>
      </trkpt>
      <trkpt lat="45.92458" lon="3.84785">
        <ele>733</ele>
        <time>2022-05-01T10:17:24Z</time>
      </trkpt>
      <trkpt lat="45.92438" lon="3.8477">
        <ele>733</ele>
        <time>2022-05-01T10:17:28Z</time>
      </trkpt>
      <trkpt lat="45.92419" lon="3.84749">
        <ele>731</ele>
        <time>2022-05-01T10:17:32Z</time>
      </trkpt>
      <trkpt lat="45.92374" lon="3.8468">
        <ele>720</ele>
        <time>2022-05-01T10:17:44Z</time>
      </trkpt>
      <trkpt lat="45.92357" lon="3.84662">
        <ele>718</ele>
        <time>2022-05-01T10:17:47Z</time>
      </trkpt>
      <trkpt lat="45.92335" lon="3.84644">
        <ele>717</ele>
        <time>2022-05-01T10:17:52Z</time>
      </trkpt>
      <trkpt lat="45.92289" lon="3.84613">
        <ele>712</ele>
        <time>2022-05-01T10:18:01Z</time>
      </trkpt>
      <trkpt lat="45.92252" lon="3.84596">
        <ele>710</ele>
        <time>2022-05-01T10:18:08Z</time>
      </trkpt>
      <trkpt lat="45.92212" lon="3.84585">
        <ele>706</ele>
        <time>2022-05-01T10:18:15Z</time>
      </trkpt>
      <trkpt lat="45.92137" lon="3.84578">
        <ele>702</ele>
        <time>2022-05-01T10:18:28Z</time>
      </trkpt>
      <trkpt lat="45.92071" lon="3.84558">
        <ele>697</ele>
        <time>2022-05-01T10:18:40Z</time>
      </trkpt>
      <trkpt lat="45.9203" lon="3.84543">
        <ele>692</ele>
        <time>2022-05-01T10:18:48Z</time>
      </trkpt>
      <trkpt lat="45.92007" lon="3.84539">
        <ele>690</ele>
        <time>2022-05-01T10:18:52Z</time>
      </trkpt>
      <trkpt lat="45.91929" lon="3.84546">
        <ele>687</ele>
        <time>2022-05-01T10:19:06Z</time>
      </trkpt>
      <trkpt lat="45.91908" lon="3.84543">
        <ele>686</ele>
        <time>2022-05-01T10:19:10Z</time>
      </trkpt>
      <trkpt lat="45.91783" lon="3.84432">
        <ele>674</ele>
        <time>2022-05-01T10:19:36Z</time>
      </trkpt>
      <trkpt lat="45.91763" lon="3.84419">
        <ele>673</ele>
        <time>2022-05-01T10:19:40Z</time>
      </trkpt>
      <trkpt lat="45.91748" lon="3.84417">
        <ele>673</ele>
        <time>2022-05-01T10:19:42Z</time>
      </trkpt>
      <trkpt lat="45.91721" lon="3.84425">
        <ele>671</ele>
        <time>2022-05-01T10:19:47Z</time>
      </trkpt>
      <trkpt lat="45.91632" lon="3.84482">
        <ele>669</ele>
        <time>2022-05-01T10:20:05Z</time>
      </trkpt>
      <trkpt lat="45.91542" lon="3.84531">
        <ele>662</ele>
        <time>2022-05-01T10:20:22Z</time>
      </trkpt>
      <trkpt lat="45.91513" lon="3.84587">
        <ele>663</ele>
        <time>2022-05-01T10:20:30Z</time>
      </trkpt>
      <trkpt lat="45.91478" lon="3.84663">
        <ele>659</ele>
        <time>2022-05-01T10:20:42Z</time>
      </trkpt>
      <trkpt lat="45.91466" lon="3.84682">
        <ele>658</ele>
        <time>2022-05-01T10:20:45Z</time>
      </trkpt>
      <trkpt lat="45.91456" lon="3.8469">
        <ele>657</ele>
        <time>2022-05-01T10:20:47Z</time>
      </trkpt>
      <trkpt lat="45.91449" lon="3.8469">
        <ele>656</ele>
        <time>2022-05-01T10:20:48Z</time>
      </trkpt>
      <trkpt lat="45.91428" lon="3.84675">
        <ele>653</ele>
        <time>2022-05-01T10:20:52Z</time>
      </trkpt>
      <trkpt lat="45.91442" lon="3.84606">
        <ele>654</ele>
        <time>2022-05-01T10:21:01Z</time>
      </trkpt>
      <trkpt lat="45.91464" lon="3.8433">
        <ele>634</ele>
        <time>2022-05-01T10:21:36Z</time>
      </trkpt>
      <trkpt lat="45.91456" lon="3.84279">
        <ele>630</ele>
        <time>2022-05-01T10:21:42Z</time>
      </trkpt>
      <trkpt lat="45.91388" lon="3.84247">
        <ele>620</ele>
        <time>2022-05-01T10:21:55Z</time>
      </trkpt>
      <trkpt lat="45.91254" lon="3.84167">
        <ele>603</ele>
        <time>2022-05-01T10:22:21Z</time>
      </trkpt>
      <trkpt lat="45.91193" lon="3.84139">
        <ele>601</ele>
        <time>2022-05-01T10:22:32Z</time>
      </trkpt>
      <trkpt lat="45.9103" lon="3.84053">
        <ele>597</ele>
        <time>2022-05-01T10:23:03Z</time>
      </trkpt>
      <trkpt lat="45.91034" lon="3.84117">
        <ele>599</ele>
        <time>2022-05-01T10:23:11Z</time>
      </trkpt>
      <trkpt lat="45.90978" lon="3.84254">
        <ele>606</ele>
        <time>2022-05-01T10:23:31Z</time>
      </trkpt>
      <trkpt lat="45.90946" lon="3.84324">
        <ele>611</ele>
        <time>2022-05-01T10:23:41Z</time>
      </trkpt>
      <trkpt lat="45.90906" lon="3.84346">
        <ele>611</ele>
        <time>2022-05-01T10:23:49Z</time>
      </trkpt>
      <trkpt lat="45.90897" lon="3.84336">
        <ele>610</ele>
        <time>2022-05-01T10:23:51Z</time>
      </trkpt>
      <trkpt lat="45.9081" lon="3.84274">
        <ele>601</ele>
        <time>2022-05-01T10:24:08Z</time>
      </trkpt>
      <trkpt lat="45.90745" lon="3.84248">
        <ele>599</ele>
        <time>2022-05-01T10:24:20Z</time>
      </trkpt>
      <trkpt lat="45.90693" lon="3.84251">
        <ele>598</ele>
        <time>2022-05-01T10:24:29Z</time>
      </trkpt>
      <trkpt lat="45.90641" lon="3.84268">
        <ele>596</ele>
        <time>2022-05-01T10:24:39Z</time>
      </trkpt>
      <trkpt lat="45.90589" lon="3.84307">
        <ele>593</ele>
        <time>2022-05-01T10:24:49Z</time>
      </trkpt>
      <trkpt lat="45.90566" lon="3.84334">
        <ele>594</ele>
        <time>2022-05-01T10:24:54Z</time>
      </trkpt>
      <trkpt lat="45.90547" lon="3.84362">
        <ele>596</ele>
        <time>2022-05-01T10:24:59Z</time>
      </trkpt>
      <trkpt lat="45.90496" lon="3.84464">
        <ele>597</ele>
        <time>2022-05-01T10:25:15Z</time>
      </trkpt>
      <trkpt lat="45.90451" lon="3.84517">
        <ele>599</ele>
        <time>2022-05-01T10:25:25Z</time>
      </trkpt>
      <trkpt lat="45.90425" lon="3.84539">
        <ele>600</ele>
        <time>2022-05-01T10:25:30Z</time>
      </trkpt>
      <trkpt lat="45.90394" lon="3.84555">
        <ele>600</ele>
        <time>2022-05-01T10:25:36Z</time>
      </trkpt>
      <trkpt lat="45.90306" lon="3.8458">
        <ele>601</ele>
        <time>2022-05-01T10:25:52Z</time>
      </trkpt>
      <trkpt lat="45.90101" lon="3.84624">
        <ele>609</ele>
        <time>2022-05-01T10:26:29Z</time>
      </trkpt>
      <trkpt lat="45.89999" lon="3.84655">
        <ele>616</ele>
        <time>2022-05-01T10:26:48Z</time>
      </trkpt>
      <trkpt lat="45.89842" lon="3.84729">
        <ele>628</ele>
        <time>2022-05-01T10:27:17Z</time>
      </trkpt>
      <trkpt lat="45.89778" lon="3.84755">
        <ele>630</ele>
        <time>2022-05-01T10:27:29Z</time>
      </trkpt>
      <trkpt lat="45.89732" lon="3.84768">
        <ele>628</ele>
        <time>2022-05-01T10:27:37Z</time>
      </trkpt>
      <trkpt lat="45.89688" lon="3.84769">
        <ele>625</ele>
        <time>2022-05-01T10:27:45Z</time>
      </trkpt>
      <trkpt lat="45.89642" lon="3.84762">
        <ele>624</ele>
        <time>2022-05-01T10:27:53Z</time>
      </trkpt>
      <trkpt lat="45.89612" lon="3.84753">
        <ele>623</ele>
        <time>2022-05-01T10:27:59Z</time>
      </trkpt>
      <trkpt lat="45.89569" lon="3.84734">
        <ele>622</ele>
        <time>2022-05-01T10:28:07Z</time>
      </trkpt>
      <trkpt lat="45.89529" lon="3.84709">
        <ele>618</ele>
        <time>2022-05-01T10:28:15Z</time>
      </trkpt>
      <trkpt lat="45.89477" lon="3.8466">
        <ele>612</ele>
        <time>2022-05-01T10:28:26Z</time>
      </trkpt>
      <trkpt lat="45.89434" lon="3.84605">
        <ele>606</ele>
        <time>2022-05-01T10:28:36Z</time>
      </trkpt>
      <trkpt lat="45.89354" lon="3.84463">
        <ele>598</ele>
        <time>2022-05-01T10:28:58Z</time>
      </trkpt>
      <trkpt lat="45.89313" lon="3.84423">
        <ele>600</ele>
        <time>2022-05-01T10:29:07Z</time>
      </trkpt>
      <trkpt lat="45.89279" lon="3.84404">
        <ele>602</ele>
        <time>2022-05-01T10:29:14Z</time>
      </trkpt>
      <trkpt lat="45.89037" lon="3.84322">
        <ele>604</ele>
        <time>2022-05-01T10:29:58Z</time>
      </trkpt>
      <trkpt lat="45.88996" lon="3.84317">
        <ele>603</ele>
        <time>2022-05-01T10:30:05Z</time>
      </trkpt>
      <trkpt lat="45.88948" lon="3.84325">
        <ele>604</ele>
        <time>2022-05-01T10:30:14Z</time>
      </trkpt>
      <trkpt lat="45.88739" lon="3.84409">
        <ele>606</ele>
        <time>2022-05-01T10:30:53Z</time>
      </trkpt>
      <trkpt lat="45.88675" lon="3.84414">
        <ele>606</ele>
        <time>2022-05-01T10:31:04Z</time>
      </trkpt>
      <trkpt lat="45.88575" lon="3.84403">
        <ele>607</ele>
        <time>2022-05-01T10:31:22Z</time>
      </trkpt>
      <trkpt lat="45.88376" lon="3.84368">
        <ele>613</ele>
        <time>2022-05-01T10:31:57Z</time>
      </trkpt>
      <trkpt lat="45.88303" lon="3.8435">
        <ele>615</ele>
        <time>2022-05-01T10:32:11Z</time>
      </trkpt>
      <trkpt lat="45.88225" lon="3.84298">
        <ele>618</ele>
        <time>2022-05-01T10:32:26Z</time>
      </trkpt>
      <trkpt lat="45.88126" lon="3.84191">
        <ele>624</ele>
        <time>2022-05-01T10:32:48Z</time>
      </trkpt>
      <trkpt lat="45.88094" lon="3.8416">
        <ele>626</ele>
        <time>2022-05-01T10:32:55Z</time>
      </trkpt>
      <trkpt lat="45.88066" lon="3.84138">
        <ele>627</ele>
        <time>2022-05-01T10:33:01Z</time>
      </trkpt>
      <trkpt lat="45.88032" lon="3.84117">
        <ele>628</ele>
        <time>2022-05-01T10:33:07Z</time>
      </trkpt>
      <trkpt lat="45.87976" lon="3.8409">
        <ele>629</ele>
        <time>2022-05-01T10:33:18Z</time>
      </trkpt>
      <trkpt lat="45.87883" lon="3.84056">
        <ele>632</ele>
        <time>2022-05-01T10:33:35Z</time>
      </trkpt>
      <trkpt lat="45.87848" lon="3.84039">
        <ele>633</ele>
        <time>2022-05-01T10:33:41Z</time>
      </trkpt>
      <trkpt lat="45.87799" lon="3.84006">
        <ele>632</ele>
        <time>2022-05-01T10:33:51Z</time>
      </trkpt>
      <trkpt lat="45.87748" lon="3.83959">
        <ele>631</ele>
        <time>2022-05-01T10:34:02Z</time>
      </trkpt>
      <trkpt lat="45.87669" lon="3.83858">
        <ele>633</ele>
        <time>2022-05-01T10:34:21Z</time>
      </trkpt>
      <trkpt lat="45.87619" lon="3.83803">
        <ele>637</ele>
        <time>2022-05-01T10:34:32Z</time>
      </trkpt>
      <trkpt lat="45.87547" lon="3.83732">
        <ele>642</ele>
        <time>2022-05-01T10:34:47Z</time>
      </trkpt>
      <trkpt lat="45.8746" lon="3.83666">
        <ele>642</ele>
        <time>2022-05-01T10:35:05Z</time>
      </trkpt>
      <trkpt lat="45.87371" lon="3.83591">
        <ele>640</ele>
        <time>2022-05-01T10:35:23Z</time>
      </trkpt>
      <trkpt lat="45.87342" lon="3.83555">
        <ele>639</ele>
        <time>2022-05-01T10:35:30Z</time>
      </trkpt>
      <trkpt lat="45.8732" lon="3.8352">
        <ele>640</ele>
        <time>2022-05-01T10:35:36Z</time>
      </trkpt>
      <trkpt lat="45.87302" lon="3.83478">
        <ele>640</ele>
        <time>2022-05-01T10:35:42Z</time>
      </trkpt>
      <trkpt lat="45.87288" lon="3.83432">
        <ele>640</ele>
        <time>2022-05-01T10:35:48Z</time>
      </trkpt>
      <trkpt lat="45.87281" lon="3.83387">
        <ele>639</ele>
        <time>2022-05-01T10:35:54Z</time>
      </trkpt>
      <trkpt lat="45.87264" lon="3.83232">
        <ele>639</ele>
        <time>2022-05-01T10:36:13Z</time>
      </trkpt>
      <trkpt lat="45.87255" lon="3.83196">
        <ele>639</ele>
        <time>2022-05-01T10:36:18Z</time>
      </trkpt>
      <trkpt lat="45.87236" lon="3.83145">
        <ele>639</ele>
        <time>2022-05-01T10:36:25Z</time>
      </trkpt>
      <trkpt lat="45.87218" lon="3.83111">
        <ele>640</ele>
        <time>2022-05-01T10:36:30Z</time>
      </trkpt>
      <trkpt lat="45.87204" lon="3.8309">
        <ele>640</ele>
        <time>2022-05-01T10:36:34Z</time>
      </trkpt>
      <trkpt lat="45.8716" lon="3.83041">
        <ele>641</ele>
        <time>2022-05-01T10:36:44Z</time>
      </trkpt>
      <trkpt lat="45.87128" lon="3.83018">
        <ele>641</ele>
        <time>2022-05-01T10:36:50Z</time>
      </trkpt>
      <trkpt lat="45.8709" lon="3.83004">
        <ele>641</ele>
        <time>2022-05-01T10:36:57Z</time>
      </trkpt>
      <trkpt lat="45.86919" lon="3.82955">
        <ele>645</ele>
        <time>2022-05-01T10:37:28Z</time>
      </trkpt>
      <trkpt lat="45.8687" lon="3.82933">
        <ele>646</ele>
        <time>2022-05-01T10:37:37Z</time>
      </trkpt>
      <trkpt lat="45.86832" lon="3.82912">
        <ele>647</ele>
        <time>2022-05-01T10:37:45Z</time>
      </trkpt>
      <trkpt lat="45.86798" lon="3.82887">
        <ele>650</ele>
        <time>2022-05-01T10:37:52Z</time>
      </trkpt>
      <trkpt lat="45.86767" lon="3.8286">
        <ele>653</ele>
        <time>2022-05-01T10:37:58Z</time>
      </trkpt>
      <trkpt lat="45.86749" lon="3.82889">
        <ele>652</ele>
        <time>2022-05-01T10:38:03Z</time>
      </trkpt>
      <trkpt lat="45.86717" lon="3.82921">
        <ele>652</ele>
        <time>2022-05-01T10:38:10Z</time>
      </trkpt>
      <trkpt lat="45.8669" lon="3.82934">
        <ele>653</ele>
        <time>2022-05-01T10:38:15Z</time>
      </trkpt>
      <trkpt lat="45.86667" lon="3.82936">
        <ele>654</ele>
        <time>2022-05-01T10:38:19Z</time>
      </trkpt>
      <trkpt lat="45.86619" lon="3.82928">
        <ele>657</ele>
        <time>2022-05-01T10:38:27Z</time>
      </trkpt>
      <trkpt lat="45.86603" lon="3.82935">
        <ele>657</ele>
        <time>2022-05-01T10:38:30Z</time>
      </trkpt>
      <trkpt lat="45.86589" lon="3.82948">
        <ele>658</ele>
        <time>2022-05-01T10:38:33Z</time>
      </trkpt>
      <trkpt lat="45.86563" lon="3.8298">
        <ele>658</ele>
        <time>2022-05-01T10:38:40Z</time>
      </trkpt>
      <trkpt lat="45.8654" lon="3.83002">
        <ele>659</ele>
        <time>2022-05-01T10:38:44Z</time>
      </trkpt>
      <trkpt lat="45.86516" lon="3.83014">
        <ele>659</ele>
        <time>2022-05-01T10:38:49Z</time>
      </trkpt>
      <trkpt lat="45.8647" lon="3.83024">
        <ele>661</ele>
        <time>2022-05-01T10:38:57Z</time>
      </trkpt>
      <trkpt lat="45.86256" lon="3.83037">
        <ele>670</ele>
        <time>2022-05-01T10:39:35Z</time>
      </trkpt>
      <trkpt lat="45.86232" lon="3.83032">
        <ele>671</ele>
        <time>2022-05-01T10:39:40Z</time>
      </trkpt>
      <trkpt lat="45.86142" lon="3.82998">
        <ele>678</ele>
        <time>2022-05-01T10:39:56Z</time>
      </trkpt>
      <trkpt lat="45.8613" lon="3.83">
        <ele>679</ele>
        <time>2022-05-01T10:39:58Z</time>
      </trkpt>
      <trkpt lat="45.86121" lon="3.83008">
        <ele>679</ele>
        <time>2022-05-01T10:40:00Z</time>
      </trkpt>
      <trkpt lat="45.86114" lon="3.83027">
        <ele>679</ele>
        <time>2022-05-01T10:40:03Z</time>
      </trkpt>
      <trkpt lat="45.86113" lon="3.83045">
        <ele>679</ele>
        <time>2022-05-01T10:40:05Z</time>
      </trkpt>
      <trkpt lat="45.86121" lon="3.83065">
        <ele>678</ele>
        <time>2022-05-01T10:40:08Z</time>
      </trkpt>
      <trkpt lat="45.86153" lon="3.83105">
        <ele>676</ele>
        <time>2022-05-01T10:40:16Z</time>
      </trkpt>
      <trkpt lat="45.86159" lon="3.83127">
        <ele>678</ele>
        <time>2022-05-01T10:40:18Z</time>
      </trkpt>
      <trkpt lat="45.8616" lon="3.83184">
        <ele>682</ele>
        <time>2022-05-01T10:40:26Z</time>
      </trkpt>
      <trkpt lat="45.86164" lon="3.83217">
        <ele>682</ele>
        <time>2022-05-01T10:40:30Z</time>
      </trkpt>
      <trkpt lat="45.86186" lon="3.83296">
        <ele>683</ele>
        <time>2022-05-01T10:40:40Z</time>
      </trkpt>
      <trkpt lat="45.86185" lon="3.83323">
        <ele>684</ele>
        <time>2022-05-01T10:40:44Z</time>
      </trkpt>
      <trkpt lat="45.86179" lon="3.83345">
        <ele>685</ele>
        <time>2022-05-01T10:40:47Z</time>
      </trkpt>
      <trkpt lat="45.86138" lon="3.83425">
        <ele>687</ele>
        <time>2022-05-01T10:40:59Z</time>
      </trkpt>
      <trkpt lat="45.86125" lon="3.83439">
        <ele>689</ele>
        <time>2022-05-01T10:41:02Z</time>
      </trkpt>
      <trkpt lat="45.86111" lon="3.83449">
        <ele>690</ele>
        <time>2022-05-01T10:41:05Z</time>
      </trkpt>
      <trkpt lat="45.86058" lon="3.83467">
        <ele>695</ele>
        <time>2022-05-01T10:41:14Z</time>
      </trkpt>
      <trkpt lat="45.86044" lon="3.83475">
        <ele>697</ele>
        <time>2022-05-01T10:41:17Z</time>
      </trkpt>
      <trkpt lat="45.8598" lon="3.83527">
        <ele>701</ele>
        <time>2022-05-01T10:41:30Z</time>
      </trkpt>
      <trkpt lat="45.85945" lon="3.83565">
        <ele>702</ele>
        <time>2022-05-01T10:41:38Z</time>
      </trkpt>
      <trkpt lat="45.85933" lon="3.83586">
        <ele>701</ele>
        <time>2022-05-01T10:41:41Z</time>
      </trkpt>
      <trkpt lat="45.85923" lon="3.83619">
        <ele>702</ele>
        <time>2022-05-01T10:41:46Z</time>
      </trkpt>
      <trkpt lat="45.85863" lon="3.83862">
        <ele>706</ele>
        <time>2022-05-01T10:42:18Z</time>
      </trkpt>
      <trkpt lat="45.85855" lon="3.83878">
        <ele>706</ele>
        <time>2022-05-01T10:42:20Z</time>
      </trkpt>
      <trkpt lat="45.8584" lon="3.83888">
        <ele>706</ele>
        <time>2022-05-01T10:42:23Z</time>
      </trkpt>
      <trkpt lat="45.85823" lon="3.83888">
        <ele>706</ele>
        <time>2022-05-01T10:42:26Z</time>
      </trkpt>
      <trkpt lat="45.85809" lon="3.83879">
        <ele>706</ele>
        <time>2022-05-01T10:42:29Z</time>
      </trkpt>
      <trkpt lat="45.85801" lon="3.83859">
        <ele>707</ele>
        <time>2022-05-01T10:42:32Z</time>
      </trkpt>
      <trkpt lat="45.85766" lon="3.83682">
        <ele>716</ele>
        <time>2022-05-01T10:42:54Z</time>
      </trkpt>
      <trkpt lat="45.85749" lon="3.83611">
        <ele>721</ele>
        <time>2022-05-01T10:43:04Z</time>
      </trkpt>
      <trkpt lat="45.85731" lon="3.83555">
        <ele>724</ele>
        <time>2022-05-01T10:43:11Z</time>
      </trkpt>
      <trkpt lat="45.85705" lon="3.83489">
        <ele>726</ele>
        <time>2022-05-01T10:43:21Z</time>
      </trkpt>
      <trkpt lat="45.85701" lon="3.83472">
        <ele>725</ele>
        <time>2022-05-01T10:43:23Z</time>
      </trkpt>
      <trkpt lat="45.85699" lon="3.83448">
        <ele>724</ele>
        <time>2022-05-01T10:43:26Z</time>
      </trkpt>
      <trkpt lat="45.85705" lon="3.83343">
        <ele>718</ele>
        <time>2022-05-01T10:43:39Z</time>
      </trkpt>
      <trkpt lat="45.85703" lon="3.83322">
        <ele>717</ele>
        <time>2022-05-01T10:43:42Z</time>
      </trkpt>
      <trkpt lat="45.85695" lon="3.83295">
        <ele>716</ele>
        <time>2022-05-01T10:43:45Z</time>
      </trkpt>
      <trkpt lat="45.85677" lon="3.83252">
        <ele>715</ele>
        <time>2022-05-01T10:43:51Z</time>
      </trkpt>
      <trkpt lat="45.85668" lon="3.83256">
        <ele>714</ele>
        <time>2022-05-01T10:43:53Z</time>
      </trkpt>
      <trkpt lat="45.8565" lon="3.83255">
        <ele>713</ele>
        <time>2022-05-01T10:43:56Z</time>
      </trkpt>
      <trkpt lat="45.85609" lon="3.83241">
        <ele>709</ele>
        <time>2022-05-01T10:44:04Z</time>
      </trkpt>
      <trkpt lat="45.85518" lon="3.83181">
        <ele>708</ele>
        <time>2022-05-01T10:44:22Z</time>
      </trkpt>
      <trkpt lat="45.85498" lon="3.83171">
        <ele>709</ele>
        <time>2022-05-01T10:44:25Z</time>
      </trkpt>
      <trkpt lat="45.8549" lon="3.83173">
        <ele>710</ele>
        <time>2022-05-01T10:44:27Z</time>
      </trkpt>
      <trkpt lat="45.85477" lon="3.83188">
        <ele>710</ele>
        <time>2022-05-01T10:44:30Z</time>
      </trkpt>
      <trkpt lat="45.85431" lon="3.83249">
        <ele>707</ele>
        <time>2022-05-01T10:44:41Z</time>
      </trkpt>
      <trkpt lat="45.85399" lon="3.83267">
        <ele>706</ele>
        <time>2022-05-01T10:44:47Z</time>
      </trkpt>
      <trkpt lat="45.85365" lon="3.8327">
        <ele>707</ele>
        <time>2022-05-01T10:44:53Z</time>
      </trkpt>
      <trkpt lat="45.8531" lon="3.83252">
        <ele>712</ele>
        <time>2022-05-01T10:45:03Z</time>
      </trkpt>
      <trkpt lat="45.8529" lon="3.8325">
        <ele>714</ele>
        <time>2022-05-01T10:45:07Z</time>
      </trkpt>
      <trkpt lat="45.85278" lon="3.83255">
        <ele>714</ele>
        <time>2022-05-01T10:45:09Z</time>
      </trkpt>
      <trkpt lat="45.85245" lon="3.83286">
        <ele>713</ele>
        <time>2022-05-01T10:45:16Z</time>
      </trkpt>
      <trkpt lat="45.85169" lon="3.83318">
        <ele>713</ele>
        <time>2022-05-01T10:45:30Z</time>
      </trkpt>
      <trkpt lat="45.8512" lon="3.83313">
        <ele>713</ele>
        <time>2022-05-01T10:45:39Z</time>
      </trkpt>
      <trkpt lat="45.85102" lon="3.83306">
        <ele>714</ele>
        <time>2022-05-01T10:45:42Z</time>
      </trkpt>
      <trkpt lat="45.85067" lon="3.83264">
        <ele>715</ele>
        <time>2022-05-01T10:45:50Z</time>
      </trkpt>
      <trkpt lat="45.85013" lon="3.83189">
        <ele>710</ele>
        <time>2022-05-01T10:46:04Z</time>
      </trkpt>
      <trkpt lat="45.8499" lon="3.83173">
        <ele>706</ele>
        <time>2022-05-01T10:46:08Z</time>
      </trkpt>
      <trkpt lat="45.8491" lon="3.83169">
        <ele>689</ele>
        <time>2022-05-01T10:46:22Z</time>
      </trkpt>
      <trkpt lat="45.84885" lon="3.83159">
        <ele>686</ele>
        <time>2022-05-01T10:46:27Z</time>
      </trkpt>
      <trkpt lat="45.84849" lon="3.83131">
        <ele>682</ele>
        <time>2022-05-01T10:46:34Z</time>
      </trkpt>
      <trkpt lat="45.84782" lon="3.83056">
        <ele>674</ele>
        <time>2022-05-01T10:46:49Z</time>
      </trkpt>
      <trkpt lat="45.84718" lon="3.82966">
        <ele>663</ele>
        <time>2022-05-01T10:47:05Z</time>
      </trkpt>
      <trkpt lat="45.84685" lon="3.82926">
        <ele>660</ele>
        <time>2022-05-01T10:47:13Z</time>
      </trkpt>
      <trkpt lat="45.84669" lon="3.82901">
        <ele>660</ele>
        <time>2022-05-01T10:47:17Z</time>
      </trkpt>
      <trkpt lat="45.8465" lon="3.82884">
        <ele>661</ele>
        <time>2022-05-01T10:47:21Z</time>
      </trkpt>
      <trkpt lat="45.846" lon="3.82867">
        <ele>659</ele>
        <time>2022-05-01T10:47:30Z</time>
      </trkpt>
      <trkpt lat="45.84572" lon="3.82869">
        <ele>658</ele>
        <time>2022-05-01T10:47:35Z</time>
      </trkpt>
      <trkpt lat="45.84563" lon="3.82877">
        <ele>658</ele>
        <time>2022-05-01T10:47:37Z</time>
      </trkpt>
      <trkpt lat="45.84551" lon="3.82883">
        <ele>658</ele>
        <time>2022-05-01T10:47:40Z</time>
      </trkpt>
      <trkpt lat="45.84534" lon="3.82877">
        <ele>660</ele>
        <time>2022-05-01T10:47:43Z</time>
      </trkpt>
      <trkpt lat="45.84499" lon="3.82852">
        <ele>660</ele>
        <time>2022-05-01T10:47:50Z</time>
      </trkpt>
      <trkpt lat="45.84435" lon="3.82852">
        <ele>668</ele>
        <time>2022-05-01T10:48:01Z</time>
      </trkpt>
      <trkpt lat="45.84396" lon="3.82861">
        <ele>673</ele>
        <time>2022-05-01T10:48:08Z</time>
      </trkpt>
      <trkpt lat="45.8437" lon="3.8288">
        <ele>678</ele>
        <time>2022-05-01T10:48:13Z</time>
      </trkpt>
      <trkpt lat="45.84238" lon="3.8291">
        <ele>692</ele>
        <time>2022-05-01T10:48:37Z</time>
      </trkpt>
      <trkpt lat="45.84178" lon="3.82904">
        <ele>695</ele>
        <time>2022-05-01T10:48:48Z</time>
      </trkpt>
      <trkpt lat="45.84015" lon="3.82959">
        <ele>693</ele>
        <time>2022-05-01T10:49:17Z</time>
      </trkpt>
      <trkpt lat="45.83954" lon="3.82953">
        <ele>694</ele>
        <time>2022-05-01T10:49:28Z</time>
      </trkpt>
      <trkpt lat="45.83913" lon="3.82944">
        <ele>697</ele>
        <time>2022-05-01T10:49:36Z</time>
      </trkpt>
      <trkpt lat="45.83892" lon="3.82947">
        <ele>699</ele>
        <time>2022-05-01T10:49:39Z</time>
      </trkpt>
      <trkpt lat="45.83879" lon="3.8296">
        <ele>700</ele>
        <time>2022-05-01T10:49:42Z</time>
      </trkpt>
      <trkpt lat="45.8386" lon="3.82969">
        <ele>701</ele>
        <time>2022-05-01T10:49:46Z</time>
      </trkpt>
      <trkpt lat="45.83861" lon="3.82975">
        <ele>701</ele>
        <time>2022-05-01T10:49:47Z</time>
      </trkpt>
      <trkpt lat="45.83828" lon="3.82984">
        <ele>703</ele>
        <time>2022-05-01T10:49:53Z</time>
      </trkpt>
      <trkpt lat="45.83781" lon="3.82975">
        <ele>705</ele>
        <time>2022-05-01T10:50:01Z</time>
      </trkpt>
      <trkpt lat="45.83737" lon="3.82972">
        <ele>707</ele>
        <time>2022-05-01T10:50:09Z</time>
      </trkpt>
      <trkpt lat="45.83695" lon="3.82963">
        <ele>709</ele>
        <time>2022-05-01T10:50:16Z</time>
      </trkpt>
      <trkpt lat="45.83653" lon="3.82934">
        <ele>712</ele>
        <time>2022-05-01T10:50:25Z</time>
      </trkpt>
      <trkpt lat="45.83563" lon="3.82853">
        <ele>710</ele>
        <time>2022-05-01T10:50:44Z</time>
      </trkpt>
      <trkpt lat="45.83526" lon="3.82811">
        <ele>709</ele>
        <time>2022-05-01T10:50:52Z</time>
      </trkpt>
      <trkpt lat="45.83514" lon="3.82786">
        <ele>709</ele>
        <time>2022-05-01T10:50:56Z</time>
      </trkpt>
      <trkpt lat="45.83461" lon="3.82718">
        <ele>711</ele>
        <time>2022-05-01T10:51:08Z</time>
      </trkpt>
      <trkpt lat="45.83432" lon="3.82674">
        <ele>713</ele>
        <time>2022-05-01T10:51:16Z</time>
      </trkpt>
      <trkpt lat="45.83374" lon="3.82575">
        <ele>716</ele>
        <time>2022-05-01T10:51:32Z</time>
      </trkpt>
      <trkpt lat="45.83324" lon="3.82481">
        <ele>702</ele>
        <time>2022-05-01T10:51:47Z</time>
      </trkpt>
      <trkpt lat="45.83308" lon="3.8234">
        <ele>695</ele>
        <time>2022-05-01T10:52:04Z</time>
      </trkpt>
      <trkpt lat="45.83302" lon="3.82322">
        <ele>696</ele>
        <time>2022-05-01T10:52:07Z</time>
      </trkpt>
      <trkpt lat="45.83291" lon="3.82318">
        <ele>696</ele>
        <time>2022-05-01T10:52:09Z</time>
      </trkpt>
      <trkpt lat="45.8327" lon="3.82339">
        <ele>692</ele>
        <time>2022-05-01T10:52:13Z</time>
      </trkpt>
      <trkpt lat="45.83253" lon="3.82369">
        <ele>688</ele>
        <time>2022-05-01T10:52:18Z</time>
      </trkpt>
      <trkpt lat="45.83232" lon="3.8239">
        <ele>686</ele>
        <time>2022-05-01T10:52:23Z</time>
      </trkpt>
      <trkpt lat="45.83211" lon="3.82397">
        <ele>684</ele>
        <time>2022-05-01T10:52:27Z</time>
      </trkpt>
      <trkpt lat="45.83186" lon="3.82382">
        <ele>685</ele>
        <time>2022-05-01T10:52:31Z</time>
      </trkpt>
      <trkpt lat="45.8314" lon="3.82321">
        <ele>687</ele>
        <time>2022-05-01T10:52:43Z</time>
      </trkpt>
      <trkpt lat="45.83075" lon="3.82282">
        <ele>687</ele>
        <time>2022-05-01T10:52:55Z</time>
      </trkpt>
      <trkpt lat="45.8306" lon="3.82285">
        <ele>686</ele>
        <time>2022-05-01T10:52:58Z</time>
      </trkpt>
      <trkpt lat="45.83053" lon="3.8228">
        <ele>685</ele>
        <time>2022-05-01T10:52:59Z</time>
      </trkpt>
      <trkpt lat="45.83034" lon="3.82243">
        <ele>686</ele>
        <time>2022-05-01T10:53:05Z</time>
      </trkpt>
      <trkpt lat="45.83017" lon="3.82216">
        <ele>686</ele>
        <time>2022-05-01T10:53:09Z</time>
      </trkpt>
      <trkpt lat="45.82987" lon="3.82186">
        <ele>685</ele>
        <time>2022-05-01T10:53:16Z</time>
      </trkpt>
      <trkpt lat="45.82943" lon="3.82156">
        <ele>684</ele>
        <time>2022-05-01T10:53:25Z</time>
      </trkpt>
      <trkpt lat="45.82892" lon="3.82186">
        <ele>683</ele>
        <time>2022-05-01T10:53:34Z</time>
      </trkpt>
      <trkpt lat="45.82702" lon="3.82217">
        <ele>681</ele>
        <time>2022-05-01T10:54:08Z</time>
      </trkpt>
      <trkpt lat="45.82641" lon="3.82217">
        <ele>681</ele>
        <time>2022-05-01T10:54:19Z</time>
      </trkpt>
      <trkpt lat="45.82592" lon="3.82213">
        <ele>682</ele>
        <time>2022-05-01T10:54:28Z</time>
      </trkpt>
      <trkpt lat="45.82458" lon="3.82178">
        <ele>673</ele>
        <time>2022-05-01T10:54:52Z</time>
      </trkpt>
      <trkpt lat="45.82411" lon="3.82178">
        <ele>666</ele>
        <time>2022-05-01T10:55:01Z</time>
      </trkpt>
      <trkpt lat="45.82383" lon="3.82185">
        <ele>664</ele>
        <time>2022-05-01T10:55:06Z</time>
      </trkpt>
      <trkpt lat="45.82318" lon="3.82215">
        <ele>660</ele>
        <time>2022-05-01T10:55:18Z</time>
      </trkpt>
      <trkpt lat="45.82291" lon="3.82221">
        <ele>660</ele>
        <time>2022-05-01T10:55:23Z</time>
      </trkpt>
      <trkpt lat="45.8219" lon="3.82231">
        <ele>652</ele>
        <time>2022-05-01T10:55:41Z</time>
      </trkpt>
      <trkpt lat="45.82141" lon="3.82241">
        <ele>647</ele>
        <time>2022-05-01T10:55:49Z</time>
      </trkpt>
      <trkpt lat="45.82122" lon="3.82239">
        <ele>645</ele>
        <time>2022-05-01T10:55:53Z</time>
      </trkpt>
      <trkpt lat="45.82098" lon="3.82231">
        <ele>644</ele>
        <time>2022-05-01T10:55:57Z</time>
      </trkpt>
      <trkpt lat="45.82078" lon="3.82229">
        <ele>643</ele>
        <time>2022-05-01T10:56:01Z</time>
      </trkpt>
      <trkpt lat="45.8201" lon="3.82253">
        <ele>639</ele>
        <time>2022-05-01T10:56:13Z</time>
      </trkpt>
      <trkpt lat="45.81911" lon="3.82276">
        <ele>632</ele>
        <time>2022-05-01T10:56:31Z</time>
      </trkpt>
      <trkpt lat="45.81692" lon="3.82278">
        <ele>621</ele>
        <time>2022-05-01T10:57:10Z</time>
      </trkpt>
      <trkpt lat="45.81624" lon="3.82275">
        <ele>617</ele>
        <time>2022-05-01T10:57:22Z</time>
      </trkpt>
      <trkpt lat="45.81618" lon="3.82277">
        <ele>616</ele>
        <time>2022-05-01T10:57:23Z</time>
      </trkpt>
      <trkpt lat="45.81612" lon="3.82284">
        <ele>615</ele>
        <time>2022-05-01T10:57:25Z</time>
      </trkpt>
      <trkpt lat="45.81602" lon="3.82306">
        <ele>614</ele>
        <time>2022-05-01T10:57:28Z</time>
      </trkpt>
      <trkpt lat="45.81591" lon="3.82323">
        <ele>613</ele>
        <time>2022-05-01T10:57:31Z</time>
      </trkpt>
      <trkpt lat="45.81572" lon="3.82333">
        <ele>612</ele>
        <time>2022-05-01T10:57:34Z</time>
      </trkpt>
      <trkpt lat="45.81576" lon="3.82368">
        <ele>611</ele>
        <time>2022-05-01T10:57:39Z</time>
      </trkpt>
      <trkpt lat="45.81572" lon="3.82371">
        <ele>611</ele>
        <time>2022-05-01T10:57:40Z</time>
      </trkpt>
      <trkpt lat="45.81563" lon="3.82395">
        <ele>610</ele>
        <time>2022-05-01T10:57:43Z</time>
      </trkpt>
      <trkpt lat="45.81548" lon="3.82399">
        <ele>610</ele>
        <time>2022-05-01T10:57:46Z</time>
      </trkpt>
      <trkpt lat="45.8147" lon="3.82445">
        <ele>607</ele>
        <time>2022-05-01T10:58:01Z</time>
      </trkpt>
      <trkpt lat="45.81438" lon="3.82472">
        <ele>605</ele>
        <time>2022-05-01T10:58:07Z</time>
      </trkpt>
      <trkpt lat="45.81417" lon="3.82502">
        <ele>604</ele>
        <time>2022-05-01T10:58:13Z</time>
      </trkpt>
      <trkpt lat="45.8141" lon="3.82496">
        <ele>604</ele>
        <time>2022-05-01T10:58:14Z</time>
      </trkpt>
      <trkpt lat="45.81398" lon="3.82493">
        <ele>604</ele>
        <time>2022-05-01T10:58:16Z</time>
      </trkpt>
      <trkpt lat="45.81383" lon="3.82479">
        <ele>603</ele>
        <time>2022-05-01T10:58:19Z</time>
      </trkpt>
      <trkpt lat="45.81374" lon="3.8246">
        <ele>603</ele>
        <time>2022-05-01T10:58:22Z</time>
      </trkpt>
      <trkpt lat="45.81368" lon="3.82453">
        <ele>603</ele>
        <time>2022-05-01T10:58:24Z</time>
      </trkpt>
      <trkpt lat="45.81248" lon="3.82427">
        <ele>606</ele>
        <time>2022-05-01T10:58:45Z</time>
      </trkpt>
      <trkpt lat="45.81211" lon="3.82411">
        <ele>608</ele>
        <time>2022-05-01T10:58:52Z</time>
      </trkpt>
      <trkpt lat="45.81171" lon="3.82377">
        <ele>611</ele>
        <time>2022-05-01T10:59:00Z</time>
      </trkpt>
      <trkpt lat="45.81129" lon="3.82336">
        <ele>615</ele>
        <time>2022-05-01T10:59:09Z</time>
      </trkpt>
      <trkpt lat="45.81107" lon="3.82319">
        <ele>619</ele>
        <time>2022-05-01T10:59:14Z</time>
      </trkpt>
      <trkpt lat="45.81061" lon="3.82304">
        <ele>623</ele>
        <time>2022-05-01T10:59:22Z</time>
      </trkpt>
      <trkpt lat="45.81017" lon="3.82294">
        <ele>627</ele>
        <time>2022-05-01T10:59:30Z</time>
      </trkpt>
      <trkpt lat="45.80941" lon="3.82292">
        <ele>626</ele>
        <time>2022-05-01T10:59:44Z</time>
      </trkpt>
      <trkpt lat="45.80921" lon="3.82276">
        <ele>627</ele>
        <time>2022-05-01T10:59:48Z</time>
      </trkpt>
      <trkpt lat="45.80908" lon="3.82253">
        <ele>627</ele>
        <time>2022-05-01T10:59:51Z</time>
      </trkpt>
      <trkpt lat="45.80893" lon="3.82214">
        <ele>631</ele>
        <time>2022-05-01T10:59:57Z</time>
      </trkpt>
      <trkpt lat="45.80875" lon="3.82183">
        <ele>633</ele>
        <time>2022-05-01T11:00:02Z</time>
      </trkpt>
      <trkpt lat="45.80851" lon="3.82157">
        <ele>634</ele>
        <time>2022-05-01T11:00:07Z</time>
      </trkpt>
      <trkpt lat="45.80788" lon="3.82114">
        <ele>637</ele>
        <time>2022-05-01T11:00:20Z</time>
      </trkpt>
      <trkpt lat="45.80767" lon="3.82096">
        <ele>639</ele>
        <time>2022-05-01T11:00:24Z</time>
      </trkpt>
      <trkpt lat="45.80751" lon="3.82075">
        <ele>640</ele>
        <time>2022-05-01T11:00:28Z</time>
      </trkpt>
      <trkpt lat="45.80724" lon="3.82028">
        <ele>644</ele>
        <time>2022-05-01T11:00:35Z</time>
      </trkpt>
      <trkpt lat="45.80716" lon="3.82003">
        <ele>645</ele>
        <time>2022-05-01T11:00:39Z</time>
      </trkpt>
      <trkpt lat="45.80713" lon="3.81979">
        <ele>645</ele>
        <time>2022-05-01T11:00:42Z</time>
      </trkpt>
      <trkpt lat="45.80715" lon="3.81916">
        <ele>647</ele>
        <time>2022-05-01T11:00:50Z</time>
      </trkpt>
      <trkpt lat="45.80727" lon="3.81836">
        <ele>647</ele>
        <time>2022-05-01T11:01:00Z</time>
      </trkpt>
      <trkpt lat="45.80728" lon="3.81796">
        <ele>647</ele>
        <time>2022-05-01T11:01:05Z</time>
      </trkpt>
      <trkpt lat="45.80726" lon="3.81775">
        <ele>648</ele>
        <time>2022-05-01T11:01:07Z</time>
      </trkpt>
      <trkpt lat="45.8071" lon="3.81727">
        <ele>649</ele>
        <time>2022-05-01T11:01:14Z</time>
      </trkpt>
      <trkpt lat="45.80677" lon="3.81651">
        <ele>653</ele>
        <time>2022-05-01T11:01:25Z</time>
      </trkpt>
      <trkpt lat="45.80637" lon="3.81614">
        <ele>656</ele>
        <time>2022-05-01T11:01:34Z</time>
      </trkpt>
      <trkpt lat="45.80619" lon="3.81592">
        <ele>658</ele>
        <time>2022-05-01T11:01:38Z</time>
      </trkpt>
      <trkpt lat="45.80571" lon="3.81489">
        <ele>663</ele>
        <time>2022-05-01T11:01:53Z</time>
      </trkpt>
      <trkpt lat="45.80527" lon="3.81408">
        <ele>668</ele>
        <time>2022-05-01T11:02:06Z</time>
      </trkpt>
      <trkpt lat="45.80489" lon="3.81364">
        <ele>669</ele>
        <time>2022-05-01T11:02:15Z</time>
      </trkpt>
      <trkpt lat="45.80477" lon="3.81345">
        <ele>669</ele>
        <time>2022-05-01T11:02:18Z</time>
      </trkpt>
      <trkpt lat="45.80459" lon="3.81299">
        <ele>668</ele>
        <time>2022-05-01T11:02:24Z</time>
      </trkpt>
      <trkpt lat="45.80432" lon="3.81272">
        <ele>667</ele>
        <time>2022-05-01T11:02:30Z</time>
      </trkpt>
      <trkpt lat="45.80418" lon="3.81231">
        <ele>666</ele>
        <time>2022-05-01T11:02:36Z</time>
      </trkpt>
      <trkpt lat="45.80414" lon="3.81208">
        <ele>665</ele>
        <time>2022-05-01T11:02:39Z</time>
      </trkpt>
      <trkpt lat="45.80413" lon="3.81142">
        <ele>664</ele>
        <time>2022-05-01T11:02:47Z</time>
      </trkpt>
      <trkpt lat="45.80409" lon="3.81119">
        <ele>664</ele>
        <time>2022-05-01T11:02:50Z</time>
      </trkpt>
      <trkpt lat="45.80399" lon="3.81088">
        <ele>663</ele>
        <time>2022-05-01T11:02:54Z</time>
      </trkpt>
      <trkpt lat="45.80364" lon="3.81026">
        <ele>664</ele>
        <time>2022-05-01T11:03:04Z</time>
      </trkpt>
      <trkpt lat="45.80337" lon="3.80984">
        <ele>665</ele>
        <time>2022-05-01T11:03:11Z</time>
      </trkpt>
      <trkpt lat="45.80314" lon="3.80958">
        <ele>667</ele>
        <time>2022-05-01T11:03:16Z</time>
      </trkpt>
      <trkpt lat="45.80293" lon="3.80943">
        <ele>668</ele>
        <time>2022-05-01T11:03:21Z</time>
      </trkpt>
      <trkpt lat="45.80172" lon="3.80873">
        <ele>671</ele>
        <time>2022-05-01T11:03:44Z</time>
      </trkpt>
      <trkpt lat="45.80123" lon="3.80839">
        <ele>669</ele>
        <time>2022-05-01T11:03:53Z</time>
      </trkpt>
      <trkpt lat="45.7998" lon="3.8069">
        <ele>670</ele>
        <time>2022-05-01T11:04:25Z</time>
      </trkpt>
      <trkpt lat="45.79965" lon="3.80685">
        <ele>670</ele>
        <time>2022-05-01T11:04:28Z</time>
      </trkpt>
      <trkpt lat="45.79952" lon="3.80685">
        <ele>671</ele>
        <time>2022-05-01T11:04:30Z</time>
      </trkpt>
      <trkpt lat="45.7994" lon="3.80688">
        <ele>671</ele>
        <time>2022-05-01T11:04:32Z</time>
      </trkpt>
      <trkpt lat="45.79877" lon="3.80738">
        <ele>669</ele>
        <time>2022-05-01T11:04:45Z</time>
      </trkpt>
      <trkpt lat="45.79848" lon="3.80752">
        <ele>669</ele>
        <time>2022-05-01T11:04:50Z</time>
      </trkpt>
      <trkpt lat="45.79826" lon="3.80751">
        <ele>670</ele>
        <time>2022-05-01T11:04:54Z</time>
      </trkpt>
      <trkpt lat="45.7981" lon="3.80742">
        <ele>670</ele>
        <time>2022-05-01T11:04:57Z</time>
      </trkpt>
      <trkpt lat="45.79794" lon="3.80727">
        <ele>671</ele>
        <time>2022-05-01T11:05:01Z</time>
      </trkpt>
      <trkpt lat="45.79716" lon="3.80641">
        <ele>673</ele>
        <time>2022-05-01T11:05:18Z</time>
      </trkpt>
      <trkpt lat="45.79704" lon="3.80634">
        <ele>673</ele>
        <time>2022-05-01T11:05:21Z</time>
      </trkpt>
      <trkpt lat="45.79692" lon="3.80632">
        <ele>673</ele>
        <time>2022-05-01T11:05:23Z</time>
      </trkpt>
      <trkpt lat="45.7967" lon="3.80639">
        <ele>671</ele>
        <time>2022-05-01T11:05:27Z</time>
      </trkpt>
      <trkpt lat="45.79579" lon="3.80729">
        <ele>671</ele>
        <time>2022-05-01T11:05:46Z</time>
      </trkpt>
      <trkpt lat="45.79483" lon="3.80803">
        <ele>672</ele>
        <time>2022-05-01T11:06:06Z</time>
      </trkpt>
      <trkpt lat="45.79468" lon="3.80821">
        <ele>672</ele>
        <time>2022-05-01T11:06:09Z</time>
      </trkpt>
      <trkpt lat="45.79433" lon="3.80878">
        <ele>671</ele>
        <time>2022-05-01T11:06:19Z</time>
      </trkpt>
      <trkpt lat="45.79414" lon="3.80887">
        <ele>671</ele>
        <time>2022-05-01T11:06:22Z</time>
      </trkpt>
      <trkpt lat="45.79395" lon="3.80888">
        <ele>671</ele>
        <time>2022-05-01T11:06:26Z</time>
      </trkpt>
      <trkpt lat="45.79383" lon="3.80884">
        <ele>671</ele>
        <time>2022-05-01T11:06:28Z</time>
      </trkpt>
      <trkpt lat="45.7936" lon="3.8086">
        <ele>672</ele>
        <time>2022-05-01T11:06:33Z</time>
      </trkpt>
      <trkpt lat="45.79224" lon="3.80692">
        <ele>672</ele>
        <time>2022-05-01T11:07:05Z</time>
      </trkpt>
      <trkpt lat="45.79182" lon="3.8062">
        <ele>671</ele>
        <time>2022-05-01T11:07:16Z</time>
      </trkpt>
      <trkpt lat="45.7918" lon="3.806">
        <ele>672</ele>
        <time>2022-05-01T11:07:19Z</time>
      </trkpt>
      <trkpt lat="45.79144" lon="3.8059">
        <ele>671</ele>
        <time>2022-05-01T11:07:25Z</time>
      </trkpt>
      <trkpt lat="45.79124" lon="3.80593">
        <ele>672</ele>
        <time>2022-05-01T11:07:29Z</time>
      </trkpt>
      <trkpt lat="45.79023" lon="3.80681">
        <ele>677</ele>
        <time>2022-05-01T11:07:50Z</time>
      </trkpt>
      <trkpt lat="45.7896" lon="3.80709">
        <ele>680</ele>
        <time>2022-05-01T11:08:02Z</time>
      </trkpt>
      <trkpt lat="45.78946" lon="3.80712">
        <ele>681</ele>
        <time>2022-05-01T11:08:04Z</time>
      </trkpt>
      <trkpt lat="45.78931" lon="3.80709">
        <ele>682</ele>
        <time>2022-05-01T11:08:07Z</time>
      </trkpt>
      <trkpt lat="45.7891" lon="3.80695">
        <ele>685</ele>
        <time>2022-05-01T11:08:11Z</time>
      </trkpt>
      <trkpt lat="45.78887" lon="3.80675">
        <ele>688</ele>
        <time>2022-05-01T11:08:16Z</time>
      </trkpt>
      <trkpt lat="45.78882" lon="3.80666">
        <ele>689</ele>
        <time>2022-05-01T11:08:17Z</time>
      </trkpt>
      <trkpt lat="45.7888" lon="3.80657">
        <ele>690</ele>
        <time>2022-05-01T11:08:19Z</time>
      </trkpt>
      <trkpt lat="45.78882" lon="3.80643">
        <ele>691</ele>
        <time>2022-05-01T11:08:20Z</time>
      </trkpt>
      <trkpt lat="45.78888" lon="3.80631">
        <ele>692</ele>
        <time>2022-05-01T11:08:22Z</time>
      </trkpt>
      <trkpt lat="45.78894" lon="3.80626">
        <ele>692</ele>
        <time>2022-05-01T11:08:23Z</time>
      </trkpt>
      <trkpt lat="45.78905" lon="3.80625">
        <ele>691</ele>
        <time>2022-05-01T11:08:25Z</time>
      </trkpt>
      <trkpt lat="45.78946" lon="3.80639">
        <ele>687</ele>
        <time>2022-05-01T11:08:33Z</time>
      </trkpt>
      <trkpt lat="45.78956" lon="3.80634">
        <ele>686</ele>
        <time>2022-05-01T11:08:35Z</time>
      </trkpt>
      <trkpt lat="45.78971" lon="3.80615">
        <ele>686</ele>
        <time>2022-05-01T11:08:38Z</time>
      </trkpt>
      <trkpt lat="45.78975" lon="3.80604">
        <ele>687</ele>
        <time>2022-05-01T11:08:40Z</time>
      </trkpt>
      <trkpt lat="45.78972" lon="3.80586">
        <ele>688</ele>
        <time>2022-05-01T11:08:42Z</time>
      </trkpt>
      <trkpt lat="45.78959" lon="3.8056">
        <ele>688</ele>
        <time>2022-05-01T11:08:46Z</time>
      </trkpt>
      <trkpt lat="45.78933" lon="3.80535">
        <ele>691</ele>
        <time>2022-05-01T11:08:52Z</time>
      </trkpt>
      <trkpt lat="45.78908" lon="3.80528">
        <ele>694</ele>
        <time>2022-05-01T11:08:56Z</time>
      </trkpt>
      <trkpt lat="45.7887" lon="3.80527">
        <ele>697</ele>
        <time>2022-05-01T11:09:03Z</time>
      </trkpt>
      <trkpt lat="45.78853" lon="3.80521">
        <ele>698</ele>
        <time>2022-05-01T11:09:06Z</time>
      </trkpt>
      <trkpt lat="45.7884" lon="3.80488">
        <ele>699</ele>
        <time>2022-05-01T11:09:11Z</time>
      </trkpt>
      <trkpt lat="45.78825" lon="3.80475">
        <ele>699</ele>
        <time>2022-05-01T11:09:14Z</time>
      </trkpt>
      <trkpt lat="45.7881" lon="3.80466">
        <ele>700</ele>
        <time>2022-05-01T11:09:17Z</time>
      </trkpt>
      <trkpt lat="45.78796" lon="3.80461">
        <ele>701</ele>
        <time>2022-05-01T11:09:19Z</time>
      </trkpt>
      <trkpt lat="45.78785" lon="3.80462">
        <ele>702</ele>
        <time>2022-05-01T11:09:21Z</time>
      </trkpt>
      <trkpt lat="45.78775" lon="3.80467">
        <ele>703</ele>
        <time>2022-05-01T11:09:23Z</time>
      </trkpt>
      <trkpt lat="45.78771" lon="3.80481">
        <ele>704</ele>
        <time>2022-05-01T11:09:25Z</time>
      </trkpt>
      <trkpt lat="45.78757" lon="3.80569">
        <ele>709</ele>
        <time>2022-05-01T11:09:36Z</time>
      </trkpt>
      <trkpt lat="45.78736" lon="3.8066">
        <ele>711</ele>
        <time>2022-05-01T11:09:48Z</time>
      </trkpt>
      <trkpt lat="45.78728" lon="3.8068">
        <ele>711</ele>
        <time>2022-05-01T11:09:51Z</time>
      </trkpt>
      <trkpt lat="45.78713" lon="3.80698">
        <ele>713</ele>
        <time>2022-05-01T11:09:55Z</time>
      </trkpt>
      <trkpt lat="45.78695" lon="3.80702">
        <ele>716</ele>
        <time>2022-05-01T11:09:58Z</time>
      </trkpt>
      <trkpt lat="45.7865" lon="3.80706">
        <ele>722</ele>
        <time>2022-05-01T11:10:06Z</time>
      </trkpt>
      <trkpt lat="45.78604" lon="3.80722">
        <ele>727</ele>
        <time>2022-05-01T11:10:14Z</time>
      </trkpt>
      <trkpt lat="45.78588" lon="3.80722">
        <ele>729</ele>
        <time>2022-05-01T11:10:17Z</time>
      </trkpt>
      <trkpt lat="45.78539" lon="3.80714">
        <ele>736</ele>
        <time>2022-05-01T11:10:26Z</time>
      </trkpt>
      <trkpt lat="45.78525" lon="3.80715">
        <ele>738</ele>
        <time>2022-05-01T11:10:28Z</time>
      </trkpt>
      <trkpt lat="45.78491" lon="3.80734">
        <ele>739</ele>
        <time>2022-05-01T11:10:35Z</time>
      </trkpt>
      <trkpt lat="45.78474" lon="3.80733">
        <ele>741</ele>
        <time>2022-05-01T11:10:38Z</time>
      </trkpt>
      <trkpt lat="45.78459" lon="3.80727">
        <ele>742</ele>
        <time>2022-05-01T11:10:41Z</time>
      </trkpt>
      <trkpt lat="45.78219" lon="3.80577">
        <ele>752</ele>
        <time>2022-05-01T11:11:27Z</time>
      </trkpt>
      <trkpt lat="45.78201" lon="3.80575">
        <ele>754</ele>
        <time>2022-05-01T11:11:30Z</time>
      </trkpt>
      <trkpt lat="45.78191" lon="3.80579">
        <ele>755</ele>
        <time>2022-05-01T11:11:32Z</time>
      </trkpt>
      <trkpt lat="45.78181" lon="3.80588">
        <ele>755</ele>
        <time>2022-05-01T11:11:34Z</time>
      </trkpt>
      <trkpt lat="45.78174" lon="3.80601">
        <ele>756</ele>
        <time>2022-05-01T11:11:36Z</time>
      </trkpt>
      <trkpt lat="45.78168" lon="3.80619">
        <ele>756</ele>
        <time>2022-05-01T11:11:39Z</time>
      </trkpt>
      <trkpt lat="45.78143" lon="3.80735">
        <ele>765</ele>
        <time>2022-05-01T11:11:54Z</time>
      </trkpt>
      <trkpt lat="45.78134" lon="3.80748">
        <ele>767</ele>
        <time>2022-05-01T11:11:56Z</time>
      </trkpt>
      <trkpt lat="45.78124" lon="3.80757">
        <ele>769</ele>
        <time>2022-05-01T11:11:58Z</time>
      </trkpt>
      <trkpt lat="45.7811" lon="3.80761">
        <ele>771</ele>
        <time>2022-05-01T11:12:01Z</time>
      </trkpt>
      <trkpt lat="45.78096" lon="3.80758">
        <ele>770</ele>
        <time>2022-05-01T11:12:03Z</time>
      </trkpt>
      <trkpt lat="45.78084" lon="3.80752">
        <ele>769</ele>
        <time>2022-05-01T11:12:06Z</time>
      </trkpt>
      <trkpt lat="45.78074" lon="3.8074">
        <ele>770</ele>
        <time>2022-05-01T11:12:08Z</time>
      </trkpt>
      <trkpt lat="45.78068" lon="3.80722">
        <ele>771</ele>
        <time>2022-05-01T11:12:10Z</time>
      </trkpt>
      <trkpt lat="45.78068" lon="3.80698">
        <ele>770</ele>
        <time>2022-05-01T11:12:13Z</time>
      </trkpt>
      <trkpt lat="45.78078" lon="3.80636">
        <ele>768</ele>
        <time>2022-05-01T11:12:21Z</time>
      </trkpt>
      <trkpt lat="45.7808" lon="3.80603">
        <ele>769</ele>
        <time>2022-05-01T11:12:25Z</time>
      </trkpt>
      <trkpt lat="45.78079" lon="3.80556">
        <ele>771</ele>
        <time>2022-05-01T11:12:31Z</time>
      </trkpt>
      <trkpt lat="45.78062" lon="3.80433">
        <ele>781</ele>
        <time>2022-05-01T11:12:47Z</time>
      </trkpt>
      <trkpt lat="45.78063" lon="3.80414">
        <ele>782</ele>
        <time>2022-05-01T11:12:49Z</time>
      </trkpt>
      <trkpt lat="45.78068" lon="3.80398">
        <ele>783</ele>
        <time>2022-05-01T11:12:51Z</time>
      </trkpt>
      <trkpt lat="45.78087" lon="3.80373">
        <ele>784</ele>
        <time>2022-05-01T11:12:56Z</time>
      </trkpt>
      <trkpt lat="45.78096" lon="3.80365">
        <ele>786</ele>
        <time>2022-05-01T11:12:58Z</time>
      </trkpt>
      <trkpt lat="45.78106" lon="3.80361">
        <ele>787</ele>
        <time>2022-05-01T11:13:00Z</time>
      </trkpt>
      <trkpt lat="45.78121" lon="3.80363">
        <ele>788</ele>
        <time>2022-05-01T11:13:02Z</time>
      </trkpt>
      <trkpt lat="45.78163" lon="3.80377">
        <ele>787</ele>
        <time>2022-05-01T11:13:10Z</time>
      </trkpt>
      <trkpt lat="45.78184" lon="3.80375">
        <ele>787</ele>
        <time>2022-05-01T11:13:14Z</time>
      </trkpt>
      <trkpt lat="45.782" lon="3.80364">
        <ele>787</ele>
        <time>2022-05-01T11:13:17Z</time>
      </trkpt>
      <trkpt lat="45.78219" lon="3.80345">
        <ele>789</ele>
        <time>2022-05-01T11:13:21Z</time>
      </trkpt>
      <trkpt lat="45.78235" lon="3.80316">
        <ele>790</ele>
        <time>2022-05-01T11:13:26Z</time>
      </trkpt>
      <trkpt lat="45.78251" lon="3.80271">
        <ele>790</ele>
        <time>2022-05-01T11:13:32Z</time>
      </trkpt>
      <trkpt lat="45.78257" lon="3.80218">
        <ele>790</ele>
        <time>2022-05-01T11:13:39Z</time>
      </trkpt>
      <trkpt lat="45.7824" lon="3.8018">
        <ele>792</ele>
        <time>2022-05-01T11:13:44Z</time>
      </trkpt>
      <trkpt lat="45.78212" lon="3.80163">
        <ele>796</ele>
        <time>2022-05-01T11:13:50Z</time>
      </trkpt>
      <trkpt lat="45.78157" lon="3.80178">
        <ele>805</ele>
        <time>2022-05-01T11:14:00Z</time>
      </trkpt>
      <trkpt lat="45.78028" lon="3.80227">
        <ele>810</ele>
        <time>2022-05-01T11:14:23Z</time>
      </trkpt>
      <trkpt lat="45.7789" lon="3.80257">
        <ele>830</ele>
        <time>2022-05-01T11:14:48Z</time>
      </trkpt>
      <trkpt lat="45.77868" lon="3.8027">
        <ele>835</ele>
        <time>2022-05-01T11:14:52Z</time>
      </trkpt>
      <trkpt lat="45.77856" lon="3.80287">
        <ele>836</ele>
        <time>2022-05-01T11:14:55Z</time>
      </trkpt>
      <trkpt lat="45.77848" lon="3.80304">
        <ele>836</ele>
        <time>2022-05-01T11:14:58Z</time>
      </trkpt>
      <trkpt lat="45.77844" lon="3.80334">
        <ele>833</ele>
        <time>2022-05-01T11:15:02Z</time>
      </trkpt>
      <trkpt lat="45.77846" lon="3.80461">
        <ele>829</ele>
        <time>2022-05-01T11:15:17Z</time>
      </trkpt>
      <trkpt lat="45.7784" lon="3.80501">
        <ele>830</ele>
        <time>2022-05-01T11:15:23Z</time>
      </trkpt>
      <trkpt lat="45.77715" lon="3.80925">
        <ele>854</ele>
        <time>2022-05-01T11:16:20Z</time>
      </trkpt>
      <trkpt lat="45.77708" lon="3.80971">
        <ele>857</ele>
        <time>2022-05-01T11:16:25Z</time>
      </trkpt>
      <trkpt lat="45.77711" lon="3.81096">
        <ele>858</ele>
        <time>2022-05-01T11:16:41Z</time>
      </trkpt>
      <trkpt lat="45.77751" lon="3.8125">
        <ele>860</ele>
        <time>2022-05-01T11:17:01Z</time>
      </trkpt>
      <trkpt lat="45.77751" lon="3.81276">
        <ele>861</ele>
        <time>2022-05-01T11:17:05Z</time>
      </trkpt>
      <trkpt lat="45.77743" lon="3.81285">
        <ele>861</ele>
        <time>2022-05-01T11:17:06Z</time>
      </trkpt>
      <trkpt lat="45.77733" lon="3.81288">
        <ele>862</ele>
        <time>2022-05-01T11:17:08Z</time>
      </trkpt>
      <trkpt lat="45.77731" lon="3.81332">
        <ele>863</ele>
        <time>2022-05-01T11:17:14Z</time>
      </trkpt>
      <trkpt lat="45.7771" lon="3.81407">
        <ele>863</ele>
        <time>2022-05-01T11:17:24Z</time>
      </trkpt>
      <trkpt lat="45.777" lon="3.81426">
        <ele>863</ele>
        <time>2022-05-01T11:17:27Z</time>
      </trkpt>
      <trkpt lat="45.77685" lon="3.81436">
        <ele>863</ele>
        <time>2022-05-01T11:17:30Z</time>
      </trkpt>
      <trkpt lat="45.77669" lon="3.81441">
        <ele>862</ele>
        <time>2022-05-01T11:17:33Z</time>
      </trkpt>
      <trkpt lat="45.77653" lon="3.81437">
        <ele>860</ele>
        <time>2022-05-01T11:17:35Z</time>
      </trkpt>
      <trkpt lat="45.77639" lon="3.81426">
        <ele>858</ele>
        <time>2022-05-01T11:17:38Z</time>
      </trkpt>
      <trkpt lat="45.77524" lon="3.81227">
        <ele>850</ele>
        <time>2022-05-01T11:18:10Z</time>
      </trkpt>
      <trkpt lat="45.77507" lon="3.81189">
        <ele>848</ele>
        <time>2022-05-01T11:18:16Z</time>
      </trkpt>
      <trkpt lat="45.77487" lon="3.81127">
        <ele>848</ele>
        <time>2022-05-01T11:18:24Z</time>
      </trkpt>
      <trkpt lat="45.77453" lon="3.81004">
        <ele>848</ele>
        <time>2022-05-01T11:18:41Z</time>
      </trkpt>
      <trkpt lat="45.77444" lon="3.80985">
        <ele>848</ele>
        <time>2022-05-01T11:18:44Z</time>
      </trkpt>
      <trkpt lat="45.77434" lon="3.80974">
        <ele>847</ele>
        <time>2022-05-01T11:18:46Z</time>
      </trkpt>
      <trkpt lat="45.77423" lon="3.80971">
        <ele>846</ele>
        <time>2022-05-01T11:18:48Z</time>
      </trkpt>
      <trkpt lat="45.77399" lon="3.80978">
        <ele>848</ele>
        <time>2022-05-01T11:18:52Z</time>
      </trkpt>
      <trkpt lat="45.77393" lon="3.80983">
        <ele>849</ele>
        <time>2022-05-01T11:18:54Z</time>
      </trkpt>
      <trkpt lat="45.77383" lon="3.81003">
        <ele>850</ele>
        <time>2022-05-01T11:18:57Z</time>
      </trkpt>
      <trkpt lat="45.77375" lon="3.81033">
        <ele>851</ele>
        <time>2022-05-01T11:19:01Z</time>
      </trkpt>
      <trkpt lat="45.77369" lon="3.81077">
        <ele>851</ele>
        <time>2022-05-01T11:19:06Z</time>
      </trkpt>
      <trkpt lat="45.77388" lon="3.81275">
        <ele>853</ele>
        <time>2022-05-01T11:19:31Z</time>
      </trkpt>
      <trkpt lat="45.77388" lon="3.81314">
        <ele>854</ele>
        <time>2022-05-01T11:19:36Z</time>
      </trkpt>
      <trkpt lat="45.77364" lon="3.8151">
        <ele>861</ele>
        <time>2022-05-01T11:20:00Z</time>
      </trkpt>
      <trkpt lat="45.77354" lon="3.81542">
        <ele>862</ele>
        <time>2022-05-01T11:20:05Z</time>
      </trkpt>
      <trkpt lat="45.77274" lon="3.81709">
        <ele>872</ele>
        <time>2022-05-01T11:20:30Z</time>
      </trkpt>
      <trkpt lat="45.77236" lon="3.8181">
        <ele>870</ele>
        <time>2022-05-01T11:20:44Z</time>
      </trkpt>
      <trkpt lat="45.77156" lon="3.81847">
        <ele>881</ele>
        <time>2022-05-01T11:20:59Z</time>
      </trkpt>
      <trkpt lat="45.77123" lon="3.81901">
        <ele>882</ele>
        <time>2022-05-01T11:21:08Z</time>
      </trkpt>
      <trkpt lat="45.77082" lon="3.81986">
        <ele>883</ele>
        <time>2022-05-01T11:21:21Z</time>
      </trkpt>
      <trkpt lat="45.7707" lon="3.82002">
        <ele>884</ele>
        <time>2022-05-01T11:21:24Z</time>
      </trkpt>
      <trkpt lat="45.77053" lon="3.82018">
        <ele>887</ele>
        <time>2022-05-01T11:21:27Z</time>
      </trkpt>
      <trkpt lat="45.77002" lon="3.82035">
        <ele>897</ele>
        <time>2022-05-01T11:21:37Z</time>
      </trkpt>
      <trkpt lat="45.76971" lon="3.82097">
        <ele>897</ele>
        <time>2022-05-01T11:21:46Z</time>
      </trkpt>
      <trkpt lat="45.76928" lon="3.82146">
        <ele>896</ele>
        <time>2022-05-01T11:21:56Z</time>
      </trkpt>
      <trkpt lat="45.76877" lon="3.82146">
        <ele>896</ele>
        <time>2022-05-01T11:22:05Z</time>
      </trkpt>
      <trkpt lat="45.76856" lon="3.82141">
        <ele>896</ele>
        <time>2022-05-01T11:22:09Z</time>
      </trkpt>
      <trkpt lat="45.76834" lon="3.82128">
        <ele>899</ele>
        <time>2022-05-01T11:22:13Z</time>
      </trkpt>
      <trkpt lat="45.76763" lon="3.82067">
        <ele>911</ele>
        <time>2022-05-01T11:22:28Z</time>
      </trkpt>
      <trkpt lat="45.76742" lon="3.82053">
        <ele>914</ele>
        <time>2022-05-01T11:22:32Z</time>
      </trkpt>
      <trkpt lat="45.76718" lon="3.82043">
        <ele>917</ele>
        <time>2022-05-01T11:22:36Z</time>
      </trkpt>
      <trkpt lat="45.76653" lon="3.82037">
        <ele>917</ele>
        <time>2022-05-01T11:22:48Z</time>
      </trkpt>
      <trkpt lat="45.76616" lon="3.82028">
        <ele>921</ele>
        <time>2022-05-01T11:22:55Z</time>
      </trkpt>
      <trkpt lat="45.76569" lon="3.82009">
        <ele>927</ele>
        <time>2022-05-01T11:23:03Z</time>
      </trkpt>
      <trkpt lat="45.76508" lon="3.82021">
        <ele>927</ele>
        <time>2022-05-01T11:23:14Z</time>
      </trkpt>
      <trkpt lat="45.76421" lon="3.82003">
        <ele>929</ele>
        <time>2022-05-01T11:23:30Z</time>
      </trkpt>
      <trkpt lat="45.76394" lon="3.81991">
        <ele>935</ele>
        <time>2022-05-01T11:23:35Z</time>
      </trkpt>
      <trkpt lat="45.76346" lon="3.82022">
        <ele>932</ele>
        <time>2022-05-01T11:23:44Z</time>
      </trkpt>
      <trkpt lat="45.76275" lon="3.82041">
        <ele>932</ele>
        <time>2022-05-01T11:23:57Z</time>
      </trkpt>
      <trkpt lat="45.76129" lon="3.81971">
        <ele>946</ele>
        <time>2022-05-01T11:24:25Z</time>
      </trkpt>
      <trkpt lat="45.76073" lon="3.81959">
        <ele>952</ele>
        <time>2022-05-01T11:24:35Z</time>
      </trkpt>
      <trkpt lat="45.76027" lon="3.81939">
        <ele>962</ele>
        <time>2022-05-01T11:24:43Z</time>
      </trkpt>
      <trkpt lat="45.76019" lon="3.8194">
        <ele>962</ele>
        <time>2022-05-01T11:24:45Z</time>
      </trkpt>
      <trkpt lat="45.76012" lon="3.81945">
        <ele>962</ele>
        <time>2022-05-01T11:24:46Z</time>
      </trkpt>
      <trkpt lat="45.76008" lon="3.81955">
        <ele>961</ele>
        <time>2022-05-01T11:24:47Z</time>
      </trkpt>
      <trkpt lat="45.7602" lon="3.82072">
        <ele>951</ele>
        <time>2022-05-01T11:25:02Z</time>
      </trkpt>
      <trkpt lat="45.76029" lon="3.82131">
        <ele>953</ele>
        <time>2022-05-01T11:25:10Z</time>
      </trkpt>
      <trkpt lat="45.76046" lon="3.82205">
        <ele>951</ele>
        <time>2022-05-01T11:25:19Z</time>
      </trkpt>
      <trkpt lat="45.76037" lon="3.82268">
        <ele>953</ele>
        <time>2022-05-01T11:25:27Z</time>
      </trkpt>
      <trkpt lat="45.7594" lon="3.82314">
        <ele>968</ele>
        <time>2022-05-01T11:25:45Z</time>
      </trkpt>
      <trkpt lat="45.75825" lon="3.82346">
        <ele>976</ele>
        <time>2022-05-01T11:26:06Z</time>
      </trkpt>
      <trkpt lat="45.75773" lon="3.82349">
        <ele>980</ele>
        <time>2022-05-01T11:26:16Z</time>
      </trkpt>
      <trkpt lat="45.75756" lon="3.82343">
        <ele>984</ele>
        <time>2022-05-01T11:26:19Z</time>
      </trkpt>
      <trkpt lat="45.75675" lon="3.82389">
        <ele>980</ele>
        <time>2022-05-01T11:26:34Z</time>
      </trkpt>
      <trkpt lat="45.75567" lon="3.82397">
        <ele>986</ele>
        <time>2022-05-01T11:26:53Z</time>
      </trkpt>
      <trkpt lat="45.75499" lon="3.82335">
        <ele>998</ele>
        <time>2022-05-01T11:27:08Z</time>
      </trkpt>
      <trkpt lat="45.75477" lon="3.82333">
        <ele>1002</ele>
        <time>2022-05-01T11:27:12Z</time>
      </trkpt>
      <trkpt lat="45.75358" lon="3.8244">
        <ele>1007</ele>
        <time>2022-05-01T11:27:37Z</time>
      </trkpt>
      <trkpt lat="45.75267" lon="3.82508">
        <ele>1019</ele>
        <time>2022-05-01T11:27:55Z</time>
      </trkpt>
      <trkpt lat="45.75221" lon="3.82594">
        <ele>1019</ele>
        <time>2022-05-01T11:28:08Z</time>
      </trkpt>
      <trkpt lat="45.75071" lon="3.82704">
        <ele>1029</ele>
        <time>2022-05-01T11:28:38Z</time>
      </trkpt>
      <trkpt lat="45.75073" lon="3.82776">
        <ele>1032</ele>
        <time>2022-05-01T11:28:47Z</time>
      </trkpt>
      <trkpt lat="45.75176" lon="3.8288">
        <ele>1039</ele>
        <time>2022-05-01T11:29:10Z</time>
      </trkpt>
      <trkpt lat="45.75233" lon="3.82981">
        <ele>1044</ele>
        <time>2022-05-01T11:29:26Z</time>
      </trkpt>
      <trkpt lat="45.75245" lon="3.83014">
        <ele>1044</ele>
        <time>2022-05-01T11:29:31Z</time>
      </trkpt>
      <trkpt lat="45.75164" lon="3.83064">
        <ele>1048</ele>
        <time>2022-05-01T11:29:46Z</time>
      </trkpt>
      <trkpt lat="45.75109" lon="3.83067">
        <ele>1055</ele>
        <time>2022-05-01T11:29:56Z</time>
      </trkpt>
      <trkpt lat="45.74882" lon="3.83165">
        <ele>1069</ele>
        <time>2022-05-01T11:30:38Z</time>
      </trkpt>
      <trkpt lat="45.74846" lon="3.83218">
        <ele>1068</ele>
        <time>2022-05-01T11:30:47Z</time>
      </trkpt>
      <trkpt lat="45.74819" lon="3.83221">
        <ele>1072</ele>
        <time>2022-05-01T11:30:52Z</time>
      </trkpt>
      <trkpt lat="45.74813" lon="3.83198">
        <ele>1076</ele>
        <time>2022-05-01T11:30:55Z</time>
      </trkpt>
      <trkpt lat="45.74828" lon="3.83175">
        <ele>1075</ele>
        <time>2022-05-01T11:30:59Z</time>
      </trkpt>
      <trkpt lat="45.7489" lon="3.83122">
        <ele>1073</ele>
        <time>2022-05-01T11:31:12Z</time>
      </trkpt>
      <trkpt lat="45.74924" lon="3.83053">
        <ele>1074</ele>
        <time>2022-05-01T11:31:22Z</time>
      </trkpt>
      <trkpt lat="45.74893" lon="3.83032">
        <ele>1076</ele>
        <time>2022-05-01T11:31:29Z</time>
      </trkpt>
      <trkpt lat="45.74815" lon="3.8307">
        <ele>1086</ele>
        <time>2022-05-01T11:31:43Z</time>
      </trkpt>
      <trkpt lat="45.74605" lon="3.83334">
        <ele>1106</ele>
        <time>2022-05-01T11:32:33Z</time>
      </trkpt>
      <trkpt lat="45.74553" lon="3.83382">
        <ele>1112</ele>
        <time>2022-05-01T11:32:44Z</time>
      </trkpt>
      <trkpt lat="45.74486" lon="3.83487">
        <ele>1115</ele>
        <time>2022-05-01T11:33:02Z</time>
      </trkpt>
      <trkpt lat="45.74448" lon="3.83534">
        <ele>1119</ele>
        <time>2022-05-01T11:33:11Z</time>
      </trkpt>
      <trkpt lat="45.74371" lon="3.83581">
        <ele>1130</ele>
        <time>2022-05-01T11:33:25Z</time>
      </trkpt>
      <trkpt lat="45.74272" lon="3.83685">
        <ele>1134</ele>
        <time>2022-05-01T11:33:47Z</time>
      </trkpt>
      <trkpt lat="45.74147" lon="3.83758">
        <ele>1141</ele>
        <time>2022-05-01T11:34:11Z</time>
      </trkpt>
      <trkpt lat="45.74051" lon="3.83837">
        <ele>1152</ele>
        <time>2022-05-01T11:34:31Z</time>
      </trkpt>
      <trkpt lat="45.73995" lon="3.83955">
        <ele>1156</ele>
        <time>2022-05-01T11:34:49Z</time>
      </trkpt>
      <trkpt lat="45.73983" lon="3.8395">
        <ele>1158</ele>
        <time>2022-05-01T11:34:51Z</time>
      </trkpt>
      <trkpt lat="45.73972" lon="3.8392">
        <ele>1161</ele>
        <time>2022-05-01T11:34:55Z</time>
      </trkpt>
      <trkpt lat="45.74079" lon="3.83533">
        <ele>1161</ele>
        <time>2022-05-01T11:35:47Z</time>
      </trkpt>
      <trkpt lat="45.74042" lon="3.83139">
        <ele>1156</ele>
        <time>2022-05-01T11:36:36Z</time>
      </trkpt>
      <trkpt lat="45.74041" lon="3.83012">
        <ele>1155</ele>
        <time>2022-05-01T11:36:52Z</time>
      </trkpt>
      <trkpt lat="45.74015" lon="3.82979">
        <ele>1151</ele>
        <time>2022-05-01T11:36:58Z</time>
      </trkpt>
      <trkpt lat="45.73995" lon="3.83008">
        <ele>1144</ele>
        <time>2022-05-01T11:37:03Z</time>
      </trkpt>
      <trkpt lat="45.73977" lon="3.83144">
        <ele>1141</ele>
        <time>2022-05-01T11:37:20Z</time>
      </trkpt>
      <trkpt lat="45.73903" lon="3.83249">
        <ele>1135</ele>
        <time>2022-05-01T11:37:39Z</time>
      </trkpt>
      <trkpt lat="45.73785" lon="3.83339">
        <ele>1126</ele>
        <time>2022-05-01T11:38:03Z</time>
      </trkpt>
      <trkpt lat="45.73645" lon="3.83401">
        <ele>1114</ele>
        <time>2022-05-01T11:38:29Z</time>
      </trkpt>
      <trkpt lat="45.73576" lon="3.83482">
        <ele>1111</ele>
        <time>2022-05-01T11:38:45Z</time>
      </trkpt>
      <trkpt lat="45.73469" lon="3.83522">
        <ele>1100</ele>
        <time>2022-05-01T11:39:04Z</time>
      </trkpt>
      <trkpt lat="45.73378" lon="3.83563">
        <ele>1093</ele>
        <time>2022-05-01T11:39:21Z</time>
      </trkpt>
      <trkpt lat="45.7332" lon="3.83627">
        <ele>1091</ele>
        <time>2022-05-01T11:39:34Z</time>
      </trkpt>
      <trkpt lat="45.73246" lon="3.8373">
        <ele>1087</ele>
        <time>2022-05-01T11:39:53Z</time>
      </trkpt>
      <trkpt lat="45.73162" lon="3.83902">
        <ele>1084</ele>
        <time>2022-05-01T11:40:19Z</time>
      </trkpt>
      <trkpt lat="45.72937" lon="3.84029">
        <ele>1076</ele>
        <time>2022-05-01T11:41:02Z</time>
      </trkpt>
      <trkpt lat="45.72872" lon="3.8418">
        <ele>1076</ele>
        <time>2022-05-01T11:41:24Z</time>
      </trkpt>
      <trkpt lat="45.72782" lon="3.84299">
        <ele>1073</ele>
        <time>2022-05-01T11:41:46Z</time>
      </trkpt>
      <trkpt lat="45.72737" lon="3.84687">
        <ele>1075</ele>
        <time>2022-05-01T11:42:34Z</time>
      </trkpt>
      <trkpt lat="45.7273" lon="3.84783">
        <ele>1077</ele>
        <time>2022-05-01T11:42:46Z</time>
      </trkpt>
      <trkpt lat="45.7255" lon="3.85067">
        <ele>1061</ele>
        <time>2022-05-01T11:43:34Z</time>
      </trkpt>
      <trkpt lat="45.72493" lon="3.85256">
        <ele>1063</ele>
        <time>2022-05-01T11:44:00Z</time>
      </trkpt>
      <trkpt lat="45.72459" lon="3.85512">
        <ele>1059</ele>
        <time>2022-05-01T11:44:32Z</time>
      </trkpt>
      <trkpt lat="45.72383" lon="3.85865">
        <ele>1045</ele>
        <time>2022-05-01T11:45:18Z</time>
      </trkpt>
      <trkpt lat="45.72335" lon="3.85864">
        <ele>1043</ele>
        <time>2022-05-01T11:45:26Z</time>
      </trkpt>
      <trkpt lat="45.72286" lon="3.85884">
        <ele>1042</ele>
        <time>2022-05-01T11:45:36Z</time>
      </trkpt>
      <trkpt lat="45.72186" lon="3.85894">
        <ele>1040</ele>
        <time>2022-05-01T11:45:53Z</time>
      </trkpt>
      <trkpt lat="45.71999" lon="3.85803">
        <ele>1024</ele>
        <time>2022-05-01T11:46:29Z</time>
      </trkpt>
      <trkpt lat="45.71949" lon="3.85805">
        <ele>1018</ele>
        <time>2022-05-01T11:46:37Z</time>
      </trkpt>
      <trkpt lat="45.71906" lon="3.85847">
        <ele>1017</ele>
        <time>2022-05-01T11:46:47Z</time>
      </trkpt>
      <trkpt lat="45.71871" lon="3.85946">
        <ele>1016</ele>
        <time>2022-05-01T11:47:00Z</time>
      </trkpt>
      <trkpt lat="45.71847" lon="3.86033">
        <ele>1016</ele>
        <time>2022-05-01T11:47:12Z</time>
      </trkpt>
      <trkpt lat="45.71706" lon="3.86145">
        <ele>1001</ele>
        <time>2022-05-01T11:47:41Z</time>
      </trkpt>
      <trkpt lat="45.71618" lon="3.86153">
        <ele>993</ele>
        <time>2022-05-01T11:47:56Z</time>
      </trkpt>
      <trkpt lat="45.71586" lon="3.86144">
        <ele>991</ele>
        <time>2022-05-01T11:48:02Z</time>
      </trkpt>
      <trkpt lat="45.71567" lon="3.86105">
        <ele>987</ele>
        <time>2022-05-01T11:48:08Z</time>
      </trkpt>
      <trkpt lat="45.71547" lon="3.86017">
        <ele>978</ele>
        <time>2022-05-01T11:48:20Z</time>
      </trkpt>
      <trkpt lat="45.71489" lon="3.85982">
        <ele>976</ele>
        <time>2022-05-01T11:48:31Z</time>
      </trkpt>
      <trkpt lat="45.71444" lon="3.85969">
        <ele>971</ele>
        <time>2022-05-01T11:48:39Z</time>
      </trkpt>
      <trkpt lat="45.71391" lon="3.8598">
        <ele>972</ele>
        <time>2022-05-01T11:48:49Z</time>
      </trkpt>
      <trkpt lat="45.71374" lon="3.85979">
        <ele>972</ele>
        <time>2022-05-01T11:48:52Z</time>
      </trkpt>
      <trkpt lat="45.71359" lon="3.85971">
        <ele>971</ele>
        <time>2022-05-01T11:48:54Z</time>
      </trkpt>
      <trkpt lat="45.71289" lon="3.8591">
        <ele>959</ele>
        <time>2022-05-01T11:49:09Z</time>
      </trkpt>
      <trkpt lat="45.71237" lon="3.85911">
        <ele>958</ele>
        <time>2022-05-01T11:49:18Z</time>
      </trkpt>
      <trkpt lat="45.71057" lon="3.86018">
        <ele>944</ele>
        <time>2022-05-01T11:49:53Z</time>
      </trkpt>
      <trkpt lat="45.71019" lon="3.8605">
        <ele>942</ele>
        <time>2022-05-01T11:50:01Z</time>
      </trkpt>
      <trkpt lat="45.70944" lon="3.86159">
        <ele>935</ele>
        <time>2022-05-01T11:50:20Z</time>
      </trkpt>
      <trkpt lat="45.70912" lon="3.8621">
        <ele>929</ele>
        <time>2022-05-01T11:50:28Z</time>
      </trkpt>
      <trkpt lat="45.70903" lon="3.86238">
        <ele>928</ele>
        <time>2022-05-01T11:50:32Z</time>
      </trkpt>
      <trkpt lat="45.70899" lon="3.8629">
        <ele>927</ele>
        <time>2022-05-01T11:50:39Z</time>
      </trkpt>
      <trkpt lat="45.709" lon="3.86343">
        <ele>927</ele>
        <time>2022-05-01T11:50:45Z</time>
      </trkpt>
      <trkpt lat="45.70897" lon="3.86359">
        <ele>927</ele>
        <time>2022-05-01T11:50:47Z</time>
      </trkpt>
      <trkpt lat="45.70886" lon="3.86373">
        <ele>928</ele>
        <time>2022-05-01T11:50:50Z</time>
      </trkpt>
      <trkpt lat="45.70871" lon="3.8638">
        <ele>928</ele>
        <time>2022-05-01T11:50:53Z</time>
      </trkpt>
      <trkpt lat="45.70859" lon="3.86378">
        <ele>927</ele>
        <time>2022-05-01T11:50:55Z</time>
      </trkpt>
      <trkpt lat="45.70843" lon="3.86371">
        <ele>926</ele>
        <time>2022-05-01T11:50:58Z</time>
      </trkpt>
      <trkpt lat="45.70833" lon="3.86354">
        <ele>925</ele>
        <time>2022-05-01T11:51:01Z</time>
      </trkpt>
      <trkpt lat="45.70825" lon="3.86296">
        <ele>923</ele>
        <time>2022-05-01T11:51:08Z</time>
      </trkpt>
      <trkpt lat="45.70792" lon="3.86175">
        <ele>920</ele>
        <time>2022-05-01T11:51:24Z</time>
      </trkpt>
      <trkpt lat="45.70792" lon="3.86137">
        <ele>919</ele>
        <time>2022-05-01T11:51:29Z</time>
      </trkpt>
      <trkpt lat="45.708" lon="3.86094">
        <ele>917</ele>
        <time>2022-05-01T11:51:34Z</time>
      </trkpt>
      <trkpt lat="45.70841" lon="3.85973">
        <ele>914</ele>
        <time>2022-05-01T11:51:51Z</time>
      </trkpt>
      <trkpt lat="45.70827" lon="3.85844">
        <ele>908</ele>
        <time>2022-05-01T11:52:07Z</time>
      </trkpt>
      <trkpt lat="45.70827" lon="3.85814">
        <ele>905</ele>
        <time>2022-05-01T11:52:11Z</time>
      </trkpt>
      <trkpt lat="45.70831" lon="3.85783">
        <ele>901</ele>
        <time>2022-05-01T11:52:15Z</time>
      </trkpt>
      <trkpt lat="45.70865" lon="3.85707">
        <ele>887</ele>
        <time>2022-05-01T11:52:26Z</time>
      </trkpt>
      <trkpt lat="45.70863" lon="3.85685">
        <ele>885</ele>
        <time>2022-05-01T11:52:29Z</time>
      </trkpt>
      <trkpt lat="45.70854" lon="3.85672">
        <ele>884</ele>
        <time>2022-05-01T11:52:31Z</time>
      </trkpt>
      <trkpt lat="45.70723" lon="3.8556">
        <ele>879</ele>
        <time>2022-05-01T11:52:58Z</time>
      </trkpt>
      <trkpt lat="45.70701" lon="3.8553">
        <ele>877</ele>
        <time>2022-05-01T11:53:04Z</time>
      </trkpt>
      <trkpt lat="45.70681" lon="3.85512">
        <ele>875</ele>
        <time>2022-05-01T11:53:08Z</time>
      </trkpt>
      <trkpt lat="45.70645" lon="3.85488">
        <ele>877</ele>
        <time>2022-05-01T11:53:15Z</time>
      </trkpt>
      <trkpt lat="45.70634" lon="3.85477">
        <ele>878</ele>
        <time>2022-05-01T11:53:17Z</time>
      </trkpt>
      <trkpt lat="45.70623" lon="3.85462">
        <ele>877</ele>
        <time>2022-05-01T11:53:20Z</time>
      </trkpt>
      <trkpt lat="45.70606" lon="3.85418">
        <ele>870</ele>
        <time>2022-05-01T11:53:26Z</time>
      </trkpt>
      <trkpt lat="45.70595" lon="3.85397">
        <ele>868</ele>
        <time>2022-05-01T11:53:30Z</time>
      </trkpt>
      <trkpt lat="45.70582" lon="3.85384">
        <ele>867</ele>
        <time>2022-05-01T11:53:32Z</time>
      </trkpt>
      <trkpt lat="45.70567" lon="3.85376">
        <ele>866</ele>
        <time>2022-05-01T11:53:35Z</time>
      </trkpt>
      <trkpt lat="45.70529" lon="3.85364">
        <ele>864</ele>
        <time>2022-05-01T11:53:42Z</time>
      </trkpt>
      <trkpt lat="45.70505" lon="3.85359">
        <ele>864</ele>
        <time>2022-05-01T11:53:46Z</time>
      </trkpt>
      <trkpt lat="45.70498" lon="3.85354">
        <ele>863</ele>
        <time>2022-05-01T11:53:48Z</time>
      </trkpt>
      <trkpt lat="45.70521" lon="3.8531">
        <ele>857</ele>
        <time>2022-05-01T11:53:55Z</time>
      </trkpt>
      <trkpt lat="45.70537" lon="3.85258">
        <ele>855</ele>
        <time>2022-05-01T11:54:02Z</time>
      </trkpt>
      <trkpt lat="45.70539" lon="3.85231">
        <ele>856</ele>
        <time>2022-05-01T11:54:05Z</time>
      </trkpt>
      <trkpt lat="45.70535" lon="3.85193">
        <ele>858</ele>
        <time>2022-05-01T11:54:10Z</time>
      </trkpt>
      <trkpt lat="45.70502" lon="3.8515">
        <ele>860</ele>
        <time>2022-05-01T11:54:18Z</time>
      </trkpt>
      <trkpt lat="45.70479" lon="3.85138">
        <ele>862</ele>
        <time>2022-05-01T11:54:22Z</time>
      </trkpt>
      <trkpt lat="45.70411" lon="3.85129">
        <ele>865</ele>
        <time>2022-05-01T11:54:34Z</time>
      </trkpt>
      <trkpt lat="45.70293" lon="3.85143">
        <ele>867</ele>
        <time>2022-05-01T11:54:55Z</time>
      </trkpt>
      <trkpt lat="45.70286" lon="3.85147">
        <ele>867</ele>
        <time>2022-05-01T11:54:57Z</time>
      </trkpt>
      <trkpt lat="45.70267" lon="3.8518">
        <ele>861</ele>
        <time>2022-05-01T11:55:02Z</time>
      </trkpt>
      <trkpt lat="45.7025" lon="3.85188">
        <ele>860</ele>
        <time>2022-05-01T11:55:05Z</time>
      </trkpt>
      <trkpt lat="45.70221" lon="3.8518">
        <ele>863</ele>
        <time>2022-05-01T11:55:11Z</time>
      </trkpt>
      <trkpt lat="45.70193" lon="3.85181">
        <ele>865</ele>
        <time>2022-05-01T11:55:16Z</time>
      </trkpt>
      <trkpt lat="45.70175" lon="3.85192">
        <ele>865</ele>
        <time>2022-05-01T11:55:19Z</time>
      </trkpt>
      <trkpt lat="45.70145" lon="3.85221">
        <ele>863</ele>
        <time>2022-05-01T11:55:25Z</time>
      </trkpt>
      <trkpt lat="45.70115" lon="3.85237">
        <ele>863</ele>
        <time>2022-05-01T11:55:31Z</time>
      </trkpt>
      <trkpt lat="45.69961" lon="3.85283">
        <ele>868</ele>
        <time>2022-05-01T11:55:59Z</time>
      </trkpt>
      <trkpt lat="45.69898" lon="3.85295">
        <ele>867</ele>
        <time>2022-05-01T11:56:10Z</time>
      </trkpt>
      <trkpt lat="45.69833" lon="3.85322">
        <ele>859</ele>
        <time>2022-05-01T11:56:22Z</time>
      </trkpt>
      <trkpt lat="45.6982" lon="3.85322">
        <ele>858</ele>
        <time>2022-05-01T11:56:25Z</time>
      </trkpt>
      <trkpt lat="45.69805" lon="3.85317">
        <ele>858</ele>
        <time>2022-05-01T11:56:28Z</time>
      </trkpt>
      <trkpt lat="45.69766" lon="3.8528">
        <ele>867</ele>
        <time>2022-05-01T11:56:36Z</time>
      </trkpt>
      <trkpt lat="45.69739" lon="3.85262">
        <ele>872</ele>
        <time>2022-05-01T11:56:41Z</time>
      </trkpt>
      <trkpt lat="45.69713" lon="3.85255">
        <ele>877</ele>
        <time>2022-05-01T11:56:46Z</time>
      </trkpt>
      <trkpt lat="45.697" lon="3.8526">
        <ele>877</ele>
        <time>2022-05-01T11:56:48Z</time>
      </trkpt>
      <trkpt lat="45.69689" lon="3.8527">
        <ele>876</ele>
        <time>2022-05-01T11:56:51Z</time>
      </trkpt>
      <trkpt lat="45.69664" lon="3.85326">
        <ele>864</ele>
        <time>2022-05-01T11:56:59Z</time>
      </trkpt>
      <trkpt lat="45.6959" lon="3.85441">
        <ele>859</ele>
        <time>2022-05-01T11:57:18Z</time>
      </trkpt>
      <trkpt lat="45.69513" lon="3.85536">
        <ele>854</ele>
        <time>2022-05-01T11:57:36Z</time>
      </trkpt>
      <trkpt lat="45.69491" lon="3.85614">
        <ele>845</ele>
        <time>2022-05-01T11:57:47Z</time>
      </trkpt>
      <trkpt lat="45.69483" lon="3.85651">
        <ele>845</ele>
        <time>2022-05-01T11:57:52Z</time>
      </trkpt>
      <trkpt lat="45.69483" lon="3.85695">
        <ele>843</ele>
        <time>2022-05-01T11:57:57Z</time>
      </trkpt>
      <trkpt lat="45.69491" lon="3.85771">
        <ele>839</ele>
        <time>2022-05-01T11:58:07Z</time>
      </trkpt>
      <trkpt lat="45.69484" lon="3.85834">
        <ele>839</ele>
        <time>2022-05-01T11:58:15Z</time>
      </trkpt>
      <trkpt lat="45.69484" lon="3.85869">
        <ele>837</ele>
        <time>2022-05-01T11:58:19Z</time>
      </trkpt>
      <trkpt lat="45.69502" lon="3.86142">
        <ele>828</ele>
        <time>2022-05-01T11:58:53Z</time>
      </trkpt>
      <trkpt lat="45.69508" lon="3.86171">
        <ele>829</ele>
        <time>2022-05-01T11:58:57Z</time>
      </trkpt>
      <trkpt lat="45.69519" lon="3.86199">
        <ele>829</ele>
        <time>2022-05-01T11:59:01Z</time>
      </trkpt>
      <trkpt lat="45.69576" lon="3.86281">
        <ele>829</ele>
        <time>2022-05-01T11:59:15Z</time>
      </trkpt>
      <trkpt lat="45.69597" lon="3.86316">
        <ele>831</ele>
        <time>2022-05-01T11:59:21Z</time>
      </trkpt>
      <trkpt lat="45.69605" lon="3.8634">
        <ele>833</ele>
        <time>2022-05-01T11:59:24Z</time>
      </trkpt>
      <trkpt lat="45.69634" lon="3.8652">
        <ele>836</ele>
        <time>2022-05-01T11:59:47Z</time>
      </trkpt>
      <trkpt lat="45.69638" lon="3.86569">
        <ele>835</ele>
        <time>2022-05-01T11:59:53Z</time>
      </trkpt>
      <trkpt lat="45.69634" lon="3.86599">
        <ele>836</ele>
        <time>2022-05-01T11:59:57Z</time>
      </trkpt>
      <trkpt lat="45.69621" lon="3.86628">
        <ele>838</ele>
        <time>2022-05-01T12:00:01Z</time>
      </trkpt>
      <trkpt lat="45.69583" lon="3.86691">
        <ele>845</ele>
        <time>2022-05-01T12:00:12Z</time>
      </trkpt>
      <trkpt lat="45.69558" lon="3.86751">
        <ele>841</ele>
        <time>2022-05-01T12:00:20Z</time>
      </trkpt>
      <trkpt lat="45.69532" lon="3.86776">
        <ele>843</ele>
        <time>2022-05-01T12:00:26Z</time>
      </trkpt>
      <trkpt lat="45.69503" lon="3.86795">
        <ele>846</ele>
        <time>2022-05-01T12:00:32Z</time>
      </trkpt>
      <trkpt lat="45.69492" lon="3.86817">
        <ele>847</ele>
        <time>2022-05-01T12:00:35Z</time>
      </trkpt>
      <trkpt lat="45.69485" lon="3.86853">
        <ele>848</ele>
        <time>2022-05-01T12:00:40Z</time>
      </trkpt>
      <trkpt lat="45.69484" lon="3.86901">
        <ele>847</ele>
        <time>2022-05-01T12:00:46Z</time>
      </trkpt>
      <trkpt lat="45.6945" lon="3.8711">
        <ele>850</ele>
        <time>2022-05-01T12:01:12Z</time>
      </trkpt>
      <trkpt lat="45.69437" lon="3.87136">
        <ele>849</ele>
        <time>2022-05-01T12:01:16Z</time>
      </trkpt>
      <trkpt lat="45.69421" lon="3.87152">
        <ele>849</ele>
        <time>2022-05-01T12:01:20Z</time>
      </trkpt>
      <trkpt lat="45.69374" lon="3.87163">
        <ele>855</ele>
        <time>2022-05-01T12:01:28Z</time>
      </trkpt>
      <trkpt lat="45.6935" lon="3.87177">
        <ele>858</ele>
        <time>2022-05-01T12:01:33Z</time>
      </trkpt>
      <trkpt lat="45.69285" lon="3.87265">
        <ele>858</ele>
        <time>2022-05-01T12:01:49Z</time>
      </trkpt>
      <trkpt lat="45.69262" lon="3.87276">
        <ele>859</ele>
        <time>2022-05-01T12:01:53Z</time>
      </trkpt>
      <trkpt lat="45.69203" lon="3.87261">
        <ele>873</ele>
        <time>2022-05-01T12:02:04Z</time>
      </trkpt>
      <trkpt lat="45.69168" lon="3.87267">
        <ele>876</ele>
        <time>2022-05-01T12:02:10Z</time>
      </trkpt>
      <trkpt lat="45.69121" lon="3.87287">
        <ele>879</ele>
        <time>2022-05-01T12:02:19Z</time>
      </trkpt>
      <trkpt lat="45.69065" lon="3.87331">
        <ele>877</ele>
        <time>2022-05-01T12:02:30Z</time>
      </trkpt>
      <trkpt lat="45.69031" lon="3.87362">
        <ele>877</ele>
        <time>2022-05-01T12:02:37Z</time>
      </trkpt>
      <trkpt lat="45.69021" lon="3.87389">
        <ele>874</ele>
        <time>2022-05-01T12:02:41Z</time>
      </trkpt>
      <trkpt lat="45.69004" lon="3.87453">
        <ele>870</ele>
        <time>2022-05-01T12:02:50Z</time>
      </trkpt>
      <trkpt lat="45.68989" lon="3.87483">
        <ele>868</ele>
        <time>2022-05-01T12:02:54Z</time>
      </trkpt>
      <trkpt lat="45.68973" lon="3.87501">
        <ele>867</ele>
        <time>2022-05-01T12:02:58Z</time>
      </trkpt>
      <trkpt lat="45.68957" lon="3.87509">
        <ele>866</ele>
        <time>2022-05-01T12:03:01Z</time>
      </trkpt>
      <trkpt lat="45.68939" lon="3.87511">
        <ele>867</ele>
        <time>2022-05-01T12:03:04Z</time>
      </trkpt>
      <trkpt lat="45.6892" lon="3.87507">
        <ele>869</ele>
        <time>2022-05-01T12:03:07Z</time>
      </trkpt>
      <trkpt lat="45.6891" lon="3.87502">
        <ele>870</ele>
        <time>2022-05-01T12:03:09Z</time>
      </trkpt>
      <trkpt lat="45.68816" lon="3.87438">
        <ele>879</ele>
        <time>2022-05-01T12:03:28Z</time>
      </trkpt>
      <trkpt lat="45.68796" lon="3.8743">
        <ele>880</ele>
        <time>2022-05-01T12:03:31Z</time>
      </trkpt>
      <trkpt lat="45.68745" lon="3.87423">
        <ele>880</ele>
        <time>2022-05-01T12:03:41Z</time>
      </trkpt>
      <trkpt lat="45.68677" lon="3.87431">
        <ele>880</ele>
        <time>2022-05-01T12:03:53Z</time>
      </trkpt>
      <trkpt lat="45.68577" lon="3.87453">
        <ele>879</ele>
        <time>2022-05-01T12:04:11Z</time>
      </trkpt>
      <trkpt lat="45.6855" lon="3.87461">
        <ele>878</ele>
        <time>2022-05-01T12:04:16Z</time>
      </trkpt>
      <trkpt lat="45.68524" lon="3.87459">
        <ele>879</ele>
        <time>2022-05-01T12:04:20Z</time>
      </trkpt>
      <trkpt lat="45.68504" lon="3.8745">
        <ele>880</ele>
        <time>2022-05-01T12:04:24Z</time>
      </trkpt>
      <trkpt lat="45.68439" lon="3.87408">
        <ele>887</ele>
        <time>2022-05-01T12:04:37Z</time>
      </trkpt>
      <trkpt lat="45.68418" lon="3.87399">
        <ele>888</ele>
        <time>2022-05-01T12:04:41Z</time>
      </trkpt>
      <trkpt lat="45.6839" lon="3.87395">
        <ele>889</ele>
        <time>2022-05-01T12:04:46Z</time>
      </trkpt>
      <trkpt lat="45.6837" lon="3.87398">
        <ele>889</ele>
        <time>2022-05-01T12:04:49Z</time>
      </trkpt>
      <trkpt lat="45.68302" lon="3.87431">
        <ele>885</ele>
        <time>2022-05-01T12:05:02Z</time>
      </trkpt>
      <trkpt lat="45.68284" lon="3.87434">
        <ele>886</ele>
        <time>2022-05-01T12:05:05Z</time>
      </trkpt>
      <trkpt lat="45.6825" lon="3.87421">
        <ele>889</ele>
        <time>2022-05-01T12:05:11Z</time>
      </trkpt>
      <trkpt lat="45.68233" lon="3.87406">
        <ele>888</ele>
        <time>2022-05-01T12:05:15Z</time>
      </trkpt>
      <trkpt lat="45.68219" lon="3.87382">
        <ele>888</ele>
        <time>2022-05-01T12:05:19Z</time>
      </trkpt>
      <trkpt lat="45.68174" lon="3.87232">
        <ele>895</ele>
        <time>2022-05-01T12:05:39Z</time>
      </trkpt>
      <trkpt lat="45.68159" lon="3.87203">
        <ele>897</ele>
        <time>2022-05-01T12:05:44Z</time>
      </trkpt>
      <trkpt lat="45.68132" lon="3.8719">
        <ele>901</ele>
        <time>2022-05-01T12:05:49Z</time>
      </trkpt>
      <trkpt lat="45.68111" lon="3.87195">
        <ele>903</ele>
        <time>2022-05-01T12:05:53Z</time>
      </trkpt>
      <trkpt lat="45.68095" lon="3.87212">
        <ele>902</ele>
        <time>2022-05-01T12:05:56Z</time>
      </trkpt>
      <trkpt lat="45.68052" lon="3.87301">
        <ele>896</ele>
        <time>2022-05-01T12:06:10Z</time>
      </trkpt>
      <trkpt lat="45.68038" lon="3.87318">
        <ele>897</ele>
        <time>2022-05-01T12:06:13Z</time>
      </trkpt>
      <trkpt lat="45.68025" lon="3.87321">
        <ele>899</ele>
        <time>2022-05-01T12:06:15Z</time>
      </trkpt>
      <trkpt lat="45.67997" lon="3.8732">
        <ele>905</ele>
        <time>2022-05-01T12:06:20Z</time>
      </trkpt>
      <trkpt lat="45.67979" lon="3.87329">
        <ele>907</ele>
        <time>2022-05-01T12:06:23Z</time>
      </trkpt>
      <trkpt lat="45.67965" lon="3.87343">
        <ele>908</ele>
        <time>2022-05-01T12:06:27Z</time>
      </trkpt>
      <trkpt lat="45.67957" lon="3.87362">
        <ele>908</ele>
        <time>2022-05-01T12:06:29Z</time>
      </trkpt>
      <trkpt lat="45.67952" lon="3.87388">
        <ele>907</ele>
        <time>2022-05-01T12:06:33Z</time>
      </trkpt>
      <trkpt lat="45.67951" lon="3.87456">
        <ele>904</ele>
        <time>2022-05-01T12:06:41Z</time>
      </trkpt>
      <trkpt lat="45.67947" lon="3.87487">
        <ele>903</ele>
        <time>2022-05-01T12:06:45Z</time>
      </trkpt>
      <trkpt lat="45.67894" lon="3.876">
        <ele>903</ele>
        <time>2022-05-01T12:07:02Z</time>
      </trkpt>
      <trkpt lat="45.67882" lon="3.87616">
        <ele>902</ele>
        <time>2022-05-01T12:07:05Z</time>
      </trkpt>
      <trkpt lat="45.67865" lon="3.87618">
        <ele>905</ele>
        <time>2022-05-01T12:07:08Z</time>
      </trkpt>
      <trkpt lat="45.67827" lon="3.87601">
        <ele>915</ele>
        <time>2022-05-01T12:07:15Z</time>
      </trkpt>
      <trkpt lat="45.67812" lon="3.87602">
        <ele>917</ele>
        <time>2022-05-01T12:07:18Z</time>
      </trkpt>
      <trkpt lat="45.67792" lon="3.87612">
        <ele>920</ele>
        <time>2022-05-01T12:07:21Z</time>
      </trkpt>
      <trkpt lat="45.67782" lon="3.87624">
        <ele>921</ele>
        <time>2022-05-01T12:07:24Z</time>
      </trkpt>
      <trkpt lat="45.67741" lon="3.8773">
        <ele>920</ele>
        <time>2022-05-01T12:07:39Z</time>
      </trkpt>
      <trkpt lat="45.67741" lon="3.87761">
        <ele>917</ele>
        <time>2022-05-01T12:07:43Z</time>
      </trkpt>
      <trkpt lat="45.6775" lon="3.878">
        <ele>913</ele>
        <time>2022-05-01T12:07:48Z</time>
      </trkpt>
      <trkpt lat="45.67751" lon="3.87819">
        <ele>911</ele>
        <time>2022-05-01T12:07:50Z</time>
      </trkpt>
      <trkpt lat="45.67742" lon="3.87892">
        <ele>914</ele>
        <time>2022-05-01T12:07:59Z</time>
      </trkpt>
      <trkpt lat="45.67744" lon="3.87915">
        <ele>913</ele>
        <time>2022-05-01T12:08:02Z</time>
      </trkpt>
      <trkpt lat="45.67765" lon="3.88027">
        <ele>916</ele>
        <time>2022-05-01T12:08:17Z</time>
      </trkpt>
      <trkpt lat="45.67768" lon="3.88055">
        <ele>915</ele>
        <time>2022-05-01T12:08:20Z</time>
      </trkpt>
      <trkpt lat="45.67765" lon="3.88087">
        <ele>916</ele>
        <time>2022-05-01T12:08:24Z</time>
      </trkpt>
      <trkpt lat="45.67727" lon="3.88219">
        <ele>921</ele>
        <time>2022-05-01T12:08:42Z</time>
      </trkpt>
      <trkpt lat="45.67721" lon="3.88256">
        <ele>921</ele>
        <time>2022-05-01T12:08:47Z</time>
      </trkpt>
      <trkpt lat="45.67724" lon="3.88282">
        <ele>922</ele>
        <time>2022-05-01T12:08:50Z</time>
      </trkpt>
      <trkpt lat="45.67735" lon="3.88309">
        <ele>921</ele>
        <time>2022-05-01T12:08:54Z</time>
      </trkpt>
      <trkpt lat="45.67753" lon="3.88326">
        <ele>920</ele>
        <time>2022-05-01T12:08:58Z</time>
      </trkpt>
      <trkpt lat="45.67853" lon="3.88357">
        <ele>921</ele>
        <time>2022-05-01T12:09:16Z</time>
      </trkpt>
      <trkpt lat="45.67911" lon="3.88349">
        <ele>920</ele>
        <time>2022-05-01T12:09:26Z</time>
      </trkpt>
      <trkpt lat="45.67999" lon="3.88359">
        <ele>920</ele>
        <time>2022-05-01T12:09:42Z</time>
      </trkpt>
      <trkpt lat="45.68111" lon="3.88397">
        <ele>924</ele>
        <time>2022-05-01T12:10:02Z</time>
      </trkpt>
      <trkpt lat="45.6812" lon="3.88406">
        <ele>924</ele>
        <time>2022-05-01T12:10:04Z</time>
      </trkpt>
      <trkpt lat="45.68125" lon="3.88417">
        <ele>925</ele>
        <time>2022-05-01T12:10:06Z</time>
      </trkpt>
      <trkpt lat="45.68129" lon="3.88435">
        <ele>924</ele>
        <time>2022-05-01T12:10:08Z</time>
      </trkpt>
      <trkpt lat="45.68128" lon="3.8845">
        <ele>924</ele>
        <time>2022-05-01T12:10:10Z</time>
      </trkpt>
      <trkpt lat="45.68045" lon="3.88756">
        <ele>923</ele>
        <time>2022-05-01T12:10:51Z</time>
      </trkpt>
      <trkpt lat="45.68031" lon="3.88842">
        <ele>921</ele>
        <time>2022-05-01T12:11:02Z</time>
      </trkpt>
      <trkpt lat="45.68019" lon="3.88885">
        <ele>918</ele>
        <time>2022-05-01T12:11:08Z</time>
      </trkpt>
      <trkpt lat="45.68007" lon="3.88909">
        <ele>918</ele>
        <time>2022-05-01T12:11:11Z</time>
      </trkpt>
      <trkpt lat="45.67986" lon="3.88934">
        <ele>915</ele>
        <time>2022-05-01T12:11:16Z</time>
      </trkpt>
      <trkpt lat="45.67962" lon="3.88949">
        <ele>914</ele>
        <time>2022-05-01T12:11:21Z</time>
      </trkpt>
      <trkpt lat="45.67938" lon="3.88953">
        <ele>914</ele>
        <time>2022-05-01T12:11:25Z</time>
      </trkpt>
      <trkpt lat="45.67918" lon="3.88949">
        <ele>915</ele>
        <time>2022-05-01T12:11:29Z</time>
      </trkpt>
      <trkpt lat="45.67843" lon="3.88886">
        <ele>915</ele>
        <time>2022-05-01T12:11:44Z</time>
      </trkpt>
      <trkpt lat="45.67817" lon="3.88873">
        <ele>915</ele>
        <time>2022-05-01T12:11:49Z</time>
      </trkpt>
      <trkpt lat="45.6779" lon="3.88877">
        <ele>914</ele>
        <time>2022-05-01T12:11:54Z</time>
      </trkpt>
      <trkpt lat="45.67782" lon="3.88882">
        <ele>914</ele>
        <time>2022-05-01T12:11:56Z</time>
      </trkpt>
      <trkpt lat="45.67795" lon="3.88935">
        <ele>915</ele>
        <time>2022-05-01T12:12:03Z</time>
      </trkpt>
      <trkpt lat="45.67899" lon="3.89137">
        <ele>917</ele>
        <time>2022-05-01T12:12:34Z</time>
      </trkpt>
      <trkpt lat="45.67909" lon="3.8918">
        <ele>918</ele>
        <time>2022-05-01T12:12:39Z</time>
      </trkpt>
      <trkpt lat="45.67911" lon="3.89205">
        <ele>918</ele>
        <time>2022-05-01T12:12:43Z</time>
      </trkpt>
      <trkpt lat="45.67906" lon="3.8925">
        <ele>919</ele>
        <time>2022-05-01T12:12:48Z</time>
      </trkpt>
      <trkpt lat="45.67893" lon="3.89305">
        <ele>919</ele>
        <time>2022-05-01T12:12:55Z</time>
      </trkpt>
      <trkpt lat="45.67834" lon="3.8949">
        <ele>916</ele>
        <time>2022-05-01T12:13:21Z</time>
      </trkpt>
      <trkpt lat="45.67818" lon="3.89571">
        <ele>917</ele>
        <time>2022-05-01T12:13:31Z</time>
      </trkpt>
      <trkpt lat="45.67792" lon="3.8982">
        <ele>919</ele>
        <time>2022-05-01T12:14:02Z</time>
      </trkpt>
      <trkpt lat="45.67783" lon="3.89854">
        <ele>918</ele>
        <time>2022-05-01T12:14:07Z</time>
      </trkpt>
      <trkpt lat="45.67707" lon="3.90029">
        <ele>914</ele>
        <time>2022-05-01T12:14:33Z</time>
      </trkpt>
      <trkpt lat="45.67685" lon="3.90132">
        <ele>911</ele>
        <time>2022-05-01T12:14:46Z</time>
      </trkpt>
      <trkpt lat="45.67676" lon="3.90193">
        <ele>909</ele>
        <time>2022-05-01T12:14:54Z</time>
      </trkpt>
      <trkpt lat="45.67661" lon="3.90247">
        <ele>908</ele>
        <time>2022-05-01T12:15:01Z</time>
      </trkpt>
      <trkpt lat="45.67636" lon="3.9029">
        <ele>906</ele>
        <time>2022-05-01T12:15:08Z</time>
      </trkpt>
      <trkpt lat="45.67582" lon="3.90352">
        <ele>903</ele>
        <time>2022-05-01T12:15:20Z</time>
      </trkpt>
      <trkpt lat="45.67508" lon="3.904">
        <ele>903</ele>
        <time>2022-05-01T12:15:35Z</time>
      </trkpt>
      <trkpt lat="45.67427" lon="3.9046">
        <ele>897</ele>
        <time>2022-05-01T12:15:51Z</time>
      </trkpt>
      <trkpt lat="45.67395" lon="3.90503">
        <ele>894</ele>
        <time>2022-05-01T12:15:59Z</time>
      </trkpt>
      <trkpt lat="45.67378" lon="3.90533">
        <ele>892</ele>
        <time>2022-05-01T12:16:04Z</time>
      </trkpt>
      <trkpt lat="45.67365" lon="3.90541">
        <ele>892</ele>
        <time>2022-05-01T12:16:06Z</time>
      </trkpt>
      <trkpt lat="45.67318" lon="3.90556">
        <ele>891</ele>
        <time>2022-05-01T12:16:15Z</time>
      </trkpt>
      <trkpt lat="45.67305" lon="3.90554">
        <ele>889</ele>
        <time>2022-05-01T12:16:17Z</time>
      </trkpt>
      <trkpt lat="45.67272" lon="3.90528">
        <ele>887</ele>
        <time>2022-05-01T12:16:24Z</time>
      </trkpt>
      <trkpt lat="45.67263" lon="3.90505">
        <ele>886</ele>
        <time>2022-05-01T12:16:27Z</time>
      </trkpt>
      <trkpt lat="45.6723" lon="3.90373">
        <ele>884</ele>
        <time>2022-05-01T12:16:44Z</time>
      </trkpt>
      <trkpt lat="45.67145" lon="3.90152">
        <ele>884</ele>
        <time>2022-05-01T12:17:16Z</time>
      </trkpt>
      <trkpt lat="45.67131" lon="3.90133">
        <ele>885</ele>
        <time>2022-05-01T12:17:19Z</time>
      </trkpt>
      <trkpt lat="45.67119" lon="3.90127">
        <ele>884</ele>
        <time>2022-05-01T12:17:21Z</time>
      </trkpt>
      <trkpt lat="45.67106" lon="3.9013">
        <ele>883</ele>
        <time>2022-05-01T12:17:24Z</time>
      </trkpt>
      <trkpt lat="45.67072" lon="3.90154">
        <ele>876</ele>
        <time>2022-05-01T12:17:30Z</time>
      </trkpt>
      <trkpt lat="45.67048" lon="3.90163">
        <ele>874</ele>
        <time>2022-05-01T12:17:35Z</time>
      </trkpt>
      <trkpt lat="45.67024" lon="3.9016">
        <ele>874</ele>
        <time>2022-05-01T12:17:39Z</time>
      </trkpt>
      <trkpt lat="45.66967" lon="3.90147">
        <ele>868</ele>
        <time>2022-05-01T12:17:49Z</time>
      </trkpt>
      <trkpt lat="45.66948" lon="3.90114">
        <ele>867</ele>
        <time>2022-05-01T12:17:55Z</time>
      </trkpt>
      <trkpt lat="45.66947" lon="3.90035">
        <ele>873</ele>
        <time>2022-05-01T12:18:05Z</time>
      </trkpt>
      <trkpt lat="45.66927" lon="3.90006">
        <ele>871</ele>
        <time>2022-05-01T12:18:10Z</time>
      </trkpt>
      <trkpt lat="45.66891" lon="3.89972">
        <ele>868</ele>
        <time>2022-05-01T12:18:17Z</time>
      </trkpt>
      <trkpt lat="45.66817" lon="3.89867">
        <ele>874</ele>
        <time>2022-05-01T12:18:36Z</time>
      </trkpt>
      <trkpt lat="45.66783" lon="3.89852">
        <ele>873</ele>
        <time>2022-05-01T12:18:42Z</time>
      </trkpt>
      <trkpt lat="45.66721" lon="3.89878">
        <ele>856</ele>
        <time>2022-05-01T12:18:54Z</time>
      </trkpt>
      <trkpt lat="45.66577" lon="3.8981">
        <ele>851</ele>
        <time>2022-05-01T12:19:21Z</time>
      </trkpt>
      <trkpt lat="45.66479" lon="3.89695">
        <ele>857</ele>
        <time>2022-05-01T12:19:43Z</time>
      </trkpt>
      <trkpt lat="45.66375" lon="3.89635">
        <ele>843</ele>
        <time>2022-05-01T12:20:03Z</time>
      </trkpt>
      <trkpt lat="45.66349" lon="3.89611">
        <ele>840</ele>
        <time>2022-05-01T12:20:09Z</time>
      </trkpt>
      <trkpt lat="45.66331" lon="3.89554">
        <ele>842</ele>
        <time>2022-05-01T12:20:16Z</time>
      </trkpt>
      <trkpt lat="45.66318" lon="3.89538">
        <ele>844</ele>
        <time>2022-05-01T12:20:20Z</time>
      </trkpt>
      <trkpt lat="45.66295" lon="3.89551">
        <ele>843</ele>
        <time>2022-05-01T12:20:24Z</time>
      </trkpt>
      <trkpt lat="45.66273" lon="3.8962">
        <ele>831</ele>
        <time>2022-05-01T12:20:33Z</time>
      </trkpt>
      <trkpt lat="45.66266" lon="3.8963">
        <ele>829</ele>
        <time>2022-05-01T12:20:35Z</time>
      </trkpt>
      <trkpt lat="45.66253" lon="3.89637">
        <ele>827</ele>
        <time>2022-05-01T12:20:38Z</time>
      </trkpt>
      <trkpt lat="45.66216" lon="3.89622">
        <ele>827</ele>
        <time>2022-05-01T12:20:44Z</time>
      </trkpt>
      <trkpt lat="45.66168" lon="3.89589">
        <ele>828</ele>
        <time>2022-05-01T12:20:54Z</time>
      </trkpt>
      <trkpt lat="45.66135" lon="3.89554">
        <ele>832</ele>
        <time>2022-05-01T12:21:01Z</time>
      </trkpt>
      <trkpt lat="45.66044" lon="3.89548">
        <ele>826</ele>
        <time>2022-05-01T12:21:17Z</time>
      </trkpt>
      <trkpt lat="45.66028" lon="3.8956">
        <ele>824</ele>
        <time>2022-05-01T12:21:21Z</time>
      </trkpt>
      <trkpt lat="45.66007" lon="3.89594">
        <ele>822</ele>
        <time>2022-05-01T12:21:26Z</time>
      </trkpt>
      <trkpt lat="45.65995" lon="3.89663">
        <ele>825</ele>
        <time>2022-05-01T12:21:35Z</time>
      </trkpt>
      <trkpt lat="45.65983" lon="3.8968">
        <ele>827</ele>
        <time>2022-05-01T12:21:38Z</time>
      </trkpt>
      <trkpt lat="45.65925" lon="3.89709">
        <ele>836</ele>
        <time>2022-05-01T12:21:49Z</time>
      </trkpt>
      <trkpt lat="45.65914" lon="3.89722">
        <ele>837</ele>
        <time>2022-05-01T12:21:52Z</time>
      </trkpt>
      <trkpt lat="45.65907" lon="3.89754">
        <ele>837</ele>
        <time>2022-05-01T12:21:56Z</time>
      </trkpt>
      <trkpt lat="45.65891" lon="3.89781">
        <ele>841</ele>
        <time>2022-05-01T12:22:00Z</time>
      </trkpt>
      <trkpt lat="45.65868" lon="3.89799">
        <ele>842</ele>
        <time>2022-05-01T12:22:05Z</time>
      </trkpt>
      <trkpt lat="45.65856" lon="3.89801">
        <ele>842</ele>
        <time>2022-05-01T12:22:07Z</time>
      </trkpt>
      <trkpt lat="45.65845" lon="3.89796">
        <ele>842</ele>
        <time>2022-05-01T12:22:09Z</time>
      </trkpt>
      <trkpt lat="45.65835" lon="3.89784">
        <ele>842</ele>
        <time>2022-05-01T12:22:11Z</time>
      </trkpt>
      <trkpt lat="45.65834" lon="3.8976">
        <ele>842</ele>
        <time>2022-05-01T12:22:14Z</time>
      </trkpt>
      <trkpt lat="45.65842" lon="3.89736">
        <ele>843</ele>
        <time>2022-05-01T12:22:18Z</time>
      </trkpt>
      <trkpt lat="45.6589" lon="3.89682">
        <ele>842</ele>
        <time>2022-05-01T12:22:29Z</time>
      </trkpt>
      <trkpt lat="45.65899" lon="3.89662">
        <ele>841</ele>
        <time>2022-05-01T12:22:31Z</time>
      </trkpt>
      <trkpt lat="45.65901" lon="3.89644">
        <ele>840</ele>
        <time>2022-05-01T12:22:34Z</time>
      </trkpt>
      <trkpt lat="45.65898" lon="3.8962">
        <ele>841</ele>
        <time>2022-05-01T12:22:37Z</time>
      </trkpt>
      <trkpt lat="45.6586" lon="3.89522">
        <ele>848</ele>
        <time>2022-05-01T12:22:51Z</time>
      </trkpt>
      <trkpt lat="45.65852" lon="3.89476">
        <ele>849</ele>
        <time>2022-05-01T12:22:57Z</time>
      </trkpt>
      <trkpt lat="45.65843" lon="3.89454">
        <ele>851</ele>
        <time>2022-05-01T12:23:00Z</time>
      </trkpt>
      <trkpt lat="45.65805" lon="3.89397">
        <ele>858</ele>
        <time>2022-05-01T12:23:10Z</time>
      </trkpt>
      <trkpt lat="45.65746" lon="3.89255">
        <ele>864</ele>
        <time>2022-05-01T12:23:30Z</time>
      </trkpt>
      <trkpt lat="45.65717" lon="3.8916">
        <ele>870</ele>
        <time>2022-05-01T12:23:43Z</time>
      </trkpt>
      <trkpt lat="45.65704" lon="3.89132">
        <ele>872</ele>
        <time>2022-05-01T12:23:47Z</time>
      </trkpt>
      <trkpt lat="45.65628" lon="3.89019">
        <ele>885</ele>
        <time>2022-05-01T12:24:07Z</time>
      </trkpt>
      <trkpt lat="45.6562" lon="3.89011">
        <ele>886</ele>
        <time>2022-05-01T12:24:08Z</time>
      </trkpt>
      <trkpt lat="45.65607" lon="3.89004">
        <ele>888</ele>
        <time>2022-05-01T12:24:11Z</time>
      </trkpt>
      <trkpt lat="45.65599" lon="3.89005">
        <ele>890</ele>
        <time>2022-05-01T12:24:12Z</time>
      </trkpt>
      <trkpt lat="45.65589" lon="3.89016">
        <ele>892</ele>
        <time>2022-05-01T12:24:15Z</time>
      </trkpt>
      <trkpt lat="45.65582" lon="3.89033">
        <ele>895</ele>
        <time>2022-05-01T12:24:17Z</time>
      </trkpt>
      <trkpt lat="45.65583" lon="3.89054">
        <ele>897</ele>
        <time>2022-05-01T12:24:20Z</time>
      </trkpt>
      <trkpt lat="45.65594" lon="3.89074">
        <ele>895</ele>
        <time>2022-05-01T12:24:23Z</time>
      </trkpt>
      <trkpt lat="45.65606" lon="3.8908">
        <ele>893</ele>
        <time>2022-05-01T12:24:25Z</time>
      </trkpt>
      <trkpt lat="45.65629" lon="3.89085">
        <ele>887</ele>
        <time>2022-05-01T12:24:29Z</time>
      </trkpt>
      <trkpt lat="45.65643" lon="3.891">
        <ele>885</ele>
        <time>2022-05-01T12:24:32Z</time>
      </trkpt>
      <trkpt lat="45.65654" lon="3.89125">
        <ele>886</ele>
        <time>2022-05-01T12:24:36Z</time>
      </trkpt>
      <trkpt lat="45.6566" lon="3.8916">
        <ele>889</ele>
        <time>2022-05-01T12:24:40Z</time>
      </trkpt>
      <trkpt lat="45.65678" lon="3.89438">
        <ele>902</ele>
        <time>2022-05-01T12:25:15Z</time>
      </trkpt>
      <trkpt lat="45.65671" lon="3.89474">
        <ele>903</ele>
        <time>2022-05-01T12:25:20Z</time>
      </trkpt>
      <trkpt lat="45.65656" lon="3.89502">
        <ele>906</ele>
        <time>2022-05-01T12:25:24Z</time>
      </trkpt>
      <trkpt lat="45.65502" lon="3.89742">
        <ele>920</ele>
        <time>2022-05-01T12:26:05Z</time>
      </trkpt>
      <trkpt lat="45.6547" lon="3.89777">
        <ele>922</ele>
        <time>2022-05-01T12:26:12Z</time>
      </trkpt>
      <trkpt lat="45.65179" lon="3.90021">
        <ele>952</ele>
        <time>2022-05-01T12:27:12Z</time>
      </trkpt>
      <trkpt lat="45.65094" lon="3.90144">
        <ele>952</ele>
        <time>2022-05-01T12:27:33Z</time>
      </trkpt>
      <trkpt lat="45.65058" lon="3.90172">
        <ele>955</ele>
        <time>2022-05-01T12:27:41Z</time>
      </trkpt>
      <trkpt lat="45.64976" lon="3.90227">
        <ele>963</ele>
        <time>2022-05-01T12:27:57Z</time>
      </trkpt>
      <trkpt lat="45.64956" lon="3.90253">
        <ele>964</ele>
        <time>2022-05-01T12:28:02Z</time>
      </trkpt>
      <trkpt lat="45.64939" lon="3.9029">
        <ele>968</ele>
        <time>2022-05-01T12:28:07Z</time>
      </trkpt>
      <trkpt lat="45.64922" lon="3.90368">
        <ele>971</ele>
        <time>2022-05-01T12:28:17Z</time>
      </trkpt>
      <trkpt lat="45.64907" lon="3.90415">
        <ele>973</ele>
        <time>2022-05-01T12:28:24Z</time>
      </trkpt>
      <trkpt lat="45.64886" lon="3.90456">
        <ele>978</ele>
        <time>2022-05-01T12:28:30Z</time>
      </trkpt>
      <trkpt lat="45.64814" lon="3.90564">
        <ele>987</ele>
        <time>2022-05-01T12:28:49Z</time>
      </trkpt>
      <trkpt lat="45.64799" lon="3.9058">
        <ele>988</ele>
        <time>2022-05-01T12:28:52Z</time>
      </trkpt>
      <trkpt lat="45.64746" lon="3.90626">
        <ele>994</ele>
        <time>2022-05-01T12:29:03Z</time>
      </trkpt>
      <trkpt lat="45.64721" lon="3.90658">
        <ele>994</ele>
        <time>2022-05-01T12:29:09Z</time>
      </trkpt>
      <trkpt lat="45.64708" lon="3.90696">
        <ele>997</ele>
        <time>2022-05-01T12:29:14Z</time>
      </trkpt>
      <trkpt lat="45.64704" lon="3.90748">
        <ele>998</ele>
        <time>2022-05-01T12:29:21Z</time>
      </trkpt>
      <trkpt lat="45.64702" lon="3.90828">
        <ele>998</ele>
        <time>2022-05-01T12:29:31Z</time>
      </trkpt>
      <trkpt lat="45.64687" lon="3.90873">
        <ele>1001</ele>
        <time>2022-05-01T12:29:37Z</time>
      </trkpt>
      <trkpt lat="45.64566" lon="3.91102">
        <ele>1022</ele>
        <time>2022-05-01T12:30:13Z</time>
      </trkpt>
      <trkpt lat="45.64533" lon="3.91151">
        <ele>1022</ele>
        <time>2022-05-01T12:30:21Z</time>
      </trkpt>
      <trkpt lat="45.64478" lon="3.91203">
        <ele>1026</ele>
        <time>2022-05-01T12:30:33Z</time>
      </trkpt>
      <trkpt lat="45.64435" lon="3.91234">
        <ele>1032</ele>
        <time>2022-05-01T12:30:41Z</time>
      </trkpt>
      <trkpt lat="45.6429" lon="3.91318">
        <ele>1044</ele>
        <time>2022-05-01T12:31:09Z</time>
      </trkpt>
      <trkpt lat="45.64267" lon="3.91339">
        <ele>1043</ele>
        <time>2022-05-01T12:31:14Z</time>
      </trkpt>
      <trkpt lat="45.64253" lon="3.91364">
        <ele>1043</ele>
        <time>2022-05-01T12:31:18Z</time>
      </trkpt>
      <trkpt lat="45.64245" lon="3.91384">
        <ele>1042</ele>
        <time>2022-05-01T12:31:21Z</time>
      </trkpt>
      <trkpt lat="45.64238" lon="3.91422">
        <ele>1039</ele>
        <time>2022-05-01T12:31:26Z</time>
      </trkpt>
      <trkpt lat="45.64239" lon="3.91457">
        <ele>1040</ele>
        <time>2022-05-01T12:31:30Z</time>
      </trkpt>
      <trkpt lat="45.64251" lon="3.91509">
        <ele>1042</ele>
        <time>2022-05-01T12:31:37Z</time>
      </trkpt>
      <trkpt lat="45.64276" lon="3.91586">
        <ele>1045</ele>
        <time>2022-05-01T12:31:48Z</time>
      </trkpt>
      <trkpt lat="45.64287" lon="3.91635">
        <ele>1046</ele>
        <time>2022-05-01T12:31:54Z</time>
      </trkpt>
      <trkpt lat="45.64288" lon="3.91672">
        <ele>1049</ele>
        <time>2022-05-01T12:31:59Z</time>
      </trkpt>
      <trkpt lat="45.64279" lon="3.91716">
        <ele>1052</ele>
        <time>2022-05-01T12:32:04Z</time>
      </trkpt>
      <trkpt lat="45.64234" lon="3.91837">
        <ele>1056</ele>
        <time>2022-05-01T12:32:21Z</time>
      </trkpt>
      <trkpt lat="45.64212" lon="3.9191">
        <ele>1053</ele>
        <time>2022-05-01T12:32:31Z</time>
      </trkpt>
      <trkpt lat="45.64205" lon="3.91992">
        <ele>1048</ele>
        <time>2022-05-01T12:32:41Z</time>
      </trkpt>
      <trkpt lat="45.64203" lon="3.92112">
        <ele>1043</ele>
        <time>2022-05-01T12:32:56Z</time>
      </trkpt>
      <trkpt lat="45.64207" lon="3.922">
        <ele>1042</ele>
        <time>2022-05-01T12:33:07Z</time>
      </trkpt>
      <trkpt lat="45.64207" lon="3.92254">
        <ele>1042</ele>
        <time>2022-05-01T12:33:14Z</time>
      </trkpt>
      <trkpt lat="45.64194" lon="3.9234">
        <ele>1043</ele>
        <time>2022-05-01T12:33:25Z</time>
      </trkpt>
      <trkpt lat="45.64184" lon="3.92376">
        <ele>1043</ele>
        <time>2022-05-01T12:33:30Z</time>
      </trkpt>
      <trkpt lat="45.64122" lon="3.92498">
        <ele>1037</ele>
        <time>2022-05-01T12:33:49Z</time>
      </trkpt>
      <trkpt lat="45.64085" lon="3.92562">
        <ele>1033</ele>
        <time>2022-05-01T12:33:59Z</time>
      </trkpt>
      <trkpt lat="45.64078" lon="3.92584">
        <ele>1032</ele>
        <time>2022-05-01T12:34:02Z</time>
      </trkpt>
      <trkpt lat="45.64075" lon="3.92613">
        <ele>1030</ele>
        <time>2022-05-01T12:34:06Z</time>
      </trkpt>
      <trkpt lat="45.6408" lon="3.92641">
        <ele>1030</ele>
        <time>2022-05-01T12:34:09Z</time>
      </trkpt>
      <trkpt lat="45.64137" lon="3.92833">
        <ele>1027</ele>
        <time>2022-05-01T12:34:35Z</time>
      </trkpt>
      <trkpt lat="45.64147" lon="3.92874">
        <ele>1027</ele>
        <time>2022-05-01T12:34:41Z</time>
      </trkpt>
      <trkpt lat="45.6415" lon="3.92916">
        <ele>1025</ele>
        <time>2022-05-01T12:34:46Z</time>
      </trkpt>
      <trkpt lat="45.64145" lon="3.92958">
        <ele>1023</ele>
        <time>2022-05-01T12:34:51Z</time>
      </trkpt>
      <trkpt lat="45.64129" lon="3.93008">
        <ele>1019</ele>
        <time>2022-05-01T12:34:58Z</time>
      </trkpt>
      <trkpt lat="45.64104" lon="3.93045">
        <ele>1017</ele>
        <time>2022-05-01T12:35:04Z</time>
      </trkpt>
      <trkpt lat="45.64076" lon="3.93068">
        <ele>1016</ele>
        <time>2022-05-01T12:35:10Z</time>
      </trkpt>
      <trkpt lat="45.64051" lon="3.93081">
        <ele>1016</ele>
        <time>2022-05-01T12:35:15Z</time>
      </trkpt>
      <trkpt lat="45.63958" lon="3.93091">
        <ele>1009</ele>
        <time>2022-05-01T12:35:31Z</time>
      </trkpt>
      <trkpt lat="45.63938" lon="3.93098">
        <ele>1007</ele>
        <time>2022-05-01T12:35:35Z</time>
      </trkpt>
      <trkpt lat="45.63907" lon="3.93125">
        <ele>1007</ele>
        <time>2022-05-01T12:35:42Z</time>
      </trkpt>
      <trkpt lat="45.63862" lon="3.93181">
        <ele>1004</ele>
        <time>2022-05-01T12:35:52Z</time>
      </trkpt>
      <trkpt lat="45.63812" lon="3.9325">
        <ele>1003</ele>
        <time>2022-05-01T12:36:04Z</time>
      </trkpt>
      <trkpt lat="45.63785" lon="3.93314">
        <ele>1002</ele>
        <time>2022-05-01T12:36:14Z</time>
      </trkpt>
      <trkpt lat="45.63759" lon="3.93428">
        <ele>1002</ele>
        <time>2022-05-01T12:36:29Z</time>
      </trkpt>
      <trkpt lat="45.63662" lon="3.93709">
        <ele>992</ele>
        <time>2022-05-01T12:37:08Z</time>
      </trkpt>
      <trkpt lat="45.63623" lon="3.9379">
        <ele>987</ele>
        <time>2022-05-01T12:37:20Z</time>
      </trkpt>
      <trkpt lat="45.63608" lon="3.93845">
        <ele>986</ele>
        <time>2022-05-01T12:37:27Z</time>
      </trkpt>
      <trkpt lat="45.63557" lon="3.94078">
        <ele>988</ele>
        <time>2022-05-01T12:37:58Z</time>
      </trkpt>
      <trkpt lat="45.6354" lon="3.94123">
        <ele>988</ele>
        <time>2022-05-01T12:38:04Z</time>
      </trkpt>
      <trkpt lat="45.63494" lon="3.94219">
        <ele>989</ele>
        <time>2022-05-01T12:38:18Z</time>
      </trkpt>
      <trkpt lat="45.63468" lon="3.94257">
        <ele>986</ele>
        <time>2022-05-01T12:38:25Z</time>
      </trkpt>
      <trkpt lat="45.63446" lon="3.94279">
        <ele>981</ele>
        <time>2022-05-01T12:38:30Z</time>
      </trkpt>
      <trkpt lat="45.63427" lon="3.94311">
        <ele>980</ele>
        <time>2022-05-01T12:38:35Z</time>
      </trkpt>
      <trkpt lat="45.63391" lon="3.94429">
        <ele>976</ele>
        <time>2022-05-01T12:38:51Z</time>
      </trkpt>
      <trkpt lat="45.63367" lon="3.94558">
        <ele>976</ele>
        <time>2022-05-01T12:39:08Z</time>
      </trkpt>
      <trkpt lat="45.63352" lon="3.94595">
        <ele>973</ele>
        <time>2022-05-01T12:39:13Z</time>
      </trkpt>
      <trkpt lat="45.63312" lon="3.94658">
        <ele>962</ele>
        <time>2022-05-01T12:39:24Z</time>
      </trkpt>
      <trkpt lat="45.63298" lon="3.94689">
        <ele>959</ele>
        <time>2022-05-01T12:39:28Z</time>
      </trkpt>
      <trkpt lat="45.63284" lon="3.94752">
        <ele>957</ele>
        <time>2022-05-01T12:39:36Z</time>
      </trkpt>
      <trkpt lat="45.63275" lon="3.94814">
        <ele>958</ele>
        <time>2022-05-01T12:39:44Z</time>
      </trkpt>
      <trkpt lat="45.63252" lon="3.94891">
        <ele>958</ele>
        <time>2022-05-01T12:39:55Z</time>
      </trkpt>
      <trkpt lat="45.63225" lon="3.94968">
        <ele>955</ele>
        <time>2022-05-01T12:40:05Z</time>
      </trkpt>
      <trkpt lat="45.63194" lon="3.95032">
        <ele>948</ele>
        <time>2022-05-01T12:40:15Z</time>
      </trkpt>
      <trkpt lat="45.63178" lon="3.95074">
        <ele>946</ele>
        <time>2022-05-01T12:40:21Z</time>
      </trkpt>
      <trkpt lat="45.63172" lon="3.95104">
        <ele>944</ele>
        <time>2022-05-01T12:40:25Z</time>
      </trkpt>
      <trkpt lat="45.63172" lon="3.95145">
        <ele>943</ele>
        <time>2022-05-01T12:40:30Z</time>
      </trkpt>
      <trkpt lat="45.63185" lon="3.95208">
        <ele>942</ele>
        <time>2022-05-01T12:40:38Z</time>
      </trkpt>
      <trkpt lat="45.63202" lon="3.95267">
        <ele>940</ele>
        <time>2022-05-01T12:40:46Z</time>
      </trkpt>
      <trkpt lat="45.63215" lon="3.95296">
        <ele>939</ele>
        <time>2022-05-01T12:40:50Z</time>
      </trkpt>
      <trkpt lat="45.63261" lon="3.9535">
        <ele>940</ele>
        <time>2022-05-01T12:41:01Z</time>
      </trkpt>
      <trkpt lat="45.63276" lon="3.95385">
        <ele>940</ele>
        <time>2022-05-01T12:41:06Z</time>
      </trkpt>
      <trkpt lat="45.63284" lon="3.95427">
        <ele>938</ele>
        <time>2022-05-01T12:41:12Z</time>
      </trkpt>
      <trkpt lat="45.63283" lon="3.95512">
        <ele>935</ele>
        <time>2022-05-01T12:41:22Z</time>
      </trkpt>
      <trkpt lat="45.63278" lon="3.95559">
        <ele>932</ele>
        <time>2022-05-01T12:41:28Z</time>
      </trkpt>
      <trkpt lat="45.63284" lon="3.95603">
        <ele>930</ele>
        <time>2022-05-01T12:41:34Z</time>
      </trkpt>
      <trkpt lat="45.633" lon="3.95652">
        <ele>930</ele>
        <time>2022-05-01T12:41:40Z</time>
      </trkpt>
      <trkpt lat="45.63316" lon="3.95685">
        <ele>930</ele>
        <time>2022-05-01T12:41:45Z</time>
      </trkpt>
      <trkpt lat="45.63322" lon="3.95711">
        <ele>929</ele>
        <time>2022-05-01T12:41:49Z</time>
      </trkpt>
      <trkpt lat="45.63322" lon="3.95771">
        <ele>926</ele>
        <time>2022-05-01T12:41:56Z</time>
      </trkpt>
      <trkpt lat="45.63325" lon="3.95795">
        <ele>925</ele>
        <time>2022-05-01T12:41:59Z</time>
      </trkpt>
      <trkpt lat="45.63332" lon="3.95816">
        <ele>925</ele>
        <time>2022-05-01T12:42:02Z</time>
      </trkpt>
      <trkpt lat="45.63398" lon="3.95931">
        <ele>923</ele>
        <time>2022-05-01T12:42:21Z</time>
      </trkpt>
      <trkpt lat="45.63396" lon="3.95942">
        <ele>922</ele>
        <time>2022-05-01T12:42:22Z</time>
      </trkpt>
      <trkpt lat="45.6342" lon="3.96079">
        <ele>919</ele>
        <time>2022-05-01T12:42:40Z</time>
      </trkpt>
      <trkpt lat="45.63438" lon="3.96166">
        <ele>915</ele>
        <time>2022-05-01T12:42:51Z</time>
      </trkpt>
      <trkpt lat="45.63446" lon="3.96181">
        <ele>915</ele>
        <time>2022-05-01T12:42:53Z</time>
      </trkpt>
      <trkpt lat="45.63488" lon="3.9623">
        <ele>912</ele>
        <time>2022-05-01T12:43:03Z</time>
      </trkpt>
      <trkpt lat="45.63584" lon="3.96364">
        <ele>904</ele>
        <time>2022-05-01T12:43:27Z</time>
      </trkpt>
      <trkpt lat="45.63671" lon="3.96528">
        <ele>902</ele>
        <time>2022-05-01T12:43:52Z</time>
      </trkpt>
      <trkpt lat="45.63683" lon="3.9657">
        <ele>902</ele>
        <time>2022-05-01T12:43:58Z</time>
      </trkpt>
      <trkpt lat="45.6369" lon="3.96628">
        <ele>901</ele>
        <time>2022-05-01T12:44:05Z</time>
      </trkpt>
      <trkpt lat="45.63691" lon="3.96698">
        <ele>900</ele>
        <time>2022-05-01T12:44:14Z</time>
      </trkpt>
      <trkpt lat="45.63696" lon="3.9676">
        <ele>899</ele>
        <time>2022-05-01T12:44:22Z</time>
      </trkpt>
      <trkpt lat="45.63727" lon="3.96889">
        <ele>887</ele>
        <time>2022-05-01T12:44:39Z</time>
      </trkpt>
      <trkpt lat="45.6373" lon="3.96944">
        <ele>884</ele>
        <time>2022-05-01T12:44:46Z</time>
      </trkpt>
      <trkpt lat="45.63714" lon="3.97154">
        <ele>878</ele>
        <time>2022-05-01T12:45:12Z</time>
      </trkpt>
      <trkpt lat="45.63715" lon="3.97233">
        <ele>875</ele>
        <time>2022-05-01T12:45:22Z</time>
      </trkpt>
      <trkpt lat="45.63725" lon="3.97325">
        <ele>871</ele>
        <time>2022-05-01T12:45:33Z</time>
      </trkpt>
      <trkpt lat="45.63749" lon="3.97376">
        <ele>867</ele>
        <time>2022-05-01T12:45:41Z</time>
      </trkpt>
      <trkpt lat="45.63773" lon="3.97413">
        <ele>864</ele>
        <time>2022-05-01T12:45:47Z</time>
      </trkpt>
      <trkpt lat="45.63789" lon="3.97453">
        <ele>862</ele>
        <time>2022-05-01T12:45:53Z</time>
      </trkpt>
      <trkpt lat="45.63803" lon="3.97515">
        <ele>861</ele>
        <time>2022-05-01T12:46:01Z</time>
      </trkpt>
      <trkpt lat="45.63804" lon="3.97572">
        <ele>859</ele>
        <time>2022-05-01T12:46:08Z</time>
      </trkpt>
      <trkpt lat="45.63799" lon="3.97686">
        <ele>859</ele>
        <time>2022-05-01T12:46:22Z</time>
      </trkpt>
      <trkpt lat="45.638" lon="3.97731">
        <ele>858</ele>
        <time>2022-05-01T12:46:28Z</time>
      </trkpt>
      <trkpt lat="45.63824" lon="3.97836">
        <ele>858</ele>
        <time>2022-05-01T12:46:42Z</time>
      </trkpt>
      <trkpt lat="45.63826" lon="3.97857">
        <ele>857</ele>
        <time>2022-05-01T12:46:44Z</time>
      </trkpt>
      <trkpt lat="45.63824" lon="3.97882">
        <ele>857</ele>
        <time>2022-05-01T12:46:48Z</time>
      </trkpt>
      <trkpt lat="45.63784" lon="3.98019">
        <ele>853</ele>
        <time>2022-05-01T12:47:06Z</time>
      </trkpt>
      <trkpt lat="45.63778" lon="3.98053">
        <ele>852</ele>
        <time>2022-05-01T12:47:10Z</time>
      </trkpt>
      <trkpt lat="45.63779" lon="3.98093">
        <ele>851</ele>
        <time>2022-05-01T12:47:15Z</time>
      </trkpt>
      <trkpt lat="45.63787" lon="3.98161">
        <ele>850</ele>
        <time>2022-05-01T12:47:24Z</time>
      </trkpt>
      <trkpt lat="45.63796" lon="3.98199">
        <ele>848</ele>
        <time>2022-05-01T12:47:29Z</time>
      </trkpt>
      <trkpt lat="45.63824" lon="3.98255">
        <ele>847</ele>
        <time>2022-05-01T12:47:38Z</time>
      </trkpt>
      <trkpt lat="45.63863" lon="3.98314">
        <ele>842</ele>
        <time>2022-05-01T12:47:48Z</time>
      </trkpt>
      <trkpt lat="45.63879" lon="3.98326">
        <ele>840</ele>
        <time>2022-05-01T12:47:51Z</time>
      </trkpt>
      <trkpt lat="45.63894" lon="3.98332">
        <ele>840</ele>
        <time>2022-05-01T12:47:54Z</time>
      </trkpt>
      <trkpt lat="45.639" lon="3.98346">
        <ele>838</ele>
        <time>2022-05-01T12:47:56Z</time>
      </trkpt>
      <trkpt lat="45.63902" lon="3.98362">
        <ele>836</ele>
        <time>2022-05-01T12:47:58Z</time>
      </trkpt>
      <trkpt lat="45.63899" lon="3.98381">
        <ele>834</ele>
        <time>2022-05-01T12:48:00Z</time>
      </trkpt>
      <trkpt lat="45.63886" lon="3.98396">
        <ele>832</ele>
        <time>2022-05-01T12:48:03Z</time>
      </trkpt>
      <trkpt lat="45.63872" lon="3.98395">
        <ele>832</ele>
        <time>2022-05-01T12:48:06Z</time>
      </trkpt>
      <trkpt lat="45.63845" lon="3.9838">
        <ele>834</ele>
        <time>2022-05-01T12:48:11Z</time>
      </trkpt>
      <trkpt lat="45.6373" lon="3.98338">
        <ele>832</ele>
        <time>2022-05-01T12:48:32Z</time>
      </trkpt>
      <trkpt lat="45.63705" lon="3.9832">
        <ele>830</ele>
        <time>2022-05-01T12:48:37Z</time>
      </trkpt>
      <trkpt lat="45.63643" lon="3.98268">
        <ele>828</ele>
        <time>2022-05-01T12:48:50Z</time>
      </trkpt>
      <trkpt lat="45.63592" lon="3.98241">
        <ele>824</ele>
        <time>2022-05-01T12:48:59Z</time>
      </trkpt>
      <trkpt lat="45.6357" lon="3.98239">
        <ele>824</ele>
        <time>2022-05-01T12:49:03Z</time>
      </trkpt>
      <trkpt lat="45.63554" lon="3.98251">
        <ele>825</ele>
        <time>2022-05-01T12:49:06Z</time>
      </trkpt>
      <trkpt lat="45.6354" lon="3.98276">
        <ele>825</ele>
        <time>2022-05-01T12:49:10Z</time>
      </trkpt>
      <trkpt lat="45.63534" lon="3.98318">
        <ele>823</ele>
        <time>2022-05-01T12:49:16Z</time>
      </trkpt>
      <trkpt lat="45.63531" lon="3.98394">
        <ele>819</ele>
        <time>2022-05-01T12:49:25Z</time>
      </trkpt>
      <trkpt lat="45.63536" lon="3.98427">
        <ele>818</ele>
        <time>2022-05-01T12:49:29Z</time>
      </trkpt>
      <trkpt lat="45.63549" lon="3.98459">
        <ele>816</ele>
        <time>2022-05-01T12:49:34Z</time>
      </trkpt>
      <trkpt lat="45.63608" lon="3.98574">
        <ele>810</ele>
        <time>2022-05-01T12:49:52Z</time>
      </trkpt>
      <trkpt lat="45.63615" lon="3.98596">
        <ele>808</ele>
        <time>2022-05-01T12:49:55Z</time>
      </trkpt>
      <trkpt lat="45.63618" lon="3.98619">
        <ele>807</ele>
        <time>2022-05-01T12:49:58Z</time>
      </trkpt>
      <trkpt lat="45.63613" lon="3.98652">
        <ele>806</ele>
        <time>2022-05-01T12:50:02Z</time>
      </trkpt>
      <trkpt lat="45.63604" lon="3.98689">
        <ele>807</ele>
        <time>2022-05-01T12:50:07Z</time>
      </trkpt>
      <trkpt lat="45.63601" lon="3.98726">
        <ele>807</ele>
        <time>2022-05-01T12:50:11Z</time>
      </trkpt>
      <trkpt lat="45.63623" lon="3.98835">
        <ele>800</ele>
        <time>2022-05-01T12:50:26Z</time>
      </trkpt>
      <trkpt lat="45.63624" lon="3.98867">
        <ele>798</ele>
        <time>2022-05-01T12:50:29Z</time>
      </trkpt>
      <trkpt lat="45.63613" lon="3.98976">
        <ele>797</ele>
        <time>2022-05-01T12:50:43Z</time>
      </trkpt>
      <trkpt lat="45.63616" lon="3.98995">
        <ele>797</ele>
        <time>2022-05-01T12:50:46Z</time>
      </trkpt>
      <trkpt lat="45.63635" lon="3.9905">
        <ele>792</ele>
        <time>2022-05-01T12:50:53Z</time>
      </trkpt>
      <trkpt lat="45.6364" lon="3.99085">
        <ele>791</ele>
        <time>2022-05-01T12:50:58Z</time>
      </trkpt>
      <trkpt lat="45.63639" lon="3.99122">
        <ele>788</ele>
        <time>2022-05-01T12:51:02Z</time>
      </trkpt>
      <trkpt lat="45.63603" lon="3.99216">
        <ele>784</ele>
        <time>2022-05-01T12:51:16Z</time>
      </trkpt>
      <trkpt lat="45.63587" lon="3.99244">
        <ele>782</ele>
        <time>2022-05-01T12:51:20Z</time>
      </trkpt>
      <trkpt lat="45.63533" lon="3.99319">
        <ele>783</ele>
        <time>2022-05-01T12:51:34Z</time>
      </trkpt>
      <trkpt lat="45.63519" lon="3.99358">
        <ele>782</ele>
        <time>2022-05-01T12:51:39Z</time>
      </trkpt>
      <trkpt lat="45.63516" lon="3.99402">
        <ele>778</ele>
        <time>2022-05-01T12:51:44Z</time>
      </trkpt>
      <trkpt lat="45.63509" lon="3.99445">
        <ele>776</ele>
        <time>2022-05-01T12:51:50Z</time>
      </trkpt>
      <trkpt lat="45.63477" lon="3.99516">
        <ele>773</ele>
        <time>2022-05-01T12:52:00Z</time>
      </trkpt>
      <trkpt lat="45.6346" lon="3.9954">
        <ele>772</ele>
        <time>2022-05-01T12:52:05Z</time>
      </trkpt>
      <trkpt lat="45.63444" lon="3.99553">
        <ele>771</ele>
        <time>2022-05-01T12:52:08Z</time>
      </trkpt>
      <trkpt lat="45.63425" lon="3.99555">
        <ele>771</ele>
        <time>2022-05-01T12:52:11Z</time>
      </trkpt>
      <trkpt lat="45.63407" lon="3.99552">
        <ele>770</ele>
        <time>2022-05-01T12:52:15Z</time>
      </trkpt>
      <trkpt lat="45.6337" lon="3.99534">
        <ele>770</ele>
        <time>2022-05-01T12:52:22Z</time>
      </trkpt>
      <trkpt lat="45.63329" lon="3.99506">
        <ele>769</ele>
        <time>2022-05-01T12:52:30Z</time>
      </trkpt>
      <trkpt lat="45.63251" lon="3.99417">
        <ele>763</ele>
        <time>2022-05-01T12:52:47Z</time>
      </trkpt>
      <trkpt lat="45.63213" lon="3.99386">
        <ele>763</ele>
        <time>2022-05-01T12:52:55Z</time>
      </trkpt>
      <trkpt lat="45.63181" lon="3.99367">
        <ele>762</ele>
        <time>2022-05-01T12:53:01Z</time>
      </trkpt>
      <trkpt lat="45.63166" lon="3.99365">
        <ele>761</ele>
        <time>2022-05-01T12:53:04Z</time>
      </trkpt>
      <trkpt lat="45.6315" lon="3.99368">
        <ele>762</ele>
        <time>2022-05-01T12:53:07Z</time>
      </trkpt>
      <trkpt lat="45.63082" lon="3.99407">
        <ele>763</ele>
        <time>2022-05-01T12:53:20Z</time>
      </trkpt>
      <trkpt lat="45.63068" lon="3.99418">
        <ele>764</ele>
        <time>2022-05-01T12:53:23Z</time>
      </trkpt>
      <trkpt lat="45.63055" lon="3.99441">
        <ele>764</ele>
        <time>2022-05-01T12:53:26Z</time>
      </trkpt>
      <trkpt lat="45.63047" lon="3.99467">
        <ele>763</ele>
        <time>2022-05-01T12:53:30Z</time>
      </trkpt>
      <trkpt lat="45.63043" lon="3.99507">
        <ele>761</ele>
        <time>2022-05-01T12:53:35Z</time>
      </trkpt>
      <trkpt lat="45.63048" lon="3.99578">
        <ele>754</ele>
        <time>2022-05-01T12:53:44Z</time>
      </trkpt>
      <trkpt lat="45.63038" lon="3.99688">
        <ele>754</ele>
        <time>2022-05-01T12:53:58Z</time>
      </trkpt>
      <trkpt lat="45.63045" lon="3.99734">
        <ele>751</ele>
        <time>2022-05-01T12:54:04Z</time>
      </trkpt>
      <trkpt lat="45.63055" lon="3.9977">
        <ele>747</ele>
        <time>2022-05-01T12:54:08Z</time>
      </trkpt>
      <trkpt lat="45.63057" lon="3.99795">
        <ele>746</ele>
        <time>2022-05-01T12:54:12Z</time>
      </trkpt>
      <trkpt lat="45.63043" lon="3.99938">
        <ele>741</ele>
        <time>2022-05-01T12:54:29Z</time>
      </trkpt>
      <trkpt lat="45.63033" lon="3.99997">
        <ele>740</ele>
        <time>2022-05-01T12:54:37Z</time>
      </trkpt>
      <trkpt lat="45.63023" lon="4.0003">
        <ele>738</ele>
        <time>2022-05-01T12:54:42Z</time>
      </trkpt>
      <trkpt lat="45.63007" lon="4.00067">
        <ele>735</ele>
        <time>2022-05-01T12:54:47Z</time>
      </trkpt>
      <trkpt lat="45.62969" lon="4.00136">
        <ele>731</ele>
        <time>2022-05-01T12:54:58Z</time>
      </trkpt>
      <trkpt lat="45.62943" lon="4.00179">
        <ele>729</ele>
        <time>2022-05-01T12:55:05Z</time>
      </trkpt>
      <trkpt lat="45.62927" lon="4.00193">
        <ele>728</ele>
        <time>2022-05-01T12:55:08Z</time>
      </trkpt>
      <trkpt lat="45.62856" lon="4.00216">
        <ele>724</ele>
        <time>2022-05-01T12:55:21Z</time>
      </trkpt>
      <trkpt lat="45.62828" lon="4.00229">
        <ele>722</ele>
        <time>2022-05-01T12:55:26Z</time>
      </trkpt>
      <trkpt lat="45.62717" lon="4.00348">
        <ele>714</ele>
        <time>2022-05-01T12:55:51Z</time>
      </trkpt>
      <trkpt lat="45.62696" lon="4.00364">
        <ele>713</ele>
        <time>2022-05-01T12:55:55Z</time>
      </trkpt>
      <trkpt lat="45.6268" lon="4.00365">
        <ele>712</ele>
        <time>2022-05-01T12:55:58Z</time>
      </trkpt>
      <trkpt lat="45.62665" lon="4.00362">
        <ele>712</ele>
        <time>2022-05-01T12:56:01Z</time>
      </trkpt>
      <trkpt lat="45.62651" lon="4.00352">
        <ele>710</ele>
        <time>2022-05-01T12:56:04Z</time>
      </trkpt>
      <trkpt lat="45.62607" lon="4.00302">
        <ele>704</ele>
        <time>2022-05-01T12:56:14Z</time>
      </trkpt>
      <trkpt lat="45.62591" lon="4.00294">
        <ele>701</ele>
        <time>2022-05-01T12:56:17Z</time>
      </trkpt>
      <trkpt lat="45.62571" lon="4.00296">
        <ele>699</ele>
        <time>2022-05-01T12:56:20Z</time>
      </trkpt>
      <trkpt lat="45.62548" lon="4.00314">
        <ele>699</ele>
        <time>2022-05-01T12:56:25Z</time>
      </trkpt>
      <trkpt lat="45.62521" lon="4.00342">
        <ele>698</ele>
        <time>2022-05-01T12:56:31Z</time>
      </trkpt>
      <trkpt lat="45.62444" lon="4.00501">
        <ele>691</ele>
        <time>2022-05-01T12:56:55Z</time>
      </trkpt>
      <trkpt lat="45.62429" lon="4.00538">
        <ele>688</ele>
        <time>2022-05-01T12:57:00Z</time>
      </trkpt>
      <trkpt lat="45.62426" lon="4.00554">
        <ele>688</ele>
        <time>2022-05-01T12:57:02Z</time>
      </trkpt>
      <trkpt lat="45.62419" lon="4.00657">
        <ele>684</ele>
        <time>2022-05-01T12:57:15Z</time>
      </trkpt>
      <trkpt lat="45.62407" lon="4.00746">
        <ele>682</ele>
        <time>2022-05-01T12:57:26Z</time>
      </trkpt>
      <trkpt lat="45.62408" lon="4.0077">
        <ele>681</ele>
        <time>2022-05-01T12:57:29Z</time>
      </trkpt>
      <trkpt lat="45.62434" lon="4.0084">
        <ele>680</ele>
        <time>2022-05-01T12:57:39Z</time>
      </trkpt>
      <trkpt lat="45.62462" lon="4.00904">
        <ele>677</ele>
        <time>2022-05-01T12:57:49Z</time>
      </trkpt>
      <trkpt lat="45.62474" lon="4.00922">
        <ele>676</ele>
        <time>2022-05-01T12:57:52Z</time>
      </trkpt>
      <trkpt lat="45.62556" lon="4.01003">
        <ele>672</ele>
        <time>2022-05-01T12:58:10Z</time>
      </trkpt>
      <trkpt lat="45.62569" lon="4.01025">
        <ele>671</ele>
        <time>2022-05-01T12:58:13Z</time>
      </trkpt>
      <trkpt lat="45.62575" lon="4.01052">
        <ele>669</ele>
        <time>2022-05-01T12:58:17Z</time>
      </trkpt>
      <trkpt lat="45.62579" lon="4.01097">
        <ele>665</ele>
        <time>2022-05-01T12:58:22Z</time>
      </trkpt>
      <trkpt lat="45.62589" lon="4.01156">
        <ele>662</ele>
        <time>2022-05-01T12:58:30Z</time>
      </trkpt>
      <trkpt lat="45.62622" lon="4.01309">
        <ele>651</ele>
        <time>2022-05-01T12:58:50Z</time>
      </trkpt>
      <trkpt lat="45.62623" lon="4.01328">
        <ele>650</ele>
        <time>2022-05-01T12:58:52Z</time>
      </trkpt>
      <trkpt lat="45.62618" lon="4.01346">
        <ele>649</ele>
        <time>2022-05-01T12:58:55Z</time>
      </trkpt>
      <trkpt lat="45.62609" lon="4.01358">
        <ele>649</ele>
        <time>2022-05-01T12:58:57Z</time>
      </trkpt>
      <trkpt lat="45.62591" lon="4.01367">
        <ele>649</ele>
        <time>2022-05-01T12:59:00Z</time>
      </trkpt>
      <trkpt lat="45.62521" lon="4.01381">
        <ele>647</ele>
        <time>2022-05-01T12:59:13Z</time>
      </trkpt>
      <trkpt lat="45.62507" lon="4.01377">
        <ele>647</ele>
        <time>2022-05-01T12:59:15Z</time>
      </trkpt>
      <trkpt lat="45.62497" lon="4.01369">
        <ele>647</ele>
        <time>2022-05-01T12:59:17Z</time>
      </trkpt>
      <trkpt lat="45.62477" lon="4.01323">
        <ele>648</ele>
        <time>2022-05-01T12:59:24Z</time>
      </trkpt>
      <trkpt lat="45.62467" lon="4.0131">
        <ele>648</ele>
        <time>2022-05-01T12:59:26Z</time>
      </trkpt>
      <trkpt lat="45.62451" lon="4.01305">
        <ele>647</ele>
        <time>2022-05-01T12:59:29Z</time>
      </trkpt>
      <trkpt lat="45.62438" lon="4.01308">
        <ele>646</ele>
        <time>2022-05-01T12:59:32Z</time>
      </trkpt>
      <trkpt lat="45.62416" lon="4.01325">
        <ele>643</ele>
        <time>2022-05-01T12:59:36Z</time>
      </trkpt>
      <trkpt lat="45.62342" lon="4.01407">
        <ele>636</ele>
        <time>2022-05-01T12:59:53Z</time>
      </trkpt>
      <trkpt lat="45.62314" lon="4.01427">
        <ele>634</ele>
        <time>2022-05-01T12:59:58Z</time>
      </trkpt>
      <trkpt lat="45.62279" lon="4.01441">
        <ele>633</ele>
        <time>2022-05-01T13:00:05Z</time>
      </trkpt>
      <trkpt lat="45.62257" lon="4.01447">
        <ele>633</ele>
        <time>2022-05-01T13:00:09Z</time>
      </trkpt>
      <trkpt lat="45.62239" lon="4.0144">
        <ele>633</ele>
        <time>2022-05-01T13:00:12Z</time>
      </trkpt>
      <trkpt lat="45.62191" lon="4.01394">
        <ele>634</ele>
        <time>2022-05-01T13:00:22Z</time>
      </trkpt>
      <trkpt lat="45.62178" lon="4.01391">
        <ele>633</ele>
        <time>2022-05-01T13:00:25Z</time>
      </trkpt>
      <trkpt lat="45.62128" lon="4.01433">
        <ele>627</ele>
        <time>2022-05-01T13:00:35Z</time>
      </trkpt>
      <trkpt lat="45.62048" lon="4.01479">
        <ele>622</ele>
        <time>2022-05-01T13:00:50Z</time>
      </trkpt>
      <trkpt lat="45.62041" lon="4.01494">
        <ele>621</ele>
        <time>2022-05-01T13:00:53Z</time>
      </trkpt>
      <trkpt lat="45.62039" lon="4.01516">
        <ele>621</ele>
        <time>2022-05-01T13:00:55Z</time>
      </trkpt>
      <trkpt lat="45.62044" lon="4.01557">
        <ele>621</ele>
        <time>2022-05-01T13:01:01Z</time>
      </trkpt>
      <trkpt lat="45.62044" lon="4.01597">
        <ele>621</ele>
        <time>2022-05-01T13:01:06Z</time>
      </trkpt>
      <trkpt lat="45.62036" lon="4.01796">
        <ele>617</ele>
        <time>2022-05-01T13:01:30Z</time>
      </trkpt>
      <trkpt lat="45.62033" lon="4.01809">
        <ele>617</ele>
        <time>2022-05-01T13:01:32Z</time>
      </trkpt>
      <trkpt lat="45.61985" lon="4.01941">
        <ele>614</ele>
        <time>2022-05-01T13:01:51Z</time>
      </trkpt>
      <trkpt lat="45.61974" lon="4.01953">
        <ele>613</ele>
        <time>2022-05-01T13:01:53Z</time>
      </trkpt>
      <trkpt lat="45.61927" lon="4.01973">
        <ele>608</ele>
        <time>2022-05-01T13:02:02Z</time>
      </trkpt>
      <trkpt lat="45.61915" lon="4.01987">
        <ele>605</ele>
        <time>2022-05-01T13:02:05Z</time>
      </trkpt>
      <trkpt lat="45.61907" lon="4.02009">
        <ele>604</ele>
        <time>2022-05-01T13:02:08Z</time>
      </trkpt>
      <trkpt lat="45.61898" lon="4.02081">
        <ele>605</ele>
        <time>2022-05-01T13:02:17Z</time>
      </trkpt>
      <trkpt lat="45.61891" lon="4.02108">
        <ele>603</ele>
        <time>2022-05-01T13:02:20Z</time>
      </trkpt>
      <trkpt lat="45.61878" lon="4.02126">
        <ele>601</ele>
        <time>2022-05-01T13:02:24Z</time>
      </trkpt>
      <trkpt lat="45.61788" lon="4.02218">
        <ele>595</ele>
        <time>2022-05-01T13:02:43Z</time>
      </trkpt>
      <trkpt lat="45.61766" lon="4.02249">
        <ele>595</ele>
        <time>2022-05-01T13:02:49Z</time>
      </trkpt>
      <trkpt lat="45.61692" lon="4.02398">
        <ele>596</ele>
        <time>2022-05-01T13:03:11Z</time>
      </trkpt>
      <trkpt lat="45.61647" lon="4.02503">
        <ele>594</ele>
        <time>2022-05-01T13:03:27Z</time>
      </trkpt>
      <trkpt lat="45.6164" lon="4.02527">
        <ele>594</ele>
        <time>2022-05-01T13:03:30Z</time>
      </trkpt>
      <trkpt lat="45.61636" lon="4.02553">
        <ele>594</ele>
        <time>2022-05-01T13:03:33Z</time>
      </trkpt>
      <trkpt lat="45.61638" lon="4.02579">
        <ele>593</ele>
        <time>2022-05-01T13:03:37Z</time>
      </trkpt>
      <trkpt lat="45.61666" lon="4.02689">
        <ele>588</ele>
        <time>2022-05-01T13:03:51Z</time>
      </trkpt>
      <trkpt lat="45.61665" lon="4.02716">
        <ele>586</ele>
        <time>2022-05-01T13:03:55Z</time>
      </trkpt>
      <trkpt lat="45.61658" lon="4.02731">
        <ele>585</ele>
        <time>2022-05-01T13:03:57Z</time>
      </trkpt>
      <trkpt lat="45.61634" lon="4.02745">
        <ele>584</ele>
        <time>2022-05-01T13:04:01Z</time>
      </trkpt>
      <trkpt lat="45.61605" lon="4.02754">
        <ele>583</ele>
        <time>2022-05-01T13:04:07Z</time>
      </trkpt>
      <trkpt lat="45.61582" lon="4.02771">
        <ele>581</ele>
        <time>2022-05-01T13:04:11Z</time>
      </trkpt>
      <trkpt lat="45.61553" lon="4.02797">
        <ele>578</ele>
        <time>2022-05-01T13:04:17Z</time>
      </trkpt>
      <trkpt lat="45.61534" lon="4.02811">
        <ele>576</ele>
        <time>2022-05-01T13:04:21Z</time>
      </trkpt>
      <trkpt lat="45.6152" lon="4.02817">
        <ele>575</ele>
        <time>2022-05-01T13:04:24Z</time>
      </trkpt>
      <trkpt lat="45.61505" lon="4.02816">
        <ele>575</ele>
        <time>2022-05-01T13:04:26Z</time>
      </trkpt>
      <trkpt lat="45.61468" lon="4.02796">
        <ele>576</ele>
        <time>2022-05-01T13:04:34Z</time>
      </trkpt>
      <trkpt lat="45.61449" lon="4.02796">
        <ele>575</ele>
        <time>2022-05-01T13:04:37Z</time>
      </trkpt>
      <trkpt lat="45.61432" lon="4.02806">
        <ele>574</ele>
        <time>2022-05-01T13:04:40Z</time>
      </trkpt>
      <trkpt lat="45.61219" lon="4.03095">
        <ele>551</ele>
        <time>2022-05-01T13:05:32Z</time>
      </trkpt>
      <trkpt lat="45.612" lon="4.03114">
        <ele>550</ele>
        <time>2022-05-01T13:05:37Z</time>
      </trkpt>
      <trkpt lat="45.61145" lon="4.03146">
        <ele>545</ele>
        <time>2022-05-01T13:05:47Z</time>
      </trkpt>
      <trkpt lat="45.61133" lon="4.03161">
        <ele>543</ele>
        <time>2022-05-01T13:05:50Z</time>
      </trkpt>
      <trkpt lat="45.61119" lon="4.03191">
        <ele>541</ele>
        <time>2022-05-01T13:05:54Z</time>
      </trkpt>
      <trkpt lat="45.61067" lon="4.03343">
        <ele>539</ele>
        <time>2022-05-01T13:06:15Z</time>
      </trkpt>
      <trkpt lat="45.61043" lon="4.03401">
        <ele>535</ele>
        <time>2022-05-01T13:06:24Z</time>
      </trkpt>
      <trkpt lat="45.61036" lon="4.03437">
        <ele>533</ele>
        <time>2022-05-01T13:06:29Z</time>
      </trkpt>
      <trkpt lat="45.61029" lon="4.03536">
        <ele>528</ele>
        <time>2022-05-01T13:06:41Z</time>
      </trkpt>
      <trkpt lat="45.61032" lon="4.03566">
        <ele>526</ele>
        <time>2022-05-01T13:06:45Z</time>
      </trkpt>
      <trkpt lat="45.61045" lon="4.03596">
        <ele>524</ele>
        <time>2022-05-01T13:06:49Z</time>
      </trkpt>
      <trkpt lat="45.61067" lon="4.03626">
        <ele>521</ele>
        <time>2022-05-01T13:06:54Z</time>
      </trkpt>
      <trkpt lat="45.61103" lon="4.03641">
        <ele>521</ele>
        <time>2022-05-01T13:07:01Z</time>
      </trkpt>
      <trkpt lat="45.61152" lon="4.03657">
        <ele>519</ele>
        <time>2022-05-01T13:07:10Z</time>
      </trkpt>
      <trkpt lat="45.61214" lon="4.03694">
        <ele>515</ele>
        <time>2022-05-01T13:07:22Z</time>
      </trkpt>
      <trkpt lat="45.61232" lon="4.03708">
        <ele>514</ele>
        <time>2022-05-01T13:07:26Z</time>
      </trkpt>
      <trkpt lat="45.61242" lon="4.03723">
        <ele>513</ele>
        <time>2022-05-01T13:07:28Z</time>
      </trkpt>
      <trkpt lat="45.61249" lon="4.03744">
        <ele>512</ele>
        <time>2022-05-01T13:07:31Z</time>
      </trkpt>
      <trkpt lat="45.61248" lon="4.03759">
        <ele>512</ele>
        <time>2022-05-01T13:07:33Z</time>
      </trkpt>
      <trkpt lat="45.61242" lon="4.03787">
        <ele>510</ele>
        <time>2022-05-01T13:07:37Z</time>
      </trkpt>
      <trkpt lat="45.61231" lon="4.03804">
        <ele>509</ele>
        <time>2022-05-01T13:07:40Z</time>
      </trkpt>
      <trkpt lat="45.61212" lon="4.03814">
        <ele>507</ele>
        <time>2022-05-01T13:07:43Z</time>
      </trkpt>
      <trkpt lat="45.61146" lon="4.0381">
        <ele>501</ele>
        <time>2022-05-01T13:07:55Z</time>
      </trkpt>
      <trkpt lat="45.61124" lon="4.03822">
        <ele>499</ele>
        <time>2022-05-01T13:07:59Z</time>
      </trkpt>
      <trkpt lat="45.61072" lon="4.03867">
        <ele>497</ele>
        <time>2022-05-01T13:08:10Z</time>
      </trkpt>
      <trkpt lat="45.61048" lon="4.03883">
        <ele>496</ele>
        <time>2022-05-01T13:08:15Z</time>
      </trkpt>
      <trkpt lat="45.60962" lon="4.03916">
        <ele>488</ele>
        <time>2022-05-01T13:08:30Z</time>
      </trkpt>
      <trkpt lat="45.6094" lon="4.03931">
        <ele>485</ele>
        <time>2022-05-01T13:08:35Z</time>
      </trkpt>
      <trkpt lat="45.60918" lon="4.03965">
        <ele>483</ele>
        <time>2022-05-01T13:08:41Z</time>
      </trkpt>
      <trkpt lat="45.60907" lon="4.03994">
        <ele>481</ele>
        <time>2022-05-01T13:08:45Z</time>
      </trkpt>
      <trkpt lat="45.60899" lon="4.04043">
        <ele>479</ele>
        <time>2022-05-01T13:08:51Z</time>
      </trkpt>
      <trkpt lat="45.609" lon="4.04102">
        <ele>477</ele>
        <time>2022-05-01T13:08:58Z</time>
      </trkpt>
      <trkpt lat="45.6091" lon="4.0418">
        <ele>472</ele>
        <time>2022-05-01T13:09:08Z</time>
      </trkpt>
      <trkpt lat="45.60915" lon="4.042">
        <ele>471</ele>
        <time>2022-05-01T13:09:11Z</time>
      </trkpt>
      <trkpt lat="45.60936" lon="4.0424">
        <ele>469</ele>
        <time>2022-05-01T13:09:17Z</time>
      </trkpt>
      <trkpt lat="45.60962" lon="4.04274">
        <ele>468</ele>
        <time>2022-05-01T13:09:23Z</time>
      </trkpt>
      <trkpt lat="45.60985" lon="4.04295">
        <ele>468</ele>
        <time>2022-05-01T13:09:28Z</time>
      </trkpt>
      <trkpt lat="45.61002" lon="4.04316">
        <ele>467</ele>
        <time>2022-05-01T13:09:32Z</time>
      </trkpt>
      <trkpt lat="45.61028" lon="4.04357">
        <ele>464</ele>
        <time>2022-05-01T13:09:39Z</time>
      </trkpt>
      <trkpt lat="45.61082" lon="4.04424">
        <ele>458</ele>
        <time>2022-05-01T13:09:52Z</time>
      </trkpt>
      <trkpt lat="45.61128" lon="4.04517">
        <ele>453</ele>
        <time>2022-05-01T13:10:06Z</time>
      </trkpt>
      <trkpt lat="45.61141" lon="4.04535">
        <ele>452</ele>
        <time>2022-05-01T13:10:09Z</time>
      </trkpt>
      <trkpt lat="45.61151" lon="4.04554">
        <ele>452</ele>
        <time>2022-05-01T13:10:12Z</time>
      </trkpt>
      <trkpt lat="45.61154" lon="4.04579">
        <ele>451</ele>
        <time>2022-05-01T13:10:15Z</time>
      </trkpt>
      <trkpt lat="45.6115" lon="4.04599">
        <ele>449</ele>
        <time>2022-05-01T13:10:18Z</time>
      </trkpt>
      <trkpt lat="45.61101" lon="4.047">
        <ele>443</ele>
        <time>2022-05-01T13:10:33Z</time>
      </trkpt>
      <trkpt lat="45.61067" lon="4.04855">
        <ele>437</ele>
        <time>2022-05-01T13:10:53Z</time>
      </trkpt>
      <trkpt lat="45.61057" lon="4.04928">
        <ele>433</ele>
        <time>2022-05-01T13:11:03Z</time>
      </trkpt>
      <trkpt lat="45.61035" lon="4.0504">
        <ele>427</ele>
        <time>2022-05-01T13:11:17Z</time>
      </trkpt>
      <trkpt lat="45.6101" lon="4.05148">
        <ele>423</ele>
        <time>2022-05-01T13:11:31Z</time>
      </trkpt>
      <trkpt lat="45.60987" lon="4.05197">
        <ele>423</ele>
        <time>2022-05-01T13:11:39Z</time>
      </trkpt>
      <trkpt lat="45.6096" lon="4.05245">
        <ele>423</ele>
        <time>2022-05-01T13:11:46Z</time>
      </trkpt>
      <trkpt lat="45.60945" lon="4.05282">
        <ele>422</ele>
        <time>2022-05-01T13:11:52Z</time>
      </trkpt>
      <trkpt lat="45.60932" lon="4.05339">
        <ele>421</ele>
        <time>2022-05-01T13:11:59Z</time>
      </trkpt>
      <trkpt lat="45.60931" lon="4.05411">
        <ele>420</ele>
        <time>2022-05-01T13:12:08Z</time>
      </trkpt>
      <trkpt lat="45.60911" lon="4.05491">
        <ele>417</ele>
        <time>2022-05-01T13:12:19Z</time>
      </trkpt>
      <trkpt lat="45.60905" lon="4.05493">
        <ele>417</ele>
        <time>2022-05-01T13:12:20Z</time>
      </trkpt>
      <trkpt lat="45.60901" lon="4.05499">
        <ele>417</ele>
        <time>2022-05-01T13:12:21Z</time>
      </trkpt>
      <trkpt lat="45.60902" lon="4.05511">
        <ele>416</ele>
        <time>2022-05-01T13:12:22Z</time>
      </trkpt>
      <trkpt lat="45.60906" lon="4.05516">
        <ele>416</ele>
        <time>2022-05-01T13:12:23Z</time>
      </trkpt>
      <trkpt lat="45.60904" lon="4.05528">
        <ele>416</ele>
        <time>2022-05-01T13:12:25Z</time>
      </trkpt>
      <trkpt lat="45.60905" lon="4.05563">
        <ele>415</ele>
        <time>2022-05-01T13:12:29Z</time>
      </trkpt>
      <trkpt lat="45.60918" lon="4.05708">
        <ele>410</ele>
        <time>2022-05-01T13:12:47Z</time>
      </trkpt>
      <trkpt lat="45.6093" lon="4.05761">
        <ele>409</ele>
        <time>2022-05-01T13:12:54Z</time>
      </trkpt>
      <trkpt lat="45.61012" lon="4.06004">
        <ele>402</ele>
        <time>2022-05-01T13:13:28Z</time>
      </trkpt>
      <trkpt lat="45.61027" lon="4.0606">
        <ele>401</ele>
        <time>2022-05-01T13:13:35Z</time>
      </trkpt>
      <trkpt lat="45.6103" lon="4.06111">
        <ele>400</ele>
        <time>2022-05-01T13:13:42Z</time>
      </trkpt>
      <trkpt lat="45.61002" lon="4.06225">
        <ele>401</ele>
        <time>2022-05-01T13:13:57Z</time>
      </trkpt>
      <trkpt lat="45.61113" lon="4.06357">
        <ele>396</ele>
        <time>2022-05-01T13:14:22Z</time>
      </trkpt>
      <trkpt lat="45.61135" lon="4.06438">
        <ele>393</ele>
        <time>2022-05-01T13:14:33Z</time>
      </trkpt>
      <trkpt lat="45.61131" lon="4.065">
        <ele>392</ele>
        <time>2022-05-01T13:14:41Z</time>
      </trkpt>
      <trkpt lat="45.61147" lon="4.06634">
        <ele>389</ele>
        <time>2022-05-01T13:14:58Z</time>
      </trkpt>
      <trkpt lat="45.61164" lon="4.06749">
        <ele>385</ele>
        <time>2022-05-01T13:15:12Z</time>
      </trkpt>
      <trkpt lat="45.61148" lon="4.06776">
        <ele>385</ele>
        <time>2022-05-01T13:15:17Z</time>
      </trkpt>
      <trkpt lat="45.61059" lon="4.06794">
        <ele>389</ele>
        <time>2022-05-01T13:15:33Z</time>
      </trkpt>
      <trkpt lat="45.6099" lon="4.06801">
        <ele>392</ele>
        <time>2022-05-01T13:15:45Z</time>
      </trkpt>
      <trkpt lat="45.60942" lon="4.06811">
        <ele>391</ele>
        <time>2022-05-01T13:15:54Z</time>
      </trkpt>
      <trkpt lat="45.60876" lon="4.06799">
        <ele>391</ele>
        <time>2022-05-01T13:16:06Z</time>
      </trkpt>
      <trkpt lat="45.60857" lon="4.06805">
        <ele>389</ele>
        <time>2022-05-01T13:16:09Z</time>
      </trkpt>
      <trkpt lat="45.60843" lon="4.06792">
        <ele>389</ele>
        <time>2022-05-01T13:16:12Z</time>
      </trkpt>
      <trkpt lat="45.60799" lon="4.068">
        <ele>389</ele>
        <time>2022-05-01T13:16:20Z</time>
      </trkpt>
      <trkpt lat="45.60658" lon="4.06873">
        <ele>387</ele>
        <time>2022-05-01T13:16:47Z</time>
      </trkpt>
      <trkpt lat="45.60639" lon="4.06869">
        <ele>387</ele>
        <time>2022-05-01T13:16:50Z</time>
      </trkpt>
      <trkpt lat="45.60645" lon="4.06621">
        <ele>390</ele>
        <time>2022-05-01T13:17:21Z</time>
      </trkpt>
      <trkpt lat="45.60652" lon="4.06563">
        <ele>391</ele>
        <time>2022-05-01T13:17:28Z</time>
      </trkpt>
      <trkpt lat="45.6066" lon="4.06448">
        <ele>390</ele>
        <time>2022-05-01T13:17:43Z</time>
      </trkpt>
      <trkpt lat="45.60661" lon="4.0638">
        <ele>389</ele>
        <time>2022-05-01T13:17:51Z</time>
      </trkpt>
      <trkpt lat="45.60707" lon="4.06372">
        <ele>391</ele>
        <time>2022-05-01T13:17:59Z</time>
      </trkpt>
      <trkpt lat="45.60709" lon="4.06356">
        <ele>392</ele>
        <time>2022-05-01T13:18:01Z</time>
      </trkpt>
      <trkpt lat="45.60708" lon="4.06333">
        <ele>391</ele>
        <time>2022-05-01T13:18:04Z</time>
      </trkpt>
      <trkpt lat="45.6071" lon="4.06344">
        <ele>392</ele>
        <time>2022-05-01T13:18:06Z</time>
      </trkpt>
      <trkpt lat="45.60706" lon="4.06371">
        <ele>391</ele>
        <time>2022-05-01T13:18:09Z</time>
      </trkpt>
      <trkpt lat="45.6066" lon="4.06378">
        <ele>389</ele>
        <time>2022-05-01T13:18:17Z</time>
      </trkpt>
      <trkpt lat="45.60652" lon="4.06268">
        <ele>391</ele>
        <time>2022-05-01T13:18:31Z</time>
      </trkpt>
      <trkpt lat="45.60574" lon="4.06412">
        <ele>392</ele>
        <time>2022-05-01T13:18:54Z</time>
      </trkpt>
      <trkpt lat="45.60538" lon="4.06466">
        <ele>392</ele>
        <time>2022-05-01T13:19:03Z</time>
      </trkpt>
      <trkpt lat="45.60505" lon="4.06528">
        <ele>390</ele>
        <time>2022-05-01T13:19:13Z</time>
      </trkpt>
      <trkpt lat="45.60496" lon="4.06553">
        <ele>391</ele>
        <time>2022-05-01T13:19:16Z</time>
      </trkpt>
      <trkpt lat="45.60484" lon="4.06609">
        <ele>390</ele>
        <time>2022-05-01T13:19:24Z</time>
      </trkpt>
      <trkpt lat="45.60481" lon="4.06635">
        <ele>389</ele>
        <time>2022-05-01T13:19:27Z</time>
      </trkpt>
      <trkpt lat="45.60489" lon="4.06751">
        <ele>389</ele>
        <time>2022-05-01T13:19:41Z</time>
      </trkpt>
      <trkpt lat="45.60489" lon="4.06798">
        <ele>389</ele>
        <time>2022-05-01T13:19:47Z</time>
      </trkpt>
      <trkpt lat="45.60486" lon="4.06808">
        <ele>389</ele>
        <time>2022-05-01T13:19:49Z</time>
      </trkpt>
      <trkpt lat="45.6047" lon="4.06832">
        <ele>389</ele>
        <time>2022-05-01T13:19:53Z</time>
      </trkpt>
      <trkpt lat="45.60423" lon="4.06875">
        <ele>388</ele>
        <time>2022-05-01T13:20:03Z</time>
      </trkpt>
      <trkpt lat="45.60419" lon="4.06874">
        <ele>388</ele>
        <time>2022-05-01T13:20:03Z</time>
      </trkpt>
      <trkpt lat="45.60417" lon="4.06876">
        <ele>388</ele>
        <time>2022-05-01T13:20:04Z</time>
      </trkpt>
      <trkpt lat="45.60417" lon="4.06883">
        <ele>388</ele>
        <time>2022-05-01T13:20:05Z</time>
      </trkpt>
      <trkpt lat="45.60379" lon="4.06915">
        <ele>390</ele>
        <time>2022-05-01T13:20:13Z</time>
      </trkpt>
      <trkpt lat="45.60312" lon="4.06977">
        <ele>394</ele>
        <time>2022-05-01T13:20:27Z</time>
      </trkpt>
      <trkpt lat="45.60301" lon="4.06983">
        <ele>395</ele>
        <time>2022-05-01T13:20:29Z</time>
      </trkpt>
      <trkpt lat="45.60154" lon="4.07024">
        <ele>402</ele>
        <time>2022-05-01T13:20:55Z</time>
      </trkpt>
      <trkpt lat="45.60138" lon="4.07026">
        <ele>402</ele>
        <time>2022-05-01T13:20:58Z</time>
      </trkpt>
      <trkpt lat="45.60105" lon="4.07042">
        <ele>402</ele>
        <time>2022-05-01T13:21:05Z</time>
      </trkpt>
      <trkpt lat="45.601" lon="4.07041">
        <ele>402</ele>
        <time>2022-05-01T13:21:05Z</time>
      </trkpt>
      <trkpt lat="45.60082" lon="4.07045">
        <ele>402</ele>
        <time>2022-05-01T13:21:09Z</time>
      </trkpt>
      <trkpt lat="45.60076" lon="4.07049">
        <ele>403</ele>
        <time>2022-05-01T13:21:10Z</time>
      </trkpt>
      <trkpt lat="45.60017" lon="4.07063">
        <ele>404</ele>
        <time>2022-05-01T13:21:20Z</time>
      </trkpt>
      <trkpt lat="45.59564" lon="4.07155">
        <ele>397</ele>
        <time>2022-05-01T13:22:42Z</time>
      </trkpt>
      <trkpt lat="45.59409" lon="4.0719">
        <ele>399</ele>
        <time>2022-05-01T13:23:10Z</time>
      </trkpt>
      <trkpt lat="45.59395" lon="4.07191">
        <ele>399</ele>
        <time>2022-05-01T13:23:12Z</time>
      </trkpt>
      <trkpt lat="45.59254" lon="4.07219">
        <ele>403</ele>
        <time>2022-05-01T13:23:38Z</time>
      </trkpt>
      <trkpt lat="45.59236" lon="4.07216">
        <ele>403</ele>
        <time>2022-05-01T13:23:41Z</time>
      </trkpt>
      <trkpt lat="45.59204" lon="4.07228">
        <ele>404</ele>
        <time>2022-05-01T13:23:47Z</time>
      </trkpt>
      <trkpt lat="45.59155" lon="4.07241">
        <ele>405</ele>
        <time>2022-05-01T13:23:56Z</time>
      </trkpt>
      <trkpt lat="45.58751" lon="4.07325">
        <ele>409</ele>
        <time>2022-05-01T13:25:08Z</time>
      </trkpt>
      <trkpt lat="45.58566" lon="4.07367">
        <ele>415</ele>
        <time>2022-05-01T13:25:42Z</time>
      </trkpt>
      <trkpt lat="45.58518" lon="4.07414">
        <ele>417</ele>
        <time>2022-05-01T13:25:52Z</time>
      </trkpt>
      <trkpt lat="45.5851" lon="4.07412">
        <ele>417</ele>
        <time>2022-05-01T13:25:53Z</time>
      </trkpt>
      <trkpt lat="45.58495" lon="4.07421">
        <ele>419</ele>
        <time>2022-05-01T13:25:56Z</time>
      </trkpt>
      <trkpt lat="45.5849" lon="4.07434">
        <ele>419</ele>
        <time>2022-05-01T13:25:58Z</time>
      </trkpt>
      <trkpt lat="45.5849" lon="4.07451">
        <ele>418</ele>
        <time>2022-05-01T13:26:00Z</time>
      </trkpt>
      <trkpt lat="45.58493" lon="4.07462">
        <ele>418</ele>
        <time>2022-05-01T13:26:02Z</time>
      </trkpt>
      <trkpt lat="45.58477" lon="4.07498">
        <ele>419</ele>
        <time>2022-05-01T13:26:07Z</time>
      </trkpt>
      <trkpt lat="45.58432" lon="4.07573">
        <ele>422</ele>
        <time>2022-05-01T13:26:19Z</time>
      </trkpt>
      <trkpt lat="45.5841" lon="4.07593">
        <ele>424</ele>
        <time>2022-05-01T13:26:24Z</time>
      </trkpt>
      <trkpt lat="45.58361" lon="4.07617">
        <ele>426</ele>
        <time>2022-05-01T13:26:33Z</time>
      </trkpt>
      <trkpt lat="45.58331" lon="4.07636">
        <ele>427</ele>
        <time>2022-05-01T13:26:39Z</time>
      </trkpt>
      <trkpt lat="45.58301" lon="4.07667">
        <ele>427</ele>
        <time>2022-05-01T13:26:46Z</time>
      </trkpt>
      <trkpt lat="45.57718" lon="4.08399">
        <ele>420</ele>
        <time>2022-05-01T13:29:04Z</time>
      </trkpt>
      <trkpt lat="45.5752" lon="4.08616">
        <ele>425</ele>
        <time>2022-05-01T13:29:48Z</time>
      </trkpt>
      <trkpt lat="45.57296" lon="4.08811">
        <ele>431</ele>
        <time>2022-05-01T13:30:35Z</time>
      </trkpt>
      <trkpt lat="45.5727" lon="4.08841">
        <ele>428</ele>
        <time>2022-05-01T13:30:41Z</time>
      </trkpt>
      <trkpt lat="45.57256" lon="4.08869">
        <ele>425</ele>
        <time>2022-05-01T13:30:45Z</time>
      </trkpt>
      <trkpt lat="45.57209" lon="4.08994">
        <ele>420</ele>
        <time>2022-05-01T13:31:03Z</time>
      </trkpt>
      <trkpt lat="45.57169" lon="4.09088">
        <ele>418</ele>
        <time>2022-05-01T13:31:16Z</time>
      </trkpt>
      <trkpt lat="45.57152" lon="4.09117">
        <ele>417</ele>
        <time>2022-05-01T13:31:21Z</time>
      </trkpt>
      <trkpt lat="45.5713" lon="4.09144">
        <ele>416</ele>
        <time>2022-05-01T13:31:26Z</time>
      </trkpt>
      <trkpt lat="45.56976" lon="4.09241">
        <ele>413</ele>
        <time>2022-05-01T13:31:56Z</time>
      </trkpt>
      <trkpt lat="45.5693" lon="4.0926">
        <ele>414</ele>
        <time>2022-05-01T13:32:05Z</time>
      </trkpt>
      <trkpt lat="45.56872" lon="4.0928">
        <ele>414</ele>
        <time>2022-05-01T13:32:15Z</time>
      </trkpt>
      <trkpt lat="45.56574" lon="4.09374">
        <ele>410</ele>
        <time>2022-05-01T13:33:10Z</time>
      </trkpt>
      <trkpt lat="45.56534" lon="4.09382">
        <ele>412</ele>
        <time>2022-05-01T13:33:17Z</time>
      </trkpt>
      <trkpt lat="45.56485" lon="4.09386">
        <ele>413</ele>
        <time>2022-05-01T13:33:26Z</time>
      </trkpt>
      <trkpt lat="45.56263" lon="4.09375">
        <ele>418</ele>
        <time>2022-05-01T13:34:05Z</time>
      </trkpt>
      <trkpt lat="45.56188" lon="4.09377">
        <ele>417</ele>
        <time>2022-05-01T13:34:18Z</time>
      </trkpt>
      <trkpt lat="45.56181" lon="4.09386">
        <ele>416</ele>
        <time>2022-05-01T13:34:20Z</time>
      </trkpt>
      <trkpt lat="45.56178" lon="4.09399">
        <ele>415</ele>
        <time>2022-05-01T13:34:22Z</time>
      </trkpt>
      <trkpt lat="45.56178" lon="4.09439">
        <ele>412</ele>
        <time>2022-05-01T13:34:27Z</time>
      </trkpt>
      <trkpt lat="45.56171" lon="4.09507">
        <ele>410</ele>
        <time>2022-05-01T13:34:35Z</time>
      </trkpt>
      <trkpt lat="45.56161" lon="4.09544">
        <ele>411</ele>
        <time>2022-05-01T13:34:40Z</time>
      </trkpt>
      <trkpt lat="45.56144" lon="4.09568">
        <ele>411</ele>
        <time>2022-05-01T13:34:45Z</time>
      </trkpt>
      <trkpt lat="45.56125" lon="4.09582">
        <ele>411</ele>
        <time>2022-05-01T13:34:48Z</time>
      </trkpt>
      <trkpt lat="45.5611" lon="4.09591">
        <ele>411</ele>
        <time>2022-05-01T13:34:51Z</time>
      </trkpt>
      <trkpt lat="45.56084" lon="4.09593">
        <ele>411</ele>
        <time>2022-05-01T13:34:56Z</time>
      </trkpt>
      <trkpt lat="45.56073" lon="4.096">
        <ele>413</ele>
        <time>2022-05-01T13:34:58Z</time>
      </trkpt>
      <trkpt lat="45.56068" lon="4.0961">
        <ele>413</ele>
        <time>2022-05-01T13:35:00Z</time>
      </trkpt>
      <trkpt lat="45.56069" lon="4.09638">
        <ele>414</ele>
        <time>2022-05-01T13:35:03Z</time>
      </trkpt>
      <trkpt lat="45.56086" lon="4.09711">
        <ele>415</ele>
        <time>2022-05-01T13:35:13Z</time>
      </trkpt>
      <trkpt lat="45.56088" lon="4.0973">
        <ele>415</ele>
        <time>2022-05-01T13:35:15Z</time>
      </trkpt>
      <trkpt lat="45.56082" lon="4.0976">
        <ele>416</ele>
        <time>2022-05-01T13:35:19Z</time>
      </trkpt>
      <trkpt lat="45.56088" lon="4.0978">
        <ele>416</ele>
        <time>2022-05-01T13:35:22Z</time>
      </trkpt>
      <trkpt lat="45.56082" lon="4.09812">
        <ele>417</ele>
        <time>2022-05-01T13:35:26Z</time>
      </trkpt>
      <trkpt lat="45.55993" lon="4.09984">
        <ele>418</ele>
        <time>2022-05-01T13:35:52Z</time>
      </trkpt>
      <trkpt lat="45.55975" lon="4.1004">
        <ele>419</ele>
        <time>2022-05-01T13:36:00Z</time>
      </trkpt>
      <trkpt lat="45.55971" lon="4.10062">
        <ele>419</ele>
        <time>2022-05-01T13:36:03Z</time>
      </trkpt>
      <trkpt lat="45.55948" lon="4.1013">
        <ele>418</ele>
        <time>2022-05-01T13:36:12Z</time>
      </trkpt>
      <trkpt lat="45.55868" lon="4.10244">
        <ele>418</ele>
        <time>2022-05-01T13:36:32Z</time>
      </trkpt>
      <trkpt lat="45.55855" lon="4.10274">
        <ele>418</ele>
        <time>2022-05-01T13:36:37Z</time>
      </trkpt>
      <trkpt lat="45.55843" lon="4.10315">
        <ele>417</ele>
        <time>2022-05-01T13:36:42Z</time>
      </trkpt>
      <trkpt lat="45.55838" lon="4.10368">
        <ele>418</ele>
        <time>2022-05-01T13:36:49Z</time>
      </trkpt>
      <trkpt lat="45.55841" lon="4.10486">
        <ele>419</ele>
        <time>2022-05-01T13:37:04Z</time>
      </trkpt>
      <trkpt lat="45.55821" lon="4.1081">
        <ele>414</ele>
        <time>2022-05-01T13:37:44Z</time>
      </trkpt>
      <trkpt lat="45.55734" lon="4.11216">
        <ele>409</ele>
        <time>2022-05-01T13:38:37Z</time>
      </trkpt>
      <trkpt lat="45.55729" lon="4.11255">
        <ele>408</ele>
        <time>2022-05-01T13:38:42Z</time>
      </trkpt>
      <trkpt lat="45.557" lon="4.11605">
        <ele>398</ele>
        <time>2022-05-01T13:39:26Z</time>
      </trkpt>
      <trkpt lat="45.55697" lon="4.11627">
        <ele>398</ele>
        <time>2022-05-01T13:39:29Z</time>
      </trkpt>
      <trkpt lat="45.55683" lon="4.11678">
        <ele>397</ele>
        <time>2022-05-01T13:39:36Z</time>
      </trkpt>
      <trkpt lat="45.55666" lon="4.11707">
        <ele>397</ele>
        <time>2022-05-01T13:39:40Z</time>
      </trkpt>
      <trkpt lat="45.55458" lon="4.11952">
        <ele>398</ele>
        <time>2022-05-01T13:40:28Z</time>
      </trkpt>
      <trkpt lat="45.55369" lon="4.12094">
        <ele>398</ele>
        <time>2022-05-01T13:40:52Z</time>
      </trkpt>
      <trkpt lat="45.55339" lon="4.12159">
        <ele>399</ele>
        <time>2022-05-01T13:41:02Z</time>
      </trkpt>
      <trkpt lat="45.55329" lon="4.1223">
        <ele>397</ele>
        <time>2022-05-01T13:41:11Z</time>
      </trkpt>
      <trkpt lat="45.55313" lon="4.12268">
        <ele>396</ele>
        <time>2022-05-01T13:41:16Z</time>
      </trkpt>
      <trkpt lat="45.55292" lon="4.12305">
        <ele>395</ele>
        <time>2022-05-01T13:41:22Z</time>
      </trkpt>
      <trkpt lat="45.55163" lon="4.12566">
        <ele>392</ele>
        <time>2022-05-01T13:42:02Z</time>
      </trkpt>
      <trkpt lat="45.5514" lon="4.12622">
        <ele>393</ele>
        <time>2022-05-01T13:42:10Z</time>
      </trkpt>
      <trkpt lat="45.55135" lon="4.12623">
        <ele>393</ele>
        <time>2022-05-01T13:42:11Z</time>
      </trkpt>
      <trkpt lat="45.55126" lon="4.12634">
        <ele>393</ele>
        <time>2022-05-01T13:42:13Z</time>
      </trkpt>
      <trkpt lat="45.55118" lon="4.12654">
        <ele>393</ele>
        <time>2022-05-01T13:42:16Z</time>
      </trkpt>
      <trkpt lat="45.551" lon="4.12741">
        <ele>393</ele>
        <time>2022-05-01T13:42:27Z</time>
      </trkpt>
      <trkpt lat="45.55029" lon="4.12921">
        <ele>393</ele>
        <time>2022-05-01T13:42:53Z</time>
      </trkpt>
      <trkpt lat="45.55006" lon="4.12947">
        <ele>392</ele>
        <time>2022-05-01T13:42:58Z</time>
      </trkpt>
      <trkpt lat="45.5488" lon="4.1306">
        <ele>393</ele>
        <time>2022-05-01T13:43:25Z</time>
      </trkpt>
      <trkpt lat="45.54798" lon="4.13128">
        <ele>394</ele>
        <time>2022-05-01T13:43:42Z</time>
      </trkpt>
      <trkpt lat="45.54611" lon="4.13303">
        <ele>395</ele>
        <time>2022-05-01T13:44:21Z</time>
      </trkpt>
      <trkpt lat="45.5452" lon="4.13407">
        <ele>395</ele>
        <time>2022-05-01T13:44:42Z</time>
      </trkpt>
      <trkpt lat="45.54352" lon="4.13621">
        <ele>401</ele>
        <time>2022-05-01T13:45:22Z</time>
      </trkpt>
      <trkpt lat="45.54129" lon="4.13919">
        <ele>402</ele>
        <time>2022-05-01T13:46:17Z</time>
      </trkpt>
      <trkpt lat="45.54117" lon="4.14025">
        <ele>402</ele>
        <time>2022-05-01T13:46:30Z</time>
      </trkpt>
      <trkpt lat="45.54116" lon="4.14132">
        <ele>402</ele>
        <time>2022-05-01T13:46:43Z</time>
      </trkpt>
      <trkpt lat="45.54092" lon="4.14386">
        <ele>400</ele>
        <time>2022-05-01T13:47:15Z</time>
      </trkpt>
      <trkpt lat="45.54035" lon="4.14552">
        <ele>400</ele>
        <time>2022-05-01T13:47:38Z</time>
      </trkpt>
      <trkpt lat="45.53838" lon="4.14765">
        <ele>399</ele>
        <time>2022-05-01T13:48:22Z</time>
      </trkpt>
      <trkpt lat="45.53734" lon="4.14899">
        <ele>397</ele>
        <time>2022-05-01T13:48:47Z</time>
      </trkpt>
      <trkpt lat="45.53593" lon="4.1501">
        <ele>397</ele>
        <time>2022-05-01T13:49:16Z</time>
      </trkpt>
      <trkpt lat="45.53566" lon="4.15028">
        <ele>397</ele>
        <time>2022-05-01T13:49:21Z</time>
      </trkpt>
      <trkpt lat="45.53544" lon="4.15037">
        <ele>397</ele>
        <time>2022-05-01T13:49:25Z</time>
      </trkpt>
      <trkpt lat="45.53507" lon="4.15041">
        <ele>396</ele>
        <time>2022-05-01T13:49:32Z</time>
      </trkpt>
      <trkpt lat="45.53487" lon="4.15049">
        <ele>396</ele>
        <time>2022-05-01T13:49:35Z</time>
      </trkpt>
      <trkpt lat="45.53384" lon="4.15144">
        <ele>397</ele>
        <time>2022-05-01T13:49:57Z</time>
      </trkpt>
      <trkpt lat="45.53216" lon="4.15428">
        <ele>394</ele>
        <time>2022-05-01T13:50:44Z</time>
      </trkpt>
      <trkpt lat="45.52845" lon="4.15884">
        <ele>390</ele>
        <time>2022-05-01T13:52:11Z</time>
      </trkpt>
      <trkpt lat="45.52757" lon="4.15933">
        <ele>391</ele>
        <time>2022-05-01T13:52:27Z</time>
      </trkpt>
      <trkpt lat="45.52717" lon="4.15944">
        <ele>391</ele>
        <time>2022-05-01T13:52:35Z</time>
      </trkpt>
      <trkpt lat="45.52483" lon="4.15986">
        <ele>392</ele>
        <time>2022-05-01T13:53:17Z</time>
      </trkpt>
      <trkpt lat="45.52449" lon="4.15988">
        <ele>392</ele>
        <time>2022-05-01T13:53:23Z</time>
      </trkpt>
      <trkpt lat="45.52423" lon="4.15986">
        <ele>391</ele>
        <time>2022-05-01T13:53:27Z</time>
      </trkpt>
      <trkpt lat="45.52385" lon="4.15995">
        <ele>391</ele>
        <time>2022-05-01T13:53:34Z</time>
      </trkpt>
      <trkpt lat="45.52338" lon="4.16012">
        <ele>391</ele>
        <time>2022-05-01T13:53:43Z</time>
      </trkpt>
      <trkpt lat="45.52309" lon="4.16017">
        <ele>391</ele>
        <time>2022-05-01T13:53:48Z</time>
      </trkpt>
      <trkpt lat="45.52216" lon="4.15991">
        <ele>391</ele>
        <time>2022-05-01T13:54:05Z</time>
      </trkpt>
      <trkpt lat="45.52192" lon="4.15989">
        <ele>392</ele>
        <time>2022-05-01T13:54:09Z</time>
      </trkpt>
      <trkpt lat="45.52151" lon="4.15998">
        <ele>392</ele>
        <time>2022-05-01T13:54:17Z</time>
      </trkpt>
      <trkpt lat="45.52127" lon="4.15992">
        <ele>392</ele>
        <time>2022-05-01T13:54:21Z</time>
      </trkpt>
      <trkpt lat="45.52067" lon="4.15966">
        <ele>393</ele>
        <time>2022-05-01T13:54:32Z</time>
      </trkpt>
      <trkpt lat="45.51936" lon="4.15945">
        <ele>395</ele>
        <time>2022-05-01T13:54:56Z</time>
      </trkpt>
      <trkpt lat="45.51533" lon="4.15975">
        <ele>396</ele>
        <time>2022-05-01T13:56:07Z</time>
      </trkpt>
      <trkpt lat="45.51355" lon="4.15983">
        <ele>398</ele>
        <time>2022-05-01T13:56:39Z</time>
      </trkpt>
      <trkpt lat="45.51263" lon="4.16012">
        <ele>398</ele>
        <time>2022-05-01T13:56:56Z</time>
      </trkpt>
      <trkpt lat="45.51149" lon="4.16012">
        <ele>398</ele>
        <time>2022-05-01T13:57:16Z</time>
      </trkpt>
      <trkpt lat="45.51017" lon="4.16052">
        <ele>395</ele>
        <time>2022-05-01T13:57:40Z</time>
      </trkpt>
      <trkpt lat="45.50777" lon="4.16011">
        <ele>398</ele>
        <time>2022-05-01T13:58:23Z</time>
      </trkpt>
      <trkpt lat="45.5058" lon="4.16097">
        <ele>402</ele>
        <time>2022-05-01T13:59:00Z</time>
      </trkpt>
      <trkpt lat="45.50566" lon="4.16106">
        <ele>402</ele>
        <time>2022-05-01T13:59:02Z</time>
      </trkpt>
      <trkpt lat="45.50543" lon="4.16138">
        <ele>402</ele>
        <time>2022-05-01T13:59:08Z</time>
      </trkpt>
      <trkpt lat="45.50528" lon="4.16149">
        <ele>402</ele>
        <time>2022-05-01T13:59:11Z</time>
      </trkpt>
      <trkpt lat="45.50443" lon="4.16183">
        <ele>401</ele>
        <time>2022-05-01T13:59:27Z</time>
      </trkpt>
      <trkpt lat="45.50351" lon="4.16288">
        <ele>395</ele>
        <time>2022-05-01T13:59:48Z</time>
      </trkpt>
      <trkpt lat="45.50299" lon="4.16308">
        <ele>393</ele>
        <time>2022-05-01T13:59:57Z</time>
      </trkpt>
      <trkpt lat="45.50248" lon="4.16347">
        <ele>392</ele>
        <time>2022-05-01T14:00:08Z</time>
      </trkpt>
      <trkpt lat="45.50222" lon="4.16351">
        <ele>393</ele>
        <time>2022-05-01T14:00:12Z</time>
      </trkpt>
      <trkpt lat="45.50205" lon="4.16343">
        <ele>394</ele>
        <time>2022-05-01T14:00:16Z</time>
      </trkpt>
      <trkpt lat="45.50195" lon="4.16333">
        <ele>394</ele>
        <time>2022-05-01T14:00:18Z</time>
      </trkpt>
      <trkpt lat="45.50112" lon="4.16225">
        <ele>395</ele>
        <time>2022-05-01T14:00:38Z</time>
      </trkpt>
      <trkpt lat="45.50102" lon="4.16234">
        <ele>395</ele>
        <time>2022-05-01T14:00:40Z</time>
      </trkpt>
      <trkpt lat="45.50078" lon="4.1624">
        <ele>395</ele>
        <time>2022-05-01T14:00:44Z</time>
      </trkpt>
      <trkpt lat="45.50062" lon="4.16239">
        <ele>395</ele>
        <time>2022-05-01T14:00:47Z</time>
      </trkpt>
      <trkpt lat="45.50055" lon="4.1623">
        <ele>395</ele>
        <time>2022-05-01T14:00:49Z</time>
      </trkpt>
      <trkpt lat="45.50045" lon="4.16229">
        <ele>395</ele>
        <time>2022-05-01T14:00:50Z</time>
      </trkpt>
      <trkpt lat="45.50034" lon="4.16238">
        <ele>395</ele>
        <time>2022-05-01T14:00:53Z</time>
      </trkpt>
      <trkpt lat="45.5003" lon="4.16252">
        <ele>395</ele>
        <time>2022-05-01T14:00:55Z</time>
      </trkpt>
      <trkpt lat="45.50011" lon="4.16265">
        <ele>395</ele>
        <time>2022-05-01T14:00:58Z</time>
      </trkpt>
      <trkpt lat="45.49956" lon="4.1628">
        <ele>395</ele>
        <time>2022-05-01T14:01:08Z</time>
      </trkpt>
      <trkpt lat="45.49943" lon="4.16286">
        <ele>395</ele>
        <time>2022-05-01T14:01:11Z</time>
      </trkpt>
      <trkpt lat="45.49891" lon="4.16326">
        <ele>396</ele>
        <time>2022-05-01T14:01:21Z</time>
      </trkpt>
      <trkpt lat="45.49822" lon="4.16363">
        <ele>397</ele>
        <time>2022-05-01T14:01:34Z</time>
      </trkpt>
      <trkpt lat="45.4981" lon="4.16379">
        <ele>398</ele>
        <time>2022-05-01T14:01:37Z</time>
      </trkpt>
      <trkpt lat="45.49802" lon="4.16402">
        <ele>398</ele>
        <time>2022-05-01T14:01:41Z</time>
      </trkpt>
      <trkpt lat="45.49796" lon="4.16441">
        <ele>398</ele>
        <time>2022-05-01T14:01:46Z</time>
      </trkpt>
      <trkpt lat="45.49779" lon="4.1652">
        <ele>398</ele>
        <time>2022-05-01T14:01:56Z</time>
      </trkpt>
      <trkpt lat="45.49705" lon="4.16753">
        <ele>400</ele>
        <time>2022-05-01T14:02:28Z</time>
      </trkpt>
      <trkpt lat="45.49696" lon="4.16822">
        <ele>400</ele>
        <time>2022-05-01T14:02:36Z</time>
      </trkpt>
      <trkpt lat="45.49678" lon="4.16882">
        <ele>399</ele>
        <time>2022-05-01T14:02:45Z</time>
      </trkpt>
      <trkpt lat="45.49659" lon="4.16937">
        <ele>399</ele>
        <time>2022-05-01T14:02:52Z</time>
      </trkpt>
      <trkpt lat="45.49588" lon="4.17061">
        <ele>398</ele>
        <time>2022-05-01T14:03:12Z</time>
      </trkpt>
      <trkpt lat="45.49552" lon="4.17172">
        <ele>398</ele>
        <time>2022-05-01T14:03:27Z</time>
      </trkpt>
      <trkpt lat="45.49539" lon="4.17262">
        <ele>398</ele>
        <time>2022-05-01T14:03:39Z</time>
      </trkpt>
      <trkpt lat="45.49541" lon="4.17276">
        <ele>398</ele>
        <time>2022-05-01T14:03:41Z</time>
      </trkpt>
      <trkpt lat="45.49546" lon="4.17279">
        <ele>397</ele>
        <time>2022-05-01T14:03:42Z</time>
      </trkpt>
      <trkpt lat="45.49551" lon="4.17301">
        <ele>397</ele>
        <time>2022-05-01T14:03:45Z</time>
      </trkpt>
      <trkpt lat="45.49581" lon="4.1749">
        <ele>397</ele>
        <time>2022-05-01T14:04:09Z</time>
      </trkpt>
      <trkpt lat="45.49584" lon="4.17632">
        <ele>398</ele>
        <time>2022-05-01T14:04:26Z</time>
      </trkpt>
      <trkpt lat="45.49578" lon="4.17739">
        <ele>398</ele>
        <time>2022-05-01T14:04:40Z</time>
      </trkpt>
      <trkpt lat="45.49504" lon="4.17958">
        <ele>402</ele>
        <time>2022-05-01T14:05:10Z</time>
      </trkpt>
      <trkpt lat="45.49499" lon="4.17993">
        <ele>402</ele>
        <time>2022-05-01T14:05:15Z</time>
      </trkpt>
      <trkpt lat="45.49502" lon="4.18051">
        <ele>404</ele>
        <time>2022-05-01T14:05:22Z</time>
      </trkpt>
      <trkpt lat="45.49511" lon="4.18089">
        <ele>405</ele>
        <time>2022-05-01T14:05:27Z</time>
      </trkpt>
      <trkpt lat="45.49549" lon="4.18138">
        <ele>407</ele>
        <time>2022-05-01T14:05:36Z</time>
      </trkpt>
      <trkpt lat="45.49575" lon="4.18187">
        <ele>409</ele>
        <time>2022-05-01T14:05:44Z</time>
      </trkpt>
      <trkpt lat="45.49625" lon="4.1833">
        <ele>412</ele>
        <time>2022-05-01T14:06:04Z</time>
      </trkpt>
      <trkpt lat="45.49698" lon="4.18491">
        <ele>414</ele>
        <time>2022-05-01T14:06:28Z</time>
      </trkpt>
      <trkpt lat="45.49712" lon="4.18506">
        <ele>414</ele>
        <time>2022-05-01T14:06:31Z</time>
      </trkpt>
      <trkpt lat="45.49784" lon="4.18566">
        <ele>413</ele>
        <time>2022-05-01T14:06:45Z</time>
      </trkpt>
      <trkpt lat="45.49803" lon="4.18588">
        <ele>412</ele>
        <time>2022-05-01T14:06:50Z</time>
      </trkpt>
      <trkpt lat="45.49808" lon="4.18606">
        <ele>412</ele>
        <time>2022-05-01T14:06:52Z</time>
      </trkpt>
      <trkpt lat="45.49994" lon="4.18957">
        <ele>411</ele>
        <time>2022-05-01T14:07:47Z</time>
      </trkpt>
      <trkpt lat="45.50236" lon="4.19431">
        <ele>405</ele>
        <time>2022-05-01T14:09:00Z</time>
      </trkpt>
      <trkpt lat="45.50245" lon="4.19452">
        <ele>404</ele>
        <time>2022-05-01T14:09:03Z</time>
      </trkpt>
      <trkpt lat="45.50253" lon="4.19498">
        <ele>402</ele>
        <time>2022-05-01T14:09:09Z</time>
      </trkpt>
      <trkpt lat="45.50252" lon="4.19516">
        <ele>401</ele>
        <time>2022-05-01T14:09:11Z</time>
      </trkpt>
      <trkpt lat="45.50243" lon="4.19552">
        <ele>400</ele>
        <time>2022-05-01T14:09:16Z</time>
      </trkpt>
      <trkpt lat="45.50235" lon="4.19569">
        <ele>400</ele>
        <time>2022-05-01T14:09:19Z</time>
      </trkpt>
      <trkpt lat="45.50217" lon="4.19594">
        <ele>399</ele>
        <time>2022-05-01T14:09:23Z</time>
      </trkpt>
      <trkpt lat="45.50094" lon="4.19714">
        <ele>397</ele>
        <time>2022-05-01T14:09:50Z</time>
      </trkpt>
      <trkpt lat="45.50047" lon="4.19753">
        <ele>395</ele>
        <time>2022-05-01T14:09:59Z</time>
      </trkpt>
      <trkpt lat="45.50037" lon="4.19777">
        <ele>395</ele>
        <time>2022-05-01T14:10:03Z</time>
      </trkpt>
      <trkpt lat="45.50021" lon="4.19884">
        <ele>392</ele>
        <time>2022-05-01T14:10:17Z</time>
      </trkpt>
      <trkpt lat="45.5" lon="4.20127">
        <ele>387</ele>
        <time>2022-05-01T14:10:47Z</time>
      </trkpt>
      <trkpt lat="45.49991" lon="4.20304">
        <ele>386</ele>
        <time>2022-05-01T14:11:09Z</time>
      </trkpt>
      <trkpt lat="45.5" lon="4.2067">
        <ele>385</ele>
        <time>2022-05-01T14:11:55Z</time>
      </trkpt>
      <trkpt lat="45.50004" lon="4.20724">
        <ele>384</ele>
        <time>2022-05-01T14:12:02Z</time>
      </trkpt>
      <trkpt lat="45.50015" lon="4.20794">
        <ele>382</ele>
        <time>2022-05-01T14:12:11Z</time>
      </trkpt>
      <trkpt lat="45.50017" lon="4.20844">
        <ele>381</ele>
        <time>2022-05-01T14:12:17Z</time>
      </trkpt>
      <trkpt lat="45.5001" lon="4.20921">
        <ele>382</ele>
        <time>2022-05-01T14:12:27Z</time>
      </trkpt>
      <trkpt lat="45.49921" lon="4.21578">
        <ele>384</ele>
        <time>2022-05-01T14:13:50Z</time>
      </trkpt>
      <trkpt lat="45.49895" lon="4.21871">
        <ele>384</ele>
        <time>2022-05-01T14:14:27Z</time>
      </trkpt>
      <trkpt lat="45.49864" lon="4.22156">
        <ele>385</ele>
        <time>2022-05-01T14:15:03Z</time>
      </trkpt>
      <trkpt lat="45.49824" lon="4.2247">
        <ele>385</ele>
        <time>2022-05-01T14:15:43Z</time>
      </trkpt>
      <trkpt lat="45.49821" lon="4.22623">
        <ele>386</ele>
        <time>2022-05-01T14:16:02Z</time>
      </trkpt>
      <trkpt lat="45.49834" lon="4.22753">
        <ele>386</ele>
        <time>2022-05-01T14:16:18Z</time>
      </trkpt>
      <trkpt lat="45.49844" lon="4.22997">
        <ele>387</ele>
        <time>2022-05-01T14:16:49Z</time>
      </trkpt>
      <trkpt lat="45.49834" lon="4.23131">
        <ele>389</ele>
        <time>2022-05-01T14:17:05Z</time>
      </trkpt>
      <trkpt lat="45.49846" lon="4.23295">
        <ele>389</ele>
        <time>2022-05-01T14:17:26Z</time>
      </trkpt>
      <trkpt lat="45.49884" lon="4.23572">
        <ele>390</ele>
        <time>2022-05-01T14:18:01Z</time>
      </trkpt>
      <trkpt lat="45.49897" lon="4.23627">
        <ele>390</ele>
        <time>2022-05-01T14:18:08Z</time>
      </trkpt>
      <trkpt lat="45.49909" lon="4.23666">
        <ele>390</ele>
        <time>2022-05-01T14:18:14Z</time>
      </trkpt>
      <trkpt lat="45.4995" lon="4.23768">
        <ele>390</ele>
        <time>2022-05-01T14:18:28Z</time>
      </trkpt>
      <trkpt lat="45.49959" lon="4.2381">
        <ele>390</ele>
        <time>2022-05-01T14:18:34Z</time>
      </trkpt>
      <trkpt lat="45.49992" lon="4.24008">
        <ele>390</ele>
        <time>2022-05-01T14:18:59Z</time>
      </trkpt>
      <trkpt lat="45.49992" lon="4.24023">
        <ele>390</ele>
        <time>2022-05-01T14:19:01Z</time>
      </trkpt>
      <trkpt lat="45.49938" lon="4.2405">
        <ele>391</ele>
        <time>2022-05-01T14:19:11Z</time>
      </trkpt>
      <trkpt lat="45.49906" lon="4.24077">
        <ele>391</ele>
        <time>2022-05-01T14:19:18Z</time>
      </trkpt>
      <trkpt lat="45.49894" lon="4.24093">
        <ele>392</ele>
        <time>2022-05-01T14:19:21Z</time>
      </trkpt>
      <trkpt lat="45.49881" lon="4.2418">
        <ele>392</ele>
        <time>2022-05-01T14:19:32Z</time>
      </trkpt>
      <trkpt lat="45.49881" lon="4.24228">
        <ele>392</ele>
        <time>2022-05-01T14:19:38Z</time>
      </trkpt>
      <trkpt lat="45.49885" lon="4.24267">
        <ele>391</ele>
        <time>2022-05-01T14:19:43Z</time>
      </trkpt>
      <trkpt lat="45.49875" lon="4.24271">
        <ele>391</ele>
        <time>2022-05-01T14:19:45Z</time>
      </trkpt>
      <trkpt lat="45.49788" lon="4.24334">
        <ele>393</ele>
        <time>2022-05-01T14:20:02Z</time>
      </trkpt>
      <trkpt lat="45.49715" lon="4.24391">
        <ele>394</ele>
        <time>2022-05-01T14:20:17Z</time>
      </trkpt>
      <trkpt lat="45.49574" lon="4.2445">
        <ele>393</ele>
        <time>2022-05-01T14:20:43Z</time>
      </trkpt>
      <trkpt lat="45.49548" lon="4.24453">
        <ele>393</ele>
        <time>2022-05-01T14:20:48Z</time>
      </trkpt>
      <trkpt lat="45.49498" lon="4.24436">
        <ele>393</ele>
        <time>2022-05-01T14:20:57Z</time>
      </trkpt>
      <trkpt lat="45.49396" lon="4.24387">
        <ele>393</ele>
        <time>2022-05-01T14:21:16Z</time>
      </trkpt>
      <trkpt lat="45.49369" lon="4.24377">
        <ele>393</ele>
        <time>2022-05-01T14:21:21Z</time>
      </trkpt>
      <trkpt lat="45.49122" lon="4.24345">
        <ele>395</ele>
        <time>2022-05-01T14:22:05Z</time>
      </trkpt>
      <trkpt lat="45.49018" lon="4.24348">
        <ele>398</ele>
        <time>2022-05-01T14:22:23Z</time>
      </trkpt>
      <trkpt lat="45.48805" lon="4.24334">
        <ele>408</ele>
        <time>2022-05-01T14:23:01Z</time>
      </trkpt>
      <trkpt lat="45.48747" lon="4.24322">
        <ele>412</ele>
        <time>2022-05-01T14:23:12Z</time>
      </trkpt>
      <trkpt lat="45.48704" lon="4.24309">
        <ele>415</ele>
        <time>2022-05-01T14:23:20Z</time>
      </trkpt>
      <trkpt lat="45.48682" lon="4.24298">
        <ele>417</ele>
        <time>2022-05-01T14:23:24Z</time>
      </trkpt>
      <trkpt lat="45.48671" lon="4.24288">
        <ele>418</ele>
        <time>2022-05-01T14:23:26Z</time>
      </trkpt>
      <trkpt lat="45.48604" lon="4.24252">
        <ele>422</ele>
        <time>2022-05-01T14:23:39Z</time>
      </trkpt>
      <trkpt lat="45.4856" lon="4.24234">
        <ele>424</ele>
        <time>2022-05-01T14:23:47Z</time>
      </trkpt>
      <trkpt lat="45.48361" lon="4.24193">
        <ele>429</ele>
        <time>2022-05-01T14:24:23Z</time>
      </trkpt>
      <trkpt lat="45.48198" lon="4.24145">
        <ele>434</ele>
        <time>2022-05-01T14:24:52Z</time>
      </trkpt>
      <trkpt lat="45.48182" lon="4.24131">
        <ele>435</ele>
        <time>2022-05-01T14:24:56Z</time>
      </trkpt>
      <trkpt lat="45.48152" lon="4.24093">
        <ele>436</ele>
        <time>2022-05-01T14:25:03Z</time>
      </trkpt>
      <trkpt lat="45.48093" lon="4.24066">
        <ele>439</ele>
        <time>2022-05-01T14:25:14Z</time>
      </trkpt>
      <trkpt lat="45.48053" lon="4.24058">
        <ele>439</ele>
        <time>2022-05-01T14:25:21Z</time>
      </trkpt>
      <trkpt lat="45.48" lon="4.24071">
        <ele>439</ele>
        <time>2022-05-01T14:25:31Z</time>
      </trkpt>
      <trkpt lat="45.47954" lon="4.24087">
        <ele>440</ele>
        <time>2022-05-01T14:25:39Z</time>
      </trkpt>
      <trkpt lat="45.47887" lon="4.24124">
        <ele>440</ele>
        <time>2022-05-01T14:25:52Z</time>
      </trkpt>
      <trkpt lat="45.47836" lon="4.24181">
        <ele>441</ele>
        <time>2022-05-01T14:26:03Z</time>
      </trkpt>
      <trkpt lat="45.47812" lon="4.24197">
        <ele>443</ele>
        <time>2022-05-01T14:26:08Z</time>
      </trkpt>
      <trkpt lat="45.47634" lon="4.24199">
        <ele>454</ele>
        <time>2022-05-01T14:26:40Z</time>
      </trkpt>
      <trkpt lat="45.47447" lon="4.2424">
        <ele>457</ele>
        <time>2022-05-01T14:27:13Z</time>
      </trkpt>
      <trkpt lat="45.47426" lon="4.24239">
        <ele>458</ele>
        <time>2022-05-01T14:27:17Z</time>
      </trkpt>
      <trkpt lat="45.4741" lon="4.24232">
        <ele>460</ele>
        <time>2022-05-01T14:27:20Z</time>
      </trkpt>
      <trkpt lat="45.47392" lon="4.24218">
        <ele>462</ele>
        <time>2022-05-01T14:27:24Z</time>
      </trkpt>
      <trkpt lat="45.47388" lon="4.24226">
        <ele>461</ele>
        <time>2022-05-01T14:27:25Z</time>
      </trkpt>
      <trkpt lat="45.47365" lon="4.24241">
        <ele>460</ele>
        <time>2022-05-01T14:27:30Z</time>
      </trkpt>
      <trkpt lat="45.47161" lon="4.2436">
        <ele>447</ele>
        <time>2022-05-01T14:28:09Z</time>
      </trkpt>
      <trkpt lat="45.4714" lon="4.24366">
        <ele>446</ele>
        <time>2022-05-01T14:28:13Z</time>
      </trkpt>
      <trkpt lat="45.47122" lon="4.24367">
        <ele>445</ele>
        <time>2022-05-01T14:28:16Z</time>
      </trkpt>
      <trkpt lat="45.47105" lon="4.24359">
        <ele>445</ele>
        <time>2022-05-01T14:28:19Z</time>
      </trkpt>
      <trkpt lat="45.47087" lon="4.2434">
        <ele>446</ele>
        <time>2022-05-01T14:28:23Z</time>
      </trkpt>
      <trkpt lat="45.47027" lon="4.24245">
        <ele>442</ele>
        <time>2022-05-01T14:28:39Z</time>
      </trkpt>
      <trkpt lat="45.46915" lon="4.24189">
        <ele>429</ele>
        <time>2022-05-01T14:29:00Z</time>
      </trkpt>
      <trkpt lat="45.46872" lon="4.24143">
        <ele>429</ele>
        <time>2022-05-01T14:29:10Z</time>
      </trkpt>
      <trkpt lat="45.46839" lon="4.24115">
        <ele>425</ele>
        <time>2022-05-01T14:29:16Z</time>
      </trkpt>
      <trkpt lat="45.46824" lon="4.24097">
        <ele>425</ele>
        <time>2022-05-01T14:29:20Z</time>
      </trkpt>
      <trkpt lat="45.46809" lon="4.24064">
        <ele>430</ele>
        <time>2022-05-01T14:29:25Z</time>
      </trkpt>
      <trkpt lat="45.46797" lon="4.24054">
        <ele>431</ele>
        <time>2022-05-01T14:29:27Z</time>
      </trkpt>
      <trkpt lat="45.46787" lon="4.24057">
        <ele>431</ele>
        <time>2022-05-01T14:29:29Z</time>
      </trkpt>
      <trkpt lat="45.46779" lon="4.24066">
        <ele>431</ele>
        <time>2022-05-01T14:29:31Z</time>
      </trkpt>
      <trkpt lat="45.46776" lon="4.24083">
        <ele>431</ele>
        <time>2022-05-01T14:29:33Z</time>
      </trkpt>
      <trkpt lat="45.46779" lon="4.24105">
        <ele>432</ele>
        <time>2022-05-01T14:29:36Z</time>
      </trkpt>
      <trkpt lat="45.46808" lon="4.24222">
        <ele>430</ele>
        <time>2022-05-01T14:29:51Z</time>
      </trkpt>
      <trkpt lat="45.46821" lon="4.24245">
        <ele>427</ele>
        <time>2022-05-01T14:29:55Z</time>
      </trkpt>
      <trkpt lat="45.46861" lon="4.24302">
        <ele>422</ele>
        <time>2022-05-01T14:30:05Z</time>
      </trkpt>
      <trkpt lat="45.46882" lon="4.24381">
        <ele>418</ele>
        <time>2022-05-01T14:30:16Z</time>
      </trkpt>
      <trkpt lat="45.46884" lon="4.24411">
        <ele>417</ele>
        <time>2022-05-01T14:30:19Z</time>
      </trkpt>
      <trkpt lat="45.4688" lon="4.24427">
        <ele>417</ele>
        <time>2022-05-01T14:30:22Z</time>
      </trkpt>
      <trkpt lat="45.46873" lon="4.24437">
        <ele>418</ele>
        <time>2022-05-01T14:30:23Z</time>
      </trkpt>
      <trkpt lat="45.46863" lon="4.24445">
        <ele>419</ele>
        <time>2022-05-01T14:30:25Z</time>
      </trkpt>
      <trkpt lat="45.46836" lon="4.24458">
        <ele>421</ele>
        <time>2022-05-01T14:30:30Z</time>
      </trkpt>
      <trkpt lat="45.46824" lon="4.24467">
        <ele>422</ele>
        <time>2022-05-01T14:30:33Z</time>
      </trkpt>
      <trkpt lat="45.46817" lon="4.2448">
        <ele>423</ele>
        <time>2022-05-01T14:30:35Z</time>
      </trkpt>
      <trkpt lat="45.46813" lon="4.24499">
        <ele>424</ele>
        <time>2022-05-01T14:30:37Z</time>
      </trkpt>
      <trkpt lat="45.46813" lon="4.24517">
        <ele>424</ele>
        <time>2022-05-01T14:30:40Z</time>
      </trkpt>
      <trkpt lat="45.46823" lon="4.24569">
        <ele>420</ele>
        <time>2022-05-01T14:30:46Z</time>
      </trkpt>
      <trkpt lat="45.46821" lon="4.24587">
        <ele>420</ele>
        <time>2022-05-01T14:30:49Z</time>
      </trkpt>
      <trkpt lat="45.46814" lon="4.24605">
        <ele>417</ele>
        <time>2022-05-01T14:30:51Z</time>
      </trkpt>
      <trkpt lat="45.46772" lon="4.24675">
        <ele>416</ele>
        <time>2022-05-01T14:31:03Z</time>
      </trkpt>
      <trkpt lat="45.46759" lon="4.24693">
        <ele>416</ele>
        <time>2022-05-01T14:31:06Z</time>
      </trkpt>
      <trkpt lat="45.46715" lon="4.24742">
        <ele>412</ele>
        <time>2022-05-01T14:31:16Z</time>
      </trkpt>
      <trkpt lat="45.467" lon="4.24767">
        <ele>413</ele>
        <time>2022-05-01T14:31:20Z</time>
      </trkpt>
      <trkpt lat="45.46693" lon="4.24792">
        <ele>413</ele>
        <time>2022-05-01T14:31:23Z</time>
      </trkpt>
      <trkpt lat="45.46689" lon="4.2482">
        <ele>413</ele>
        <time>2022-05-01T14:31:27Z</time>
      </trkpt>
      <trkpt lat="45.46693" lon="4.24847">
        <ele>413</ele>
        <time>2022-05-01T14:31:30Z</time>
      </trkpt>
      <trkpt lat="45.467" lon="4.24876">
        <ele>414</ele>
        <time>2022-05-01T14:31:34Z</time>
      </trkpt>
      <trkpt lat="45.46714" lon="4.24898">
        <ele>415</ele>
        <time>2022-05-01T14:31:38Z</time>
      </trkpt>
      <trkpt lat="45.46757" lon="4.24944">
        <ele>423</ele>
        <time>2022-05-01T14:31:47Z</time>
      </trkpt>
      <trkpt lat="45.46807" lon="4.24952">
        <ele>424</ele>
        <time>2022-05-01T14:31:56Z</time>
      </trkpt>
      <trkpt lat="45.46821" lon="4.24959">
        <ele>426</ele>
        <time>2022-05-01T14:31:59Z</time>
      </trkpt>
      <trkpt lat="45.46856" lon="4.24991">
        <ele>438</ele>
        <time>2022-05-01T14:32:06Z</time>
      </trkpt>
      <trkpt lat="45.46866" lon="4.24995">
        <ele>439</ele>
        <time>2022-05-01T14:32:08Z</time>
      </trkpt>
      <trkpt lat="45.46877" lon="4.24994">
        <ele>439</ele>
        <time>2022-05-01T14:32:10Z</time>
      </trkpt>
      <trkpt lat="45.46888" lon="4.24982">
        <ele>436</ele>
        <time>2022-05-01T14:32:13Z</time>
      </trkpt>
      <trkpt lat="45.46904" lon="4.2494">
        <ele>426</ele>
        <time>2022-05-01T14:32:19Z</time>
      </trkpt>
      <trkpt lat="45.46921" lon="4.24928">
        <ele>425</ele>
        <time>2022-05-01T14:32:22Z</time>
      </trkpt>
      <trkpt lat="45.46933" lon="4.2493">
        <ele>427</ele>
        <time>2022-05-01T14:32:24Z</time>
      </trkpt>
      <trkpt lat="45.46945" lon="4.24939">
        <ele>431</ele>
        <time>2022-05-01T14:32:27Z</time>
      </trkpt>
      <trkpt lat="45.4695" lon="4.24952">
        <ele>435</ele>
        <time>2022-05-01T14:32:28Z</time>
      </trkpt>
      <trkpt lat="45.46952" lon="4.2497">
        <ele>439</ele>
        <time>2022-05-01T14:32:31Z</time>
      </trkpt>
      <trkpt lat="45.46949" lon="4.24985">
        <ele>443</ele>
        <time>2022-05-01T14:32:33Z</time>
      </trkpt>
      <trkpt lat="45.46911" lon="4.25046">
        <ele>450</ele>
        <time>2022-05-01T14:32:43Z</time>
      </trkpt>
      <trkpt lat="45.46891" lon="4.25057">
        <ele>453</ele>
        <time>2022-05-01T14:32:47Z</time>
      </trkpt>
      <trkpt lat="45.4687" lon="4.25054">
        <ele>453</ele>
        <time>2022-05-01T14:32:50Z</time>
      </trkpt>
      <trkpt lat="45.46826" lon="4.25028">
        <ele>448</ele>
        <time>2022-05-01T14:32:59Z</time>
      </trkpt>
      <trkpt lat="45.46809" lon="4.25028">
        <ele>448</ele>
        <time>2022-05-01T14:33:02Z</time>
      </trkpt>
      <trkpt lat="45.46774" lon="4.25039">
        <ele>451</ele>
        <time>2022-05-01T14:33:08Z</time>
      </trkpt>
      <trkpt lat="45.46758" lon="4.25051">
        <ele>454</ele>
        <time>2022-05-01T14:33:11Z</time>
      </trkpt>
      <trkpt lat="45.46695" lon="4.2513">
        <ele>460</ele>
        <time>2022-05-01T14:33:26Z</time>
      </trkpt>
      <trkpt lat="45.46688" lon="4.25149">
        <ele>462</ele>
        <time>2022-05-01T14:33:29Z</time>
      </trkpt>
      <trkpt lat="45.46684" lon="4.25174">
        <ele>464</ele>
        <time>2022-05-01T14:33:32Z</time>
      </trkpt>
      <trkpt lat="45.46696" lon="4.25238">
        <ele>466</ele>
        <time>2022-05-01T14:33:41Z</time>
      </trkpt>
      <trkpt lat="45.46723" lon="4.25309">
        <ele>469</ele>
        <time>2022-05-01T14:33:51Z</time>
      </trkpt>
      <trkpt lat="45.46737" lon="4.25337">
        <ele>470</ele>
        <time>2022-05-01T14:33:55Z</time>
      </trkpt>
      <trkpt lat="45.4675" lon="4.25354">
        <ele>471</ele>
        <time>2022-05-01T14:33:58Z</time>
      </trkpt>
      <trkpt lat="45.46805" lon="4.25404">
        <ele>475</ele>
        <time>2022-05-01T14:34:10Z</time>
      </trkpt>
      <trkpt lat="45.46817" lon="4.25411">
        <ele>476</ele>
        <time>2022-05-01T14:34:12Z</time>
      </trkpt>
      <trkpt lat="45.46962" lon="4.25445">
        <ele>484</ele>
        <time>2022-05-01T14:34:38Z</time>
      </trkpt>
      <trkpt lat="45.47013" lon="4.25469">
        <ele>485</ele>
        <time>2022-05-01T14:34:48Z</time>
      </trkpt>
      <trkpt lat="45.47109" lon="4.25526">
        <ele>487</ele>
        <time>2022-05-01T14:35:06Z</time>
      </trkpt>
      <trkpt lat="45.47139" lon="4.2555">
        <ele>487</ele>
        <time>2022-05-01T14:35:12Z</time>
      </trkpt>
      <trkpt lat="45.4716" lon="4.25572">
        <ele>488</ele>
        <time>2022-05-01T14:35:17Z</time>
      </trkpt>
      <trkpt lat="45.47185" lon="4.25605">
        <ele>488</ele>
        <time>2022-05-01T14:35:23Z</time>
      </trkpt>
      <trkpt lat="45.472" lon="4.25633">
        <ele>489</ele>
        <time>2022-05-01T14:35:27Z</time>
      </trkpt>
      <trkpt lat="45.47223" lon="4.25689">
        <ele>490</ele>
        <time>2022-05-01T14:35:35Z</time>
      </trkpt>
      <trkpt lat="45.47234" lon="4.25738">
        <ele>491</ele>
        <time>2022-05-01T14:35:42Z</time>
      </trkpt>
      <trkpt lat="45.47255" lon="4.25869">
        <ele>497</ele>
        <time>2022-05-01T14:35:59Z</time>
      </trkpt>
      <trkpt lat="45.47253" lon="4.25944">
        <ele>499</ele>
        <time>2022-05-01T14:36:08Z</time>
      </trkpt>
      <trkpt lat="45.47241" lon="4.25981">
        <ele>500</ele>
        <time>2022-05-01T14:36:13Z</time>
      </trkpt>
      <trkpt lat="45.47215" lon="4.26014">
        <ele>500</ele>
        <time>2022-05-01T14:36:19Z</time>
      </trkpt>
      <trkpt lat="45.47128" lon="4.2605">
        <ele>502</ele>
        <time>2022-05-01T14:36:35Z</time>
      </trkpt>
      <trkpt lat="45.47102" lon="4.26069">
        <ele>503</ele>
        <time>2022-05-01T14:36:41Z</time>
      </trkpt>
      <trkpt lat="45.47095" lon="4.26083">
        <ele>503</ele>
        <time>2022-05-01T14:36:43Z</time>
      </trkpt>
      <trkpt lat="45.47083" lon="4.26098">
        <ele>504</ele>
        <time>2022-05-01T14:36:46Z</time>
      </trkpt>
      <trkpt lat="45.47073" lon="4.2612">
        <ele>504</ele>
        <time>2022-05-01T14:36:49Z</time>
      </trkpt>
      <trkpt lat="45.4706" lon="4.26169">
        <ele>507</ele>
        <time>2022-05-01T14:36:55Z</time>
      </trkpt>
      <trkpt lat="45.47057" lon="4.26203">
        <ele>508</ele>
        <time>2022-05-01T14:37:00Z</time>
      </trkpt>
      <trkpt lat="45.47062" lon="4.26245">
        <ele>509</ele>
        <time>2022-05-01T14:37:05Z</time>
      </trkpt>
      <trkpt lat="45.47108" lon="4.26349">
        <ele>509</ele>
        <time>2022-05-01T14:37:20Z</time>
      </trkpt>
      <trkpt lat="45.47124" lon="4.26394">
        <ele>510</ele>
        <time>2022-05-01T14:37:27Z</time>
      </trkpt>
      <trkpt lat="45.47121" lon="4.26438">
        <ele>511</ele>
        <time>2022-05-01T14:37:32Z</time>
      </trkpt>
      <trkpt lat="45.47106" lon="4.26485">
        <ele>513</ele>
        <time>2022-05-01T14:37:39Z</time>
      </trkpt>
      <trkpt lat="45.47044" lon="4.26543">
        <ele>519</ele>
        <time>2022-05-01T14:37:52Z</time>
      </trkpt>
      <trkpt lat="45.47021" lon="4.26576">
        <ele>520</ele>
        <time>2022-05-01T14:37:58Z</time>
      </trkpt>
      <trkpt lat="45.47003" lon="4.26617">
        <ele>522</ele>
        <time>2022-05-01T14:38:04Z</time>
      </trkpt>
      <trkpt lat="45.46984" lon="4.26728">
        <ele>524</ele>
        <time>2022-05-01T14:38:18Z</time>
      </trkpt>
      <trkpt lat="45.46982" lon="4.26778">
        <ele>525</ele>
        <time>2022-05-01T14:38:24Z</time>
      </trkpt>
      <trkpt lat="45.46987" lon="4.26821">
        <ele>528</ele>
        <time>2022-05-01T14:38:30Z</time>
      </trkpt>
      <trkpt lat="45.47001" lon="4.26863">
        <ele>531</ele>
        <time>2022-05-01T14:38:35Z</time>
      </trkpt>
      <trkpt lat="45.47022" lon="4.26899">
        <ele>532</ele>
        <time>2022-05-01T14:38:41Z</time>
      </trkpt>
      <trkpt lat="45.47143" lon="4.27042">
        <ele>535</ele>
        <time>2022-05-01T14:39:09Z</time>
      </trkpt>
      <trkpt lat="45.4716" lon="4.27078">
        <ele>537</ele>
        <time>2022-05-01T14:39:15Z</time>
      </trkpt>
      <trkpt lat="45.47167" lon="4.27114">
        <ele>538</ele>
        <time>2022-05-01T14:39:19Z</time>
      </trkpt>
      <trkpt lat="45.47174" lon="4.27202">
        <ele>541</ele>
        <time>2022-05-01T14:39:30Z</time>
      </trkpt>
      <trkpt lat="45.47186" lon="4.27243">
        <ele>542</ele>
        <time>2022-05-01T14:39:36Z</time>
      </trkpt>
      <trkpt lat="45.47238" lon="4.27313">
        <ele>542</ele>
        <time>2022-05-01T14:39:49Z</time>
      </trkpt>
      <trkpt lat="45.47266" lon="4.27361">
        <ele>541</ele>
        <time>2022-05-01T14:39:56Z</time>
      </trkpt>
      <trkpt lat="45.47268" lon="4.27416">
        <ele>542</ele>
        <time>2022-05-01T14:40:03Z</time>
      </trkpt>
      <trkpt lat="45.47261" lon="4.27484">
        <ele>542</ele>
        <time>2022-05-01T14:40:12Z</time>
      </trkpt>
      <trkpt lat="45.4725" lon="4.27545">
        <ele>543</ele>
        <time>2022-05-01T14:40:20Z</time>
      </trkpt>
      <trkpt lat="45.47234" lon="4.27599">
        <ele>545</ele>
        <time>2022-05-01T14:40:27Z</time>
      </trkpt>
      <trkpt lat="45.47216" lon="4.27644">
        <ele>547</ele>
        <time>2022-05-01T14:40:33Z</time>
      </trkpt>
      <trkpt lat="45.47203" lon="4.27721">
        <ele>547</ele>
        <time>2022-05-01T14:40:43Z</time>
      </trkpt>
      <trkpt lat="45.47197" lon="4.27786">
        <ele>548</ele>
        <time>2022-05-01T14:40:52Z</time>
      </trkpt>
      <trkpt lat="45.47196" lon="4.27835">
        <ele>549</ele>
        <time>2022-05-01T14:40:58Z</time>
      </trkpt>
      <trkpt lat="45.47209" lon="4.27887">
        <ele>549</ele>
        <time>2022-05-01T14:41:05Z</time>
      </trkpt>
      <trkpt lat="45.47248" lon="4.27944">
        <ele>549</ele>
        <time>2022-05-01T14:41:14Z</time>
      </trkpt>
      <trkpt lat="45.47287" lon="4.27963">
        <ele>550</ele>
        <time>2022-05-01T14:41:22Z</time>
      </trkpt>
      <trkpt lat="45.4734" lon="4.27983">
        <ele>552</ele>
        <time>2022-05-01T14:41:32Z</time>
      </trkpt>
      <trkpt lat="45.47363" lon="4.28006">
        <ele>552</ele>
        <time>2022-05-01T14:41:37Z</time>
      </trkpt>
      <trkpt lat="45.47375" lon="4.28025">
        <ele>552</ele>
        <time>2022-05-01T14:41:40Z</time>
      </trkpt>
      <trkpt lat="45.47386" lon="4.28078">
        <ele>555</ele>
        <time>2022-05-01T14:41:47Z</time>
      </trkpt>
      <trkpt lat="45.47385" lon="4.28168">
        <ele>558</ele>
        <time>2022-05-01T14:41:58Z</time>
      </trkpt>
      <trkpt lat="45.47395" lon="4.28373">
        <ele>569</ele>
        <time>2022-05-01T14:42:24Z</time>
      </trkpt>
      <trkpt lat="45.47425" lon="4.28437">
        <ele>573</ele>
        <time>2022-05-01T14:42:33Z</time>
      </trkpt>
      <trkpt lat="45.47532" lon="4.28561">
        <ele>578</ele>
        <time>2022-05-01T14:42:58Z</time>
      </trkpt>
      <trkpt lat="45.47546" lon="4.2861">
        <ele>580</ele>
        <time>2022-05-01T14:43:04Z</time>
      </trkpt>
      <trkpt lat="45.47545" lon="4.28685">
        <ele>582</ele>
        <time>2022-05-01T14:43:14Z</time>
      </trkpt>
      <trkpt lat="45.47531" lon="4.28844">
        <ele>582</ele>
        <time>2022-05-01T14:43:34Z</time>
      </trkpt>
      <trkpt lat="45.4753" lon="4.28899">
        <ele>583</ele>
        <time>2022-05-01T14:43:40Z</time>
      </trkpt>
      <trkpt lat="45.47567" lon="4.29079">
        <ele>591</ele>
        <time>2022-05-01T14:44:04Z</time>
      </trkpt>
      <trkpt lat="45.47591" lon="4.29127">
        <ele>595</ele>
        <time>2022-05-01T14:44:11Z</time>
      </trkpt>
      <trkpt lat="45.47613" lon="4.29155">
        <ele>597</ele>
        <time>2022-05-01T14:44:16Z</time>
      </trkpt>
      <trkpt lat="45.47912" lon="4.29459">
        <ele>614</ele>
        <time>2022-05-01T14:45:22Z</time>
      </trkpt>
      <trkpt lat="45.47941" lon="4.295">
        <ele>616</ele>
        <time>2022-05-01T14:45:29Z</time>
      </trkpt>
      <trkpt lat="45.47967" lon="4.2958">
        <ele>627</ele>
        <time>2022-05-01T14:45:40Z</time>
      </trkpt>
      <trkpt lat="45.47994" lon="4.29617">
        <ele>627</ele>
        <time>2022-05-01T14:45:47Z</time>
      </trkpt>
      <trkpt lat="45.4807" lon="4.29692">
        <ele>629</ele>
        <time>2022-05-01T14:46:03Z</time>
      </trkpt>
      <trkpt lat="45.48083" lon="4.2971">
        <ele>629</ele>
        <time>2022-05-01T14:46:06Z</time>
      </trkpt>
      <trkpt lat="45.48095" lon="4.29744">
        <ele>629</ele>
        <time>2022-05-01T14:46:11Z</time>
      </trkpt>
      <trkpt lat="45.48097" lon="4.29761">
        <ele>629</ele>
        <time>2022-05-01T14:46:13Z</time>
      </trkpt>
      <trkpt lat="45.48096" lon="4.29787">
        <ele>629</ele>
        <time>2022-05-01T14:46:17Z</time>
      </trkpt>
      <trkpt lat="45.48089" lon="4.29821">
        <ele>630</ele>
        <time>2022-05-01T14:46:21Z</time>
      </trkpt>
      <trkpt lat="45.47891" lon="4.30255">
        <ele>633</ele>
        <time>2022-05-01T14:47:26Z</time>
      </trkpt>
      <trkpt lat="45.47877" lon="4.30305">
        <ele>635</ele>
        <time>2022-05-01T14:47:32Z</time>
      </trkpt>
      <trkpt lat="45.47859" lon="4.30565">
        <ele>632</ele>
        <time>2022-05-01T14:48:05Z</time>
      </trkpt>
      <trkpt lat="45.47877" lon="4.3072">
        <ele>629</ele>
        <time>2022-05-01T14:48:24Z</time>
      </trkpt>
      <trkpt lat="45.47871" lon="4.30764">
        <ele>628</ele>
        <time>2022-05-01T14:48:30Z</time>
      </trkpt>
      <trkpt lat="45.4786" lon="4.30795">
        <ele>627</ele>
        <time>2022-05-01T14:48:34Z</time>
      </trkpt>
      <trkpt lat="45.47819" lon="4.30844">
        <ele>626</ele>
        <time>2022-05-01T14:48:44Z</time>
      </trkpt>
      <trkpt lat="45.47564" lon="4.31063">
        <ele>616</ele>
        <time>2022-05-01T14:49:37Z</time>
      </trkpt>
      <trkpt lat="45.4755" lon="4.31071">
        <ele>615</ele>
        <time>2022-05-01T14:49:40Z</time>
      </trkpt>
      <trkpt lat="45.47532" lon="4.31077">
        <ele>614</ele>
        <time>2022-05-01T14:49:43Z</time>
      </trkpt>
      <trkpt lat="45.47365" lon="4.31096">
        <ele>607</ele>
        <time>2022-05-01T14:50:13Z</time>
      </trkpt>
      <trkpt lat="45.47309" lon="4.31098">
        <ele>604</ele>
        <time>2022-05-01T14:50:23Z</time>
      </trkpt>
      <trkpt lat="45.47281" lon="4.31093">
        <ele>604</ele>
        <time>2022-05-01T14:50:28Z</time>
      </trkpt>
      <trkpt lat="45.47261" lon="4.31094">
        <ele>603</ele>
        <time>2022-05-01T14:50:31Z</time>
      </trkpt>
      <trkpt lat="45.47251" lon="4.31104">
        <ele>602</ele>
        <time>2022-05-01T14:50:33Z</time>
      </trkpt>
      <trkpt lat="45.47163" lon="4.31109">
        <ele>603</ele>
        <time>2022-05-01T14:50:49Z</time>
      </trkpt>
      <trkpt lat="45.47114" lon="4.31127">
        <ele>604</ele>
        <time>2022-05-01T14:50:58Z</time>
      </trkpt>
      <trkpt lat="45.47102" lon="4.31137">
        <ele>604</ele>
        <time>2022-05-01T14:51:01Z</time>
      </trkpt>
      <trkpt lat="45.4708" lon="4.31164">
        <ele>604</ele>
        <time>2022-05-01T14:51:06Z</time>
      </trkpt>
      <trkpt lat="45.46929" lon="4.31393">
        <ele>602</ele>
        <time>2022-05-01T14:51:45Z</time>
      </trkpt>
      <trkpt lat="45.46792" lon="4.31565">
        <ele>599</ele>
        <time>2022-05-01T14:52:17Z</time>
      </trkpt>
      <trkpt lat="45.4676" lon="4.31631">
        <ele>595</ele>
        <time>2022-05-01T14:52:27Z</time>
      </trkpt>
      <trkpt lat="45.46721" lon="4.31744">
        <ele>585</ele>
        <time>2022-05-01T14:52:43Z</time>
      </trkpt>
      <trkpt lat="45.46544" lon="4.32047">
        <ele>571</ele>
        <time>2022-05-01T14:53:32Z</time>
      </trkpt>
      <trkpt lat="45.46525" lon="4.32101">
        <ele>571</ele>
        <time>2022-05-01T14:53:40Z</time>
      </trkpt>
      <trkpt lat="45.46504" lon="4.32131">
        <ele>572</ele>
        <time>2022-05-01T14:53:45Z</time>
      </trkpt>
      <trkpt lat="45.46492" lon="4.32138">
        <ele>573</ele>
        <time>2022-05-01T14:53:47Z</time>
      </trkpt>
      <trkpt lat="45.46488" lon="4.32144">
        <ele>573</ele>
        <time>2022-05-01T14:53:49Z</time>
      </trkpt>
      <trkpt lat="45.46487" lon="4.3216">
        <ele>574</ele>
        <time>2022-05-01T14:53:51Z</time>
      </trkpt>
      <trkpt lat="45.46443" lon="4.32222">
        <ele>575</ele>
        <time>2022-05-01T14:54:02Z</time>
      </trkpt>
      <trkpt lat="45.46297" lon="4.32469">
        <ele>574</ele>
        <time>2022-05-01T14:54:42Z</time>
      </trkpt>
      <trkpt lat="45.46232" lon="4.32584">
        <ele>571</ele>
        <time>2022-05-01T14:55:00Z</time>
      </trkpt>
      <trkpt lat="45.46196" lon="4.32639">
        <ele>570</ele>
        <time>2022-05-01T14:55:10Z</time>
      </trkpt>
      <trkpt lat="45.46105" lon="4.32794">
        <ele>574</ele>
        <time>2022-05-01T14:55:35Z</time>
      </trkpt>
      <trkpt lat="45.4608" lon="4.32855">
        <ele>574</ele>
        <time>2022-05-01T14:55:44Z</time>
      </trkpt>
      <trkpt lat="45.46047" lon="4.32919">
        <ele>574</ele>
        <time>2022-05-01T14:55:54Z</time>
      </trkpt>
      <trkpt lat="45.46026" lon="4.32967">
        <ele>576</ele>
        <time>2022-05-01T14:56:01Z</time>
      </trkpt>
      <trkpt lat="45.45994" lon="4.33022">
        <ele>579</ele>
        <time>2022-05-01T14:56:10Z</time>
      </trkpt>
      <trkpt lat="45.45975" lon="4.3305">
        <ele>579</ele>
        <time>2022-05-01T14:56:14Z</time>
      </trkpt>
      <trkpt lat="45.4593" lon="4.33096">
        <ele>579</ele>
        <time>2022-05-01T14:56:24Z</time>
      </trkpt>
      <trkpt lat="45.45806" lon="4.33209">
        <ele>582</ele>
        <time>2022-05-01T14:56:51Z</time>
      </trkpt>
      <trkpt lat="45.45776" lon="4.33241">
        <ele>581</ele>
        <time>2022-05-01T14:56:57Z</time>
      </trkpt>
      <trkpt lat="45.45762" lon="4.33261">
        <ele>580</ele>
        <time>2022-05-01T14:57:01Z</time>
      </trkpt>
      <trkpt lat="45.45711" lon="4.33353">
        <ele>576</ele>
        <time>2022-05-01T14:57:15Z</time>
      </trkpt>
      <trkpt lat="45.45684" lon="4.33389">
        <ele>575</ele>
        <time>2022-05-01T14:57:22Z</time>
      </trkpt>
      <trkpt lat="45.45648" lon="4.33418">
        <ele>575</ele>
        <time>2022-05-01T14:57:29Z</time>
      </trkpt>
      <trkpt lat="45.45622" lon="4.33435">
        <ele>576</ele>
        <time>2022-05-01T14:57:34Z</time>
      </trkpt>
      <trkpt lat="45.45485" lon="4.33491">
        <ele>576</ele>
        <time>2022-05-01T14:58:00Z</time>
      </trkpt>
      <trkpt lat="45.45447" lon="4.33501">
        <ele>575</ele>
        <time>2022-05-01T14:58:07Z</time>
      </trkpt>
      <trkpt lat="45.4541" lon="4.33505">
        <ele>575</ele>
        <time>2022-05-01T14:58:13Z</time>
      </trkpt>
      <trkpt lat="45.45335" lon="4.33481">
        <ele>576</ele>
        <time>2022-05-01T14:58:27Z</time>
      </trkpt>
      <trkpt lat="45.45224" lon="4.33474">
        <ele>578</ele>
        <time>2022-05-01T14:58:47Z</time>
      </trkpt>
      <trkpt lat="45.45154" lon="4.33466">
        <ele>578</ele>
        <time>2022-05-01T14:58:59Z</time>
      </trkpt>
      <trkpt lat="45.45099" lon="4.33465">
        <ele>579</ele>
        <time>2022-05-01T14:59:09Z</time>
      </trkpt>
      <trkpt lat="45.45066" lon="4.33471">
        <ele>578</ele>
        <time>2022-05-01T14:59:15Z</time>
      </trkpt>
      <trkpt lat="45.44981" lon="4.33469">
        <ele>578</ele>
        <time>2022-05-01T14:59:30Z</time>
      </trkpt>
      <trkpt lat="45.44948" lon="4.33466">
        <ele>578</ele>
        <time>2022-05-01T14:59:36Z</time>
      </trkpt>
      <trkpt lat="45.4489" lon="4.33466">
        <ele>578</ele>
        <time>2022-05-01T14:59:46Z</time>
      </trkpt>
      <trkpt lat="45.44877" lon="4.33445">
        <ele>579</ele>
        <time>2022-05-01T14:59:50Z</time>
      </trkpt>
      <trkpt lat="45.44867" lon="4.33444">
        <ele>579</ele>
        <time>2022-05-01T14:59:51Z</time>
      </trkpt>
      <trkpt lat="45.44864" lon="4.33448">
        <ele>579</ele>
        <time>2022-05-01T14:59:52Z</time>
      </trkpt>
      <trkpt lat="45.44863" lon="4.33457">
        <ele>578</ele>
        <time>2022-05-01T14:59:53Z</time>
      </trkpt>
      <trkpt lat="45.44667" lon="4.33611">
        <ele>577</ele>
        <time>2022-05-01T15:00:33Z</time>
      </trkpt>
      <trkpt lat="45.44646" lon="4.33618">
        <ele>577</ele>
        <time>2022-05-01T15:00:37Z</time>
      </trkpt>
      <trkpt lat="45.44643" lon="4.33615">
        <ele>577</ele>
        <time>2022-05-01T15:00:38Z</time>
      </trkpt>
      <trkpt lat="45.44639" lon="4.33615">
        <ele>577</ele>
        <time>2022-05-01T15:00:38Z</time>
      </trkpt>
      <trkpt lat="45.44624" lon="4.33626">
        <ele>577</ele>
        <time>2022-05-01T15:00:41Z</time>
      </trkpt>
      <trkpt lat="45.44619" lon="4.33637">
        <ele>576</ele>
        <time>2022-05-01T15:00:43Z</time>
      </trkpt>
      <trkpt lat="45.44271" lon="4.33853">
        <ele>589</ele>
        <time>2022-05-01T15:01:51Z</time>
      </trkpt>
      <trkpt lat="45.43914" lon="4.34394">
        <ele>578</ele>
        <time>2022-05-01T15:03:23Z</time>
      </trkpt>
      <trkpt lat="45.43865" lon="4.34462">
        <ele>577</ele>
        <time>2022-05-01T15:03:35Z</time>
      </trkpt>
      <trkpt lat="45.43797" lon="4.3453">
        <ele>576</ele>
        <time>2022-05-01T15:03:50Z</time>
      </trkpt>
      <trkpt lat="45.43651" lon="4.34653">
        <ele>574</ele>
        <time>2022-05-01T15:04:20Z</time>
      </trkpt>
      <trkpt lat="45.4355" lon="4.34714">
        <ele>572</ele>
        <time>2022-05-01T15:04:40Z</time>
      </trkpt>
      <trkpt lat="45.43386" lon="4.34976">
        <ele>572</ele>
        <time>2022-05-01T15:05:24Z</time>
      </trkpt>
      <trkpt lat="45.43345" lon="4.34998">
        <ele>577</ele>
        <time>2022-05-01T15:05:32Z</time>
      </trkpt>
      <trkpt lat="45.43315" lon="4.3503">
        <ele>580</ele>
        <time>2022-05-01T15:05:38Z</time>
      </trkpt>
      <trkpt lat="45.43249" lon="4.35136">
        <ele>583</ele>
        <time>2022-05-01T15:05:56Z</time>
      </trkpt>
      <trkpt lat="45.43261" lon="4.35202">
        <ele>584</ele>
        <time>2022-05-01T15:06:04Z</time>
      </trkpt>
      <trkpt lat="45.43282" lon="4.35288">
        <ele>589</ele>
        <time>2022-05-01T15:06:16Z</time>
      </trkpt>
      <trkpt lat="45.43329" lon="4.35375">
        <ele>587</ele>
        <time>2022-05-01T15:06:29Z</time>
      </trkpt>
      <trkpt lat="45.43347" lon="4.35441">
        <ele>591</ele>
        <time>2022-05-01T15:06:38Z</time>
      </trkpt>
      <trkpt lat="45.43383" lon="4.35528">
        <ele>597</ele>
        <time>2022-05-01T15:06:51Z</time>
      </trkpt>
      <trkpt lat="45.43415" lon="4.35541">
        <ele>593</ele>
        <time>2022-05-01T15:06:57Z</time>
      </trkpt>
      <trkpt lat="45.43478" lon="4.35655">
        <ele>602</ele>
        <time>2022-05-01T15:07:15Z</time>
      </trkpt>
      <trkpt lat="45.43565" lon="4.3564">
        <ele>593</ele>
        <time>2022-05-01T15:07:31Z</time>
      </trkpt>
      <trkpt lat="45.43641" lon="4.35714">
        <ele>597</ele>
        <time>2022-05-01T15:07:47Z</time>
      </trkpt>
      <trkpt lat="45.43706" lon="4.35796">
        <ele>599</ele>
        <time>2022-05-01T15:08:02Z</time>
      </trkpt>
      <trkpt lat="45.43722" lon="4.35904">
        <ele>603</ele>
        <time>2022-05-01T15:08:16Z</time>
      </trkpt>
      <trkpt lat="45.43671" lon="4.36024">
        <ele>601</ele>
        <time>2022-05-01T15:08:34Z</time>
      </trkpt>
      <trkpt lat="45.43616" lon="4.36074">
        <ele>597</ele>
        <time>2022-05-01T15:08:45Z</time>
      </trkpt>
      <trkpt lat="45.43573" lon="4.36124">
        <ele>596</ele>
        <time>2022-05-01T15:08:55Z</time>
      </trkpt>
      <trkpt lat="45.43617" lon="4.3626">
        <ele>597</ele>
        <time>2022-05-01T15:09:14Z</time>
      </trkpt>
      <trkpt lat="45.43614" lon="4.36429">
        <ele>598</ele>
        <time>2022-05-01T15:09:35Z</time>
      </trkpt>
      <trkpt lat="45.43801" lon="4.36554">
        <ele>600</ele>
        <time>2022-05-01T15:10:12Z</time>
      </trkpt>
      <trkpt lat="45.43828" lon="4.36678">
        <ele>602</ele>
        <time>2022-05-01T15:10:28Z</time>
      </trkpt>
      <trkpt lat="45.43891" lon="4.36778">
        <ele>599</ele>
        <time>2022-05-01T15:10:45Z</time>
      </trkpt>
      <trkpt lat="45.44072" lon="4.3696">
        <ele>578</ele>
        <time>2022-05-01T15:11:24Z</time>
      </trkpt>
      <trkpt lat="45.44096" lon="4.3702">
        <ele>572</ele>
        <time>2022-05-01T15:11:33Z</time>
      </trkpt>
      <trkpt lat="45.44092" lon="4.37181">
        <ele>571</ele>
        <time>2022-05-01T15:11:53Z</time>
      </trkpt>
      <trkpt lat="45.44098" lon="4.37385">
        <ele>566</ele>
        <time>2022-05-01T15:12:18Z</time>
      </trkpt>
      <trkpt lat="45.44042" lon="4.37548">
        <ele>549</ele>
        <time>2022-05-01T15:12:41Z</time>
      </trkpt>
      <trkpt lat="45.43933" lon="4.37587">
        <ele>542</ele>
        <time>2022-05-01T15:13:01Z</time>
      </trkpt>
      <trkpt lat="45.43897" lon="4.37658">
        <ele>535</ele>
        <time>2022-05-01T15:13:12Z</time>
      </trkpt>
      <trkpt lat="45.43892" lon="4.37776">
        <ele>529</ele>
        <time>2022-05-01T15:13:27Z</time>
      </trkpt>
      <trkpt lat="45.4385" lon="4.37842">
        <ele>528</ele>
        <time>2022-05-01T15:13:38Z</time>
      </trkpt>
      <trkpt lat="45.43853" lon="4.37975">
        <ele>531</ele>
        <time>2022-05-01T15:13:54Z</time>
      </trkpt>
      <trkpt lat="45.43891" lon="4.38288">
        <ele>532</ele>
        <time>2022-05-01T15:14:34Z</time>
      </trkpt>
      <trkpt lat="45.43778" lon="4.38322">
        <ele>533</ele>
        <time>2022-05-01T15:14:55Z</time>
      </trkpt>
      <trkpt lat="45.43776" lon="4.38308">
        <ele>533</ele>
        <time>2022-05-01T15:14:56Z</time>
      </trkpt>
      <trkpt lat="45.43678" lon="4.38333">
        <ele>536</ele>
        <time>2022-05-01T15:15:14Z</time>
      </trkpt>
      <trkpt lat="45.43698" lon="4.38448">
        <ele>534</ele>
        <time>2022-05-01T15:15:29Z</time>
      </trkpt>
      <trkpt lat="45.43718" lon="4.38518">
        <ele>533</ele>
        <time>2022-05-01T15:15:38Z</time>
      </trkpt>
      <trkpt lat="45.43775" lon="4.38755">
        <ele>530</ele>
        <time>2022-05-01T15:16:10Z</time>
      </trkpt>
      <trkpt lat="45.43793" lon="4.38888">
        <ele>527</ele>
        <time>2022-05-01T15:16:27Z</time>
      </trkpt>
      <trkpt lat="45.43856" lon="4.3887">
        <ele>526</ele>
        <time>2022-05-01T15:16:38Z</time>
      </trkpt>
      <trkpt lat="45.43847" lon="4.38812">
        <ele>525</ele>
        <time>2022-05-01T15:16:45Z</time>
      </trkpt>
      <trkpt lat="45.43852" lon="4.38808">
        <ele>525</ele>
        <time>2022-05-01T15:16:46Z</time>
      </trkpt>
      <trkpt lat="45.44147" lon="4.3873">
        <ele>518</ele>
        <time>2022-05-01T15:17:40Z</time>
      </trkpt>
      <trkpt lat="45.44721" lon="4.38564">
        <ele>507</ele>
        <time>2022-05-01T15:19:24Z</time>
      </trkpt>
      <trkpt lat="45.44744" lon="4.38647">
        <ele>507</ele>
        <time>2022-05-01T15:19:35Z</time>
      </trkpt>
      <trkpt lat="45.44837" lon="4.38953">
        <ele>501</ele>
        <time>2022-05-01T15:20:17Z</time>
      </trkpt>
      <trkpt lat="45.44864" lon="4.39049">
        <ele>499</ele>
        <time>2022-05-01T15:20:30Z</time>
      </trkpt>
      <trkpt lat="45.44871" lon="4.39089">
        <ele>497</ele>
        <time>2022-05-01T15:20:35Z</time>
      </trkpt>
      <trkpt lat="45.44879" lon="4.39111">
        <ele>496</ele>
        <time>2022-05-01T15:20:38Z</time>
      </trkpt>
      <trkpt lat="45.44884" lon="4.39116">
        <ele>496</ele>
        <time>2022-05-01T15:20:39Z</time>
      </trkpt>
      <trkpt lat="45.44891" lon="4.39114">
        <ele>496</ele>
        <time>2022-05-01T15:20:40Z</time>
      </trkpt>
      <trkpt lat="45.44948" lon="4.39056">
        <ele>497</ele>
        <time>2022-05-01T15:20:53Z</time>
      </trkpt>
      <trkpt lat="45.44978" lon="4.3903">
        <ele>498</ele>
        <time>2022-05-01T15:20:59Z</time>
      </trkpt>
      <trkpt lat="45.45033" lon="4.38991">
        <ele>499</ele>
        <time>2022-05-01T15:21:10Z</time>
      </trkpt>
      <trkpt lat="45.45545" lon="4.38755">
        <ele>497</ele>
        <time>2022-05-01T15:22:46Z</time>
      </trkpt>
      <trkpt lat="45.45558" lon="4.3878">
        <ele>496</ele>
        <time>2022-05-01T15:22:50Z</time>
      </trkpt>
      <trkpt lat="45.45802" lon="4.38868">
        <ele>493</ele>
        <time>2022-05-01T15:23:34Z</time>
      </trkpt>
      <trkpt lat="45.45814" lon="4.38877">
        <ele>493</ele>
        <time>2022-05-01T15:23:37Z</time>
      </trkpt>
      <trkpt lat="45.45948" lon="4.38874">
        <ele>491</ele>
        <time>2022-05-01T15:24:01Z</time>
      </trkpt>
      <trkpt lat="45.4597" lon="4.3887">
        <ele>491</ele>
        <time>2022-05-01T15:24:05Z</time>
      </trkpt>
      <trkpt lat="45.45992" lon="4.38861">
        <ele>490</ele>
        <time>2022-05-01T15:24:09Z</time>
      </trkpt>
    </trkseg>
  </trk>
</gpx>